<?xml version="1.0" encoding="UTF-8" standalone="no" ?>
<gpx xmlns="http://www.topografix.com/GPX/1/1" xmlns:xsi="http://www.w3.org/2001/XMLSchema-instance" xsi:schemaLocation="http://www.topografix.com/GPX/1/1 http://www.topografix.com/GPX/1/1/gpx.xsd" version="1.1" creator="VisuGPX - https://www.visugpx.com">
  <metadata>
    <name>Pornichet 10/06/2021</name>
    <desc><![CDATA[Sortie VTT du jeudi 10 juin 2021]]></desc>
  </metadata>
  <trk>
    <name><![CDATA[Pornichet Cyclisme]]></name>
    <trkseg>
      <trkpt lat="47.26406" lon="-2.31595">
        <ele>6.5999999046326</ele>
        <time>2021-06-10T06:50:53.000Z</time>
      </trkpt>
      <trkpt lat="47.26405" lon="-2.31601">
        <ele>6.8000001907349</ele>
        <time>2021-06-10T06:50:54.000Z</time>
      </trkpt>
      <trkpt lat="47.26404" lon="-2.31606">
        <ele>6.8000001907349</ele>
        <time>2021-06-10T06:50:55.000Z</time>
      </trkpt>
      <trkpt lat="47.26404" lon="-2.31612">
        <ele>6.8000001907349</ele>
        <time>2021-06-10T06:50:56.000Z</time>
      </trkpt>
      <trkpt lat="47.26403" lon="-2.31617">
        <ele>6.8000001907349</ele>
        <time>2021-06-10T06:50:57.000Z</time>
      </trkpt>
      <trkpt lat="47.26403" lon="-2.31623">
        <ele>0.80000001192093</ele>
        <time>2021-06-10T06:50:58.000Z</time>
      </trkpt>
      <trkpt lat="47.26403" lon="-2.31629">
        <ele>1.6000000238419</ele>
        <time>2021-06-10T06:50:59.000Z</time>
      </trkpt>
      <trkpt lat="47.26403" lon="-2.31635">
        <ele>1.6000000238419</ele>
        <time>2021-06-10T06:51:00.000Z</time>
      </trkpt>
      <trkpt lat="47.26405" lon="-2.31649">
        <ele>1.6000000238419</ele>
        <time>2021-06-10T06:51:02.000Z</time>
      </trkpt>
      <trkpt lat="47.26405" lon="-2.31669">
        <ele>1.6000000238419</ele>
        <time>2021-06-10T06:51:06.000Z</time>
      </trkpt>
      <trkpt lat="47.26392" lon="-2.31685">
        <ele>1.6000000238419</ele>
        <time>2021-06-10T06:51:11.000Z</time>
      </trkpt>
      <trkpt lat="47.26383" lon="-2.31694">
        <ele>1.6000000238419</ele>
        <time>2021-06-10T06:51:13.000Z</time>
      </trkpt>
      <trkpt lat="47.26365" lon="-2.31704">
        <ele>1.6000000238419</ele>
        <time>2021-06-10T06:51:16.000Z</time>
      </trkpt>
      <trkpt lat="47.26323" lon="-2.31717">
        <ele>5.3</ele>
        <time>2021-06-10T06:51:21.000Z</time>
      </trkpt>
      <trkpt lat="47.26318" lon="-2.31719">
        <ele>-0.80000001192093</ele>
        <time>2021-06-10T06:51:23.000Z</time>
      </trkpt>
      <trkpt lat="47.26313" lon="-2.31722">
        <ele>-1.6000000238419</ele>
        <time>2021-06-10T06:51:24.000Z</time>
      </trkpt>
      <trkpt lat="47.26308" lon="-2.31727">
        <ele>-2.4000000953674</ele>
        <time>2021-06-10T06:51:25.000Z</time>
      </trkpt>
      <trkpt lat="47.26306" lon="-2.31733">
        <ele>-2.4000000953674</ele>
        <time>2021-06-10T06:51:26.000Z</time>
      </trkpt>
      <trkpt lat="47.26307" lon="-2.31758">
        <ele>-2.7999999523163</ele>
        <time>2021-06-10T06:51:30.000Z</time>
      </trkpt>
      <trkpt lat="47.26308" lon="-2.31765">
        <ele>-3.2000000476837</ele>
        <time>2021-06-10T06:51:31.000Z</time>
      </trkpt>
      <trkpt lat="47.26308" lon="-2.31772">
        <ele>-3.5999999046326</ele>
        <time>2021-06-10T06:51:32.000Z</time>
      </trkpt>
      <trkpt lat="47.26308" lon="-2.31778">
        <ele>-4</ele>
        <time>2021-06-10T06:51:33.000Z</time>
      </trkpt>
      <trkpt lat="47.26308" lon="-2.31785">
        <ele>-4.4000000953674</ele>
        <time>2021-06-10T06:51:34.000Z</time>
      </trkpt>
      <trkpt lat="47.26308" lon="-2.31805">
        <ele>-4.4000000953674</ele>
        <time>2021-06-10T06:51:37.000Z</time>
      </trkpt>
      <trkpt lat="47.26306" lon="-2.31827">
        <ele>-4.4000000953674</ele>
        <time>2021-06-10T06:51:40.000Z</time>
      </trkpt>
      <trkpt lat="47.26304" lon="-2.31841">
        <ele>-4.4000000953674</ele>
        <time>2021-06-10T06:51:42.000Z</time>
      </trkpt>
      <trkpt lat="47.26302" lon="-2.31856">
        <ele>-4.4000000953674</ele>
        <time>2021-06-10T06:51:44.000Z</time>
      </trkpt>
      <trkpt lat="47.26301" lon="-2.31878">
        <ele>-4.4000000953674</ele>
        <time>2021-06-10T06:51:47.000Z</time>
      </trkpt>
      <trkpt lat="47.26299" lon="-2.31884">
        <ele>-4.4000000953674</ele>
        <time>2021-06-10T06:51:48.000Z</time>
      </trkpt>
      <trkpt lat="47.26293" lon="-2.31893">
        <ele>-4.4000000953674</ele>
        <time>2021-06-10T06:51:50.000Z</time>
      </trkpt>
      <trkpt lat="47.26286" lon="-2.319">
        <ele>-4.4000000953674</ele>
        <time>2021-06-10T06:51:52.000Z</time>
      </trkpt>
      <trkpt lat="47.26272" lon="-2.31914">
        <ele>-4.4000000953674</ele>
        <time>2021-06-10T06:51:56.000Z</time>
      </trkpt>
      <trkpt lat="47.26259" lon="-2.31935">
        <ele>-4.4000000953674</ele>
        <time>2021-06-10T06:52:02.000Z</time>
      </trkpt>
      <trkpt lat="47.26248" lon="-2.31958">
        <ele>-4.4000000953674</ele>
        <time>2021-06-10T06:52:08.000Z</time>
      </trkpt>
      <trkpt lat="47.26244" lon="-2.31965">
        <ele>-4.4000000953674</ele>
        <time>2021-06-10T06:52:10.000Z</time>
      </trkpt>
      <trkpt lat="47.26238" lon="-2.31968">
        <ele>-4.4000000953674</ele>
        <time>2021-06-10T06:52:12.000Z</time>
      </trkpt>
      <trkpt lat="47.26233" lon="-2.31974">
        <ele>-4.4000000953674</ele>
        <time>2021-06-10T06:52:14.000Z</time>
      </trkpt>
      <trkpt lat="47.26224" lon="-2.31986">
        <ele>-4.4000000953674</ele>
        <time>2021-06-10T06:52:17.000Z</time>
      </trkpt>
      <trkpt lat="47.2621" lon="-2.31999">
        <ele>-4.4000000953674</ele>
        <time>2021-06-10T06:52:22.000Z</time>
      </trkpt>
      <trkpt lat="47.26205" lon="-2.32012">
        <ele>-4.8000001907349</ele>
        <time>2021-06-10T06:52:26.000Z</time>
      </trkpt>
      <trkpt lat="47.26202" lon="-2.32014">
        <ele>-5.1999998092651</ele>
        <time>2021-06-10T06:52:27.000Z</time>
      </trkpt>
      <trkpt lat="47.262" lon="-2.32014">
        <ele>-5.5999999046326</ele>
        <time>2021-06-10T06:52:28.000Z</time>
      </trkpt>
      <trkpt lat="47.26198" lon="-2.32014">
        <ele>-6</ele>
        <time>2021-06-10T06:52:29.000Z</time>
      </trkpt>
      <trkpt lat="47.26196" lon="-2.32013">
        <ele>-6.4000000953674</ele>
        <time>2021-06-10T06:52:30.000Z</time>
      </trkpt>
      <trkpt lat="47.26193" lon="-2.32014">
        <ele>-6.4000000953674</ele>
        <time>2021-06-10T06:52:32.000Z</time>
      </trkpt>
      <trkpt lat="47.26181" lon="-2.32022">
        <ele>-6.4000000953674</ele>
        <time>2021-06-10T06:52:35.000Z</time>
      </trkpt>
      <trkpt lat="47.26169" lon="-2.32033">
        <ele>-6.4000000953674</ele>
        <time>2021-06-10T06:52:38.000Z</time>
      </trkpt>
      <trkpt lat="47.26166" lon="-2.32038">
        <ele>-6.4000000953674</ele>
        <time>2021-06-10T06:52:39.000Z</time>
      </trkpt>
      <trkpt lat="47.26157" lon="-2.32055">
        <ele>-6.4000000953674</ele>
        <time>2021-06-10T06:52:42.000Z</time>
      </trkpt>
      <trkpt lat="47.26151" lon="-2.32073">
        <ele>-6.4000000953674</ele>
        <time>2021-06-10T06:52:45.000Z</time>
      </trkpt>
      <trkpt lat="47.26138" lon="-2.32111">
        <ele>-6.4000000953674</ele>
        <time>2021-06-10T06:52:51.000Z</time>
      </trkpt>
      <trkpt lat="47.26123" lon="-2.32154">
        <ele>-6.4000000953674</ele>
        <time>2021-06-10T06:52:58.000Z</time>
      </trkpt>
      <trkpt lat="47.26101" lon="-2.32203">
        <ele>-6.4000000953674</ele>
        <time>2021-06-10T06:53:06.000Z</time>
      </trkpt>
      <trkpt lat="47.26097" lon="-2.32209">
        <ele>-6.4000000953674</ele>
        <time>2021-06-10T06:53:07.000Z</time>
      </trkpt>
      <trkpt lat="47.26078" lon="-2.32237">
        <ele>-6.4000000953674</ele>
        <time>2021-06-10T06:53:12.000Z</time>
      </trkpt>
      <trkpt lat="47.26052" lon="-2.32266">
        <ele>-6.4000000953674</ele>
        <time>2021-06-10T06:53:18.000Z</time>
      </trkpt>
      <trkpt lat="47.2602" lon="-2.32301">
        <ele>-6.4000000953674</ele>
        <time>2021-06-10T06:53:25.000Z</time>
      </trkpt>
      <trkpt lat="47.25981" lon="-2.3235">
        <ele>-6.4000000953674</ele>
        <time>2021-06-10T06:53:34.000Z</time>
      </trkpt>
      <trkpt lat="47.25947" lon="-2.32394">
        <ele>-6.4000000953674</ele>
        <time>2021-06-10T06:53:42.000Z</time>
      </trkpt>
      <trkpt lat="47.25914" lon="-2.32437">
        <ele>-6.4000000953674</ele>
        <time>2021-06-10T06:53:50.000Z</time>
      </trkpt>
      <trkpt lat="47.25906" lon="-2.32446">
        <ele>-6.4000000953674</ele>
        <time>2021-06-10T06:53:52.000Z</time>
      </trkpt>
      <trkpt lat="47.25899" lon="-2.32458">
        <ele>-6.4000000953674</ele>
        <time>2021-06-10T06:53:55.000Z</time>
      </trkpt>
      <trkpt lat="47.25904" lon="-2.32467">
        <ele>-6.4000000953674</ele>
        <time>2021-06-10T06:53:58.000Z</time>
      </trkpt>
      <trkpt lat="47.25919" lon="-2.32484">
        <ele>-6.4000000953674</ele>
        <time>2021-06-10T06:54:02.000Z</time>
      </trkpt>
      <trkpt lat="47.25933" lon="-2.32522">
        <ele>-6.4000000953674</ele>
        <time>2021-06-10T06:54:08.000Z</time>
      </trkpt>
      <trkpt lat="47.25947" lon="-2.3257">
        <ele>-6.4000000953674</ele>
        <time>2021-06-10T06:54:15.000Z</time>
      </trkpt>
      <trkpt lat="47.25956" lon="-2.32612">
        <ele>-6.4000000953674</ele>
        <time>2021-06-10T06:54:21.000Z</time>
      </trkpt>
      <trkpt lat="47.25959" lon="-2.32634">
        <ele>-6.4000000953674</ele>
        <time>2021-06-10T06:54:24.000Z</time>
      </trkpt>
      <trkpt lat="47.25959" lon="-2.32647">
        <ele>-6.4000000953674</ele>
        <time>2021-06-10T06:54:26.000Z</time>
      </trkpt>
      <trkpt lat="47.2596" lon="-2.32652">
        <ele>-6.4000000953674</ele>
        <time>2021-06-10T06:54:27.000Z</time>
      </trkpt>
      <trkpt lat="47.25967" lon="-2.32655">
        <ele>-6.4000000953674</ele>
        <time>2021-06-10T06:54:29.000Z</time>
      </trkpt>
      <trkpt lat="47.25988" lon="-2.32657">
        <ele>-6.4000000953674</ele>
        <time>2021-06-10T06:54:34.000Z</time>
      </trkpt>
      <trkpt lat="47.25997" lon="-2.32657">
        <ele>-6.4000000953674</ele>
        <time>2021-06-10T06:54:36.000Z</time>
      </trkpt>
      <trkpt lat="47.26014" lon="-2.32654">
        <ele>-6.4000000953674</ele>
        <time>2021-06-10T06:54:40.000Z</time>
      </trkpt>
      <trkpt lat="47.26048" lon="-2.32649">
        <ele>-6.4000000953674</ele>
        <time>2021-06-10T06:54:47.000Z</time>
      </trkpt>
      <trkpt lat="47.26053" lon="-2.32648">
        <ele>-6</ele>
        <time>2021-06-10T06:54:48.000Z</time>
      </trkpt>
      <trkpt lat="47.26057" lon="-2.32647">
        <ele>-5.5999999046326</ele>
        <time>2021-06-10T06:54:49.000Z</time>
      </trkpt>
      <trkpt lat="47.26062" lon="-2.32646">
        <ele>-5.1999998092651</ele>
        <time>2021-06-10T06:54:50.000Z</time>
      </trkpt>
      <trkpt lat="47.26066" lon="-2.32645">
        <ele>-4.8000001907349</ele>
        <time>2021-06-10T06:54:51.000Z</time>
      </trkpt>
      <trkpt lat="47.26071" lon="-2.32644">
        <ele>-4.4000000953674</ele>
        <time>2021-06-10T06:54:52.000Z</time>
      </trkpt>
      <trkpt lat="47.26084" lon="-2.32641">
        <ele>-4.4000000953674</ele>
        <time>2021-06-10T06:54:55.000Z</time>
      </trkpt>
      <trkpt lat="47.26121" lon="-2.32638">
        <ele>-4.4000000953674</ele>
        <time>2021-06-10T06:55:03.000Z</time>
      </trkpt>
      <trkpt lat="47.26139" lon="-2.32641">
        <ele>-4.4000000953674</ele>
        <time>2021-06-10T06:55:07.000Z</time>
      </trkpt>
      <trkpt lat="47.26144" lon="-2.32642">
        <ele>-4.4000000953674</ele>
        <time>2021-06-10T06:55:08.000Z</time>
      </trkpt>
      <trkpt lat="47.26173" lon="-2.32657">
        <ele>-4.4000000953674</ele>
        <time>2021-06-10T06:55:14.000Z</time>
      </trkpt>
      <trkpt lat="47.26204" lon="-2.32684">
        <ele>-4.4000000953674</ele>
        <time>2021-06-10T06:55:21.000Z</time>
      </trkpt>
      <trkpt lat="47.2623" lon="-2.32715">
        <ele>-4.4000000953674</ele>
        <time>2021-06-10T06:55:27.000Z</time>
      </trkpt>
      <trkpt lat="47.2626" lon="-2.32761">
        <ele>-4.4000000953674</ele>
        <time>2021-06-10T06:55:34.000Z</time>
      </trkpt>
      <trkpt lat="47.26279" lon="-2.328">
        <ele>-4.4000000953674</ele>
        <time>2021-06-10T06:55:39.000Z</time>
      </trkpt>
      <trkpt lat="47.26285" lon="-2.32825">
        <ele>-4.4000000953674</ele>
        <time>2021-06-10T06:55:42.000Z</time>
      </trkpt>
      <trkpt lat="47.26288" lon="-2.32842">
        <ele>-4.4000000953674</ele>
        <time>2021-06-10T06:55:44.000Z</time>
      </trkpt>
      <trkpt lat="47.26296" lon="-2.32862">
        <ele>-4.4000000953674</ele>
        <time>2021-06-10T06:55:47.000Z</time>
      </trkpt>
      <trkpt lat="47.26312" lon="-2.3287">
        <ele>-4.4000000953674</ele>
        <time>2021-06-10T06:55:50.000Z</time>
      </trkpt>
      <trkpt lat="47.26316" lon="-2.32875">
        <ele>-4.4000000953674</ele>
        <time>2021-06-10T06:55:51.000Z</time>
      </trkpt>
      <trkpt lat="47.26322" lon="-2.32888">
        <ele>-4.4000000953674</ele>
        <time>2021-06-10T06:55:53.000Z</time>
      </trkpt>
      <trkpt lat="47.26327" lon="-2.32903">
        <ele>-4.4000000953674</ele>
        <time>2021-06-10T06:55:55.000Z</time>
      </trkpt>
      <trkpt lat="47.26337" lon="-2.32934">
        <ele>-4.4000000953674</ele>
        <time>2021-06-10T06:55:59.000Z</time>
      </trkpt>
      <trkpt lat="47.2635" lon="-2.3297">
        <ele>-4.4000000953674</ele>
        <time>2021-06-10T06:56:04.000Z</time>
      </trkpt>
      <trkpt lat="47.26358" lon="-2.32982">
        <ele>-4.4000000953674</ele>
        <time>2021-06-10T06:56:06.000Z</time>
      </trkpt>
      <trkpt lat="47.26365" lon="-2.32994">
        <ele>-4.4000000953674</ele>
        <time>2021-06-10T06:56:08.000Z</time>
      </trkpt>
      <trkpt lat="47.26368" lon="-2.33009">
        <ele>-4.4000000953674</ele>
        <time>2021-06-10T06:56:10.000Z</time>
      </trkpt>
      <trkpt lat="47.26368" lon="-2.33025">
        <ele>-4.4000000953674</ele>
        <time>2021-06-10T06:56:12.000Z</time>
      </trkpt>
      <trkpt lat="47.26369" lon="-2.33041">
        <ele>-4.8000001907349</ele>
        <time>2021-06-10T06:56:14.000Z</time>
      </trkpt>
      <trkpt lat="47.26369" lon="-2.33049">
        <ele>-5.1999998092651</ele>
        <time>2021-06-10T06:56:15.000Z</time>
      </trkpt>
      <trkpt lat="47.26369" lon="-2.33057">
        <ele>-5.5999999046326</ele>
        <time>2021-06-10T06:56:16.000Z</time>
      </trkpt>
      <trkpt lat="47.26369" lon="-2.33066">
        <ele>-6</ele>
        <time>2021-06-10T06:56:17.000Z</time>
      </trkpt>
      <trkpt lat="47.2637" lon="-2.33074">
        <ele>-6.4000000953674</ele>
        <time>2021-06-10T06:56:18.000Z</time>
      </trkpt>
      <trkpt lat="47.26372" lon="-2.33121">
        <ele>-6.4000000953674</ele>
        <time>2021-06-10T06:56:24.000Z</time>
      </trkpt>
      <trkpt lat="47.26375" lon="-2.33185">
        <ele>-6.4000000953674</ele>
        <time>2021-06-10T06:56:32.000Z</time>
      </trkpt>
      <trkpt lat="47.2638" lon="-2.33249">
        <ele>-6.4000000953674</ele>
        <time>2021-06-10T06:56:40.000Z</time>
      </trkpt>
      <trkpt lat="47.26391" lon="-2.33266">
        <ele>-6.4000000953674</ele>
        <time>2021-06-10T06:56:43.000Z</time>
      </trkpt>
      <trkpt lat="47.26408" lon="-2.33269">
        <ele>-6.4000000953674</ele>
        <time>2021-06-10T06:56:46.000Z</time>
      </trkpt>
      <trkpt lat="47.26414" lon="-2.3327">
        <ele>-6.4000000953674</ele>
        <time>2021-06-10T06:56:47.000Z</time>
      </trkpt>
      <trkpt lat="47.2646" lon="-2.33274">
        <ele>-6.4000000953674</ele>
        <time>2021-06-10T06:56:56.000Z</time>
      </trkpt>
      <trkpt lat="47.26491" lon="-2.33279">
        <ele>-6.4000000953674</ele>
        <time>2021-06-10T06:57:03.000Z</time>
      </trkpt>
      <trkpt lat="47.26495" lon="-2.3328">
        <ele>-6.4000000953674</ele>
        <time>2021-06-10T06:57:04.000Z</time>
      </trkpt>
      <trkpt lat="47.26504" lon="-2.33282">
        <ele>-6.4000000953674</ele>
        <time>2021-06-10T06:57:07.000Z</time>
      </trkpt>
      <trkpt lat="47.26506" lon="-2.33284">
        <ele>-6.4000000953674</ele>
        <time>2021-06-10T06:57:09.000Z</time>
      </trkpt>
      <trkpt lat="47.26508" lon="-2.33286">
        <ele>-6.4000000953674</ele>
        <time>2021-06-10T06:57:12.000Z</time>
      </trkpt>
      <trkpt lat="47.26517" lon="-2.3329">
        <ele>-6.4000000953674</ele>
        <time>2021-06-10T06:57:16.000Z</time>
      </trkpt>
      <trkpt lat="47.26525" lon="-2.33289">
        <ele>-6.4000000953674</ele>
        <time>2021-06-10T06:57:18.000Z</time>
      </trkpt>
      <trkpt lat="47.26532" lon="-2.33291">
        <ele>-6.4000000953674</ele>
        <time>2021-06-10T06:57:20.000Z</time>
      </trkpt>
      <trkpt lat="47.26537" lon="-2.33299">
        <ele>-6.4000000953674</ele>
        <time>2021-06-10T06:57:22.000Z</time>
      </trkpt>
      <trkpt lat="47.2654" lon="-2.333">
        <ele>-6.4000000953674</ele>
        <time>2021-06-10T06:57:23.000Z</time>
      </trkpt>
      <trkpt lat="47.26548" lon="-2.33291">
        <ele>-6.4000000953674</ele>
        <time>2021-06-10T06:57:26.000Z</time>
      </trkpt>
      <trkpt lat="47.26569" lon="-2.33269">
        <ele>-6.4000000953674</ele>
        <time>2021-06-10T06:57:32.000Z</time>
      </trkpt>
      <trkpt lat="47.26595" lon="-2.33242">
        <ele>-6.4000000953674</ele>
        <time>2021-06-10T06:57:38.000Z</time>
      </trkpt>
      <trkpt lat="47.26598" lon="-2.33238">
        <ele>-6</ele>
        <time>2021-06-10T06:57:39.000Z</time>
      </trkpt>
      <trkpt lat="47.26602" lon="-2.33233">
        <ele>-5.5999999046326</ele>
        <time>2021-06-10T06:57:40.000Z</time>
      </trkpt>
      <trkpt lat="47.26607" lon="-2.33229">
        <ele>-5.1999998092651</ele>
        <time>2021-06-10T06:57:41.000Z</time>
      </trkpt>
      <trkpt lat="47.26611" lon="-2.33225">
        <ele>-4.8000001907349</ele>
        <time>2021-06-10T06:57:42.000Z</time>
      </trkpt>
      <trkpt lat="47.26615" lon="-2.33221">
        <ele>-4.4000000953674</ele>
        <time>2021-06-10T06:57:43.000Z</time>
      </trkpt>
      <trkpt lat="47.26628" lon="-2.33209">
        <ele>-4.4000000953674</ele>
        <time>2021-06-10T06:57:46.000Z</time>
      </trkpt>
      <trkpt lat="47.26655" lon="-2.33179">
        <ele>-4.4000000953674</ele>
        <time>2021-06-10T06:57:53.000Z</time>
      </trkpt>
      <trkpt lat="47.26684" lon="-2.33151">
        <ele>-4.4000000953674</ele>
        <time>2021-06-10T06:58:00.000Z</time>
      </trkpt>
      <trkpt lat="47.26716" lon="-2.33118">
        <ele>-4.4000000953674</ele>
        <time>2021-06-10T06:58:08.000Z</time>
      </trkpt>
      <trkpt lat="47.26738" lon="-2.33094">
        <ele>-4.4000000953674</ele>
        <time>2021-06-10T06:58:14.000Z</time>
      </trkpt>
      <trkpt lat="47.26751" lon="-2.33088">
        <ele>-4.4000000953674</ele>
        <time>2021-06-10T06:58:18.000Z</time>
      </trkpt>
      <trkpt lat="47.26761" lon="-2.33105">
        <ele>-4.4000000953674</ele>
        <time>2021-06-10T06:58:21.000Z</time>
      </trkpt>
      <trkpt lat="47.26763" lon="-2.33127">
        <ele>-4.4000000953674</ele>
        <time>2021-06-10T06:58:24.000Z</time>
      </trkpt>
      <trkpt lat="47.26758" lon="-2.3315">
        <ele>-4.4000000953674</ele>
        <time>2021-06-10T06:58:27.000Z</time>
      </trkpt>
      <trkpt lat="47.26756" lon="-2.33157">
        <ele>-4.4000000953674</ele>
        <time>2021-06-10T06:58:28.000Z</time>
      </trkpt>
      <trkpt lat="47.26741" lon="-2.33213">
        <ele>-4.4000000953674</ele>
        <time>2021-06-10T06:58:36.000Z</time>
      </trkpt>
      <trkpt lat="47.26729" lon="-2.33256">
        <ele>-4.4000000953674</ele>
        <time>2021-06-10T06:58:42.000Z</time>
      </trkpt>
      <trkpt lat="47.26727" lon="-2.3327">
        <ele>-4.4000000953674</ele>
        <time>2021-06-10T06:58:44.000Z</time>
      </trkpt>
      <trkpt lat="47.26727" lon="-2.33291">
        <ele>-4.4000000953674</ele>
        <time>2021-06-10T06:58:47.000Z</time>
      </trkpt>
      <trkpt lat="47.26738" lon="-2.33332">
        <ele>-4.4000000953674</ele>
        <time>2021-06-10T06:58:52.000Z</time>
      </trkpt>
      <trkpt lat="47.26746" lon="-2.33384">
        <ele>-4.4000000953674</ele>
        <time>2021-06-10T06:58:58.000Z</time>
      </trkpt>
      <trkpt lat="47.26755" lon="-2.33445">
        <ele>-4.4000000953674</ele>
        <time>2021-06-10T06:59:05.000Z</time>
      </trkpt>
      <trkpt lat="47.2677" lon="-2.33526">
        <ele>-4.4000000953674</ele>
        <time>2021-06-10T06:59:15.000Z</time>
      </trkpt>
      <trkpt lat="47.26781" lon="-2.33568">
        <ele>-4.4000000953674</ele>
        <time>2021-06-10T06:59:21.000Z</time>
      </trkpt>
      <trkpt lat="47.26796" lon="-2.33566">
        <ele>-4.4000000953674</ele>
        <time>2021-06-10T06:59:24.000Z</time>
      </trkpt>
      <trkpt lat="47.26801" lon="-2.33563">
        <ele>-4.4000000953674</ele>
        <time>2021-06-10T06:59:25.000Z</time>
      </trkpt>
      <trkpt lat="47.26829" lon="-2.33548">
        <ele>-4.4000000953674</ele>
        <time>2021-06-10T06:59:31.000Z</time>
      </trkpt>
      <trkpt lat="47.2685" lon="-2.3354">
        <ele>-4.4000000953674</ele>
        <time>2021-06-10T06:59:35.000Z</time>
      </trkpt>
      <trkpt lat="47.26855" lon="-2.33538">
        <ele>-4.4000000953674</ele>
        <time>2021-06-10T06:59:36.000Z</time>
      </trkpt>
      <trkpt lat="47.26871" lon="-2.33534">
        <ele>-4.4000000953674</ele>
        <time>2021-06-10T06:59:39.000Z</time>
      </trkpt>
      <trkpt lat="47.26881" lon="-2.33535">
        <ele>-4.4000000953674</ele>
        <time>2021-06-10T06:59:41.000Z</time>
      </trkpt>
      <trkpt lat="47.26885" lon="-2.33537">
        <ele>-4.4000000953674</ele>
        <time>2021-06-10T06:59:42.000Z</time>
      </trkpt>
      <trkpt lat="47.26895" lon="-2.33551">
        <ele>-4.4000000953674</ele>
        <time>2021-06-10T06:59:45.000Z</time>
      </trkpt>
      <trkpt lat="47.26898" lon="-2.33556">
        <ele>-4.4000000953674</ele>
        <time>2021-06-10T06:59:46.000Z</time>
      </trkpt>
      <trkpt lat="47.26912" lon="-2.33593">
        <ele>-3.7999999523163</ele>
        <time>2021-06-10T06:59:52.000Z</time>
      </trkpt>
      <trkpt lat="47.26914" lon="-2.33599">
        <ele>-3.4000000953674</ele>
        <time>2021-06-10T06:59:53.000Z</time>
      </trkpt>
      <trkpt lat="47.26917" lon="-2.33605">
        <ele>-3</ele>
        <time>2021-06-10T06:59:54.000Z</time>
      </trkpt>
      <trkpt lat="47.26919" lon="-2.3361">
        <ele>-2.5999999046326</ele>
        <time>2021-06-10T06:59:55.000Z</time>
      </trkpt>
      <trkpt lat="47.26922" lon="-2.33617">
        <ele>-2.2000000476837</ele>
        <time>2021-06-10T06:59:56.000Z</time>
      </trkpt>
      <trkpt lat="47.26925" lon="-2.33628">
        <ele>-2.2000000476837</ele>
        <time>2021-06-10T06:59:58.000Z</time>
      </trkpt>
      <trkpt lat="47.26926" lon="-2.33635">
        <ele>-2.2000000476837</ele>
        <time>2021-06-10T06:59:59.000Z</time>
      </trkpt>
      <trkpt lat="47.2693" lon="-2.33662">
        <ele>-2.2000000476837</ele>
        <time>2021-06-10T07:00:03.000Z</time>
      </trkpt>
      <trkpt lat="47.26931" lon="-2.33669">
        <ele>-2.2000000476837</ele>
        <time>2021-06-10T07:00:04.000Z</time>
      </trkpt>
      <trkpt lat="47.26938" lon="-2.33709">
        <ele>-2.2000000476837</ele>
        <time>2021-06-10T07:00:10.000Z</time>
      </trkpt>
      <trkpt lat="47.26938" lon="-2.33716">
        <ele>-1.7999999523163</ele>
        <time>2021-06-10T07:00:11.000Z</time>
      </trkpt>
      <trkpt lat="47.26938" lon="-2.33723">
        <ele>-1.3999999761581</ele>
        <time>2021-06-10T07:00:12.000Z</time>
      </trkpt>
      <trkpt lat="47.26937" lon="-2.3373">
        <ele>-1</ele>
        <time>2021-06-10T07:00:13.000Z</time>
      </trkpt>
      <trkpt lat="47.26936" lon="-2.33737">
        <ele>-0.60000002384186</ele>
        <time>2021-06-10T07:00:14.000Z</time>
      </trkpt>
      <trkpt lat="47.26935" lon="-2.33744">
        <ele>-0.20000000298023</ele>
        <time>2021-06-10T07:00:15.000Z</time>
      </trkpt>
      <trkpt lat="47.26929" lon="-2.33775">
        <ele>-0.20000000298023</ele>
        <time>2021-06-10T07:00:19.000Z</time>
      </trkpt>
      <trkpt lat="47.26929" lon="-2.33791">
        <ele>-0.20000000298023</ele>
        <time>2021-06-10T07:00:21.000Z</time>
      </trkpt>
      <trkpt lat="47.26936" lon="-2.33811">
        <ele>-0.20000000298023</ele>
        <time>2021-06-10T07:00:24.000Z</time>
      </trkpt>
      <trkpt lat="47.26949" lon="-2.33822">
        <ele>-0.20000000298023</ele>
        <time>2021-06-10T07:00:27.000Z</time>
      </trkpt>
      <trkpt lat="47.26953" lon="-2.33825">
        <ele>-0.20000000298023</ele>
        <time>2021-06-10T07:00:28.000Z</time>
      </trkpt>
      <trkpt lat="47.26962" lon="-2.33832">
        <ele>-0.20000000298023</ele>
        <time>2021-06-10T07:00:30.000Z</time>
      </trkpt>
      <trkpt lat="47.26975" lon="-2.33838">
        <ele>-0.20000000298023</ele>
        <time>2021-06-10T07:00:33.000Z</time>
      </trkpt>
      <trkpt lat="47.26979" lon="-2.33841">
        <ele>-0.20000000298023</ele>
        <time>2021-06-10T07:00:34.000Z</time>
      </trkpt>
      <trkpt lat="47.26986" lon="-2.33845">
        <ele>0.20000000298023</ele>
        <time>2021-06-10T07:00:36.000Z</time>
      </trkpt>
      <trkpt lat="47.2699" lon="-2.33847">
        <ele>0.60000002384186</ele>
        <time>2021-06-10T07:00:37.000Z</time>
      </trkpt>
      <trkpt lat="47.26993" lon="-2.33849">
        <ele>1.2000000476837</ele>
        <time>2021-06-10T07:00:38.000Z</time>
      </trkpt>
      <trkpt lat="47.26997" lon="-2.33851">
        <ele>1.6000000238419</ele>
        <time>2021-06-10T07:00:39.000Z</time>
      </trkpt>
      <trkpt lat="47.27" lon="-2.33853">
        <ele>2</ele>
        <time>2021-06-10T07:00:40.000Z</time>
      </trkpt>
      <trkpt lat="47.27003" lon="-2.33855">
        <ele>2</ele>
        <time>2021-06-10T07:00:41.000Z</time>
      </trkpt>
      <trkpt lat="47.27019" lon="-2.33866">
        <ele>2.4000000953674</ele>
        <time>2021-06-10T07:00:46.000Z</time>
      </trkpt>
      <trkpt lat="47.27022" lon="-2.33868">
        <ele>2.7999999523163</ele>
        <time>2021-06-10T07:00:47.000Z</time>
      </trkpt>
      <trkpt lat="47.27025" lon="-2.3387">
        <ele>3.2000000476837</ele>
        <time>2021-06-10T07:00:48.000Z</time>
      </trkpt>
      <trkpt lat="47.27029" lon="-2.33873">
        <ele>3.5999999046326</ele>
        <time>2021-06-10T07:00:49.000Z</time>
      </trkpt>
      <trkpt lat="47.27032" lon="-2.33876">
        <ele>4</ele>
        <time>2021-06-10T07:00:50.000Z</time>
      </trkpt>
      <trkpt lat="47.27046" lon="-2.33887">
        <ele>4</ele>
        <time>2021-06-10T07:00:54.000Z</time>
      </trkpt>
      <trkpt lat="47.27064" lon="-2.33904">
        <ele>4.5999999046326</ele>
        <time>2021-06-10T07:00:59.000Z</time>
      </trkpt>
      <trkpt lat="47.27066" lon="-2.33907">
        <ele>5</ele>
        <time>2021-06-10T07:01:00.000Z</time>
      </trkpt>
      <trkpt lat="47.2707" lon="-2.3391">
        <ele>5.4000000953674</ele>
        <time>2021-06-10T07:01:01.000Z</time>
      </trkpt>
      <trkpt lat="47.27073" lon="-2.33912">
        <ele>5.8000001907349</ele>
        <time>2021-06-10T07:01:02.000Z</time>
      </trkpt>
      <trkpt lat="47.27076" lon="-2.33915">
        <ele>6.1999998092651</ele>
        <time>2021-06-10T07:01:03.000Z</time>
      </trkpt>
      <trkpt lat="47.2709" lon="-2.33929">
        <ele>6.5999999046326</ele>
        <time>2021-06-10T07:01:08.000Z</time>
      </trkpt>
      <trkpt lat="47.27093" lon="-2.33932">
        <ele>7</ele>
        <time>2021-06-10T07:01:09.000Z</time>
      </trkpt>
      <trkpt lat="47.27095" lon="-2.33934">
        <ele>7.4000000953674</ele>
        <time>2021-06-10T07:01:10.000Z</time>
      </trkpt>
      <trkpt lat="47.27098" lon="-2.33937">
        <ele>7.8000001907349</ele>
        <time>2021-06-10T07:01:11.000Z</time>
      </trkpt>
      <trkpt lat="47.27101" lon="-2.33939">
        <ele>8.3999996185303</ele>
        <time>2021-06-10T07:01:12.000Z</time>
      </trkpt>
      <trkpt lat="47.27112" lon="-2.33948">
        <ele>8.8000001907349</ele>
        <time>2021-06-10T07:01:16.000Z</time>
      </trkpt>
      <trkpt lat="47.27115" lon="-2.33951">
        <ele>9.1999998092651</ele>
        <time>2021-06-10T07:01:17.000Z</time>
      </trkpt>
      <trkpt lat="47.27119" lon="-2.33953">
        <ele>9.6000003814697</ele>
        <time>2021-06-10T07:01:18.000Z</time>
      </trkpt>
      <trkpt lat="47.27123" lon="-2.33957">
        <ele>10</ele>
        <time>2021-06-10T07:01:19.000Z</time>
      </trkpt>
      <trkpt lat="47.27126" lon="-2.33961">
        <ele>10.39999961853</ele>
        <time>2021-06-10T07:01:20.000Z</time>
      </trkpt>
      <trkpt lat="47.27133" lon="-2.33969">
        <ele>10.39999961853</ele>
        <time>2021-06-10T07:01:22.000Z</time>
      </trkpt>
      <trkpt lat="47.2716" lon="-2.33995">
        <ele>10.39999961853</ele>
        <time>2021-06-10T07:01:30.000Z</time>
      </trkpt>
      <trkpt lat="47.27181" lon="-2.34019">
        <ele>10.800000190735</ele>
        <time>2021-06-10T07:01:36.000Z</time>
      </trkpt>
      <trkpt lat="47.27184" lon="-2.34022">
        <ele>11.199999809265</ele>
        <time>2021-06-10T07:01:37.000Z</time>
      </trkpt>
      <trkpt lat="47.27188" lon="-2.34025">
        <ele>11.60000038147</ele>
        <time>2021-06-10T07:01:38.000Z</time>
      </trkpt>
      <trkpt lat="47.27191" lon="-2.34029">
        <ele>12</ele>
        <time>2021-06-10T07:01:39.000Z</time>
      </trkpt>
      <trkpt lat="47.27195" lon="-2.34032">
        <ele>12.39999961853</ele>
        <time>2021-06-10T07:01:40.000Z</time>
      </trkpt>
      <trkpt lat="47.27218" lon="-2.34052">
        <ele>12.39999961853</ele>
        <time>2021-06-10T07:01:46.000Z</time>
      </trkpt>
      <trkpt lat="47.27236" lon="-2.34052">
        <ele>12.39999961853</ele>
        <time>2021-06-10T07:01:50.000Z</time>
      </trkpt>
      <trkpt lat="47.27244" lon="-2.3405">
        <ele>12.39999961853</ele>
        <time>2021-06-10T07:01:52.000Z</time>
      </trkpt>
      <trkpt lat="47.27261" lon="-2.34053">
        <ele>12.39999961853</ele>
        <time>2021-06-10T07:01:56.000Z</time>
      </trkpt>
      <trkpt lat="47.27277" lon="-2.34072">
        <ele>12.39999961853</ele>
        <time>2021-06-10T07:02:01.000Z</time>
      </trkpt>
      <trkpt lat="47.27276" lon="-2.34093">
        <ele>12.39999961853</ele>
        <time>2021-06-10T07:02:04.000Z</time>
      </trkpt>
      <trkpt lat="47.27277" lon="-2.34099">
        <ele>12.39999961853</ele>
        <time>2021-06-10T07:02:05.000Z</time>
      </trkpt>
      <trkpt lat="47.27279" lon="-2.34107">
        <ele>12.39999961853</ele>
        <time>2021-06-10T07:02:07.000Z</time>
      </trkpt>
      <trkpt lat="47.27275" lon="-2.34114">
        <ele>12.39999961853</ele>
        <time>2021-06-10T07:02:11.000Z</time>
      </trkpt>
      <trkpt lat="47.27274" lon="-2.34105">
        <ele>12.39999961853</ele>
        <time>2021-06-10T07:02:14.000Z</time>
      </trkpt>
      <trkpt lat="47.27284" lon="-2.34104">
        <ele>12.39999961853</ele>
        <time>2021-06-10T07:02:17.000Z</time>
      </trkpt>
      <trkpt lat="47.27296" lon="-2.34105">
        <ele>12.39999961853</ele>
        <time>2021-06-10T07:02:20.000Z</time>
      </trkpt>
      <trkpt lat="47.273" lon="-2.34104">
        <ele>12.39999961853</ele>
        <time>2021-06-10T07:02:21.000Z</time>
      </trkpt>
      <trkpt lat="47.27304" lon="-2.34104">
        <ele>12.39999961853</ele>
        <time>2021-06-10T07:02:22.000Z</time>
      </trkpt>
      <trkpt lat="47.27309" lon="-2.34103">
        <ele>12.800000190735</ele>
        <time>2021-06-10T07:02:23.000Z</time>
      </trkpt>
      <trkpt lat="47.27313" lon="-2.34102">
        <ele>13.199999809265</ele>
        <time>2021-06-10T07:02:24.000Z</time>
      </trkpt>
      <trkpt lat="47.27317" lon="-2.34101">
        <ele>13.60000038147</ele>
        <time>2021-06-10T07:02:25.000Z</time>
      </trkpt>
      <trkpt lat="47.27321" lon="-2.34101">
        <ele>14.199999809265</ele>
        <time>2021-06-10T07:02:26.000Z</time>
      </trkpt>
      <trkpt lat="47.27325" lon="-2.341">
        <ele>14.60000038147</ele>
        <time>2021-06-10T07:02:27.000Z</time>
      </trkpt>
      <trkpt lat="47.27333" lon="-2.34098">
        <ele>14.60000038147</ele>
        <time>2021-06-10T07:02:29.000Z</time>
      </trkpt>
      <trkpt lat="47.27338" lon="-2.34096">
        <ele>14.60000038147</ele>
        <time>2021-06-10T07:02:30.000Z</time>
      </trkpt>
      <trkpt lat="47.27342" lon="-2.34095">
        <ele>14.60000038147</ele>
        <time>2021-06-10T07:02:31.000Z</time>
      </trkpt>
      <trkpt lat="47.27365" lon="-2.34093">
        <ele>14.60000038147</ele>
        <time>2021-06-10T07:02:36.000Z</time>
      </trkpt>
      <trkpt lat="47.27398" lon="-2.34098">
        <ele>14.60000038147</ele>
        <time>2021-06-10T07:02:44.000Z</time>
      </trkpt>
      <trkpt lat="47.27404" lon="-2.34119">
        <ele>14.60000038147</ele>
        <time>2021-06-10T07:02:48.000Z</time>
      </trkpt>
      <trkpt lat="47.27405" lon="-2.34135">
        <ele>14.60000038147</ele>
        <time>2021-06-10T07:02:50.000Z</time>
      </trkpt>
      <trkpt lat="47.27406" lon="-2.3416">
        <ele>14.60000038147</ele>
        <time>2021-06-10T07:02:53.000Z</time>
      </trkpt>
      <trkpt lat="47.27403" lon="-2.34227">
        <ele>14.60000038147</ele>
        <time>2021-06-10T07:03:01.000Z</time>
      </trkpt>
      <trkpt lat="47.27408" lon="-2.34235">
        <ele>14.60000038147</ele>
        <time>2021-06-10T07:03:04.000Z</time>
      </trkpt>
      <trkpt lat="47.27411" lon="-2.34233">
        <ele>14.199999809265</ele>
        <time>2021-06-10T07:03:06.000Z</time>
      </trkpt>
      <trkpt lat="47.27412" lon="-2.34232">
        <ele>13.800000190735</ele>
        <time>2021-06-10T07:03:07.000Z</time>
      </trkpt>
      <trkpt lat="47.27414" lon="-2.34232">
        <ele>13.39999961853</ele>
        <time>2021-06-10T07:03:08.000Z</time>
      </trkpt>
      <trkpt lat="47.27415" lon="-2.34232">
        <ele>13</ele>
        <time>2021-06-10T07:03:09.000Z</time>
      </trkpt>
      <trkpt lat="47.27416" lon="-2.34234">
        <ele>12.60000038147</ele>
        <time>2021-06-10T07:03:10.000Z</time>
      </trkpt>
      <trkpt lat="47.27415" lon="-2.34243">
        <ele>12.60000038147</ele>
        <time>2021-06-10T07:03:12.000Z</time>
      </trkpt>
      <trkpt lat="47.27415" lon="-2.34272">
        <ele>12.60000038147</ele>
        <time>2021-06-10T07:03:16.000Z</time>
      </trkpt>
      <trkpt lat="47.27415" lon="-2.34279">
        <ele>12.60000038147</ele>
        <time>2021-06-10T07:03:17.000Z</time>
      </trkpt>
      <trkpt lat="47.27416" lon="-2.34295">
        <ele>12.60000038147</ele>
        <time>2021-06-10T07:03:19.000Z</time>
      </trkpt>
      <trkpt lat="47.27415" lon="-2.34327">
        <ele>12.60000038147</ele>
        <time>2021-06-10T07:03:23.000Z</time>
      </trkpt>
      <trkpt lat="47.27418" lon="-2.34381">
        <ele>13</ele>
        <time>2021-06-10T07:03:30.000Z</time>
      </trkpt>
      <trkpt lat="47.27419" lon="-2.34388">
        <ele>13.39999961853</ele>
        <time>2021-06-10T07:03:31.000Z</time>
      </trkpt>
      <trkpt lat="47.2742" lon="-2.34396">
        <ele>13.800000190735</ele>
        <time>2021-06-10T07:03:32.000Z</time>
      </trkpt>
      <trkpt lat="47.27421" lon="-2.34404">
        <ele>14.199999809265</ele>
        <time>2021-06-10T07:03:33.000Z</time>
      </trkpt>
      <trkpt lat="47.27422" lon="-2.34411">
        <ele>14.60000038147</ele>
        <time>2021-06-10T07:03:34.000Z</time>
      </trkpt>
      <trkpt lat="47.27423" lon="-2.34433">
        <ele>14.60000038147</ele>
        <time>2021-06-10T07:03:37.000Z</time>
      </trkpt>
      <trkpt lat="47.27425" lon="-2.34487">
        <ele>14.60000038147</ele>
        <time>2021-06-10T07:03:44.000Z</time>
      </trkpt>
      <trkpt lat="47.27436" lon="-2.34531">
        <ele>15</ele>
        <time>2021-06-10T07:03:50.000Z</time>
      </trkpt>
      <trkpt lat="47.27438" lon="-2.34538">
        <ele>15.39999961853</ele>
        <time>2021-06-10T07:03:51.000Z</time>
      </trkpt>
      <trkpt lat="47.2744" lon="-2.34545">
        <ele>15.800000190735</ele>
        <time>2021-06-10T07:03:52.000Z</time>
      </trkpt>
      <trkpt lat="47.27442" lon="-2.34553">
        <ele>16.200000762939</ele>
        <time>2021-06-10T07:03:53.000Z</time>
      </trkpt>
      <trkpt lat="47.27443" lon="-2.3456">
        <ele>16.60000038147</ele>
        <time>2021-06-10T07:03:54.000Z</time>
      </trkpt>
      <trkpt lat="47.27445" lon="-2.34567">
        <ele>16.60000038147</ele>
        <time>2021-06-10T07:03:55.000Z</time>
      </trkpt>
      <trkpt lat="47.27453" lon="-2.34617">
        <ele>16.60000038147</ele>
        <time>2021-06-10T07:04:01.000Z</time>
      </trkpt>
      <trkpt lat="47.27455" lon="-2.34661">
        <ele>16.60000038147</ele>
        <time>2021-06-10T07:04:07.000Z</time>
      </trkpt>
      <trkpt lat="47.27456" lon="-2.34676">
        <ele>16.60000038147</ele>
        <time>2021-06-10T07:04:12.000Z</time>
      </trkpt>
      <trkpt lat="47.27457" lon="-2.34681">
        <ele>16.60000038147</ele>
        <time>2021-06-10T07:04:14.000Z</time>
      </trkpt>
      <trkpt lat="47.27457" lon="-2.34687">
        <ele>16.60000038147</ele>
        <time>2021-06-10T07:04:16.000Z</time>
      </trkpt>
      <trkpt lat="47.27457" lon="-2.3469">
        <ele>16.60000038147</ele>
        <time>2021-06-10T07:04:20.000Z</time>
      </trkpt>
      <trkpt lat="47.27457" lon="-2.34694">
        <ele>16.60000038147</ele>
        <time>2021-06-10T07:04:22.000Z</time>
      </trkpt>
      <trkpt lat="47.27456" lon="-2.34708">
        <ele>16.60000038147</ele>
        <time>2021-06-10T07:04:25.000Z</time>
      </trkpt>
      <trkpt lat="47.27457" lon="-2.34715">
        <ele>16.60000038147</ele>
        <time>2021-06-10T07:04:26.000Z</time>
      </trkpt>
      <trkpt lat="47.27457" lon="-2.3475">
        <ele>16.60000038147</ele>
        <time>2021-06-10T07:04:30.000Z</time>
      </trkpt>
      <trkpt lat="47.27459" lon="-2.34811">
        <ele>16.60000038147</ele>
        <time>2021-06-10T07:04:36.000Z</time>
      </trkpt>
      <trkpt lat="47.2746" lon="-2.34831">
        <ele>16.200000762939</ele>
        <time>2021-06-10T07:04:38.000Z</time>
      </trkpt>
      <trkpt lat="47.2746" lon="-2.34842">
        <ele>15.800000190735</ele>
        <time>2021-06-10T07:04:39.000Z</time>
      </trkpt>
      <trkpt lat="47.27461" lon="-2.34852">
        <ele>15.39999961853</ele>
        <time>2021-06-10T07:04:40.000Z</time>
      </trkpt>
      <trkpt lat="47.27461" lon="-2.34861">
        <ele>14.800000190735</ele>
        <time>2021-06-10T07:04:41.000Z</time>
      </trkpt>
      <trkpt lat="47.2746" lon="-2.34871">
        <ele>14.39999961853</ele>
        <time>2021-06-10T07:04:42.000Z</time>
      </trkpt>
      <trkpt lat="47.27462" lon="-2.34909">
        <ele>14.39999961853</ele>
        <time>2021-06-10T07:04:46.000Z</time>
      </trkpt>
      <trkpt lat="47.27467" lon="-2.34913">
        <ele>14.39999961853</ele>
        <time>2021-06-10T07:04:47.000Z</time>
      </trkpt>
      <trkpt lat="47.27484" lon="-2.34916">
        <ele>14.39999961853</ele>
        <time>2021-06-10T07:04:50.000Z</time>
      </trkpt>
      <trkpt lat="47.27501" lon="-2.34912">
        <ele>14.39999961853</ele>
        <time>2021-06-10T07:04:53.000Z</time>
      </trkpt>
      <trkpt lat="47.27511" lon="-2.34909">
        <ele>14.39999961853</ele>
        <time>2021-06-10T07:04:55.000Z</time>
      </trkpt>
      <trkpt lat="47.27526" lon="-2.34901">
        <ele>14.39999961853</ele>
        <time>2021-06-10T07:04:58.000Z</time>
      </trkpt>
      <trkpt lat="47.27537" lon="-2.349">
        <ele>14.39999961853</ele>
        <time>2021-06-10T07:05:00.000Z</time>
      </trkpt>
      <trkpt lat="47.2755" lon="-2.34902">
        <ele>14.39999961853</ele>
        <time>2021-06-10T07:05:02.000Z</time>
      </trkpt>
      <trkpt lat="47.27568" lon="-2.34905">
        <ele>14.39999961853</ele>
        <time>2021-06-10T07:05:05.000Z</time>
      </trkpt>
      <trkpt lat="47.27611" lon="-2.34911">
        <ele>14.39999961853</ele>
        <time>2021-06-10T07:05:12.000Z</time>
      </trkpt>
      <trkpt lat="47.27652" lon="-2.34912">
        <ele>14.39999961853</ele>
        <time>2021-06-10T07:05:19.000Z</time>
      </trkpt>
      <trkpt lat="47.27657" lon="-2.3491">
        <ele>14.39999961853</ele>
        <time>2021-06-10T07:05:20.000Z</time>
      </trkpt>
      <trkpt lat="47.27675" lon="-2.34911">
        <ele>14.39999961853</ele>
        <time>2021-06-10T07:05:23.000Z</time>
      </trkpt>
      <trkpt lat="47.27679" lon="-2.34916">
        <ele>14.39999961853</ele>
        <time>2021-06-10T07:05:24.000Z</time>
      </trkpt>
      <trkpt lat="47.27685" lon="-2.34939">
        <ele>14.39999961853</ele>
        <time>2021-06-10T07:05:27.000Z</time>
      </trkpt>
      <trkpt lat="47.27686" lon="-2.34976">
        <ele>14.39999961853</ele>
        <time>2021-06-10T07:05:31.000Z</time>
      </trkpt>
      <trkpt lat="47.27688" lon="-2.35028">
        <ele>14.39999961853</ele>
        <time>2021-06-10T07:05:37.000Z</time>
      </trkpt>
      <trkpt lat="47.27691" lon="-2.35035">
        <ele>14.39999961853</ele>
        <time>2021-06-10T07:05:38.000Z</time>
      </trkpt>
      <trkpt lat="47.27701" lon="-2.35039">
        <ele>14.39999961853</ele>
        <time>2021-06-10T07:05:40.000Z</time>
      </trkpt>
      <trkpt lat="47.27707" lon="-2.35037">
        <ele>14</ele>
        <time>2021-06-10T07:05:41.000Z</time>
      </trkpt>
      <trkpt lat="47.27714" lon="-2.35035">
        <ele>13.60000038147</ele>
        <time>2021-06-10T07:05:42.000Z</time>
      </trkpt>
      <trkpt lat="47.2772" lon="-2.35032">
        <ele>13.199999809265</ele>
        <time>2021-06-10T07:05:43.000Z</time>
      </trkpt>
      <trkpt lat="47.27726" lon="-2.3503">
        <ele>12.800000190735</ele>
        <time>2021-06-10T07:05:44.000Z</time>
      </trkpt>
      <trkpt lat="47.27733" lon="-2.35029">
        <ele>12.39999961853</ele>
        <time>2021-06-10T07:05:45.000Z</time>
      </trkpt>
      <trkpt lat="47.27756" lon="-2.35025">
        <ele>12.39999961853</ele>
        <time>2021-06-10T07:05:49.000Z</time>
      </trkpt>
      <trkpt lat="47.27759" lon="-2.35028">
        <ele>12</ele>
        <time>2021-06-10T07:05:50.000Z</time>
      </trkpt>
      <trkpt lat="47.27761" lon="-2.35033">
        <ele>11.39999961853</ele>
        <time>2021-06-10T07:05:51.000Z</time>
      </trkpt>
      <trkpt lat="47.27763" lon="-2.35041">
        <ele>11</ele>
        <time>2021-06-10T07:05:52.000Z</time>
      </trkpt>
      <trkpt lat="47.27764" lon="-2.3505">
        <ele>10.60000038147</ele>
        <time>2021-06-10T07:05:53.000Z</time>
      </trkpt>
      <trkpt lat="47.27764" lon="-2.35059">
        <ele>10.199999809265</ele>
        <time>2021-06-10T07:05:54.000Z</time>
      </trkpt>
      <trkpt lat="47.27765" lon="-2.35068">
        <ele>10.199999809265</ele>
        <time>2021-06-10T07:05:55.000Z</time>
      </trkpt>
      <trkpt lat="47.27765" lon="-2.35078">
        <ele>10.199999809265</ele>
        <time>2021-06-10T07:05:56.000Z</time>
      </trkpt>
      <trkpt lat="47.27766" lon="-2.35096">
        <ele>10.199999809265</ele>
        <time>2021-06-10T07:05:58.000Z</time>
      </trkpt>
      <trkpt lat="47.27768" lon="-2.35125">
        <ele>10.199999809265</ele>
        <time>2021-06-10T07:06:01.000Z</time>
      </trkpt>
      <trkpt lat="47.27769" lon="-2.35136">
        <ele>10.199999809265</ele>
        <time>2021-06-10T07:06:02.000Z</time>
      </trkpt>
      <trkpt lat="47.27773" lon="-2.35184">
        <ele>10.199999809265</ele>
        <time>2021-06-10T07:06:07.000Z</time>
      </trkpt>
      <trkpt lat="47.27774" lon="-2.35203">
        <ele>9.6000003814697</ele>
        <time>2021-06-10T07:06:09.000Z</time>
      </trkpt>
      <trkpt lat="47.27775" lon="-2.35213">
        <ele>9.1999998092651</ele>
        <time>2021-06-10T07:06:10.000Z</time>
      </trkpt>
      <trkpt lat="47.27776" lon="-2.35222">
        <ele>8.8000001907349</ele>
        <time>2021-06-10T07:06:11.000Z</time>
      </trkpt>
      <trkpt lat="47.27777" lon="-2.35232">
        <ele>8.3999996185303</ele>
        <time>2021-06-10T07:06:12.000Z</time>
      </trkpt>
      <trkpt lat="47.27778" lon="-2.35241">
        <ele>8</ele>
        <time>2021-06-10T07:06:13.000Z</time>
      </trkpt>
      <trkpt lat="47.27781" lon="-2.35259">
        <ele>8</ele>
        <time>2021-06-10T07:06:15.000Z</time>
      </trkpt>
      <trkpt lat="47.27796" lon="-2.3533">
        <ele>8</ele>
        <time>2021-06-10T07:06:23.000Z</time>
      </trkpt>
      <trkpt lat="47.27803" lon="-2.35355">
        <ele>8</ele>
        <time>2021-06-10T07:06:26.000Z</time>
      </trkpt>
      <trkpt lat="47.27814" lon="-2.35364">
        <ele>8</ele>
        <time>2021-06-10T07:06:28.000Z</time>
      </trkpt>
      <trkpt lat="47.27831" lon="-2.35363">
        <ele>8</ele>
        <time>2021-06-10T07:06:31.000Z</time>
      </trkpt>
      <trkpt lat="47.27837" lon="-2.35362">
        <ele>8</ele>
        <time>2021-06-10T07:06:32.000Z</time>
      </trkpt>
      <trkpt lat="47.27868" lon="-2.35361">
        <ele>8</ele>
        <time>2021-06-10T07:06:38.000Z</time>
      </trkpt>
      <trkpt lat="47.27879" lon="-2.35366">
        <ele>8</ele>
        <time>2021-06-10T07:06:40.000Z</time>
      </trkpt>
      <trkpt lat="47.27888" lon="-2.35373">
        <ele>8</ele>
        <time>2021-06-10T07:06:42.000Z</time>
      </trkpt>
      <trkpt lat="47.27916" lon="-2.35411">
        <ele>8</ele>
        <time>2021-06-10T07:06:49.000Z</time>
      </trkpt>
      <trkpt lat="47.2795" lon="-2.35453">
        <ele>8</ele>
        <time>2021-06-10T07:06:57.000Z</time>
      </trkpt>
      <trkpt lat="47.27974" lon="-2.35469">
        <ele>8</ele>
        <time>2021-06-10T07:07:02.000Z</time>
      </trkpt>
      <trkpt lat="47.27979" lon="-2.35474">
        <ele>8</ele>
        <time>2021-06-10T07:07:03.000Z</time>
      </trkpt>
      <trkpt lat="47.27989" lon="-2.35494">
        <ele>8</ele>
        <time>2021-06-10T07:07:06.000Z</time>
      </trkpt>
      <trkpt lat="47.27992" lon="-2.355">
        <ele>8</ele>
        <time>2021-06-10T07:07:07.000Z</time>
      </trkpt>
      <trkpt lat="47.28005" lon="-2.35533">
        <ele>8</ele>
        <time>2021-06-10T07:07:12.000Z</time>
      </trkpt>
      <trkpt lat="47.28006" lon="-2.35544">
        <ele>8</ele>
        <time>2021-06-10T07:07:14.000Z</time>
      </trkpt>
      <trkpt lat="47.28011" lon="-2.35553">
        <ele>8.3999996185303</ele>
        <time>2021-06-10T07:07:17.000Z</time>
      </trkpt>
      <trkpt lat="47.28012" lon="-2.35558">
        <ele>8.8000001907349</ele>
        <time>2021-06-10T07:07:18.000Z</time>
      </trkpt>
      <trkpt lat="47.28012" lon="-2.35562">
        <ele>9.1999998092651</ele>
        <time>2021-06-10T07:07:19.000Z</time>
      </trkpt>
      <trkpt lat="47.28015" lon="-2.35565">
        <ele>9.6000003814697</ele>
        <time>2021-06-10T07:07:20.000Z</time>
      </trkpt>
      <trkpt lat="47.28018" lon="-2.35564">
        <ele>10</ele>
        <time>2021-06-10T07:07:21.000Z</time>
      </trkpt>
      <trkpt lat="47.28033" lon="-2.35568">
        <ele>10</ele>
        <time>2021-06-10T07:07:25.000Z</time>
      </trkpt>
      <trkpt lat="47.28038" lon="-2.3557">
        <ele>10</ele>
        <time>2021-06-10T07:07:26.000Z</time>
      </trkpt>
      <trkpt lat="47.28041" lon="-2.35573">
        <ele>10</ele>
        <time>2021-06-10T07:07:27.000Z</time>
      </trkpt>
      <trkpt lat="47.28055" lon="-2.3558">
        <ele>10</ele>
        <time>2021-06-10T07:07:31.000Z</time>
      </trkpt>
      <trkpt lat="47.28058" lon="-2.35581">
        <ele>10.39999961853</ele>
        <time>2021-06-10T07:07:32.000Z</time>
      </trkpt>
      <trkpt lat="47.28062" lon="-2.35583">
        <ele>10.800000190735</ele>
        <time>2021-06-10T07:07:33.000Z</time>
      </trkpt>
      <trkpt lat="47.28065" lon="-2.35584">
        <ele>11.199999809265</ele>
        <time>2021-06-10T07:07:34.000Z</time>
      </trkpt>
      <trkpt lat="47.28068" lon="-2.35585">
        <ele>11.800000190735</ele>
        <time>2021-06-10T07:07:35.000Z</time>
      </trkpt>
      <trkpt lat="47.28071" lon="-2.35588">
        <ele>12.199999809265</ele>
        <time>2021-06-10T07:07:36.000Z</time>
      </trkpt>
      <trkpt lat="47.28074" lon="-2.35594">
        <ele>12.199999809265</ele>
        <time>2021-06-10T07:07:38.000Z</time>
      </trkpt>
      <trkpt lat="47.28086" lon="-2.3561">
        <ele>12.199999809265</ele>
        <time>2021-06-10T07:07:45.000Z</time>
      </trkpt>
      <trkpt lat="47.28085" lon="-2.3561">
        <ele>12.199999809265</ele>
        <time>2021-06-10T07:07:47.000Z</time>
      </trkpt>
      <trkpt lat="47.28085" lon="-2.35611">
        <ele>12.199999809265</ele>
        <time>2021-06-10T07:09:28.000Z</time>
      </trkpt>
      <trkpt lat="47.28084" lon="-2.35609">
        <ele>12.199999809265</ele>
        <time>2021-06-10T07:09:29.000Z</time>
      </trkpt>
      <trkpt lat="47.28077" lon="-2.35606">
        <ele>12.199999809265</ele>
        <time>2021-06-10T07:09:33.000Z</time>
      </trkpt>
      <trkpt lat="47.28076" lon="-2.35608">
        <ele>12.199999809265</ele>
        <time>2021-06-10T07:09:34.000Z</time>
      </trkpt>
      <trkpt lat="47.28074" lon="-2.35615">
        <ele>12.199999809265</ele>
        <time>2021-06-10T07:09:37.000Z</time>
      </trkpt>
      <trkpt lat="47.28075" lon="-2.35618">
        <ele>12.199999809265</ele>
        <time>2021-06-10T07:09:38.000Z</time>
      </trkpt>
      <trkpt lat="47.28077" lon="-2.35637">
        <ele>12.60000038147</ele>
        <time>2021-06-10T07:09:46.000Z</time>
      </trkpt>
      <trkpt lat="47.28078" lon="-2.35639">
        <ele>13</ele>
        <time>2021-06-10T07:09:47.000Z</time>
      </trkpt>
      <trkpt lat="47.28078" lon="-2.3564">
        <ele>13.39999961853</ele>
        <time>2021-06-10T07:09:48.000Z</time>
      </trkpt>
      <trkpt lat="47.28079" lon="-2.35642">
        <ele>13.800000190735</ele>
        <time>2021-06-10T07:09:49.000Z</time>
      </trkpt>
      <trkpt lat="47.28078" lon="-2.35644">
        <ele>14.199999809265</ele>
        <time>2021-06-10T07:09:50.000Z</time>
      </trkpt>
      <trkpt lat="47.28079" lon="-2.35648">
        <ele>14.199999809265</ele>
        <time>2021-06-10T07:09:52.000Z</time>
      </trkpt>
      <trkpt lat="47.28081" lon="-2.35654">
        <ele>14.60000038147</ele>
        <time>2021-06-10T07:09:54.000Z</time>
      </trkpt>
      <trkpt lat="47.28081" lon="-2.35658">
        <ele>15.39999961853</ele>
        <time>2021-06-10T07:09:55.000Z</time>
      </trkpt>
      <trkpt lat="47.28082" lon="-2.35661">
        <ele>15.800000190735</ele>
        <time>2021-06-10T07:09:56.000Z</time>
      </trkpt>
      <trkpt lat="47.28083" lon="-2.35665">
        <ele>16.200000762939</ele>
        <time>2021-06-10T07:09:57.000Z</time>
      </trkpt>
      <trkpt lat="47.28084" lon="-2.35675">
        <ele>16.200000762939</ele>
        <time>2021-06-10T07:10:00.000Z</time>
      </trkpt>
      <trkpt lat="47.28088" lon="-2.35692">
        <ele>16.799999237061</ele>
        <time>2021-06-10T07:10:06.000Z</time>
      </trkpt>
      <trkpt lat="47.2809" lon="-2.35695">
        <ele>17.200000762939</ele>
        <time>2021-06-10T07:10:07.000Z</time>
      </trkpt>
      <trkpt lat="47.28091" lon="-2.35699">
        <ele>17.60000038147</ele>
        <time>2021-06-10T07:10:08.000Z</time>
      </trkpt>
      <trkpt lat="47.28091" lon="-2.35702">
        <ele>18</ele>
        <time>2021-06-10T07:10:09.000Z</time>
      </trkpt>
      <trkpt lat="47.28091" lon="-2.35705">
        <ele>18.39999961853</ele>
        <time>2021-06-10T07:10:10.000Z</time>
      </trkpt>
      <trkpt lat="47.28089" lon="-2.35715">
        <ele>18.39999961853</ele>
        <time>2021-06-10T07:10:13.000Z</time>
      </trkpt>
      <trkpt lat="47.28082" lon="-2.35742">
        <ele>18.39999961853</ele>
        <time>2021-06-10T07:10:19.000Z</time>
      </trkpt>
      <trkpt lat="47.2808" lon="-2.3577">
        <ele>18.39999961853</ele>
        <time>2021-06-10T07:10:23.000Z</time>
      </trkpt>
      <trkpt lat="47.28075" lon="-2.35789">
        <ele>18</ele>
        <time>2021-06-10T07:10:27.000Z</time>
      </trkpt>
      <trkpt lat="47.28075" lon="-2.35796">
        <ele>17.60000038147</ele>
        <time>2021-06-10T07:10:28.000Z</time>
      </trkpt>
      <trkpt lat="47.28076" lon="-2.35802">
        <ele>17.200000762939</ele>
        <time>2021-06-10T07:10:29.000Z</time>
      </trkpt>
      <trkpt lat="47.28079" lon="-2.35808">
        <ele>16.799999237061</ele>
        <time>2021-06-10T07:10:30.000Z</time>
      </trkpt>
      <trkpt lat="47.28082" lon="-2.35815">
        <ele>16.39999961853</ele>
        <time>2021-06-10T07:10:31.000Z</time>
      </trkpt>
      <trkpt lat="47.28091" lon="-2.35837">
        <ele>16.39999961853</ele>
        <time>2021-06-10T07:10:35.000Z</time>
      </trkpt>
      <trkpt lat="47.28093" lon="-2.3584">
        <ele>16</ele>
        <time>2021-06-10T07:10:36.000Z</time>
      </trkpt>
      <trkpt lat="47.28094" lon="-2.35842">
        <ele>15.60000038147</ele>
        <time>2021-06-10T07:10:37.000Z</time>
      </trkpt>
      <trkpt lat="47.28096" lon="-2.35844">
        <ele>15.199999809265</ele>
        <time>2021-06-10T07:10:38.000Z</time>
      </trkpt>
      <trkpt lat="47.28098" lon="-2.35846">
        <ele>14.800000190735</ele>
        <time>2021-06-10T07:10:39.000Z</time>
      </trkpt>
      <trkpt lat="47.281" lon="-2.35848">
        <ele>14.39999961853</ele>
        <time>2021-06-10T07:10:40.000Z</time>
      </trkpt>
      <trkpt lat="47.28101" lon="-2.35849">
        <ele>14.39999961853</ele>
        <time>2021-06-10T07:10:41.000Z</time>
      </trkpt>
      <trkpt lat="47.28112" lon="-2.35864">
        <ele>14.39999961853</ele>
        <time>2021-06-10T07:10:50.000Z</time>
      </trkpt>
      <trkpt lat="47.28125" lon="-2.3588">
        <ele>14.39999961853</ele>
        <time>2021-06-10T07:10:57.000Z</time>
      </trkpt>
      <trkpt lat="47.28135" lon="-2.35901">
        <ele>14.39999961853</ele>
        <time>2021-06-10T07:11:04.000Z</time>
      </trkpt>
      <trkpt lat="47.28145" lon="-2.35916">
        <ele>14.39999961853</ele>
        <time>2021-06-10T07:11:10.000Z</time>
      </trkpt>
      <trkpt lat="47.28158" lon="-2.35939">
        <ele>14.39999961853</ele>
        <time>2021-06-10T07:11:16.000Z</time>
      </trkpt>
      <trkpt lat="47.28167" lon="-2.35952">
        <ele>14.39999961853</ele>
        <time>2021-06-10T07:11:22.000Z</time>
      </trkpt>
      <trkpt lat="47.28169" lon="-2.35953">
        <ele>14.39999961853</ele>
        <time>2021-06-10T07:11:26.000Z</time>
      </trkpt>
      <trkpt lat="47.28175" lon="-2.35953">
        <ele>14.39999961853</ele>
        <time>2021-06-10T07:11:34.000Z</time>
      </trkpt>
      <trkpt lat="47.28176" lon="-2.35956">
        <ele>14.39999961853</ele>
        <time>2021-06-10T07:11:35.000Z</time>
      </trkpt>
      <trkpt lat="47.28181" lon="-2.35979">
        <ele>14.39999961853</ele>
        <time>2021-06-10T07:11:40.000Z</time>
      </trkpt>
      <trkpt lat="47.28182" lon="-2.35982">
        <ele>14</ele>
        <time>2021-06-10T07:11:41.000Z</time>
      </trkpt>
      <trkpt lat="47.28184" lon="-2.35987">
        <ele>13.60000038147</ele>
        <time>2021-06-10T07:11:42.000Z</time>
      </trkpt>
      <trkpt lat="47.28185" lon="-2.35993">
        <ele>13.199999809265</ele>
        <time>2021-06-10T07:11:43.000Z</time>
      </trkpt>
      <trkpt lat="47.28192" lon="-2.36002">
        <ele>12.800000190735</ele>
        <time>2021-06-10T07:11:44.000Z</time>
      </trkpt>
      <trkpt lat="47.28197" lon="-2.36009">
        <ele>12.39999961853</ele>
        <time>2021-06-10T07:11:45.000Z</time>
      </trkpt>
      <trkpt lat="47.282" lon="-2.36014">
        <ele>12.39999961853</ele>
        <time>2021-06-10T07:11:46.000Z</time>
      </trkpt>
      <trkpt lat="47.2821" lon="-2.36027">
        <ele>12.39999961853</ele>
        <time>2021-06-10T07:11:50.000Z</time>
      </trkpt>
      <trkpt lat="47.28216" lon="-2.3603">
        <ele>12.39999961853</ele>
        <time>2021-06-10T07:11:51.000Z</time>
      </trkpt>
      <trkpt lat="47.28225" lon="-2.36029">
        <ele>12.39999961853</ele>
        <time>2021-06-10T07:11:54.000Z</time>
      </trkpt>
      <trkpt lat="47.28228" lon="-2.36027">
        <ele>12.39999961853</ele>
        <time>2021-06-10T07:11:55.000Z</time>
      </trkpt>
      <trkpt lat="47.28245" lon="-2.36018">
        <ele>12.39999961853</ele>
        <time>2021-06-10T07:12:01.000Z</time>
      </trkpt>
      <trkpt lat="47.28248" lon="-2.36018">
        <ele>12.39999961853</ele>
        <time>2021-06-10T07:12:02.000Z</time>
      </trkpt>
      <trkpt lat="47.2825" lon="-2.36024">
        <ele>12.39999961853</ele>
        <time>2021-06-10T07:12:04.000Z</time>
      </trkpt>
      <trkpt lat="47.2825" lon="-2.3603">
        <ele>12.800000190735</ele>
        <time>2021-06-10T07:12:06.000Z</time>
      </trkpt>
      <trkpt lat="47.28249" lon="-2.36033">
        <ele>13.199999809265</ele>
        <time>2021-06-10T07:12:07.000Z</time>
      </trkpt>
      <trkpt lat="47.28248" lon="-2.36038">
        <ele>13.60000038147</ele>
        <time>2021-06-10T07:12:08.000Z</time>
      </trkpt>
      <trkpt lat="47.28248" lon="-2.36043">
        <ele>14</ele>
        <time>2021-06-10T07:12:09.000Z</time>
      </trkpt>
      <trkpt lat="47.28248" lon="-2.36048">
        <ele>14.39999961853</ele>
        <time>2021-06-10T07:12:10.000Z</time>
      </trkpt>
      <trkpt lat="47.28245" lon="-2.36071">
        <ele>14.39999961853</ele>
        <time>2021-06-10T07:12:16.000Z</time>
      </trkpt>
      <trkpt lat="47.28244" lon="-2.36074">
        <ele>14.800000190735</ele>
        <time>2021-06-10T07:12:17.000Z</time>
      </trkpt>
      <trkpt lat="47.28243" lon="-2.36078">
        <ele>15.199999809265</ele>
        <time>2021-06-10T07:12:18.000Z</time>
      </trkpt>
      <trkpt lat="47.28242" lon="-2.36081">
        <ele>15.60000038147</ele>
        <time>2021-06-10T07:12:19.000Z</time>
      </trkpt>
      <trkpt lat="47.28241" lon="-2.36085">
        <ele>16</ele>
        <time>2021-06-10T07:12:20.000Z</time>
      </trkpt>
      <trkpt lat="47.2824" lon="-2.36089">
        <ele>16.39999961853</ele>
        <time>2021-06-10T07:12:21.000Z</time>
      </trkpt>
      <trkpt lat="47.28239" lon="-2.36098">
        <ele>16.39999961853</ele>
        <time>2021-06-10T07:12:23.000Z</time>
      </trkpt>
      <trkpt lat="47.28241" lon="-2.36106">
        <ele>16.39999961853</ele>
        <time>2021-06-10T07:12:25.000Z</time>
      </trkpt>
      <trkpt lat="47.28247" lon="-2.36117">
        <ele>16.39999961853</ele>
        <time>2021-06-10T07:12:27.000Z</time>
      </trkpt>
      <trkpt lat="47.2825" lon="-2.36123">
        <ele>16.39999961853</ele>
        <time>2021-06-10T07:12:28.000Z</time>
      </trkpt>
      <trkpt lat="47.28261" lon="-2.36148">
        <ele>16.39999961853</ele>
        <time>2021-06-10T07:12:32.000Z</time>
      </trkpt>
      <trkpt lat="47.28267" lon="-2.36176">
        <ele>16.39999961853</ele>
        <time>2021-06-10T07:12:37.000Z</time>
      </trkpt>
      <trkpt lat="47.28271" lon="-2.36207">
        <ele>16.39999961853</ele>
        <time>2021-06-10T07:12:42.000Z</time>
      </trkpt>
      <trkpt lat="47.28271" lon="-2.36211">
        <ele>16</ele>
        <time>2021-06-10T07:12:43.000Z</time>
      </trkpt>
      <trkpt lat="47.28272" lon="-2.36214">
        <ele>15.60000038147</ele>
        <time>2021-06-10T07:12:44.000Z</time>
      </trkpt>
      <trkpt lat="47.28273" lon="-2.36216">
        <ele>15.199999809265</ele>
        <time>2021-06-10T07:12:45.000Z</time>
      </trkpt>
      <trkpt lat="47.28274" lon="-2.36218">
        <ele>14.60000038147</ele>
        <time>2021-06-10T07:12:46.000Z</time>
      </trkpt>
      <trkpt lat="47.28275" lon="-2.36219">
        <ele>14.199999809265</ele>
        <time>2021-06-10T07:12:47.000Z</time>
      </trkpt>
      <trkpt lat="47.2828" lon="-2.36223">
        <ele>14.199999809265</ele>
        <time>2021-06-10T07:12:52.000Z</time>
      </trkpt>
      <trkpt lat="47.28283" lon="-2.36224">
        <ele>14.199999809265</ele>
        <time>2021-06-10T07:12:54.000Z</time>
      </trkpt>
      <trkpt lat="47.28288" lon="-2.36221">
        <ele>14.199999809265</ele>
        <time>2021-06-10T07:12:56.000Z</time>
      </trkpt>
      <trkpt lat="47.28297" lon="-2.36215">
        <ele>14.199999809265</ele>
        <time>2021-06-10T07:13:00.000Z</time>
      </trkpt>
      <trkpt lat="47.28306" lon="-2.36212">
        <ele>14.199999809265</ele>
        <time>2021-06-10T07:13:03.000Z</time>
      </trkpt>
      <trkpt lat="47.28311" lon="-2.36209">
        <ele>14.60000038147</ele>
        <time>2021-06-10T07:13:05.000Z</time>
      </trkpt>
      <trkpt lat="47.28313" lon="-2.36208">
        <ele>15</ele>
        <time>2021-06-10T07:13:06.000Z</time>
      </trkpt>
      <trkpt lat="47.28316" lon="-2.36206">
        <ele>15.39999961853</ele>
        <time>2021-06-10T07:13:07.000Z</time>
      </trkpt>
      <trkpt lat="47.28318" lon="-2.36203">
        <ele>15.800000190735</ele>
        <time>2021-06-10T07:13:08.000Z</time>
      </trkpt>
      <trkpt lat="47.28319" lon="-2.36201">
        <ele>16.200000762939</ele>
        <time>2021-06-10T07:13:09.000Z</time>
      </trkpt>
      <trkpt lat="47.28322" lon="-2.36194">
        <ele>16.200000762939</ele>
        <time>2021-06-10T07:13:13.000Z</time>
      </trkpt>
      <trkpt lat="47.28333" lon="-2.36188">
        <ele>16.60000038147</ele>
        <time>2021-06-10T07:13:20.000Z</time>
      </trkpt>
      <trkpt lat="47.28334" lon="-2.36186">
        <ele>17</ele>
        <time>2021-06-10T07:13:21.000Z</time>
      </trkpt>
      <trkpt lat="47.28335" lon="-2.36185">
        <ele>17.39999961853</ele>
        <time>2021-06-10T07:13:22.000Z</time>
      </trkpt>
      <trkpt lat="47.28336" lon="-2.36183">
        <ele>18</ele>
        <time>2021-06-10T07:13:23.000Z</time>
      </trkpt>
      <trkpt lat="47.28337" lon="-2.36181">
        <ele>18.39999961853</ele>
        <time>2021-06-10T07:13:24.000Z</time>
      </trkpt>
      <trkpt lat="47.28339" lon="-2.3618">
        <ele>18.39999961853</ele>
        <time>2021-06-10T07:13:25.000Z</time>
      </trkpt>
      <trkpt lat="47.28341" lon="-2.36178">
        <ele>18.39999961853</ele>
        <time>2021-06-10T07:13:26.000Z</time>
      </trkpt>
      <trkpt lat="47.28347" lon="-2.36173">
        <ele>18.799999237061</ele>
        <time>2021-06-10T07:13:29.000Z</time>
      </trkpt>
      <trkpt lat="47.28348" lon="-2.36172">
        <ele>19.200000762939</ele>
        <time>2021-06-10T07:13:30.000Z</time>
      </trkpt>
      <trkpt lat="47.28349" lon="-2.36171">
        <ele>19.60000038147</ele>
        <time>2021-06-10T07:13:31.000Z</time>
      </trkpt>
      <trkpt lat="47.2835" lon="-2.36169">
        <ele>20</ele>
        <time>2021-06-10T07:13:32.000Z</time>
      </trkpt>
      <trkpt lat="47.28351" lon="-2.36167">
        <ele>20.39999961853</ele>
        <time>2021-06-10T07:13:33.000Z</time>
      </trkpt>
      <trkpt lat="47.28352" lon="-2.36164">
        <ele>20.799999237061</ele>
        <time>2021-06-10T07:13:35.000Z</time>
      </trkpt>
      <trkpt lat="47.28353" lon="-2.36162">
        <ele>21.200000762939</ele>
        <time>2021-06-10T07:13:36.000Z</time>
      </trkpt>
      <trkpt lat="47.28354" lon="-2.3616">
        <ele>22</ele>
        <time>2021-06-10T07:13:37.000Z</time>
      </trkpt>
      <trkpt lat="47.28355" lon="-2.36159">
        <ele>22.39999961853</ele>
        <time>2021-06-10T07:13:38.000Z</time>
      </trkpt>
      <trkpt lat="47.28357" lon="-2.36159">
        <ele>23</ele>
        <time>2021-06-10T07:13:40.000Z</time>
      </trkpt>
      <trkpt lat="47.28359" lon="-2.36158">
        <ele>23.39999961853</ele>
        <time>2021-06-10T07:13:41.000Z</time>
      </trkpt>
      <trkpt lat="47.2836" lon="-2.36157">
        <ele>23.799999237061</ele>
        <time>2021-06-10T07:13:42.000Z</time>
      </trkpt>
      <trkpt lat="47.28361" lon="-2.36157">
        <ele>24.200000762939</ele>
        <time>2021-06-10T07:13:43.000Z</time>
      </trkpt>
      <trkpt lat="47.28361" lon="-2.36156">
        <ele>24.60000038147</ele>
        <time>2021-06-10T07:13:44.000Z</time>
      </trkpt>
      <trkpt lat="47.28362" lon="-2.36155">
        <ele>24.60000038147</ele>
        <time>2021-06-10T07:13:45.000Z</time>
      </trkpt>
      <trkpt lat="47.28365" lon="-2.36152">
        <ele>25</ele>
        <time>2021-06-10T07:13:47.000Z</time>
      </trkpt>
      <trkpt lat="47.28365" lon="-2.3615">
        <ele>25.39999961853</ele>
        <time>2021-06-10T07:13:48.000Z</time>
      </trkpt>
      <trkpt lat="47.28366" lon="-2.36149">
        <ele>25.799999237061</ele>
        <time>2021-06-10T07:13:49.000Z</time>
      </trkpt>
      <trkpt lat="47.28367" lon="-2.36148">
        <ele>26.200000762939</ele>
        <time>2021-06-10T07:13:50.000Z</time>
      </trkpt>
      <trkpt lat="47.28375" lon="-2.36131">
        <ele>27.200000762939</ele>
        <time>2021-06-10T07:14:01.000Z</time>
      </trkpt>
      <trkpt lat="47.28377" lon="-2.36129">
        <ele>27.60000038147</ele>
        <time>2021-06-10T07:14:02.000Z</time>
      </trkpt>
      <trkpt lat="47.28378" lon="-2.36127">
        <ele>28</ele>
        <time>2021-06-10T07:14:03.000Z</time>
      </trkpt>
      <trkpt lat="47.28379" lon="-2.36125">
        <ele>28.39999961853</ele>
        <time>2021-06-10T07:14:04.000Z</time>
      </trkpt>
      <trkpt lat="47.2838" lon="-2.36123">
        <ele>28.799999237061</ele>
        <time>2021-06-10T07:14:05.000Z</time>
      </trkpt>
      <trkpt lat="47.28381" lon="-2.36118">
        <ele>28.799999237061</ele>
        <time>2021-06-10T07:14:07.000Z</time>
      </trkpt>
      <trkpt lat="47.28385" lon="-2.36103">
        <ele>29.200000762939</ele>
        <time>2021-06-10T07:14:13.000Z</time>
      </trkpt>
      <trkpt lat="47.28386" lon="-2.361">
        <ele>29.60000038147</ele>
        <time>2021-06-10T07:14:14.000Z</time>
      </trkpt>
      <trkpt lat="47.28387" lon="-2.36097">
        <ele>30</ele>
        <time>2021-06-10T07:14:15.000Z</time>
      </trkpt>
      <trkpt lat="47.28388" lon="-2.36095">
        <ele>30.39999961853</ele>
        <time>2021-06-10T07:14:16.000Z</time>
      </trkpt>
      <trkpt lat="47.28388" lon="-2.36091">
        <ele>31</ele>
        <time>2021-06-10T07:14:17.000Z</time>
      </trkpt>
      <trkpt lat="47.28388" lon="-2.36085">
        <ele>31</ele>
        <time>2021-06-10T07:14:19.000Z</time>
      </trkpt>
      <trkpt lat="47.28388" lon="-2.36069">
        <ele>31</ele>
        <time>2021-06-10T07:14:26.000Z</time>
      </trkpt>
      <trkpt lat="47.28387" lon="-2.36068">
        <ele>31</ele>
        <time>2021-06-10T07:14:27.000Z</time>
      </trkpt>
      <trkpt lat="47.28387" lon="-2.36052">
        <ele>33</ele>
        <time>2021-06-10T07:14:48.000Z</time>
      </trkpt>
      <trkpt lat="47.28386" lon="-2.36042">
        <ele>33</ele>
        <time>2021-06-10T07:14:50.000Z</time>
      </trkpt>
      <trkpt lat="47.28386" lon="-2.36029">
        <ele>33</ele>
        <time>2021-06-10T07:14:53.000Z</time>
      </trkpt>
      <trkpt lat="47.28388" lon="-2.36025">
        <ele>32.599998474121</ele>
        <time>2021-06-10T07:14:55.000Z</time>
      </trkpt>
      <trkpt lat="47.28391" lon="-2.36024">
        <ele>32.200000762939</ele>
        <time>2021-06-10T07:14:56.000Z</time>
      </trkpt>
      <trkpt lat="47.28393" lon="-2.36024">
        <ele>31.799999237061</ele>
        <time>2021-06-10T07:14:57.000Z</time>
      </trkpt>
      <trkpt lat="47.28396" lon="-2.36023">
        <ele>31.39999961853</ele>
        <time>2021-06-10T07:14:58.000Z</time>
      </trkpt>
      <trkpt lat="47.28399" lon="-2.36023">
        <ele>31</ele>
        <time>2021-06-10T07:14:59.000Z</time>
      </trkpt>
      <trkpt lat="47.28402" lon="-2.36022">
        <ele>31</ele>
        <time>2021-06-10T07:15:00.000Z</time>
      </trkpt>
      <trkpt lat="47.28415" lon="-2.36012">
        <ele>31.39999961853</ele>
        <time>2021-06-10T07:15:05.000Z</time>
      </trkpt>
      <trkpt lat="47.28418" lon="-2.36009">
        <ele>31.799999237061</ele>
        <time>2021-06-10T07:15:06.000Z</time>
      </trkpt>
      <trkpt lat="47.28422" lon="-2.36005">
        <ele>32.200000762939</ele>
        <time>2021-06-10T07:15:07.000Z</time>
      </trkpt>
      <trkpt lat="47.28425" lon="-2.36002">
        <ele>32.599998474121</ele>
        <time>2021-06-10T07:15:08.000Z</time>
      </trkpt>
      <trkpt lat="47.28429" lon="-2.35999">
        <ele>33</ele>
        <time>2021-06-10T07:15:09.000Z</time>
      </trkpt>
      <trkpt lat="47.2844" lon="-2.35993">
        <ele>33</ele>
        <time>2021-06-10T07:15:12.000Z</time>
      </trkpt>
      <trkpt lat="47.28452" lon="-2.35992">
        <ele>33</ele>
        <time>2021-06-10T07:15:16.000Z</time>
      </trkpt>
      <trkpt lat="47.28453" lon="-2.35994">
        <ele>33</ele>
        <time>2021-06-10T07:15:17.000Z</time>
      </trkpt>
      <trkpt lat="47.28453" lon="-2.36001">
        <ele>33</ele>
        <time>2021-06-10T07:15:20.000Z</time>
      </trkpt>
      <trkpt lat="47.28453" lon="-2.36004">
        <ele>33</ele>
        <time>2021-06-10T07:15:22.000Z</time>
      </trkpt>
      <trkpt lat="47.28454" lon="-2.36008">
        <ele>33</ele>
        <time>2021-06-10T07:15:54.000Z</time>
      </trkpt>
      <trkpt lat="47.28455" lon="-2.3601">
        <ele>33</ele>
        <time>2021-06-10T07:15:55.000Z</time>
      </trkpt>
      <trkpt lat="47.28463" lon="-2.36021">
        <ele>33</ele>
        <time>2021-06-10T07:16:00.000Z</time>
      </trkpt>
      <trkpt lat="47.28465" lon="-2.36023">
        <ele>33</ele>
        <time>2021-06-10T07:16:01.000Z</time>
      </trkpt>
      <trkpt lat="47.28481" lon="-2.36032">
        <ele>33</ele>
        <time>2021-06-10T07:16:06.000Z</time>
      </trkpt>
      <trkpt lat="47.28499" lon="-2.36042">
        <ele>33</ele>
        <time>2021-06-10T07:16:12.000Z</time>
      </trkpt>
      <trkpt lat="47.28516" lon="-2.36063">
        <ele>33</ele>
        <time>2021-06-10T07:16:19.000Z</time>
      </trkpt>
      <trkpt lat="47.28529" lon="-2.36088">
        <ele>33.400001525879</ele>
        <time>2021-06-10T07:16:24.000Z</time>
      </trkpt>
      <trkpt lat="47.28531" lon="-2.36094">
        <ele>33.799999237061</ele>
        <time>2021-06-10T07:16:25.000Z</time>
      </trkpt>
      <trkpt lat="47.28533" lon="-2.361">
        <ele>34.200000762939</ele>
        <time>2021-06-10T07:16:26.000Z</time>
      </trkpt>
      <trkpt lat="47.28534" lon="-2.36107">
        <ele>34.599998474121</ele>
        <time>2021-06-10T07:16:27.000Z</time>
      </trkpt>
      <trkpt lat="47.28534" lon="-2.36114">
        <ele>35</ele>
        <time>2021-06-10T07:16:28.000Z</time>
      </trkpt>
      <trkpt lat="47.28535" lon="-2.36122">
        <ele>35</ele>
        <time>2021-06-10T07:16:29.000Z</time>
      </trkpt>
      <trkpt lat="47.28539" lon="-2.36137">
        <ele>35</ele>
        <time>2021-06-10T07:16:31.000Z</time>
      </trkpt>
      <trkpt lat="47.28546" lon="-2.36154">
        <ele>35</ele>
        <time>2021-06-10T07:16:34.000Z</time>
      </trkpt>
      <trkpt lat="47.28549" lon="-2.36156">
        <ele>35</ele>
        <time>2021-06-10T07:16:35.000Z</time>
      </trkpt>
      <trkpt lat="47.28553" lon="-2.36156">
        <ele>35</ele>
        <time>2021-06-10T07:16:37.000Z</time>
      </trkpt>
      <trkpt lat="47.28567" lon="-2.36144">
        <ele>35</ele>
        <time>2021-06-10T07:16:44.000Z</time>
      </trkpt>
      <trkpt lat="47.28569" lon="-2.36144">
        <ele>35.400001525879</ele>
        <time>2021-06-10T07:16:45.000Z</time>
      </trkpt>
      <trkpt lat="47.28571" lon="-2.36145">
        <ele>35.799999237061</ele>
        <time>2021-06-10T07:16:46.000Z</time>
      </trkpt>
      <trkpt lat="47.28573" lon="-2.36146">
        <ele>36.400001525879</ele>
        <time>2021-06-10T07:16:47.000Z</time>
      </trkpt>
      <trkpt lat="47.28576" lon="-2.36147">
        <ele>36.799999237061</ele>
        <time>2021-06-10T07:16:48.000Z</time>
      </trkpt>
      <trkpt lat="47.28579" lon="-2.36149">
        <ele>37.200000762939</ele>
        <time>2021-06-10T07:16:49.000Z</time>
      </trkpt>
      <trkpt lat="47.28599" lon="-2.36152">
        <ele>37.200000762939</ele>
        <time>2021-06-10T07:16:55.000Z</time>
      </trkpt>
      <trkpt lat="47.28616" lon="-2.36138">
        <ele>37.200000762939</ele>
        <time>2021-06-10T07:17:01.000Z</time>
      </trkpt>
      <trkpt lat="47.28626" lon="-2.36138">
        <ele>37.200000762939</ele>
        <time>2021-06-10T07:17:04.000Z</time>
      </trkpt>
      <trkpt lat="47.28629" lon="-2.36141">
        <ele>37.200000762939</ele>
        <time>2021-06-10T07:17:05.000Z</time>
      </trkpt>
      <trkpt lat="47.28639" lon="-2.36159">
        <ele>37.200000762939</ele>
        <time>2021-06-10T07:17:09.000Z</time>
      </trkpt>
      <trkpt lat="47.28646" lon="-2.36167">
        <ele>37.200000762939</ele>
        <time>2021-06-10T07:17:11.000Z</time>
      </trkpt>
      <trkpt lat="47.28659" lon="-2.36183">
        <ele>36.799999237061</ele>
        <time>2021-06-10T07:17:15.000Z</time>
      </trkpt>
      <trkpt lat="47.28661" lon="-2.36187">
        <ele>36.400001525879</ele>
        <time>2021-06-10T07:17:16.000Z</time>
      </trkpt>
      <trkpt lat="47.28662" lon="-2.36192">
        <ele>36</ele>
        <time>2021-06-10T07:17:17.000Z</time>
      </trkpt>
      <trkpt lat="47.28664" lon="-2.36196">
        <ele>35.599998474121</ele>
        <time>2021-06-10T07:17:18.000Z</time>
      </trkpt>
      <trkpt lat="47.28664" lon="-2.36202">
        <ele>35</ele>
        <time>2021-06-10T07:17:19.000Z</time>
      </trkpt>
      <trkpt lat="47.28665" lon="-2.36206">
        <ele>35</ele>
        <time>2021-06-10T07:17:20.000Z</time>
      </trkpt>
      <trkpt lat="47.28664" lon="-2.36228">
        <ele>35</ele>
        <time>2021-06-10T07:17:24.000Z</time>
      </trkpt>
      <trkpt lat="47.28664" lon="-2.36236">
        <ele>35</ele>
        <time>2021-06-10T07:17:25.000Z</time>
      </trkpt>
      <trkpt lat="47.28664" lon="-2.36254">
        <ele>35</ele>
        <time>2021-06-10T07:17:27.000Z</time>
      </trkpt>
      <trkpt lat="47.28665" lon="-2.36262">
        <ele>35</ele>
        <time>2021-06-10T07:17:28.000Z</time>
      </trkpt>
      <trkpt lat="47.28666" lon="-2.36268">
        <ele>34.599998474121</ele>
        <time>2021-06-10T07:17:29.000Z</time>
      </trkpt>
      <trkpt lat="47.28669" lon="-2.36274">
        <ele>34.200000762939</ele>
        <time>2021-06-10T07:17:30.000Z</time>
      </trkpt>
      <trkpt lat="47.28672" lon="-2.36277">
        <ele>33.799999237061</ele>
        <time>2021-06-10T07:17:31.000Z</time>
      </trkpt>
      <trkpt lat="47.28676" lon="-2.36279">
        <ele>33.400001525879</ele>
        <time>2021-06-10T07:17:32.000Z</time>
      </trkpt>
      <trkpt lat="47.28679" lon="-2.3628">
        <ele>33</ele>
        <time>2021-06-10T07:17:33.000Z</time>
      </trkpt>
      <trkpt lat="47.28686" lon="-2.3628">
        <ele>33</ele>
        <time>2021-06-10T07:17:35.000Z</time>
      </trkpt>
      <trkpt lat="47.28691" lon="-2.36278">
        <ele>33</ele>
        <time>2021-06-10T07:17:36.000Z</time>
      </trkpt>
      <trkpt lat="47.28702" lon="-2.36275">
        <ele>33</ele>
        <time>2021-06-10T07:17:38.000Z</time>
      </trkpt>
      <trkpt lat="47.28712" lon="-2.36267">
        <ele>32.599998474121</ele>
        <time>2021-06-10T07:17:40.000Z</time>
      </trkpt>
      <trkpt lat="47.28716" lon="-2.36263">
        <ele>32.200000762939</ele>
        <time>2021-06-10T07:17:41.000Z</time>
      </trkpt>
      <trkpt lat="47.2872" lon="-2.36258">
        <ele>31.799999237061</ele>
        <time>2021-06-10T07:17:42.000Z</time>
      </trkpt>
      <trkpt lat="47.28724" lon="-2.36252">
        <ele>31.39999961853</ele>
        <time>2021-06-10T07:17:43.000Z</time>
      </trkpt>
      <trkpt lat="47.28729" lon="-2.36247">
        <ele>31</ele>
        <time>2021-06-10T07:17:44.000Z</time>
      </trkpt>
      <trkpt lat="47.28733" lon="-2.36242">
        <ele>31</ele>
        <time>2021-06-10T07:17:45.000Z</time>
      </trkpt>
      <trkpt lat="47.28745" lon="-2.36231">
        <ele>30.60000038147</ele>
        <time>2021-06-10T07:17:48.000Z</time>
      </trkpt>
      <trkpt lat="47.28749" lon="-2.36227">
        <ele>30</ele>
        <time>2021-06-10T07:17:49.000Z</time>
      </trkpt>
      <trkpt lat="47.28752" lon="-2.36224">
        <ele>29.60000038147</ele>
        <time>2021-06-10T07:17:50.000Z</time>
      </trkpt>
      <trkpt lat="47.28756" lon="-2.36221">
        <ele>29.200000762939</ele>
        <time>2021-06-10T07:17:51.000Z</time>
      </trkpt>
      <trkpt lat="47.28759" lon="-2.36217">
        <ele>28.799999237061</ele>
        <time>2021-06-10T07:17:52.000Z</time>
      </trkpt>
      <trkpt lat="47.28777" lon="-2.36201">
        <ele>28.799999237061</ele>
        <time>2021-06-10T07:17:56.000Z</time>
      </trkpt>
      <trkpt lat="47.28815" lon="-2.36174">
        <ele>28.799999237061</ele>
        <time>2021-06-10T07:18:03.000Z</time>
      </trkpt>
      <trkpt lat="47.28826" lon="-2.36163">
        <ele>28.799999237061</ele>
        <time>2021-06-10T07:18:05.000Z</time>
      </trkpt>
      <trkpt lat="47.28839" lon="-2.36145">
        <ele>28.799999237061</ele>
        <time>2021-06-10T07:18:08.000Z</time>
      </trkpt>
      <trkpt lat="47.28847" lon="-2.36133">
        <ele>28.799999237061</ele>
        <time>2021-06-10T07:18:10.000Z</time>
      </trkpt>
      <trkpt lat="47.2886" lon="-2.36122">
        <ele>28.799999237061</ele>
        <time>2021-06-10T07:18:13.000Z</time>
      </trkpt>
      <trkpt lat="47.28864" lon="-2.36118">
        <ele>28.799999237061</ele>
        <time>2021-06-10T07:18:14.000Z</time>
      </trkpt>
      <trkpt lat="47.2888" lon="-2.36102">
        <ele>28.799999237061</ele>
        <time>2021-06-10T07:18:18.000Z</time>
      </trkpt>
      <trkpt lat="47.28908" lon="-2.36073">
        <ele>28.799999237061</ele>
        <time>2021-06-10T07:18:24.000Z</time>
      </trkpt>
      <trkpt lat="47.28939" lon="-2.3605">
        <ele>28.799999237061</ele>
        <time>2021-06-10T07:18:30.000Z</time>
      </trkpt>
      <trkpt lat="47.28976" lon="-2.36021">
        <ele>28.799999237061</ele>
        <time>2021-06-10T07:18:37.000Z</time>
      </trkpt>
      <trkpt lat="47.29018" lon="-2.35977">
        <ele>28.799999237061</ele>
        <time>2021-06-10T07:18:46.000Z</time>
      </trkpt>
      <trkpt lat="47.2905" lon="-2.35942">
        <ele>28.799999237061</ele>
        <time>2021-06-10T07:18:53.000Z</time>
      </trkpt>
      <trkpt lat="47.29087" lon="-2.359">
        <ele>28.799999237061</ele>
        <time>2021-06-10T07:19:01.000Z</time>
      </trkpt>
      <trkpt lat="47.29113" lon="-2.35869">
        <ele>28.799999237061</ele>
        <time>2021-06-10T07:19:07.000Z</time>
      </trkpt>
      <trkpt lat="47.2914" lon="-2.35841">
        <ele>28.799999237061</ele>
        <time>2021-06-10T07:19:14.000Z</time>
      </trkpt>
      <trkpt lat="47.29145" lon="-2.35829">
        <ele>28.799999237061</ele>
        <time>2021-06-10T07:19:17.000Z</time>
      </trkpt>
      <trkpt lat="47.29144" lon="-2.35826">
        <ele>28.799999237061</ele>
        <time>2021-06-10T07:19:18.000Z</time>
      </trkpt>
      <trkpt lat="47.29135" lon="-2.35802">
        <ele>28.799999237061</ele>
        <time>2021-06-10T07:19:23.000Z</time>
      </trkpt>
      <trkpt lat="47.29117" lon="-2.3576">
        <ele>28.799999237061</ele>
        <time>2021-06-10T07:19:30.000Z</time>
      </trkpt>
      <trkpt lat="47.29099" lon="-2.35714">
        <ele>28.799999237061</ele>
        <time>2021-06-10T07:19:38.000Z</time>
      </trkpt>
      <trkpt lat="47.29091" lon="-2.35694">
        <ele>28.799999237061</ele>
        <time>2021-06-10T07:19:43.000Z</time>
      </trkpt>
      <trkpt lat="47.29092" lon="-2.35675">
        <ele>28.799999237061</ele>
        <time>2021-06-10T07:19:48.000Z</time>
      </trkpt>
      <trkpt lat="47.29089" lon="-2.35663">
        <ele>28.799999237061</ele>
        <time>2021-06-10T07:19:51.000Z</time>
      </trkpt>
      <trkpt lat="47.29088" lon="-2.35659">
        <ele>28.799999237061</ele>
        <time>2021-06-10T07:19:52.000Z</time>
      </trkpt>
      <trkpt lat="47.29085" lon="-2.35644">
        <ele>28.799999237061</ele>
        <time>2021-06-10T07:19:56.000Z</time>
      </trkpt>
      <trkpt lat="47.29086" lon="-2.35641">
        <ele>28.799999237061</ele>
        <time>2021-06-10T07:19:58.000Z</time>
      </trkpt>
      <trkpt lat="47.29091" lon="-2.35637">
        <ele>28.799999237061</ele>
        <time>2021-06-10T07:20:01.000Z</time>
      </trkpt>
      <trkpt lat="47.29096" lon="-2.35633">
        <ele>28.799999237061</ele>
        <time>2021-06-10T07:20:05.000Z</time>
      </trkpt>
      <trkpt lat="47.29097" lon="-2.35632">
        <ele>28.799999237061</ele>
        <time>2021-06-10T07:20:07.000Z</time>
      </trkpt>
      <trkpt lat="47.29097" lon="-2.35631">
        <ele>26.799999237061</ele>
        <time>2021-06-10T07:21:08.000Z</time>
      </trkpt>
      <trkpt lat="47.29106" lon="-2.3562">
        <ele>26.799999237061</ele>
        <time>2021-06-10T07:21:14.000Z</time>
      </trkpt>
      <trkpt lat="47.29115" lon="-2.35614">
        <ele>26.799999237061</ele>
        <time>2021-06-10T07:21:18.000Z</time>
      </trkpt>
      <trkpt lat="47.29119" lon="-2.35613">
        <ele>26.799999237061</ele>
        <time>2021-06-10T07:21:19.000Z</time>
      </trkpt>
      <trkpt lat="47.29129" lon="-2.35612">
        <ele>26.799999237061</ele>
        <time>2021-06-10T07:21:21.000Z</time>
      </trkpt>
      <trkpt lat="47.29134" lon="-2.35613">
        <ele>26.799999237061</ele>
        <time>2021-06-10T07:21:22.000Z</time>
      </trkpt>
      <trkpt lat="47.29148" lon="-2.35628">
        <ele>26.799999237061</ele>
        <time>2021-06-10T07:21:25.000Z</time>
      </trkpt>
      <trkpt lat="47.29152" lon="-2.35633">
        <ele>26.799999237061</ele>
        <time>2021-06-10T07:21:26.000Z</time>
      </trkpt>
      <trkpt lat="47.29157" lon="-2.35638">
        <ele>26.799999237061</ele>
        <time>2021-06-10T07:21:27.000Z</time>
      </trkpt>
      <trkpt lat="47.29168" lon="-2.35643">
        <ele>26.799999237061</ele>
        <time>2021-06-10T07:21:29.000Z</time>
      </trkpt>
      <trkpt lat="47.29177" lon="-2.35647">
        <ele>26.799999237061</ele>
        <time>2021-06-10T07:21:31.000Z</time>
      </trkpt>
      <trkpt lat="47.29189" lon="-2.35656">
        <ele>26.799999237061</ele>
        <time>2021-06-10T07:21:34.000Z</time>
      </trkpt>
      <trkpt lat="47.29196" lon="-2.35663">
        <ele>26.799999237061</ele>
        <time>2021-06-10T07:21:36.000Z</time>
      </trkpt>
      <trkpt lat="47.29208" lon="-2.35676">
        <ele>26.799999237061</ele>
        <time>2021-06-10T07:21:40.000Z</time>
      </trkpt>
      <trkpt lat="47.29218" lon="-2.35683">
        <ele>26.799999237061</ele>
        <time>2021-06-10T07:21:43.000Z</time>
      </trkpt>
      <trkpt lat="47.29225" lon="-2.35681">
        <ele>26.799999237061</ele>
        <time>2021-06-10T07:21:45.000Z</time>
      </trkpt>
      <trkpt lat="47.29238" lon="-2.3567">
        <ele>26.799999237061</ele>
        <time>2021-06-10T07:21:48.000Z</time>
      </trkpt>
      <trkpt lat="47.29247" lon="-2.35665">
        <ele>26.799999237061</ele>
        <time>2021-06-10T07:21:50.000Z</time>
      </trkpt>
      <trkpt lat="47.29282" lon="-2.35649">
        <ele>26.799999237061</ele>
        <time>2021-06-10T07:21:57.000Z</time>
      </trkpt>
      <trkpt lat="47.2932" lon="-2.35639">
        <ele>26.799999237061</ele>
        <time>2021-06-10T07:22:04.000Z</time>
      </trkpt>
      <trkpt lat="47.29371" lon="-2.35626">
        <ele>26.799999237061</ele>
        <time>2021-06-10T07:22:13.000Z</time>
      </trkpt>
      <trkpt lat="47.29417" lon="-2.35616">
        <ele>26.799999237061</ele>
        <time>2021-06-10T07:22:20.000Z</time>
      </trkpt>
      <trkpt lat="47.29473" lon="-2.35607">
        <ele>26.799999237061</ele>
        <time>2021-06-10T07:22:28.000Z</time>
      </trkpt>
      <trkpt lat="47.29513" lon="-2.35619">
        <ele>26.799999237061</ele>
        <time>2021-06-10T07:22:34.000Z</time>
      </trkpt>
      <trkpt lat="47.29532" lon="-2.35624">
        <ele>26.799999237061</ele>
        <time>2021-06-10T07:22:37.000Z</time>
      </trkpt>
      <trkpt lat="47.29538" lon="-2.35623">
        <ele>26.799999237061</ele>
        <time>2021-06-10T07:22:38.000Z</time>
      </trkpt>
      <trkpt lat="47.29559" lon="-2.35615">
        <ele>26.799999237061</ele>
        <time>2021-06-10T07:22:42.000Z</time>
      </trkpt>
      <trkpt lat="47.29578" lon="-2.35626">
        <ele>26.799999237061</ele>
        <time>2021-06-10T07:22:46.000Z</time>
      </trkpt>
      <trkpt lat="47.29588" lon="-2.35645">
        <ele>26.799999237061</ele>
        <time>2021-06-10T07:22:49.000Z</time>
      </trkpt>
      <trkpt lat="47.29606" lon="-2.35697">
        <ele>26.799999237061</ele>
        <time>2021-06-10T07:22:56.000Z</time>
      </trkpt>
      <trkpt lat="47.29621" lon="-2.35741">
        <ele>26.799999237061</ele>
        <time>2021-06-10T07:23:02.000Z</time>
      </trkpt>
      <trkpt lat="47.29633" lon="-2.35793">
        <ele>26.799999237061</ele>
        <time>2021-06-10T07:23:08.000Z</time>
      </trkpt>
      <trkpt lat="47.29644" lon="-2.35811">
        <ele>26.799999237061</ele>
        <time>2021-06-10T07:23:11.000Z</time>
      </trkpt>
      <trkpt lat="47.29651" lon="-2.35824">
        <ele>26.799999237061</ele>
        <time>2021-06-10T07:23:13.000Z</time>
      </trkpt>
      <trkpt lat="47.29655" lon="-2.3583">
        <ele>26.799999237061</ele>
        <time>2021-06-10T07:23:14.000Z</time>
      </trkpt>
      <trkpt lat="47.29666" lon="-2.35838">
        <ele>26.799999237061</ele>
        <time>2021-06-10T07:23:16.000Z</time>
      </trkpt>
      <trkpt lat="47.29691" lon="-2.3584">
        <ele>26.799999237061</ele>
        <time>2021-06-10T07:23:20.000Z</time>
      </trkpt>
      <trkpt lat="47.29704" lon="-2.35836">
        <ele>26.799999237061</ele>
        <time>2021-06-10T07:23:22.000Z</time>
      </trkpt>
      <trkpt lat="47.29716" lon="-2.3583">
        <ele>26.799999237061</ele>
        <time>2021-06-10T07:23:24.000Z</time>
      </trkpt>
      <trkpt lat="47.29739" lon="-2.35817">
        <ele>27.200000762939</ele>
        <time>2021-06-10T07:23:28.000Z</time>
      </trkpt>
      <trkpt lat="47.29744" lon="-2.35814">
        <ele>28</ele>
        <time>2021-06-10T07:23:29.000Z</time>
      </trkpt>
      <trkpt lat="47.29749" lon="-2.35811">
        <ele>28.39999961853</ele>
        <time>2021-06-10T07:23:30.000Z</time>
      </trkpt>
      <trkpt lat="47.29754" lon="-2.35809">
        <ele>28.799999237061</ele>
        <time>2021-06-10T07:23:31.000Z</time>
      </trkpt>
      <trkpt lat="47.29775" lon="-2.35801">
        <ele>29.200000762939</ele>
        <time>2021-06-10T07:23:35.000Z</time>
      </trkpt>
      <trkpt lat="47.2978" lon="-2.35799">
        <ele>29.60000038147</ele>
        <time>2021-06-10T07:23:36.000Z</time>
      </trkpt>
      <trkpt lat="47.29785" lon="-2.35797">
        <ele>30</ele>
        <time>2021-06-10T07:23:37.000Z</time>
      </trkpt>
      <trkpt lat="47.2979" lon="-2.35795">
        <ele>30.39999961853</ele>
        <time>2021-06-10T07:23:38.000Z</time>
      </trkpt>
      <trkpt lat="47.29795" lon="-2.35793">
        <ele>30.799999237061</ele>
        <time>2021-06-10T07:23:39.000Z</time>
      </trkpt>
      <trkpt lat="47.29836" lon="-2.35778">
        <ele>30.799999237061</ele>
        <time>2021-06-10T07:23:47.000Z</time>
      </trkpt>
      <trkpt lat="47.2988" lon="-2.35762">
        <ele>30.39999961853</ele>
        <time>2021-06-10T07:23:54.000Z</time>
      </trkpt>
      <trkpt lat="47.29887" lon="-2.35759">
        <ele>30</ele>
        <time>2021-06-10T07:23:55.000Z</time>
      </trkpt>
      <trkpt lat="47.29893" lon="-2.35756">
        <ele>29.39999961853</ele>
        <time>2021-06-10T07:23:56.000Z</time>
      </trkpt>
      <trkpt lat="47.299" lon="-2.35753">
        <ele>29</ele>
        <time>2021-06-10T07:23:57.000Z</time>
      </trkpt>
      <trkpt lat="47.29906" lon="-2.35749">
        <ele>28.60000038147</ele>
        <time>2021-06-10T07:23:58.000Z</time>
      </trkpt>
      <trkpt lat="47.29923" lon="-2.35736">
        <ele>28.60000038147</ele>
        <time>2021-06-10T07:24:01.000Z</time>
      </trkpt>
      <trkpt lat="47.29967" lon="-2.35703">
        <ele>28.60000038147</ele>
        <time>2021-06-10T07:24:09.000Z</time>
      </trkpt>
      <trkpt lat="47.30003" lon="-2.35681">
        <ele>28.60000038147</ele>
        <time>2021-06-10T07:24:16.000Z</time>
      </trkpt>
      <trkpt lat="47.30032" lon="-2.35663">
        <ele>28.60000038147</ele>
        <time>2021-06-10T07:24:22.000Z</time>
      </trkpt>
      <trkpt lat="47.30057" lon="-2.35648">
        <ele>29</ele>
        <time>2021-06-10T07:24:27.000Z</time>
      </trkpt>
      <trkpt lat="47.30062" lon="-2.35645">
        <ele>29.39999961853</ele>
        <time>2021-06-10T07:24:28.000Z</time>
      </trkpt>
      <trkpt lat="47.30068" lon="-2.35642">
        <ele>29.799999237061</ele>
        <time>2021-06-10T07:24:29.000Z</time>
      </trkpt>
      <trkpt lat="47.30073" lon="-2.35639">
        <ele>30.200000762939</ele>
        <time>2021-06-10T07:24:30.000Z</time>
      </trkpt>
      <trkpt lat="47.30078" lon="-2.35636">
        <ele>30.60000038147</ele>
        <time>2021-06-10T07:24:31.000Z</time>
      </trkpt>
      <trkpt lat="47.30111" lon="-2.35617">
        <ele>30.60000038147</ele>
        <time>2021-06-10T07:24:38.000Z</time>
      </trkpt>
      <trkpt lat="47.30115" lon="-2.35614">
        <ele>30.60000038147</ele>
        <time>2021-06-10T07:24:39.000Z</time>
      </trkpt>
      <trkpt lat="47.30131" lon="-2.35599">
        <ele>30.60000038147</ele>
        <time>2021-06-10T07:24:43.000Z</time>
      </trkpt>
      <trkpt lat="47.30135" lon="-2.356">
        <ele>30.60000038147</ele>
        <time>2021-06-10T07:24:44.000Z</time>
      </trkpt>
      <trkpt lat="47.30137" lon="-2.35604">
        <ele>30.60000038147</ele>
        <time>2021-06-10T07:24:45.000Z</time>
      </trkpt>
      <trkpt lat="47.30136" lon="-2.35623">
        <ele>30.60000038147</ele>
        <time>2021-06-10T07:24:48.000Z</time>
      </trkpt>
      <trkpt lat="47.30135" lon="-2.35657">
        <ele>30.60000038147</ele>
        <time>2021-06-10T07:24:53.000Z</time>
      </trkpt>
      <trkpt lat="47.30137" lon="-2.35702">
        <ele>30.60000038147</ele>
        <time>2021-06-10T07:24:59.000Z</time>
      </trkpt>
      <trkpt lat="47.3014" lon="-2.35754">
        <ele>30.60000038147</ele>
        <time>2021-06-10T07:25:05.000Z</time>
      </trkpt>
      <trkpt lat="47.30141" lon="-2.3582">
        <ele>30.60000038147</ele>
        <time>2021-06-10T07:25:11.000Z</time>
      </trkpt>
      <trkpt lat="47.30132" lon="-2.35883">
        <ele>30.60000038147</ele>
        <time>2021-06-10T07:25:16.000Z</time>
      </trkpt>
      <trkpt lat="47.30124" lon="-2.3592">
        <ele>30.200000762939</ele>
        <time>2021-06-10T07:25:19.000Z</time>
      </trkpt>
      <trkpt lat="47.30121" lon="-2.35932">
        <ele>29.799999237061</ele>
        <time>2021-06-10T07:25:20.000Z</time>
      </trkpt>
      <trkpt lat="47.30118" lon="-2.35946">
        <ele>29.200000762939</ele>
        <time>2021-06-10T07:25:21.000Z</time>
      </trkpt>
      <trkpt lat="47.30116" lon="-2.35958">
        <ele>28.799999237061</ele>
        <time>2021-06-10T07:25:22.000Z</time>
      </trkpt>
      <trkpt lat="47.30114" lon="-2.3597">
        <ele>28.39999961853</ele>
        <time>2021-06-10T07:25:23.000Z</time>
      </trkpt>
      <trkpt lat="47.30109" lon="-2.35994">
        <ele>27.799999237061</ele>
        <time>2021-06-10T07:25:25.000Z</time>
      </trkpt>
      <trkpt lat="47.30108" lon="-2.36006">
        <ele>27.39999961853</ele>
        <time>2021-06-10T07:25:26.000Z</time>
      </trkpt>
      <trkpt lat="47.30106" lon="-2.36018">
        <ele>27</ele>
        <time>2021-06-10T07:25:27.000Z</time>
      </trkpt>
      <trkpt lat="47.30105" lon="-2.3603">
        <ele>26.60000038147</ele>
        <time>2021-06-10T07:25:28.000Z</time>
      </trkpt>
      <trkpt lat="47.30104" lon="-2.36043">
        <ele>26.200000762939</ele>
        <time>2021-06-10T07:25:29.000Z</time>
      </trkpt>
      <trkpt lat="47.301" lon="-2.36079">
        <ele>26.200000762939</ele>
        <time>2021-06-10T07:25:32.000Z</time>
      </trkpt>
      <trkpt lat="47.30091" lon="-2.36155">
        <ele>26.200000762939</ele>
        <time>2021-06-10T07:25:39.000Z</time>
      </trkpt>
      <trkpt lat="47.30088" lon="-2.36224">
        <ele>26.200000762939</ele>
        <time>2021-06-10T07:25:46.000Z</time>
      </trkpt>
      <trkpt lat="47.30093" lon="-2.36276">
        <ele>26.200000762939</ele>
        <time>2021-06-10T07:25:52.000Z</time>
      </trkpt>
      <trkpt lat="47.301" lon="-2.36359">
        <ele>26.200000762939</ele>
        <time>2021-06-10T07:26:02.000Z</time>
      </trkpt>
      <trkpt lat="47.30102" lon="-2.36375">
        <ele>26.60000038147</ele>
        <time>2021-06-10T07:26:04.000Z</time>
      </trkpt>
      <trkpt lat="47.30103" lon="-2.36383">
        <ele>27</ele>
        <time>2021-06-10T07:26:05.000Z</time>
      </trkpt>
      <trkpt lat="47.30103" lon="-2.36391">
        <ele>27.39999961853</ele>
        <time>2021-06-10T07:26:06.000Z</time>
      </trkpt>
      <trkpt lat="47.30104" lon="-2.364">
        <ele>27.799999237061</ele>
        <time>2021-06-10T07:26:07.000Z</time>
      </trkpt>
      <trkpt lat="47.30105" lon="-2.36408">
        <ele>28.39999961853</ele>
        <time>2021-06-10T07:26:08.000Z</time>
      </trkpt>
      <trkpt lat="47.30106" lon="-2.36425">
        <ele>28.39999961853</ele>
        <time>2021-06-10T07:26:10.000Z</time>
      </trkpt>
      <trkpt lat="47.30115" lon="-2.36488">
        <ele>28.39999961853</ele>
        <time>2021-06-10T07:26:18.000Z</time>
      </trkpt>
      <trkpt lat="47.30118" lon="-2.36512">
        <ele>28.799999237061</ele>
        <time>2021-06-10T07:26:21.000Z</time>
      </trkpt>
      <trkpt lat="47.3012" lon="-2.36519">
        <ele>29.200000762939</ele>
        <time>2021-06-10T07:26:22.000Z</time>
      </trkpt>
      <trkpt lat="47.30121" lon="-2.36527">
        <ele>30</ele>
        <time>2021-06-10T07:26:23.000Z</time>
      </trkpt>
      <trkpt lat="47.30121" lon="-2.36535">
        <ele>30.39999961853</ele>
        <time>2021-06-10T07:26:24.000Z</time>
      </trkpt>
      <trkpt lat="47.30125" lon="-2.36563">
        <ele>30.39999961853</ele>
        <time>2021-06-10T07:26:28.000Z</time>
      </trkpt>
      <trkpt lat="47.30134" lon="-2.36614">
        <ele>30.39999961853</ele>
        <time>2021-06-10T07:26:35.000Z</time>
      </trkpt>
      <trkpt lat="47.30136" lon="-2.36621">
        <ele>30.39999961853</ele>
        <time>2021-06-10T07:26:36.000Z</time>
      </trkpt>
      <trkpt lat="47.30144" lon="-2.36642">
        <ele>30.39999961853</ele>
        <time>2021-06-10T07:26:39.000Z</time>
      </trkpt>
      <trkpt lat="47.30147" lon="-2.36648">
        <ele>30.39999961853</ele>
        <time>2021-06-10T07:26:40.000Z</time>
      </trkpt>
      <trkpt lat="47.3015" lon="-2.36654">
        <ele>30.799999237061</ele>
        <time>2021-06-10T07:26:41.000Z</time>
      </trkpt>
      <trkpt lat="47.30153" lon="-2.3666">
        <ele>31.200000762939</ele>
        <time>2021-06-10T07:26:42.000Z</time>
      </trkpt>
      <trkpt lat="47.30156" lon="-2.36666">
        <ele>31.60000038147</ele>
        <time>2021-06-10T07:26:43.000Z</time>
      </trkpt>
      <trkpt lat="47.30158" lon="-2.36671">
        <ele>32</ele>
        <time>2021-06-10T07:26:44.000Z</time>
      </trkpt>
      <trkpt lat="47.3016" lon="-2.36675">
        <ele>32.400001525879</ele>
        <time>2021-06-10T07:26:45.000Z</time>
      </trkpt>
      <trkpt lat="47.30162" lon="-2.36679">
        <ele>32.400001525879</ele>
        <time>2021-06-10T07:26:46.000Z</time>
      </trkpt>
      <trkpt lat="47.30171" lon="-2.36689">
        <ele>32.400001525879</ele>
        <time>2021-06-10T07:26:51.000Z</time>
      </trkpt>
      <trkpt lat="47.30176" lon="-2.36688">
        <ele>32.400001525879</ele>
        <time>2021-06-10T07:26:56.000Z</time>
      </trkpt>
      <trkpt lat="47.30177" lon="-2.36686">
        <ele>32.400001525879</ele>
        <time>2021-06-10T07:26:59.000Z</time>
      </trkpt>
      <trkpt lat="47.30184" lon="-2.36681">
        <ele>32.400001525879</ele>
        <time>2021-06-10T07:27:11.000Z</time>
      </trkpt>
      <trkpt lat="47.30187" lon="-2.36679">
        <ele>32.400001525879</ele>
        <time>2021-06-10T07:27:13.000Z</time>
      </trkpt>
      <trkpt lat="47.30201" lon="-2.36674">
        <ele>32.400001525879</ele>
        <time>2021-06-10T07:27:19.000Z</time>
      </trkpt>
      <trkpt lat="47.30204" lon="-2.36673">
        <ele>32.799999237061</ele>
        <time>2021-06-10T07:27:20.000Z</time>
      </trkpt>
      <trkpt lat="47.30208" lon="-2.36672">
        <ele>33.200000762939</ele>
        <time>2021-06-10T07:27:21.000Z</time>
      </trkpt>
      <trkpt lat="47.30211" lon="-2.36672">
        <ele>33.599998474121</ele>
        <time>2021-06-10T07:27:22.000Z</time>
      </trkpt>
      <trkpt lat="47.30215" lon="-2.36672">
        <ele>34</ele>
        <time>2021-06-10T07:27:23.000Z</time>
      </trkpt>
      <trkpt lat="47.30219" lon="-2.36671">
        <ele>34.400001525879</ele>
        <time>2021-06-10T07:27:24.000Z</time>
      </trkpt>
      <trkpt lat="47.30222" lon="-2.3667">
        <ele>34.400001525879</ele>
        <time>2021-06-10T07:27:25.000Z</time>
      </trkpt>
      <trkpt lat="47.30247" lon="-2.36666">
        <ele>34.400001525879</ele>
        <time>2021-06-10T07:27:31.000Z</time>
      </trkpt>
      <trkpt lat="47.3028" lon="-2.36656">
        <ele>34.400001525879</ele>
        <time>2021-06-10T07:27:39.000Z</time>
      </trkpt>
      <trkpt lat="47.30305" lon="-2.36646">
        <ele>34.400001525879</ele>
        <time>2021-06-10T07:27:45.000Z</time>
      </trkpt>
      <trkpt lat="47.30309" lon="-2.36646">
        <ele>34.400001525879</ele>
        <time>2021-06-10T07:27:46.000Z</time>
      </trkpt>
      <trkpt lat="47.30341" lon="-2.36652">
        <ele>34.400001525879</ele>
        <time>2021-06-10T07:27:53.000Z</time>
      </trkpt>
      <trkpt lat="47.30352" lon="-2.36654">
        <ele>34.400001525879</ele>
        <time>2021-06-10T07:27:55.000Z</time>
      </trkpt>
      <trkpt lat="47.30362" lon="-2.36654">
        <ele>34.799999237061</ele>
        <time>2021-06-10T07:27:57.000Z</time>
      </trkpt>
      <trkpt lat="47.30367" lon="-2.36655">
        <ele>35.200000762939</ele>
        <time>2021-06-10T07:27:58.000Z</time>
      </trkpt>
      <trkpt lat="47.30372" lon="-2.36655">
        <ele>35.599998474121</ele>
        <time>2021-06-10T07:27:59.000Z</time>
      </trkpt>
      <trkpt lat="47.30376" lon="-2.36655">
        <ele>36.200000762939</ele>
        <time>2021-06-10T07:28:00.000Z</time>
      </trkpt>
      <trkpt lat="47.30381" lon="-2.36656">
        <ele>36.599998474121</ele>
        <time>2021-06-10T07:28:01.000Z</time>
      </trkpt>
      <trkpt lat="47.30399" lon="-2.36654">
        <ele>36.599998474121</ele>
        <time>2021-06-10T07:28:05.000Z</time>
      </trkpt>
      <trkpt lat="47.30425" lon="-2.36647">
        <ele>36.599998474121</ele>
        <time>2021-06-10T07:28:11.000Z</time>
      </trkpt>
      <trkpt lat="47.30429" lon="-2.36644">
        <ele>36.599998474121</ele>
        <time>2021-06-10T07:28:12.000Z</time>
      </trkpt>
      <trkpt lat="47.30444" lon="-2.36629">
        <ele>36.599998474121</ele>
        <time>2021-06-10T07:28:16.000Z</time>
      </trkpt>
      <trkpt lat="47.30466" lon="-2.36613">
        <ele>36.599998474121</ele>
        <time>2021-06-10T07:28:21.000Z</time>
      </trkpt>
      <trkpt lat="47.3047" lon="-2.36611">
        <ele>36.599998474121</ele>
        <time>2021-06-10T07:28:22.000Z</time>
      </trkpt>
      <trkpt lat="47.30478" lon="-2.36608">
        <ele>36.599998474121</ele>
        <time>2021-06-10T07:28:26.000Z</time>
      </trkpt>
      <trkpt lat="47.30492" lon="-2.36603">
        <ele>36.599998474121</ele>
        <time>2021-06-10T07:28:32.000Z</time>
      </trkpt>
      <trkpt lat="47.30514" lon="-2.36596">
        <ele>36.599998474121</ele>
        <time>2021-06-10T07:28:38.000Z</time>
      </trkpt>
      <trkpt lat="47.3054" lon="-2.36583">
        <ele>36.599998474121</ele>
        <time>2021-06-10T07:28:44.000Z</time>
      </trkpt>
      <trkpt lat="47.30566" lon="-2.36563">
        <ele>36.599998474121</ele>
        <time>2021-06-10T07:28:50.000Z</time>
      </trkpt>
      <trkpt lat="47.3059" lon="-2.36551">
        <ele>36.599998474121</ele>
        <time>2021-06-10T07:28:56.000Z</time>
      </trkpt>
      <trkpt lat="47.30624" lon="-2.36543">
        <ele>36.599998474121</ele>
        <time>2021-06-10T07:29:03.000Z</time>
      </trkpt>
      <trkpt lat="47.30628" lon="-2.36541">
        <ele>36.599998474121</ele>
        <time>2021-06-10T07:29:04.000Z</time>
      </trkpt>
      <trkpt lat="47.30662" lon="-2.36526">
        <ele>36.599998474121</ele>
        <time>2021-06-10T07:29:11.000Z</time>
      </trkpt>
      <trkpt lat="47.30692" lon="-2.36513">
        <ele>36.599998474121</ele>
        <time>2021-06-10T07:29:17.000Z</time>
      </trkpt>
      <trkpt lat="47.307" lon="-2.36522">
        <ele>36.599998474121</ele>
        <time>2021-06-10T07:29:20.000Z</time>
      </trkpt>
      <trkpt lat="47.3071" lon="-2.36517">
        <ele>36.599998474121</ele>
        <time>2021-06-10T07:29:23.000Z</time>
      </trkpt>
      <trkpt lat="47.30729" lon="-2.365">
        <ele>36.599998474121</ele>
        <time>2021-06-10T07:29:27.000Z</time>
      </trkpt>
      <trkpt lat="47.30747" lon="-2.36491">
        <ele>36.599998474121</ele>
        <time>2021-06-10T07:29:30.000Z</time>
      </trkpt>
      <trkpt lat="47.30761" lon="-2.36487">
        <ele>36.599998474121</ele>
        <time>2021-06-10T07:29:32.000Z</time>
      </trkpt>
      <trkpt lat="47.30774" lon="-2.36484">
        <ele>36.599998474121</ele>
        <time>2021-06-10T07:29:34.000Z</time>
      </trkpt>
      <trkpt lat="47.30793" lon="-2.36478">
        <ele>36.599998474121</ele>
        <time>2021-06-10T07:29:37.000Z</time>
      </trkpt>
      <trkpt lat="47.30811" lon="-2.36474">
        <ele>36</ele>
        <time>2021-06-10T07:29:40.000Z</time>
      </trkpt>
      <trkpt lat="47.30817" lon="-2.36476">
        <ele>35.599998474121</ele>
        <time>2021-06-10T07:29:41.000Z</time>
      </trkpt>
      <trkpt lat="47.30821" lon="-2.3648">
        <ele>35.200000762939</ele>
        <time>2021-06-10T07:29:42.000Z</time>
      </trkpt>
      <trkpt lat="47.30825" lon="-2.36484">
        <ele>34.799999237061</ele>
        <time>2021-06-10T07:29:43.000Z</time>
      </trkpt>
      <trkpt lat="47.30828" lon="-2.36488">
        <ele>34.200000762939</ele>
        <time>2021-06-10T07:29:44.000Z</time>
      </trkpt>
      <trkpt lat="47.30832" lon="-2.3649">
        <ele>34.200000762939</ele>
        <time>2021-06-10T07:29:45.000Z</time>
      </trkpt>
      <trkpt lat="47.30841" lon="-2.36488">
        <ele>34.200000762939</ele>
        <time>2021-06-10T07:29:47.000Z</time>
      </trkpt>
      <trkpt lat="47.30871" lon="-2.36481">
        <ele>34.200000762939</ele>
        <time>2021-06-10T07:29:54.000Z</time>
      </trkpt>
      <trkpt lat="47.30905" lon="-2.36469">
        <ele>34.200000762939</ele>
        <time>2021-06-10T07:30:02.000Z</time>
      </trkpt>
      <trkpt lat="47.30909" lon="-2.36467">
        <ele>34.200000762939</ele>
        <time>2021-06-10T07:30:03.000Z</time>
      </trkpt>
      <trkpt lat="47.30914" lon="-2.36465">
        <ele>34.200000762939</ele>
        <time>2021-06-10T07:30:04.000Z</time>
      </trkpt>
      <trkpt lat="47.30936" lon="-2.36458">
        <ele>34.200000762939</ele>
        <time>2021-06-10T07:30:09.000Z</time>
      </trkpt>
      <trkpt lat="47.3094" lon="-2.36457">
        <ele>33.799999237061</ele>
        <time>2021-06-10T07:30:10.000Z</time>
      </trkpt>
      <trkpt lat="47.30945" lon="-2.36455">
        <ele>33.400001525879</ele>
        <time>2021-06-10T07:30:11.000Z</time>
      </trkpt>
      <trkpt lat="47.30949" lon="-2.36454">
        <ele>33</ele>
        <time>2021-06-10T07:30:12.000Z</time>
      </trkpt>
      <trkpt lat="47.30953" lon="-2.36453">
        <ele>32.599998474121</ele>
        <time>2021-06-10T07:30:13.000Z</time>
      </trkpt>
      <trkpt lat="47.30957" lon="-2.36452">
        <ele>32.200000762939</ele>
        <time>2021-06-10T07:30:14.000Z</time>
      </trkpt>
      <trkpt lat="47.30965" lon="-2.36448">
        <ele>32.200000762939</ele>
        <time>2021-06-10T07:30:16.000Z</time>
      </trkpt>
      <trkpt lat="47.30988" lon="-2.36436">
        <ele>32.200000762939</ele>
        <time>2021-06-10T07:30:21.000Z</time>
      </trkpt>
      <trkpt lat="47.31024" lon="-2.36421">
        <ele>32.200000762939</ele>
        <time>2021-06-10T07:30:29.000Z</time>
      </trkpt>
      <trkpt lat="47.31054" lon="-2.36418">
        <ele>32.200000762939</ele>
        <time>2021-06-10T07:30:36.000Z</time>
      </trkpt>
      <trkpt lat="47.31072" lon="-2.36415">
        <ele>31.60000038147</ele>
        <time>2021-06-10T07:30:40.000Z</time>
      </trkpt>
      <trkpt lat="47.31076" lon="-2.36415">
        <ele>31.200000762939</ele>
        <time>2021-06-10T07:30:41.000Z</time>
      </trkpt>
      <trkpt lat="47.3108" lon="-2.36415">
        <ele>30.799999237061</ele>
        <time>2021-06-10T07:30:42.000Z</time>
      </trkpt>
      <trkpt lat="47.31083" lon="-2.36415">
        <ele>30.39999961853</ele>
        <time>2021-06-10T07:30:43.000Z</time>
      </trkpt>
      <trkpt lat="47.31086" lon="-2.36416">
        <ele>30</ele>
        <time>2021-06-10T07:30:44.000Z</time>
      </trkpt>
      <trkpt lat="47.31096" lon="-2.36415">
        <ele>30</ele>
        <time>2021-06-10T07:30:47.000Z</time>
      </trkpt>
      <trkpt lat="47.31104" lon="-2.36412">
        <ele>30</ele>
        <time>2021-06-10T07:30:49.000Z</time>
      </trkpt>
      <trkpt lat="47.31117" lon="-2.36405">
        <ele>30</ele>
        <time>2021-06-10T07:30:52.000Z</time>
      </trkpt>
      <trkpt lat="47.31141" lon="-2.36389">
        <ele>30</ele>
        <time>2021-06-10T07:30:57.000Z</time>
      </trkpt>
      <trkpt lat="47.3115" lon="-2.36382">
        <ele>30</ele>
        <time>2021-06-10T07:30:59.000Z</time>
      </trkpt>
      <trkpt lat="47.31178" lon="-2.36361">
        <ele>30</ele>
        <time>2021-06-10T07:31:05.000Z</time>
      </trkpt>
      <trkpt lat="47.31197" lon="-2.36349">
        <ele>30</ele>
        <time>2021-06-10T07:31:09.000Z</time>
      </trkpt>
      <trkpt lat="47.31212" lon="-2.3634">
        <ele>30</ele>
        <time>2021-06-10T07:31:12.000Z</time>
      </trkpt>
      <trkpt lat="47.31239" lon="-2.36326">
        <ele>30</ele>
        <time>2021-06-10T07:31:17.000Z</time>
      </trkpt>
      <trkpt lat="47.31269" lon="-2.36308">
        <ele>30</ele>
        <time>2021-06-10T07:31:23.000Z</time>
      </trkpt>
      <trkpt lat="47.31299" lon="-2.36295">
        <ele>30.39999961853</ele>
        <time>2021-06-10T07:31:29.000Z</time>
      </trkpt>
      <trkpt lat="47.31304" lon="-2.36293">
        <ele>30.799999237061</ele>
        <time>2021-06-10T07:31:30.000Z</time>
      </trkpt>
      <trkpt lat="47.31308" lon="-2.3629">
        <ele>31.200000762939</ele>
        <time>2021-06-10T07:31:31.000Z</time>
      </trkpt>
      <trkpt lat="47.31312" lon="-2.36288">
        <ele>31.60000038147</ele>
        <time>2021-06-10T07:31:32.000Z</time>
      </trkpt>
      <trkpt lat="47.31317" lon="-2.36285">
        <ele>32</ele>
        <time>2021-06-10T07:31:33.000Z</time>
      </trkpt>
      <trkpt lat="47.31332" lon="-2.36269">
        <ele>32</ele>
        <time>2021-06-10T07:31:37.000Z</time>
      </trkpt>
      <trkpt lat="47.31358" lon="-2.36242">
        <ele>32</ele>
        <time>2021-06-10T07:31:44.000Z</time>
      </trkpt>
      <trkpt lat="47.3139" lon="-2.36222">
        <ele>32</ele>
        <time>2021-06-10T07:31:51.000Z</time>
      </trkpt>
      <trkpt lat="47.31422" lon="-2.36206">
        <ele>32</ele>
        <time>2021-06-10T07:31:57.000Z</time>
      </trkpt>
      <trkpt lat="47.31453" lon="-2.36185">
        <ele>32</ele>
        <time>2021-06-10T07:32:03.000Z</time>
      </trkpt>
      <trkpt lat="47.31458" lon="-2.3618">
        <ele>32</ele>
        <time>2021-06-10T07:32:04.000Z</time>
      </trkpt>
      <trkpt lat="47.31471" lon="-2.36166">
        <ele>32</ele>
        <time>2021-06-10T07:32:07.000Z</time>
      </trkpt>
      <trkpt lat="47.31476" lon="-2.36162">
        <ele>32</ele>
        <time>2021-06-10T07:32:08.000Z</time>
      </trkpt>
      <trkpt lat="47.315" lon="-2.36134">
        <ele>32</ele>
        <time>2021-06-10T07:32:14.000Z</time>
      </trkpt>
      <trkpt lat="47.31522" lon="-2.36107">
        <ele>32</ele>
        <time>2021-06-10T07:32:20.000Z</time>
      </trkpt>
      <trkpt lat="47.31544" lon="-2.36078">
        <ele>32</ele>
        <time>2021-06-10T07:32:26.000Z</time>
      </trkpt>
      <trkpt lat="47.31573" lon="-2.3605">
        <ele>32</ele>
        <time>2021-06-10T07:32:33.000Z</time>
      </trkpt>
      <trkpt lat="47.31603" lon="-2.36023">
        <ele>31.60000038147</ele>
        <time>2021-06-10T07:32:39.000Z</time>
      </trkpt>
      <trkpt lat="47.31608" lon="-2.36017">
        <ele>31.200000762939</ele>
        <time>2021-06-10T07:32:40.000Z</time>
      </trkpt>
      <trkpt lat="47.31613" lon="-2.36012">
        <ele>30.799999237061</ele>
        <time>2021-06-10T07:32:41.000Z</time>
      </trkpt>
      <trkpt lat="47.31619" lon="-2.36006">
        <ele>30.39999961853</ele>
        <time>2021-06-10T07:32:42.000Z</time>
      </trkpt>
      <trkpt lat="47.31624" lon="-2.36">
        <ele>30</ele>
        <time>2021-06-10T07:32:43.000Z</time>
      </trkpt>
      <trkpt lat="47.31628" lon="-2.35995">
        <ele>30</ele>
        <time>2021-06-10T07:32:44.000Z</time>
      </trkpt>
      <trkpt lat="47.31662" lon="-2.35968">
        <ele>30</ele>
        <time>2021-06-10T07:32:51.000Z</time>
      </trkpt>
      <trkpt lat="47.31698" lon="-2.35948">
        <ele>30</ele>
        <time>2021-06-10T07:32:57.000Z</time>
      </trkpt>
      <trkpt lat="47.3171" lon="-2.35941">
        <ele>29.60000038147</ele>
        <time>2021-06-10T07:32:59.000Z</time>
      </trkpt>
      <trkpt lat="47.31715" lon="-2.35938">
        <ele>29.200000762939</ele>
        <time>2021-06-10T07:33:00.000Z</time>
      </trkpt>
      <trkpt lat="47.31721" lon="-2.35934">
        <ele>28.799999237061</ele>
        <time>2021-06-10T07:33:01.000Z</time>
      </trkpt>
      <trkpt lat="47.31726" lon="-2.3593">
        <ele>28.200000762939</ele>
        <time>2021-06-10T07:33:02.000Z</time>
      </trkpt>
      <trkpt lat="47.31732" lon="-2.35927">
        <ele>27.799999237061</ele>
        <time>2021-06-10T07:33:03.000Z</time>
      </trkpt>
      <trkpt lat="47.31737" lon="-2.35923">
        <ele>27.799999237061</ele>
        <time>2021-06-10T07:33:04.000Z</time>
      </trkpt>
      <trkpt lat="47.31776" lon="-2.359">
        <ele>27.39999961853</ele>
        <time>2021-06-10T07:33:11.000Z</time>
      </trkpt>
      <trkpt lat="47.31781" lon="-2.35896">
        <ele>27</ele>
        <time>2021-06-10T07:33:12.000Z</time>
      </trkpt>
      <trkpt lat="47.31786" lon="-2.35894">
        <ele>26.60000038147</ele>
        <time>2021-06-10T07:33:13.000Z</time>
      </trkpt>
      <trkpt lat="47.31791" lon="-2.35891">
        <ele>26.200000762939</ele>
        <time>2021-06-10T07:33:14.000Z</time>
      </trkpt>
      <trkpt lat="47.31795" lon="-2.35889">
        <ele>25.799999237061</ele>
        <time>2021-06-10T07:33:15.000Z</time>
      </trkpt>
      <trkpt lat="47.31804" lon="-2.35886">
        <ele>25.799999237061</ele>
        <time>2021-06-10T07:33:17.000Z</time>
      </trkpt>
      <trkpt lat="47.31817" lon="-2.35878">
        <ele>25.799999237061</ele>
        <time>2021-06-10T07:33:20.000Z</time>
      </trkpt>
      <trkpt lat="47.31822" lon="-2.35868">
        <ele>25.799999237061</ele>
        <time>2021-06-10T07:33:22.000Z</time>
      </trkpt>
      <trkpt lat="47.31824" lon="-2.35855">
        <ele>25.799999237061</ele>
        <time>2021-06-10T07:33:26.000Z</time>
      </trkpt>
      <trkpt lat="47.31822" lon="-2.3585">
        <ele>25.799999237061</ele>
        <time>2021-06-10T07:33:28.000Z</time>
      </trkpt>
      <trkpt lat="47.31817" lon="-2.35841">
        <ele>25.799999237061</ele>
        <time>2021-06-10T07:33:31.000Z</time>
      </trkpt>
      <trkpt lat="47.31805" lon="-2.35826">
        <ele>25.799999237061</ele>
        <time>2021-06-10T07:33:36.000Z</time>
      </trkpt>
      <trkpt lat="47.31801" lon="-2.35821">
        <ele>25.799999237061</ele>
        <time>2021-06-10T07:33:37.000Z</time>
      </trkpt>
      <trkpt lat="47.31798" lon="-2.35817">
        <ele>25.799999237061</ele>
        <time>2021-06-10T07:33:38.000Z</time>
      </trkpt>
      <trkpt lat="47.31789" lon="-2.358">
        <ele>25.799999237061</ele>
        <time>2021-06-10T07:33:41.000Z</time>
      </trkpt>
      <trkpt lat="47.31787" lon="-2.35794">
        <ele>25.799999237061</ele>
        <time>2021-06-10T07:33:42.000Z</time>
      </trkpt>
      <trkpt lat="47.31784" lon="-2.35767">
        <ele>25.799999237061</ele>
        <time>2021-06-10T07:33:46.000Z</time>
      </trkpt>
      <trkpt lat="47.31784" lon="-2.3576">
        <ele>25.799999237061</ele>
        <time>2021-06-10T07:33:47.000Z</time>
      </trkpt>
      <trkpt lat="47.31785" lon="-2.35718">
        <ele>25.799999237061</ele>
        <time>2021-06-10T07:33:52.000Z</time>
      </trkpt>
      <trkpt lat="47.31785" lon="-2.35695">
        <ele>25.39999961853</ele>
        <time>2021-06-10T07:33:54.000Z</time>
      </trkpt>
      <trkpt lat="47.31785" lon="-2.35684">
        <ele>24.799999237061</ele>
        <time>2021-06-10T07:33:55.000Z</time>
      </trkpt>
      <trkpt lat="47.31785" lon="-2.35673">
        <ele>24.39999961853</ele>
        <time>2021-06-10T07:33:56.000Z</time>
      </trkpt>
      <trkpt lat="47.31785" lon="-2.35663">
        <ele>24</ele>
        <time>2021-06-10T07:33:57.000Z</time>
      </trkpt>
      <trkpt lat="47.31786" lon="-2.35653">
        <ele>23.60000038147</ele>
        <time>2021-06-10T07:33:58.000Z</time>
      </trkpt>
      <trkpt lat="47.31791" lon="-2.35621">
        <ele>23</ele>
        <time>2021-06-10T07:34:01.000Z</time>
      </trkpt>
      <trkpt lat="47.31793" lon="-2.35613">
        <ele>22.60000038147</ele>
        <time>2021-06-10T07:34:02.000Z</time>
      </trkpt>
      <trkpt lat="47.31795" lon="-2.35605">
        <ele>22.200000762939</ele>
        <time>2021-06-10T07:34:03.000Z</time>
      </trkpt>
      <trkpt lat="47.31797" lon="-2.35599">
        <ele>21.799999237061</ele>
        <time>2021-06-10T07:34:04.000Z</time>
      </trkpt>
      <trkpt lat="47.31799" lon="-2.35591">
        <ele>21.39999961853</ele>
        <time>2021-06-10T07:34:05.000Z</time>
      </trkpt>
      <trkpt lat="47.31808" lon="-2.35573">
        <ele>21.39999961853</ele>
        <time>2021-06-10T07:34:09.000Z</time>
      </trkpt>
      <trkpt lat="47.31822" lon="-2.35561">
        <ele>21</ele>
        <time>2021-06-10T07:34:14.000Z</time>
      </trkpt>
      <trkpt lat="47.31824" lon="-2.35559">
        <ele>20.39999961853</ele>
        <time>2021-06-10T07:34:15.000Z</time>
      </trkpt>
      <trkpt lat="47.31826" lon="-2.35556">
        <ele>20</ele>
        <time>2021-06-10T07:34:16.000Z</time>
      </trkpt>
      <trkpt lat="47.31826" lon="-2.35553">
        <ele>19.60000038147</ele>
        <time>2021-06-10T07:34:17.000Z</time>
      </trkpt>
      <trkpt lat="47.31826" lon="-2.35549">
        <ele>19.200000762939</ele>
        <time>2021-06-10T07:34:18.000Z</time>
      </trkpt>
      <trkpt lat="47.31826" lon="-2.35544">
        <ele>19.200000762939</ele>
        <time>2021-06-10T07:34:19.000Z</time>
      </trkpt>
      <trkpt lat="47.31825" lon="-2.35541">
        <ele>19.200000762939</ele>
        <time>2021-06-10T07:34:20.000Z</time>
      </trkpt>
      <trkpt lat="47.31823" lon="-2.35517">
        <ele>19.200000762939</ele>
        <time>2021-06-10T07:34:25.000Z</time>
      </trkpt>
      <trkpt lat="47.31813" lon="-2.35491">
        <ele>19.200000762939</ele>
        <time>2021-06-10T07:34:30.000Z</time>
      </trkpt>
      <trkpt lat="47.31807" lon="-2.35474">
        <ele>19.200000762939</ele>
        <time>2021-06-10T07:34:35.000Z</time>
      </trkpt>
      <trkpt lat="47.31795" lon="-2.35455">
        <ele>19.200000762939</ele>
        <time>2021-06-10T07:34:41.000Z</time>
      </trkpt>
      <trkpt lat="47.31781" lon="-2.35433">
        <ele>19.60000038147</ele>
        <time>2021-06-10T07:34:48.000Z</time>
      </trkpt>
      <trkpt lat="47.31779" lon="-2.35431">
        <ele>20</ele>
        <time>2021-06-10T07:34:49.000Z</time>
      </trkpt>
      <trkpt lat="47.31777" lon="-2.35427">
        <ele>20.39999961853</ele>
        <time>2021-06-10T07:34:50.000Z</time>
      </trkpt>
      <trkpt lat="47.31774" lon="-2.35422">
        <ele>20.799999237061</ele>
        <time>2021-06-10T07:34:51.000Z</time>
      </trkpt>
      <trkpt lat="47.31771" lon="-2.35417">
        <ele>21.200000762939</ele>
        <time>2021-06-10T07:34:52.000Z</time>
      </trkpt>
      <trkpt lat="47.31763" lon="-2.35403">
        <ele>21.200000762939</ele>
        <time>2021-06-10T07:34:55.000Z</time>
      </trkpt>
      <trkpt lat="47.31751" lon="-2.35383">
        <ele>21.60000038147</ele>
        <time>2021-06-10T07:35:01.000Z</time>
      </trkpt>
      <trkpt lat="47.31749" lon="-2.35382">
        <ele>22</ele>
        <time>2021-06-10T07:35:02.000Z</time>
      </trkpt>
      <trkpt lat="47.31747" lon="-2.35381">
        <ele>22.39999961853</ele>
        <time>2021-06-10T07:35:03.000Z</time>
      </trkpt>
      <trkpt lat="47.31746" lon="-2.3538">
        <ele>22.799999237061</ele>
        <time>2021-06-10T07:35:04.000Z</time>
      </trkpt>
      <trkpt lat="47.31742" lon="-2.35377">
        <ele>23.200000762939</ele>
        <time>2021-06-10T07:35:05.000Z</time>
      </trkpt>
      <trkpt lat="47.31739" lon="-2.35374">
        <ele>23.200000762939</ele>
        <time>2021-06-10T07:35:06.000Z</time>
      </trkpt>
      <trkpt lat="47.31734" lon="-2.35373">
        <ele>23.200000762939</ele>
        <time>2021-06-10T07:35:08.000Z</time>
      </trkpt>
      <trkpt lat="47.31721" lon="-2.35372">
        <ele>23.200000762939</ele>
        <time>2021-06-10T07:35:13.000Z</time>
      </trkpt>
      <trkpt lat="47.31699" lon="-2.35374">
        <ele>23.200000762939</ele>
        <time>2021-06-10T07:35:19.000Z</time>
      </trkpt>
      <trkpt lat="47.31673" lon="-2.35377">
        <ele>23.799999237061</ele>
        <time>2021-06-10T07:35:25.000Z</time>
      </trkpt>
      <trkpt lat="47.31669" lon="-2.35377">
        <ele>24.200000762939</ele>
        <time>2021-06-10T07:35:26.000Z</time>
      </trkpt>
      <trkpt lat="47.31664" lon="-2.35377">
        <ele>24.60000038147</ele>
        <time>2021-06-10T07:35:27.000Z</time>
      </trkpt>
      <trkpt lat="47.3166" lon="-2.35376">
        <ele>25</ele>
        <time>2021-06-10T07:35:28.000Z</time>
      </trkpt>
      <trkpt lat="47.31656" lon="-2.35375">
        <ele>25.39999961853</ele>
        <time>2021-06-10T07:35:29.000Z</time>
      </trkpt>
      <trkpt lat="47.31632" lon="-2.3537">
        <ele>25.39999961853</ele>
        <time>2021-06-10T07:35:35.000Z</time>
      </trkpt>
      <trkpt lat="47.31604" lon="-2.35371">
        <ele>25.39999961853</ele>
        <time>2021-06-10T07:35:41.000Z</time>
      </trkpt>
      <trkpt lat="47.3158" lon="-2.35378">
        <ele>25.39999961853</ele>
        <time>2021-06-10T07:35:46.000Z</time>
      </trkpt>
      <trkpt lat="47.3157" lon="-2.35383">
        <ele>25.39999961853</ele>
        <time>2021-06-10T07:35:48.000Z</time>
      </trkpt>
      <trkpt lat="47.31543" lon="-2.35397">
        <ele>25.39999961853</ele>
        <time>2021-06-10T07:35:54.000Z</time>
      </trkpt>
      <trkpt lat="47.31517" lon="-2.35418">
        <ele>25.39999961853</ele>
        <time>2021-06-10T07:36:00.000Z</time>
      </trkpt>
      <trkpt lat="47.31514" lon="-2.35422">
        <ele>25.39999961853</ele>
        <time>2021-06-10T07:36:01.000Z</time>
      </trkpt>
      <trkpt lat="47.31506" lon="-2.3543">
        <ele>25.39999961853</ele>
        <time>2021-06-10T07:36:03.000Z</time>
      </trkpt>
      <trkpt lat="47.315" lon="-2.3544">
        <ele>25.39999961853</ele>
        <time>2021-06-10T07:36:05.000Z</time>
      </trkpt>
      <trkpt lat="47.31492" lon="-2.3547">
        <ele>25.39999961853</ele>
        <time>2021-06-10T07:36:10.000Z</time>
      </trkpt>
      <trkpt lat="47.31484" lon="-2.35497">
        <ele>25.39999961853</ele>
        <time>2021-06-10T07:36:15.000Z</time>
      </trkpt>
      <trkpt lat="47.31481" lon="-2.35504">
        <ele>25.39999961853</ele>
        <time>2021-06-10T07:36:16.000Z</time>
      </trkpt>
      <trkpt lat="47.31479" lon="-2.35511">
        <ele>25.799999237061</ele>
        <time>2021-06-10T07:36:17.000Z</time>
      </trkpt>
      <trkpt lat="47.31476" lon="-2.35517">
        <ele>26.200000762939</ele>
        <time>2021-06-10T07:36:18.000Z</time>
      </trkpt>
      <trkpt lat="47.31473" lon="-2.35522">
        <ele>26.60000038147</ele>
        <time>2021-06-10T07:36:19.000Z</time>
      </trkpt>
      <trkpt lat="47.3147" lon="-2.35525">
        <ele>27</ele>
        <time>2021-06-10T07:36:20.000Z</time>
      </trkpt>
      <trkpt lat="47.31466" lon="-2.35528">
        <ele>27.39999961853</ele>
        <time>2021-06-10T07:36:21.000Z</time>
      </trkpt>
      <trkpt lat="47.31457" lon="-2.3553">
        <ele>27.39999961853</ele>
        <time>2021-06-10T07:36:23.000Z</time>
      </trkpt>
      <trkpt lat="47.31438" lon="-2.35533">
        <ele>27.39999961853</ele>
        <time>2021-06-10T07:36:27.000Z</time>
      </trkpt>
      <trkpt lat="47.31427" lon="-2.35534">
        <ele>27.39999961853</ele>
        <time>2021-06-10T07:36:29.000Z</time>
      </trkpt>
      <trkpt lat="47.31421" lon="-2.35534">
        <ele>27.39999961853</ele>
        <time>2021-06-10T07:36:30.000Z</time>
      </trkpt>
      <trkpt lat="47.31399" lon="-2.35535">
        <ele>27.39999961853</ele>
        <time>2021-06-10T07:36:34.000Z</time>
      </trkpt>
      <trkpt lat="47.31369" lon="-2.35539">
        <ele>27.39999961853</ele>
        <time>2021-06-10T07:36:40.000Z</time>
      </trkpt>
      <trkpt lat="47.31352" lon="-2.35545">
        <ele>27.39999961853</ele>
        <time>2021-06-10T07:36:44.000Z</time>
      </trkpt>
      <trkpt lat="47.31347" lon="-2.35547">
        <ele>27.39999961853</ele>
        <time>2021-06-10T07:36:45.000Z</time>
      </trkpt>
      <trkpt lat="47.31343" lon="-2.3555">
        <ele>27.39999961853</ele>
        <time>2021-06-10T07:36:46.000Z</time>
      </trkpt>
      <trkpt lat="47.3133" lon="-2.35566">
        <ele>27.39999961853</ele>
        <time>2021-06-10T07:36:50.000Z</time>
      </trkpt>
      <trkpt lat="47.3133" lon="-2.35586">
        <ele>27.799999237061</ele>
        <time>2021-06-10T07:36:53.000Z</time>
      </trkpt>
      <trkpt lat="47.3133" lon="-2.35593">
        <ele>28.200000762939</ele>
        <time>2021-06-10T07:36:54.000Z</time>
      </trkpt>
      <trkpt lat="47.3133" lon="-2.35599">
        <ele>28.799999237061</ele>
        <time>2021-06-10T07:36:55.000Z</time>
      </trkpt>
      <trkpt lat="47.3133" lon="-2.35606">
        <ele>29.200000762939</ele>
        <time>2021-06-10T07:36:56.000Z</time>
      </trkpt>
      <trkpt lat="47.31331" lon="-2.35612">
        <ele>29.60000038147</ele>
        <time>2021-06-10T07:36:57.000Z</time>
      </trkpt>
      <trkpt lat="47.31333" lon="-2.35632">
        <ele>29.60000038147</ele>
        <time>2021-06-10T07:37:00.000Z</time>
      </trkpt>
      <trkpt lat="47.31333" lon="-2.35639">
        <ele>29.60000038147</ele>
        <time>2021-06-10T07:37:01.000Z</time>
      </trkpt>
      <trkpt lat="47.31333" lon="-2.35664">
        <ele>29.60000038147</ele>
        <time>2021-06-10T07:37:05.000Z</time>
      </trkpt>
      <trkpt lat="47.31333" lon="-2.35671">
        <ele>29.60000038147</ele>
        <time>2021-06-10T07:37:06.000Z</time>
      </trkpt>
      <trkpt lat="47.31333" lon="-2.35678">
        <ele>29.60000038147</ele>
        <time>2021-06-10T07:37:07.000Z</time>
      </trkpt>
      <trkpt lat="47.31333" lon="-2.35708">
        <ele>30</ele>
        <time>2021-06-10T07:37:11.000Z</time>
      </trkpt>
      <trkpt lat="47.31332" lon="-2.35715">
        <ele>30.39999961853</ele>
        <time>2021-06-10T07:37:12.000Z</time>
      </trkpt>
      <trkpt lat="47.31332" lon="-2.35722">
        <ele>30.799999237061</ele>
        <time>2021-06-10T07:37:13.000Z</time>
      </trkpt>
      <trkpt lat="47.31332" lon="-2.35729">
        <ele>31.200000762939</ele>
        <time>2021-06-10T07:37:14.000Z</time>
      </trkpt>
      <trkpt lat="47.31332" lon="-2.35736">
        <ele>31.60000038147</ele>
        <time>2021-06-10T07:37:15.000Z</time>
      </trkpt>
      <trkpt lat="47.31331" lon="-2.35749">
        <ele>31.60000038147</ele>
        <time>2021-06-10T07:37:17.000Z</time>
      </trkpt>
      <trkpt lat="47.31331" lon="-2.35763">
        <ele>31.60000038147</ele>
        <time>2021-06-10T07:37:19.000Z</time>
      </trkpt>
      <trkpt lat="47.31333" lon="-2.35783">
        <ele>31.60000038147</ele>
        <time>2021-06-10T07:37:22.000Z</time>
      </trkpt>
      <trkpt lat="47.31338" lon="-2.35835">
        <ele>31.60000038147</ele>
        <time>2021-06-10T07:37:29.000Z</time>
      </trkpt>
      <trkpt lat="47.31339" lon="-2.35859">
        <ele>31.60000038147</ele>
        <time>2021-06-10T07:37:32.000Z</time>
      </trkpt>
      <trkpt lat="47.31346" lon="-2.35881">
        <ele>31.200000762939</ele>
        <time>2021-06-10T07:37:35.000Z</time>
      </trkpt>
      <trkpt lat="47.3135" lon="-2.35887">
        <ele>30.799999237061</ele>
        <time>2021-06-10T07:37:36.000Z</time>
      </trkpt>
      <trkpt lat="47.31353" lon="-2.35894">
        <ele>30.39999961853</ele>
        <time>2021-06-10T07:37:37.000Z</time>
      </trkpt>
      <trkpt lat="47.31357" lon="-2.359">
        <ele>30</ele>
        <time>2021-06-10T07:37:38.000Z</time>
      </trkpt>
      <trkpt lat="47.3136" lon="-2.35905">
        <ele>29.60000038147</ele>
        <time>2021-06-10T07:37:39.000Z</time>
      </trkpt>
      <trkpt lat="47.31363" lon="-2.35912">
        <ele>29.60000038147</ele>
        <time>2021-06-10T07:37:40.000Z</time>
      </trkpt>
      <trkpt lat="47.31381" lon="-2.35941">
        <ele>29.60000038147</ele>
        <time>2021-06-10T07:37:45.000Z</time>
      </trkpt>
      <trkpt lat="47.31391" lon="-2.35959">
        <ele>29.60000038147</ele>
        <time>2021-06-10T07:37:48.000Z</time>
      </trkpt>
      <trkpt lat="47.31397" lon="-2.35977">
        <ele>29.60000038147</ele>
        <time>2021-06-10T07:37:51.000Z</time>
      </trkpt>
      <trkpt lat="47.31411" lon="-2.36011">
        <ele>29.60000038147</ele>
        <time>2021-06-10T07:37:57.000Z</time>
      </trkpt>
      <trkpt lat="47.31413" lon="-2.36017">
        <ele>29.60000038147</ele>
        <time>2021-06-10T07:37:58.000Z</time>
      </trkpt>
      <trkpt lat="47.31421" lon="-2.36043">
        <ele>30</ele>
        <time>2021-06-10T07:38:02.000Z</time>
      </trkpt>
      <trkpt lat="47.31423" lon="-2.36049">
        <ele>30.39999961853</ele>
        <time>2021-06-10T07:38:03.000Z</time>
      </trkpt>
      <trkpt lat="47.31424" lon="-2.36055">
        <ele>30.799999237061</ele>
        <time>2021-06-10T07:38:04.000Z</time>
      </trkpt>
      <trkpt lat="47.31426" lon="-2.36061">
        <ele>31.200000762939</ele>
        <time>2021-06-10T07:38:05.000Z</time>
      </trkpt>
      <trkpt lat="47.31428" lon="-2.36067">
        <ele>31.60000038147</ele>
        <time>2021-06-10T07:38:06.000Z</time>
      </trkpt>
      <trkpt lat="47.31435" lon="-2.36085">
        <ele>31.60000038147</ele>
        <time>2021-06-10T07:38:09.000Z</time>
      </trkpt>
      <trkpt lat="47.31448" lon="-2.36117">
        <ele>31.60000038147</ele>
        <time>2021-06-10T07:38:15.000Z</time>
      </trkpt>
      <trkpt lat="47.31457" lon="-2.36154">
        <ele>31.60000038147</ele>
        <time>2021-06-10T07:38:21.000Z</time>
      </trkpt>
      <trkpt lat="47.3146" lon="-2.36169">
        <ele>31.60000038147</ele>
        <time>2021-06-10T07:38:23.000Z</time>
      </trkpt>
      <trkpt lat="47.31461" lon="-2.36177">
        <ele>32</ele>
        <time>2021-06-10T07:38:24.000Z</time>
      </trkpt>
      <trkpt lat="47.31462" lon="-2.36185">
        <ele>32.400001525879</ele>
        <time>2021-06-10T07:38:25.000Z</time>
      </trkpt>
      <trkpt lat="47.31463" lon="-2.36193">
        <ele>32.799999237061</ele>
        <time>2021-06-10T07:38:26.000Z</time>
      </trkpt>
      <trkpt lat="47.31464" lon="-2.362">
        <ele>33.200000762939</ele>
        <time>2021-06-10T07:38:27.000Z</time>
      </trkpt>
      <trkpt lat="47.31465" lon="-2.36208">
        <ele>33.599998474121</ele>
        <time>2021-06-10T07:38:28.000Z</time>
      </trkpt>
      <trkpt lat="47.31471" lon="-2.36238">
        <ele>33.599998474121</ele>
        <time>2021-06-10T07:38:32.000Z</time>
      </trkpt>
      <trkpt lat="47.31473" lon="-2.36245">
        <ele>33.599998474121</ele>
        <time>2021-06-10T07:38:33.000Z</time>
      </trkpt>
      <trkpt lat="47.31481" lon="-2.36282">
        <ele>33.599998474121</ele>
        <time>2021-06-10T07:38:38.000Z</time>
      </trkpt>
      <trkpt lat="47.31482" lon="-2.36289">
        <ele>33.200000762939</ele>
        <time>2021-06-10T07:38:39.000Z</time>
      </trkpt>
      <trkpt lat="47.31484" lon="-2.36296">
        <ele>32.799999237061</ele>
        <time>2021-06-10T07:38:40.000Z</time>
      </trkpt>
      <trkpt lat="47.31486" lon="-2.36303">
        <ele>32.400001525879</ele>
        <time>2021-06-10T07:38:41.000Z</time>
      </trkpt>
      <trkpt lat="47.31488" lon="-2.36311">
        <ele>31.60000038147</ele>
        <time>2021-06-10T07:38:42.000Z</time>
      </trkpt>
      <trkpt lat="47.3149" lon="-2.36327">
        <ele>31.60000038147</ele>
        <time>2021-06-10T07:38:44.000Z</time>
      </trkpt>
      <trkpt lat="47.3149" lon="-2.36335">
        <ele>31.60000038147</ele>
        <time>2021-06-10T07:38:45.000Z</time>
      </trkpt>
      <trkpt lat="47.3149" lon="-2.3635">
        <ele>31.60000038147</ele>
        <time>2021-06-10T07:38:47.000Z</time>
      </trkpt>
      <trkpt lat="47.3149" lon="-2.36365">
        <ele>31.60000038147</ele>
        <time>2021-06-10T07:38:49.000Z</time>
      </trkpt>
      <trkpt lat="47.31492" lon="-2.36388">
        <ele>31.200000762939</ele>
        <time>2021-06-10T07:38:52.000Z</time>
      </trkpt>
      <trkpt lat="47.31492" lon="-2.36397">
        <ele>30.799999237061</ele>
        <time>2021-06-10T07:38:53.000Z</time>
      </trkpt>
      <trkpt lat="47.31492" lon="-2.36406">
        <ele>30.39999961853</ele>
        <time>2021-06-10T07:38:54.000Z</time>
      </trkpt>
      <trkpt lat="47.31493" lon="-2.36414">
        <ele>30</ele>
        <time>2021-06-10T07:38:55.000Z</time>
      </trkpt>
      <trkpt lat="47.31493" lon="-2.36423">
        <ele>29.60000038147</ele>
        <time>2021-06-10T07:38:56.000Z</time>
      </trkpt>
      <trkpt lat="47.31495" lon="-2.36456">
        <ele>29.200000762939</ele>
        <time>2021-06-10T07:39:00.000Z</time>
      </trkpt>
      <trkpt lat="47.31495" lon="-2.36464">
        <ele>28.60000038147</ele>
        <time>2021-06-10T07:39:01.000Z</time>
      </trkpt>
      <trkpt lat="47.31496" lon="-2.36471">
        <ele>28.200000762939</ele>
        <time>2021-06-10T07:39:02.000Z</time>
      </trkpt>
      <trkpt lat="47.31496" lon="-2.36476">
        <ele>27.799999237061</ele>
        <time>2021-06-10T07:39:03.000Z</time>
      </trkpt>
      <trkpt lat="47.31497" lon="-2.3648">
        <ele>27.39999961853</ele>
        <time>2021-06-10T07:39:04.000Z</time>
      </trkpt>
      <trkpt lat="47.31497" lon="-2.36483">
        <ele>27.39999961853</ele>
        <time>2021-06-10T07:39:05.000Z</time>
      </trkpt>
      <trkpt lat="47.31496" lon="-2.36495">
        <ele>27</ele>
        <time>2021-06-10T07:39:10.000Z</time>
      </trkpt>
      <trkpt lat="47.31496" lon="-2.36497">
        <ele>26.60000038147</ele>
        <time>2021-06-10T07:39:11.000Z</time>
      </trkpt>
      <trkpt lat="47.31496" lon="-2.36498">
        <ele>26.200000762939</ele>
        <time>2021-06-10T07:39:12.000Z</time>
      </trkpt>
      <trkpt lat="47.31497" lon="-2.365">
        <ele>25.799999237061</ele>
        <time>2021-06-10T07:39:13.000Z</time>
      </trkpt>
      <trkpt lat="47.31497" lon="-2.36502">
        <ele>25.39999961853</ele>
        <time>2021-06-10T07:39:14.000Z</time>
      </trkpt>
      <trkpt lat="47.31497" lon="-2.36509">
        <ele>25.39999961853</ele>
        <time>2021-06-10T07:39:16.000Z</time>
      </trkpt>
      <trkpt lat="47.31498" lon="-2.36514">
        <ele>25.39999961853</ele>
        <time>2021-06-10T07:39:17.000Z</time>
      </trkpt>
      <trkpt lat="47.31495" lon="-2.36532">
        <ele>25.39999961853</ele>
        <time>2021-06-10T07:39:21.000Z</time>
      </trkpt>
      <trkpt lat="47.31497" lon="-2.36562">
        <ele>25.39999961853</ele>
        <time>2021-06-10T07:39:27.000Z</time>
      </trkpt>
      <trkpt lat="47.31496" lon="-2.36566">
        <ele>25.39999961853</ele>
        <time>2021-06-10T07:39:28.000Z</time>
      </trkpt>
      <trkpt lat="47.31494" lon="-2.36581">
        <ele>25.39999961853</ele>
        <time>2021-06-10T07:39:31.000Z</time>
      </trkpt>
      <trkpt lat="47.31496" lon="-2.36596">
        <ele>25.39999961853</ele>
        <time>2021-06-10T07:39:34.000Z</time>
      </trkpt>
      <trkpt lat="47.31498" lon="-2.36604">
        <ele>25.39999961853</ele>
        <time>2021-06-10T07:39:35.000Z</time>
      </trkpt>
      <trkpt lat="47.31513" lon="-2.3666">
        <ele>25.39999961853</ele>
        <time>2021-06-10T07:39:42.000Z</time>
      </trkpt>
      <trkpt lat="47.31521" lon="-2.36697">
        <ele>25.39999961853</ele>
        <time>2021-06-10T07:39:47.000Z</time>
      </trkpt>
      <trkpt lat="47.31523" lon="-2.36704">
        <ele>25.39999961853</ele>
        <time>2021-06-10T07:39:48.000Z</time>
      </trkpt>
      <trkpt lat="47.31534" lon="-2.36759">
        <ele>25.39999961853</ele>
        <time>2021-06-10T07:39:55.000Z</time>
      </trkpt>
      <trkpt lat="47.31536" lon="-2.36773">
        <ele>25.799999237061</ele>
        <time>2021-06-10T07:39:57.000Z</time>
      </trkpt>
      <trkpt lat="47.31537" lon="-2.3678">
        <ele>26.200000762939</ele>
        <time>2021-06-10T07:39:58.000Z</time>
      </trkpt>
      <trkpt lat="47.31539" lon="-2.36787">
        <ele>26.60000038147</ele>
        <time>2021-06-10T07:39:59.000Z</time>
      </trkpt>
      <trkpt lat="47.31541" lon="-2.36793">
        <ele>27</ele>
        <time>2021-06-10T07:40:00.000Z</time>
      </trkpt>
      <trkpt lat="47.31542" lon="-2.368">
        <ele>27.39999961853</ele>
        <time>2021-06-10T07:40:01.000Z</time>
      </trkpt>
      <trkpt lat="47.31546" lon="-2.36812">
        <ele>27.39999961853</ele>
        <time>2021-06-10T07:40:03.000Z</time>
      </trkpt>
      <trkpt lat="47.3155" lon="-2.36824">
        <ele>27.39999961853</ele>
        <time>2021-06-10T07:40:05.000Z</time>
      </trkpt>
      <trkpt lat="47.31552" lon="-2.3683">
        <ele>27.799999237061</ele>
        <time>2021-06-10T07:40:06.000Z</time>
      </trkpt>
      <trkpt lat="47.31553" lon="-2.36836">
        <ele>28.200000762939</ele>
        <time>2021-06-10T07:40:07.000Z</time>
      </trkpt>
      <trkpt lat="47.31556" lon="-2.36843">
        <ele>28.60000038147</ele>
        <time>2021-06-10T07:40:08.000Z</time>
      </trkpt>
      <trkpt lat="47.31558" lon="-2.3685">
        <ele>29</ele>
        <time>2021-06-10T07:40:09.000Z</time>
      </trkpt>
      <trkpt lat="47.31561" lon="-2.36858">
        <ele>29.39999961853</ele>
        <time>2021-06-10T07:40:10.000Z</time>
      </trkpt>
      <trkpt lat="47.31562" lon="-2.36865">
        <ele>29.39999961853</ele>
        <time>2021-06-10T07:40:11.000Z</time>
      </trkpt>
      <trkpt lat="47.31571" lon="-2.36902">
        <ele>30</ele>
        <time>2021-06-10T07:40:16.000Z</time>
      </trkpt>
      <trkpt lat="47.31573" lon="-2.36908">
        <ele>30.39999961853</ele>
        <time>2021-06-10T07:40:17.000Z</time>
      </trkpt>
      <trkpt lat="47.31576" lon="-2.36916">
        <ele>30.799999237061</ele>
        <time>2021-06-10T07:40:18.000Z</time>
      </trkpt>
      <trkpt lat="47.31578" lon="-2.36923">
        <ele>31.200000762939</ele>
        <time>2021-06-10T07:40:19.000Z</time>
      </trkpt>
      <trkpt lat="47.3158" lon="-2.3693">
        <ele>31.799999237061</ele>
        <time>2021-06-10T07:40:20.000Z</time>
      </trkpt>
      <trkpt lat="47.31591" lon="-2.36964">
        <ele>31.799999237061</ele>
        <time>2021-06-10T07:40:25.000Z</time>
      </trkpt>
      <trkpt lat="47.31592" lon="-2.36971">
        <ele>32.200000762939</ele>
        <time>2021-06-10T07:40:26.000Z</time>
      </trkpt>
      <trkpt lat="47.31594" lon="-2.36978">
        <ele>32.599998474121</ele>
        <time>2021-06-10T07:40:27.000Z</time>
      </trkpt>
      <trkpt lat="47.31596" lon="-2.36984">
        <ele>33</ele>
        <time>2021-06-10T07:40:28.000Z</time>
      </trkpt>
      <trkpt lat="47.31598" lon="-2.3699">
        <ele>33.400001525879</ele>
        <time>2021-06-10T07:40:29.000Z</time>
      </trkpt>
      <trkpt lat="47.316" lon="-2.36997">
        <ele>33.799999237061</ele>
        <time>2021-06-10T07:40:30.000Z</time>
      </trkpt>
      <trkpt lat="47.31602" lon="-2.37004">
        <ele>33.799999237061</ele>
        <time>2021-06-10T07:40:31.000Z</time>
      </trkpt>
      <trkpt lat="47.31615" lon="-2.37035">
        <ele>34.200000762939</ele>
        <time>2021-06-10T07:40:36.000Z</time>
      </trkpt>
      <trkpt lat="47.31618" lon="-2.37041">
        <ele>34.599998474121</ele>
        <time>2021-06-10T07:40:37.000Z</time>
      </trkpt>
      <trkpt lat="47.3162" lon="-2.37047">
        <ele>35</ele>
        <time>2021-06-10T07:40:38.000Z</time>
      </trkpt>
      <trkpt lat="47.31623" lon="-2.37053">
        <ele>35.400001525879</ele>
        <time>2021-06-10T07:40:39.000Z</time>
      </trkpt>
      <trkpt lat="47.31626" lon="-2.37059">
        <ele>35.799999237061</ele>
        <time>2021-06-10T07:40:40.000Z</time>
      </trkpt>
      <trkpt lat="47.31642" lon="-2.37092">
        <ele>35.799999237061</ele>
        <time>2021-06-10T07:40:45.000Z</time>
      </trkpt>
      <trkpt lat="47.31661" lon="-2.3713">
        <ele>35.799999237061</ele>
        <time>2021-06-10T07:40:51.000Z</time>
      </trkpt>
      <trkpt lat="47.31667" lon="-2.37143">
        <ele>35.799999237061</ele>
        <time>2021-06-10T07:40:53.000Z</time>
      </trkpt>
      <trkpt lat="47.31686" lon="-2.37186">
        <ele>35.799999237061</ele>
        <time>2021-06-10T07:40:59.000Z</time>
      </trkpt>
      <trkpt lat="47.31687" lon="-2.37196">
        <ele>35.799999237061</ele>
        <time>2021-06-10T07:41:00.000Z</time>
      </trkpt>
      <trkpt lat="47.31684" lon="-2.37224">
        <ele>35.799999237061</ele>
        <time>2021-06-10T07:41:03.000Z</time>
      </trkpt>
      <trkpt lat="47.31667" lon="-2.37249">
        <ele>35.799999237061</ele>
        <time>2021-06-10T07:41:07.000Z</time>
      </trkpt>
      <trkpt lat="47.31657" lon="-2.37259">
        <ele>35.799999237061</ele>
        <time>2021-06-10T07:41:09.000Z</time>
      </trkpt>
      <trkpt lat="47.31639" lon="-2.37279">
        <ele>35.799999237061</ele>
        <time>2021-06-10T07:41:13.000Z</time>
      </trkpt>
      <trkpt lat="47.31625" lon="-2.37298">
        <ele>35.799999237061</ele>
        <time>2021-06-10T07:41:16.000Z</time>
      </trkpt>
      <trkpt lat="47.31621" lon="-2.37315">
        <ele>35.799999237061</ele>
        <time>2021-06-10T07:41:18.000Z</time>
      </trkpt>
      <trkpt lat="47.31623" lon="-2.37342">
        <ele>35.799999237061</ele>
        <time>2021-06-10T07:41:21.000Z</time>
      </trkpt>
      <trkpt lat="47.31626" lon="-2.37356">
        <ele>35.799999237061</ele>
        <time>2021-06-10T07:41:23.000Z</time>
      </trkpt>
      <trkpt lat="47.31631" lon="-2.37376">
        <ele>35.799999237061</ele>
        <time>2021-06-10T07:41:26.000Z</time>
      </trkpt>
      <trkpt lat="47.31632" lon="-2.37383">
        <ele>35.799999237061</ele>
        <time>2021-06-10T07:41:27.000Z</time>
      </trkpt>
      <trkpt lat="47.31636" lon="-2.37414">
        <ele>35.799999237061</ele>
        <time>2021-06-10T07:41:31.000Z</time>
      </trkpt>
      <trkpt lat="47.31637" lon="-2.37465">
        <ele>35.799999237061</ele>
        <time>2021-06-10T07:41:37.000Z</time>
      </trkpt>
      <trkpt lat="47.31638" lon="-2.37493">
        <ele>35.799999237061</ele>
        <time>2021-06-10T07:41:40.000Z</time>
      </trkpt>
      <trkpt lat="47.31634" lon="-2.37511">
        <ele>35.799999237061</ele>
        <time>2021-06-10T07:41:42.000Z</time>
      </trkpt>
      <trkpt lat="47.31625" lon="-2.37537">
        <ele>35.799999237061</ele>
        <time>2021-06-10T07:41:45.000Z</time>
      </trkpt>
      <trkpt lat="47.3162" lon="-2.37554">
        <ele>35.799999237061</ele>
        <time>2021-06-10T07:41:47.000Z</time>
      </trkpt>
      <trkpt lat="47.31616" lon="-2.37572">
        <ele>35.799999237061</ele>
        <time>2021-06-10T07:41:49.000Z</time>
      </trkpt>
      <trkpt lat="47.31614" lon="-2.37599">
        <ele>35.799999237061</ele>
        <time>2021-06-10T07:41:52.000Z</time>
      </trkpt>
      <trkpt lat="47.31614" lon="-2.37609">
        <ele>35.400001525879</ele>
        <time>2021-06-10T07:41:53.000Z</time>
      </trkpt>
      <trkpt lat="47.31615" lon="-2.37617">
        <ele>35</ele>
        <time>2021-06-10T07:41:54.000Z</time>
      </trkpt>
      <trkpt lat="47.31616" lon="-2.37626">
        <ele>34.599998474121</ele>
        <time>2021-06-10T07:41:55.000Z</time>
      </trkpt>
      <trkpt lat="47.31617" lon="-2.37634">
        <ele>34.200000762939</ele>
        <time>2021-06-10T07:41:56.000Z</time>
      </trkpt>
      <trkpt lat="47.3162" lon="-2.37643">
        <ele>33.799999237061</ele>
        <time>2021-06-10T07:41:57.000Z</time>
      </trkpt>
      <trkpt lat="47.31634" lon="-2.37659">
        <ele>33.799999237061</ele>
        <time>2021-06-10T07:42:00.000Z</time>
      </trkpt>
      <trkpt lat="47.31649" lon="-2.37662">
        <ele>33.799999237061</ele>
        <time>2021-06-10T07:42:03.000Z</time>
      </trkpt>
      <trkpt lat="47.31659" lon="-2.3767">
        <ele>33.799999237061</ele>
        <time>2021-06-10T07:42:07.000Z</time>
      </trkpt>
      <trkpt lat="47.31659" lon="-2.37671">
        <ele>33.799999237061</ele>
        <time>2021-06-10T07:42:10.000Z</time>
      </trkpt>
      <trkpt lat="47.3166" lon="-2.37675">
        <ele>33.799999237061</ele>
        <time>2021-06-10T07:42:29.000Z</time>
      </trkpt>
      <trkpt lat="47.31663" lon="-2.37679">
        <ele>33.799999237061</ele>
        <time>2021-06-10T07:42:31.000Z</time>
      </trkpt>
      <trkpt lat="47.31667" lon="-2.37685">
        <ele>33.799999237061</ele>
        <time>2021-06-10T07:42:33.000Z</time>
      </trkpt>
      <trkpt lat="47.31676" lon="-2.37696">
        <ele>33.799999237061</ele>
        <time>2021-06-10T07:42:36.000Z</time>
      </trkpt>
      <trkpt lat="47.31683" lon="-2.37704">
        <ele>33.799999237061</ele>
        <time>2021-06-10T07:42:38.000Z</time>
      </trkpt>
      <trkpt lat="47.31696" lon="-2.37713">
        <ele>33.799999237061</ele>
        <time>2021-06-10T07:42:41.000Z</time>
      </trkpt>
      <trkpt lat="47.31719" lon="-2.37715">
        <ele>33.799999237061</ele>
        <time>2021-06-10T07:42:45.000Z</time>
      </trkpt>
      <trkpt lat="47.31724" lon="-2.37715">
        <ele>33.799999237061</ele>
        <time>2021-06-10T07:42:46.000Z</time>
      </trkpt>
      <trkpt lat="47.31729" lon="-2.37713">
        <ele>33.799999237061</ele>
        <time>2021-06-10T07:42:47.000Z</time>
      </trkpt>
      <trkpt lat="47.31749" lon="-2.37705">
        <ele>33.799999237061</ele>
        <time>2021-06-10T07:42:51.000Z</time>
      </trkpt>
      <trkpt lat="47.31754" lon="-2.37702">
        <ele>33.799999237061</ele>
        <time>2021-06-10T07:42:52.000Z</time>
      </trkpt>
      <trkpt lat="47.31772" lon="-2.37683">
        <ele>33.799999237061</ele>
        <time>2021-06-10T07:42:56.000Z</time>
      </trkpt>
      <trkpt lat="47.31804" lon="-2.37653">
        <ele>33.799999237061</ele>
        <time>2021-06-10T07:43:03.000Z</time>
      </trkpt>
      <trkpt lat="47.31813" lon="-2.37649">
        <ele>33.400001525879</ele>
        <time>2021-06-10T07:43:05.000Z</time>
      </trkpt>
      <trkpt lat="47.31819" lon="-2.37649">
        <ele>33</ele>
        <time>2021-06-10T07:43:06.000Z</time>
      </trkpt>
      <trkpt lat="47.31823" lon="-2.37654">
        <ele>32.599998474121</ele>
        <time>2021-06-10T07:43:07.000Z</time>
      </trkpt>
      <trkpt lat="47.31826" lon="-2.37659">
        <ele>32.200000762939</ele>
        <time>2021-06-10T07:43:08.000Z</time>
      </trkpt>
      <trkpt lat="47.31826" lon="-2.37665">
        <ele>31.799999237061</ele>
        <time>2021-06-10T07:43:09.000Z</time>
      </trkpt>
      <trkpt lat="47.31825" lon="-2.37672">
        <ele>31.799999237061</ele>
        <time>2021-06-10T07:43:10.000Z</time>
      </trkpt>
      <trkpt lat="47.31823" lon="-2.37686">
        <ele>31.799999237061</ele>
        <time>2021-06-10T07:43:12.000Z</time>
      </trkpt>
      <trkpt lat="47.31821" lon="-2.37711">
        <ele>31.799999237061</ele>
        <time>2021-06-10T07:43:15.000Z</time>
      </trkpt>
      <trkpt lat="47.31813" lon="-2.3777">
        <ele>31.799999237061</ele>
        <time>2021-06-10T07:43:22.000Z</time>
      </trkpt>
      <trkpt lat="47.31805" lon="-2.37855">
        <ele>31.799999237061</ele>
        <time>2021-06-10T07:43:31.000Z</time>
      </trkpt>
      <trkpt lat="47.31797" lon="-2.37924">
        <ele>31.799999237061</ele>
        <time>2021-06-10T07:43:38.000Z</time>
      </trkpt>
      <trkpt lat="47.31796" lon="-2.37945">
        <ele>31.39999961853</ele>
        <time>2021-06-10T07:43:40.000Z</time>
      </trkpt>
      <trkpt lat="47.31795" lon="-2.37955">
        <ele>30.799999237061</ele>
        <time>2021-06-10T07:43:41.000Z</time>
      </trkpt>
      <trkpt lat="47.31795" lon="-2.37966">
        <ele>30.39999961853</ele>
        <time>2021-06-10T07:43:42.000Z</time>
      </trkpt>
      <trkpt lat="47.31795" lon="-2.37977">
        <ele>30</ele>
        <time>2021-06-10T07:43:43.000Z</time>
      </trkpt>
      <trkpt lat="47.31795" lon="-2.37988">
        <ele>29.60000038147</ele>
        <time>2021-06-10T07:43:44.000Z</time>
      </trkpt>
      <trkpt lat="47.31795" lon="-2.37999">
        <ele>29.60000038147</ele>
        <time>2021-06-10T07:43:45.000Z</time>
      </trkpt>
      <trkpt lat="47.31799" lon="-2.38072">
        <ele>29.60000038147</ele>
        <time>2021-06-10T07:43:52.000Z</time>
      </trkpt>
      <trkpt lat="47.31801" lon="-2.38107">
        <ele>29.200000762939</ele>
        <time>2021-06-10T07:43:56.000Z</time>
      </trkpt>
      <trkpt lat="47.31801" lon="-2.38116">
        <ele>28.799999237061</ele>
        <time>2021-06-10T07:43:57.000Z</time>
      </trkpt>
      <trkpt lat="47.31802" lon="-2.38125">
        <ele>28.39999961853</ele>
        <time>2021-06-10T07:43:58.000Z</time>
      </trkpt>
      <trkpt lat="47.31803" lon="-2.38133">
        <ele>28</ele>
        <time>2021-06-10T07:43:59.000Z</time>
      </trkpt>
      <trkpt lat="47.31803" lon="-2.38142">
        <ele>27.60000038147</ele>
        <time>2021-06-10T07:44:00.000Z</time>
      </trkpt>
      <trkpt lat="47.31805" lon="-2.3821">
        <ele>27.60000038147</ele>
        <time>2021-06-10T07:44:08.000Z</time>
      </trkpt>
      <trkpt lat="47.31805" lon="-2.38266">
        <ele>27.60000038147</ele>
        <time>2021-06-10T07:44:15.000Z</time>
      </trkpt>
      <trkpt lat="47.31805" lon="-2.38275">
        <ele>28</ele>
        <time>2021-06-10T07:44:16.000Z</time>
      </trkpt>
      <trkpt lat="47.31805" lon="-2.38282">
        <ele>28.39999961853</ele>
        <time>2021-06-10T07:44:17.000Z</time>
      </trkpt>
      <trkpt lat="47.31805" lon="-2.3829">
        <ele>28.799999237061</ele>
        <time>2021-06-10T07:44:18.000Z</time>
      </trkpt>
      <trkpt lat="47.31805" lon="-2.38298">
        <ele>29.200000762939</ele>
        <time>2021-06-10T07:44:19.000Z</time>
      </trkpt>
      <trkpt lat="47.31805" lon="-2.38306">
        <ele>29.60000038147</ele>
        <time>2021-06-10T07:44:20.000Z</time>
      </trkpt>
      <trkpt lat="47.31805" lon="-2.38331">
        <ele>29.60000038147</ele>
        <time>2021-06-10T07:44:23.000Z</time>
      </trkpt>
      <trkpt lat="47.31807" lon="-2.38365">
        <ele>30</ele>
        <time>2021-06-10T07:44:27.000Z</time>
      </trkpt>
      <trkpt lat="47.31807" lon="-2.38374">
        <ele>31</ele>
        <time>2021-06-10T07:44:28.000Z</time>
      </trkpt>
      <trkpt lat="47.31808" lon="-2.38382">
        <ele>31.39999961853</ele>
        <time>2021-06-10T07:44:29.000Z</time>
      </trkpt>
      <trkpt lat="47.31808" lon="-2.3839">
        <ele>32</ele>
        <time>2021-06-10T07:44:30.000Z</time>
      </trkpt>
      <trkpt lat="47.3181" lon="-2.3845">
        <ele>32.400001525879</ele>
        <time>2021-06-10T07:44:37.000Z</time>
      </trkpt>
      <trkpt lat="47.3181" lon="-2.38459">
        <ele>32.799999237061</ele>
        <time>2021-06-10T07:44:38.000Z</time>
      </trkpt>
      <trkpt lat="47.3181" lon="-2.38467">
        <ele>33.200000762939</ele>
        <time>2021-06-10T07:44:39.000Z</time>
      </trkpt>
      <trkpt lat="47.3181" lon="-2.38475">
        <ele>33.599998474121</ele>
        <time>2021-06-10T07:44:40.000Z</time>
      </trkpt>
      <trkpt lat="47.3181" lon="-2.38483">
        <ele>34</ele>
        <time>2021-06-10T07:44:41.000Z</time>
      </trkpt>
      <trkpt lat="47.3181" lon="-2.38513">
        <ele>34</ele>
        <time>2021-06-10T07:44:45.000Z</time>
      </trkpt>
      <trkpt lat="47.31809" lon="-2.38521">
        <ele>34</ele>
        <time>2021-06-10T07:44:46.000Z</time>
      </trkpt>
      <trkpt lat="47.31803" lon="-2.38539">
        <ele>34</ele>
        <time>2021-06-10T07:44:49.000Z</time>
      </trkpt>
      <trkpt lat="47.3179" lon="-2.38549">
        <ele>34</ele>
        <time>2021-06-10T07:44:52.000Z</time>
      </trkpt>
      <trkpt lat="47.31757" lon="-2.38567">
        <ele>34</ele>
        <time>2021-06-10T07:44:58.000Z</time>
      </trkpt>
      <trkpt lat="47.31713" lon="-2.38591">
        <ele>34</ele>
        <time>2021-06-10T07:45:06.000Z</time>
      </trkpt>
      <trkpt lat="47.31673" lon="-2.38614">
        <ele>34</ele>
        <time>2021-06-10T07:45:13.000Z</time>
      </trkpt>
      <trkpt lat="47.31641" lon="-2.38644">
        <ele>34</ele>
        <time>2021-06-10T07:45:19.000Z</time>
      </trkpt>
      <trkpt lat="47.31609" lon="-2.3869">
        <ele>34</ele>
        <time>2021-06-10T07:45:26.000Z</time>
      </trkpt>
      <trkpt lat="47.3157" lon="-2.38748">
        <ele>34</ele>
        <time>2021-06-10T07:45:35.000Z</time>
      </trkpt>
      <trkpt lat="47.31566" lon="-2.38754">
        <ele>34</ele>
        <time>2021-06-10T07:45:36.000Z</time>
      </trkpt>
      <trkpt lat="47.31534" lon="-2.38805">
        <ele>34</ele>
        <time>2021-06-10T07:45:44.000Z</time>
      </trkpt>
      <trkpt lat="47.31514" lon="-2.38847">
        <ele>34</ele>
        <time>2021-06-10T07:45:50.000Z</time>
      </trkpt>
      <trkpt lat="47.31507" lon="-2.38862">
        <ele>34.400001525879</ele>
        <time>2021-06-10T07:45:52.000Z</time>
      </trkpt>
      <trkpt lat="47.31504" lon="-2.38868">
        <ele>34.799999237061</ele>
        <time>2021-06-10T07:45:53.000Z</time>
      </trkpt>
      <trkpt lat="47.315" lon="-2.38876">
        <ele>35.200000762939</ele>
        <time>2021-06-10T07:45:54.000Z</time>
      </trkpt>
      <trkpt lat="47.31497" lon="-2.38883">
        <ele>35.599998474121</ele>
        <time>2021-06-10T07:45:55.000Z</time>
      </trkpt>
      <trkpt lat="47.31493" lon="-2.3889">
        <ele>36</ele>
        <time>2021-06-10T07:45:56.000Z</time>
      </trkpt>
      <trkpt lat="47.31479" lon="-2.38917">
        <ele>36</ele>
        <time>2021-06-10T07:46:00.000Z</time>
      </trkpt>
      <trkpt lat="47.31449" lon="-2.38972">
        <ele>36</ele>
        <time>2021-06-10T07:46:08.000Z</time>
      </trkpt>
      <trkpt lat="47.31446" lon="-2.38979">
        <ele>36.400001525879</ele>
        <time>2021-06-10T07:46:09.000Z</time>
      </trkpt>
      <trkpt lat="47.31442" lon="-2.38987">
        <ele>36.799999237061</ele>
        <time>2021-06-10T07:46:10.000Z</time>
      </trkpt>
      <trkpt lat="47.31439" lon="-2.38994">
        <ele>37.200000762939</ele>
        <time>2021-06-10T07:46:11.000Z</time>
      </trkpt>
      <trkpt lat="47.31436" lon="-2.39001">
        <ele>37.599998474121</ele>
        <time>2021-06-10T07:46:12.000Z</time>
      </trkpt>
      <trkpt lat="47.31433" lon="-2.39009">
        <ele>38</ele>
        <time>2021-06-10T07:46:13.000Z</time>
      </trkpt>
      <trkpt lat="47.3143" lon="-2.39017">
        <ele>38</ele>
        <time>2021-06-10T07:46:14.000Z</time>
      </trkpt>
      <trkpt lat="47.31428" lon="-2.39025">
        <ele>38</ele>
        <time>2021-06-10T07:46:15.000Z</time>
      </trkpt>
      <trkpt lat="47.31417" lon="-2.39048">
        <ele>38</ele>
        <time>2021-06-10T07:46:18.000Z</time>
      </trkpt>
      <trkpt lat="47.31404" lon="-2.39069">
        <ele>38</ele>
        <time>2021-06-10T07:46:21.000Z</time>
      </trkpt>
      <trkpt lat="47.31375" lon="-2.3911">
        <ele>38</ele>
        <time>2021-06-10T07:46:28.000Z</time>
      </trkpt>
      <trkpt lat="47.31361" lon="-2.39125">
        <ele>38.799999237061</ele>
        <time>2021-06-10T07:46:31.000Z</time>
      </trkpt>
      <trkpt lat="47.31356" lon="-2.3913">
        <ele>39.200000762939</ele>
        <time>2021-06-10T07:46:32.000Z</time>
      </trkpt>
      <trkpt lat="47.31351" lon="-2.39136">
        <ele>39.799999237061</ele>
        <time>2021-06-10T07:46:33.000Z</time>
      </trkpt>
      <trkpt lat="47.31347" lon="-2.3914">
        <ele>40.200000762939</ele>
        <time>2021-06-10T07:46:34.000Z</time>
      </trkpt>
      <trkpt lat="47.31316" lon="-2.39171">
        <ele>40.200000762939</ele>
        <time>2021-06-10T07:46:40.000Z</time>
      </trkpt>
      <trkpt lat="47.31278" lon="-2.39213">
        <ele>40.200000762939</ele>
        <time>2021-06-10T07:46:48.000Z</time>
      </trkpt>
      <trkpt lat="47.31238" lon="-2.39269">
        <ele>40.200000762939</ele>
        <time>2021-06-10T07:46:57.000Z</time>
      </trkpt>
      <trkpt lat="47.31207" lon="-2.39306">
        <ele>40.200000762939</ele>
        <time>2021-06-10T07:47:03.000Z</time>
      </trkpt>
      <trkpt lat="47.31201" lon="-2.39311">
        <ele>40.200000762939</ele>
        <time>2021-06-10T07:47:04.000Z</time>
      </trkpt>
      <trkpt lat="47.31195" lon="-2.39316">
        <ele>40.200000762939</ele>
        <time>2021-06-10T07:47:05.000Z</time>
      </trkpt>
      <trkpt lat="47.31167" lon="-2.39333">
        <ele>39.799999237061</ele>
        <time>2021-06-10T07:47:09.000Z</time>
      </trkpt>
      <trkpt lat="47.31161" lon="-2.39338">
        <ele>39.400001525879</ele>
        <time>2021-06-10T07:47:10.000Z</time>
      </trkpt>
      <trkpt lat="47.31154" lon="-2.39343">
        <ele>38.799999237061</ele>
        <time>2021-06-10T07:47:11.000Z</time>
      </trkpt>
      <trkpt lat="47.31147" lon="-2.39349">
        <ele>38.400001525879</ele>
        <time>2021-06-10T07:47:12.000Z</time>
      </trkpt>
      <trkpt lat="47.31141" lon="-2.39354">
        <ele>38</ele>
        <time>2021-06-10T07:47:13.000Z</time>
      </trkpt>
      <trkpt lat="47.31129" lon="-2.39366">
        <ele>38</ele>
        <time>2021-06-10T07:47:15.000Z</time>
      </trkpt>
      <trkpt lat="47.31102" lon="-2.39399">
        <ele>38</ele>
        <time>2021-06-10T07:47:20.000Z</time>
      </trkpt>
      <trkpt lat="47.31087" lon="-2.39421">
        <ele>37.599998474121</ele>
        <time>2021-06-10T07:47:23.000Z</time>
      </trkpt>
      <trkpt lat="47.31082" lon="-2.39428">
        <ele>37.200000762939</ele>
        <time>2021-06-10T07:47:24.000Z</time>
      </trkpt>
      <trkpt lat="47.31077" lon="-2.39435">
        <ele>36.799999237061</ele>
        <time>2021-06-10T07:47:25.000Z</time>
      </trkpt>
      <trkpt lat="47.31072" lon="-2.39441">
        <ele>36.400001525879</ele>
        <time>2021-06-10T07:47:26.000Z</time>
      </trkpt>
      <trkpt lat="47.31067" lon="-2.39448">
        <ele>36</ele>
        <time>2021-06-10T07:47:27.000Z</time>
      </trkpt>
      <trkpt lat="47.31056" lon="-2.39459">
        <ele>36</ele>
        <time>2021-06-10T07:47:29.000Z</time>
      </trkpt>
      <trkpt lat="47.31049" lon="-2.39471">
        <ele>36</ele>
        <time>2021-06-10T07:47:31.000Z</time>
      </trkpt>
      <trkpt lat="47.31052" lon="-2.39492">
        <ele>36</ele>
        <time>2021-06-10T07:47:34.000Z</time>
      </trkpt>
      <trkpt lat="47.31054" lon="-2.39498">
        <ele>36</ele>
        <time>2021-06-10T07:47:35.000Z</time>
      </trkpt>
      <trkpt lat="47.31075" lon="-2.3956">
        <ele>36</ele>
        <time>2021-06-10T07:47:44.000Z</time>
      </trkpt>
      <trkpt lat="47.31087" lon="-2.39596">
        <ele>36.400001525879</ele>
        <time>2021-06-10T07:47:49.000Z</time>
      </trkpt>
      <trkpt lat="47.31089" lon="-2.39603">
        <ele>36.799999237061</ele>
        <time>2021-06-10T07:47:50.000Z</time>
      </trkpt>
      <trkpt lat="47.31092" lon="-2.39611">
        <ele>37.200000762939</ele>
        <time>2021-06-10T07:47:51.000Z</time>
      </trkpt>
      <trkpt lat="47.31095" lon="-2.39619">
        <ele>37.599998474121</ele>
        <time>2021-06-10T07:47:52.000Z</time>
      </trkpt>
      <trkpt lat="47.31097" lon="-2.39627">
        <ele>38.200000762939</ele>
        <time>2021-06-10T07:47:53.000Z</time>
      </trkpt>
      <trkpt lat="47.311" lon="-2.39635">
        <ele>38.200000762939</ele>
        <time>2021-06-10T07:47:54.000Z</time>
      </trkpt>
      <trkpt lat="47.31128" lon="-2.39712">
        <ele>38.200000762939</ele>
        <time>2021-06-10T07:48:03.000Z</time>
      </trkpt>
      <trkpt lat="47.31131" lon="-2.39721">
        <ele>38.200000762939</ele>
        <time>2021-06-10T07:48:04.000Z</time>
      </trkpt>
      <trkpt lat="47.31156" lon="-2.39794">
        <ele>38.200000762939</ele>
        <time>2021-06-10T07:48:12.000Z</time>
      </trkpt>
      <trkpt lat="47.3116" lon="-2.39802">
        <ele>37.799999237061</ele>
        <time>2021-06-10T07:48:13.000Z</time>
      </trkpt>
      <trkpt lat="47.31163" lon="-2.3981">
        <ele>37.200000762939</ele>
        <time>2021-06-10T07:48:14.000Z</time>
      </trkpt>
      <trkpt lat="47.31165" lon="-2.39818">
        <ele>36.799999237061</ele>
        <time>2021-06-10T07:48:15.000Z</time>
      </trkpt>
      <trkpt lat="47.31167" lon="-2.39826">
        <ele>36.400001525879</ele>
        <time>2021-06-10T07:48:16.000Z</time>
      </trkpt>
      <trkpt lat="47.3117" lon="-2.39834">
        <ele>36</ele>
        <time>2021-06-10T07:48:17.000Z</time>
      </trkpt>
      <trkpt lat="47.31179" lon="-2.39856">
        <ele>36</ele>
        <time>2021-06-10T07:48:20.000Z</time>
      </trkpt>
      <trkpt lat="47.31185" lon="-2.39878">
        <ele>36</ele>
        <time>2021-06-10T07:48:23.000Z</time>
      </trkpt>
      <trkpt lat="47.31191" lon="-2.39896">
        <ele>36</ele>
        <time>2021-06-10T07:48:27.000Z</time>
      </trkpt>
      <trkpt lat="47.31196" lon="-2.39911">
        <ele>35.599998474121</ele>
        <time>2021-06-10T07:48:30.000Z</time>
      </trkpt>
      <trkpt lat="47.31197" lon="-2.39915">
        <ele>35.200000762939</ele>
        <time>2021-06-10T07:48:31.000Z</time>
      </trkpt>
      <trkpt lat="47.31199" lon="-2.39919">
        <ele>34.599998474121</ele>
        <time>2021-06-10T07:48:32.000Z</time>
      </trkpt>
      <trkpt lat="47.312" lon="-2.39922">
        <ele>34.200000762939</ele>
        <time>2021-06-10T07:48:33.000Z</time>
      </trkpt>
      <trkpt lat="47.31202" lon="-2.39926">
        <ele>33.599998474121</ele>
        <time>2021-06-10T07:48:34.000Z</time>
      </trkpt>
      <trkpt lat="47.31209" lon="-2.39944">
        <ele>33.599998474121</ele>
        <time>2021-06-10T07:48:39.000Z</time>
      </trkpt>
      <trkpt lat="47.31212" lon="-2.39951">
        <ele>33.200000762939</ele>
        <time>2021-06-10T07:48:41.000Z</time>
      </trkpt>
      <trkpt lat="47.31214" lon="-2.39955">
        <ele>32.799999237061</ele>
        <time>2021-06-10T07:48:42.000Z</time>
      </trkpt>
      <trkpt lat="47.31215" lon="-2.39959">
        <ele>32.400001525879</ele>
        <time>2021-06-10T07:48:43.000Z</time>
      </trkpt>
      <trkpt lat="47.31217" lon="-2.39962">
        <ele>32</ele>
        <time>2021-06-10T07:48:44.000Z</time>
      </trkpt>
      <trkpt lat="47.31218" lon="-2.39967">
        <ele>31.60000038147</ele>
        <time>2021-06-10T07:48:45.000Z</time>
      </trkpt>
      <trkpt lat="47.31227" lon="-2.39994">
        <ele>31.60000038147</ele>
        <time>2021-06-10T07:48:51.000Z</time>
      </trkpt>
      <trkpt lat="47.3123" lon="-2.40003">
        <ele>31</ele>
        <time>2021-06-10T07:48:53.000Z</time>
      </trkpt>
      <trkpt lat="47.3123" lon="-2.40008">
        <ele>30.60000038147</ele>
        <time>2021-06-10T07:48:54.000Z</time>
      </trkpt>
      <trkpt lat="47.31231" lon="-2.40013">
        <ele>30.200000762939</ele>
        <time>2021-06-10T07:48:55.000Z</time>
      </trkpt>
      <trkpt lat="47.31232" lon="-2.40017">
        <ele>29.799999237061</ele>
        <time>2021-06-10T07:48:56.000Z</time>
      </trkpt>
      <trkpt lat="47.31233" lon="-2.40022">
        <ele>29.39999961853</ele>
        <time>2021-06-10T07:48:57.000Z</time>
      </trkpt>
      <trkpt lat="47.31238" lon="-2.40039">
        <ele>29.39999961853</ele>
        <time>2021-06-10T07:49:01.000Z</time>
      </trkpt>
      <trkpt lat="47.31245" lon="-2.40041">
        <ele>29.39999961853</ele>
        <time>2021-06-10T07:49:04.000Z</time>
      </trkpt>
      <trkpt lat="47.31251" lon="-2.40047">
        <ele>29.39999961853</ele>
        <time>2021-06-10T07:49:07.000Z</time>
      </trkpt>
      <trkpt lat="47.31258" lon="-2.40053">
        <ele>29.39999961853</ele>
        <time>2021-06-10T07:49:09.000Z</time>
      </trkpt>
      <trkpt lat="47.31274" lon="-2.40059">
        <ele>29.39999961853</ele>
        <time>2021-06-10T07:49:12.000Z</time>
      </trkpt>
      <trkpt lat="47.31303" lon="-2.40066">
        <ele>29.39999961853</ele>
        <time>2021-06-10T07:49:18.000Z</time>
      </trkpt>
      <trkpt lat="47.31338" lon="-2.4008">
        <ele>29.39999961853</ele>
        <time>2021-06-10T07:49:25.000Z</time>
      </trkpt>
      <trkpt lat="47.31372" lon="-2.40094">
        <ele>29.39999961853</ele>
        <time>2021-06-10T07:49:32.000Z</time>
      </trkpt>
      <trkpt lat="47.31394" lon="-2.40106">
        <ele>29.39999961853</ele>
        <time>2021-06-10T07:49:38.000Z</time>
      </trkpt>
      <trkpt lat="47.31419" lon="-2.40122">
        <ele>29.39999961853</ele>
        <time>2021-06-10T07:49:45.000Z</time>
      </trkpt>
      <trkpt lat="47.31447" lon="-2.40148">
        <ele>29.39999961853</ele>
        <time>2021-06-10T07:49:53.000Z</time>
      </trkpt>
      <trkpt lat="47.3146" lon="-2.40159">
        <ele>29.799999237061</ele>
        <time>2021-06-10T07:49:57.000Z</time>
      </trkpt>
      <trkpt lat="47.31463" lon="-2.40161">
        <ele>30.200000762939</ele>
        <time>2021-06-10T07:49:58.000Z</time>
      </trkpt>
      <trkpt lat="47.31467" lon="-2.40164">
        <ele>30.60000038147</ele>
        <time>2021-06-10T07:49:59.000Z</time>
      </trkpt>
      <trkpt lat="47.3147" lon="-2.40166">
        <ele>31</ele>
        <time>2021-06-10T07:50:00.000Z</time>
      </trkpt>
      <trkpt lat="47.31473" lon="-2.40169">
        <ele>31.39999961853</ele>
        <time>2021-06-10T07:50:01.000Z</time>
      </trkpt>
      <trkpt lat="47.31489" lon="-2.40182">
        <ele>31.39999961853</ele>
        <time>2021-06-10T07:50:06.000Z</time>
      </trkpt>
      <trkpt lat="47.31515" lon="-2.402">
        <ele>31.39999961853</ele>
        <time>2021-06-10T07:50:13.000Z</time>
      </trkpt>
      <trkpt lat="47.31542" lon="-2.40221">
        <ele>31.39999961853</ele>
        <time>2021-06-10T07:50:20.000Z</time>
      </trkpt>
      <trkpt lat="47.31569" lon="-2.40243">
        <ele>31.39999961853</ele>
        <time>2021-06-10T07:50:28.000Z</time>
      </trkpt>
      <trkpt lat="47.31591" lon="-2.40261">
        <ele>31.799999237061</ele>
        <time>2021-06-10T07:50:34.000Z</time>
      </trkpt>
      <trkpt lat="47.31595" lon="-2.40263">
        <ele>32.200000762939</ele>
        <time>2021-06-10T07:50:35.000Z</time>
      </trkpt>
      <trkpt lat="47.31598" lon="-2.40265">
        <ele>32.599998474121</ele>
        <time>2021-06-10T07:50:36.000Z</time>
      </trkpt>
      <trkpt lat="47.31602" lon="-2.40268">
        <ele>33</ele>
        <time>2021-06-10T07:50:37.000Z</time>
      </trkpt>
      <trkpt lat="47.31605" lon="-2.4027">
        <ele>33.400001525879</ele>
        <time>2021-06-10T07:50:38.000Z</time>
      </trkpt>
      <trkpt lat="47.31616" lon="-2.40279">
        <ele>33.400001525879</ele>
        <time>2021-06-10T07:50:41.000Z</time>
      </trkpt>
      <trkpt lat="47.31641" lon="-2.40298">
        <ele>33.400001525879</ele>
        <time>2021-06-10T07:50:48.000Z</time>
      </trkpt>
      <trkpt lat="47.31661" lon="-2.40313">
        <ele>33.400001525879</ele>
        <time>2021-06-10T07:50:54.000Z</time>
      </trkpt>
      <trkpt lat="47.31672" lon="-2.40323">
        <ele>34</ele>
        <time>2021-06-10T07:50:58.000Z</time>
      </trkpt>
      <trkpt lat="47.31674" lon="-2.40326">
        <ele>34.400001525879</ele>
        <time>2021-06-10T07:50:59.000Z</time>
      </trkpt>
      <trkpt lat="47.31677" lon="-2.40329">
        <ele>34.799999237061</ele>
        <time>2021-06-10T07:51:00.000Z</time>
      </trkpt>
      <trkpt lat="47.31679" lon="-2.40329">
        <ele>35.400001525879</ele>
        <time>2021-06-10T07:51:01.000Z</time>
      </trkpt>
      <trkpt lat="47.31682" lon="-2.40327">
        <ele>35.799999237061</ele>
        <time>2021-06-10T07:51:02.000Z</time>
      </trkpt>
      <trkpt lat="47.31685" lon="-2.40323">
        <ele>35.799999237061</ele>
        <time>2021-06-10T07:51:03.000Z</time>
      </trkpt>
      <trkpt lat="47.31686" lon="-2.40315">
        <ele>35.799999237061</ele>
        <time>2021-06-10T07:51:06.000Z</time>
      </trkpt>
      <trkpt lat="47.31687" lon="-2.40312">
        <ele>35.799999237061</ele>
        <time>2021-06-10T07:51:08.000Z</time>
      </trkpt>
      <trkpt lat="47.3169" lon="-2.40304">
        <ele>35.799999237061</ele>
        <time>2021-06-10T07:51:13.000Z</time>
      </trkpt>
      <trkpt lat="47.31691" lon="-2.40304">
        <ele>35.799999237061</ele>
        <time>2021-06-10T07:51:14.000Z</time>
      </trkpt>
      <trkpt lat="47.31696" lon="-2.40299">
        <ele>35.799999237061</ele>
        <time>2021-06-10T07:51:18.000Z</time>
      </trkpt>
      <trkpt lat="47.31699" lon="-2.40295">
        <ele>35.799999237061</ele>
        <time>2021-06-10T07:51:20.000Z</time>
      </trkpt>
      <trkpt lat="47.31706" lon="-2.40287">
        <ele>35.799999237061</ele>
        <time>2021-06-10T07:51:24.000Z</time>
      </trkpt>
      <trkpt lat="47.31719" lon="-2.40267">
        <ele>35.799999237061</ele>
        <time>2021-06-10T07:51:29.000Z</time>
      </trkpt>
      <trkpt lat="47.31725" lon="-2.40258">
        <ele>36.200000762939</ele>
        <time>2021-06-10T07:51:31.000Z</time>
      </trkpt>
      <trkpt lat="47.31728" lon="-2.40254">
        <ele>36.599998474121</ele>
        <time>2021-06-10T07:51:32.000Z</time>
      </trkpt>
      <trkpt lat="47.31731" lon="-2.40249">
        <ele>37</ele>
        <time>2021-06-10T07:51:33.000Z</time>
      </trkpt>
      <trkpt lat="47.31733" lon="-2.40243">
        <ele>37.400001525879</ele>
        <time>2021-06-10T07:51:34.000Z</time>
      </trkpt>
      <trkpt lat="47.31735" lon="-2.40237">
        <ele>37.799999237061</ele>
        <time>2021-06-10T07:51:35.000Z</time>
      </trkpt>
      <trkpt lat="47.3175" lon="-2.40202">
        <ele>37.799999237061</ele>
        <time>2021-06-10T07:51:40.000Z</time>
      </trkpt>
      <trkpt lat="47.31768" lon="-2.40164">
        <ele>37.799999237061</ele>
        <time>2021-06-10T07:51:45.000Z</time>
      </trkpt>
      <trkpt lat="47.31772" lon="-2.40157">
        <ele>37.799999237061</ele>
        <time>2021-06-10T07:51:46.000Z</time>
      </trkpt>
      <trkpt lat="47.31796" lon="-2.4012">
        <ele>37.799999237061</ele>
        <time>2021-06-10T07:51:52.000Z</time>
      </trkpt>
      <trkpt lat="47.31835" lon="-2.40072">
        <ele>37.799999237061</ele>
        <time>2021-06-10T07:52:00.000Z</time>
      </trkpt>
      <trkpt lat="47.31879" lon="-2.4001">
        <ele>37.799999237061</ele>
        <time>2021-06-10T07:52:09.000Z</time>
      </trkpt>
      <trkpt lat="47.31909" lon="-2.3997">
        <ele>37.799999237061</ele>
        <time>2021-06-10T07:52:15.000Z</time>
      </trkpt>
      <trkpt lat="47.31913" lon="-2.39965">
        <ele>37.799999237061</ele>
        <time>2021-06-10T07:52:16.000Z</time>
      </trkpt>
      <trkpt lat="47.31943" lon="-2.39937">
        <ele>37.799999237061</ele>
        <time>2021-06-10T07:52:22.000Z</time>
      </trkpt>
      <trkpt lat="47.31975" lon="-2.3991">
        <ele>37.799999237061</ele>
        <time>2021-06-10T07:52:28.000Z</time>
      </trkpt>
      <trkpt lat="47.31979" lon="-2.39905">
        <ele>38.200000762939</ele>
        <time>2021-06-10T07:52:29.000Z</time>
      </trkpt>
      <trkpt lat="47.31985" lon="-2.39901">
        <ele>38.599998474121</ele>
        <time>2021-06-10T07:52:30.000Z</time>
      </trkpt>
      <trkpt lat="47.3199" lon="-2.39897">
        <ele>39</ele>
        <time>2021-06-10T07:52:31.000Z</time>
      </trkpt>
      <trkpt lat="47.31995" lon="-2.39892">
        <ele>39.400001525879</ele>
        <time>2021-06-10T07:52:32.000Z</time>
      </trkpt>
      <trkpt lat="47.32001" lon="-2.39888">
        <ele>39.799999237061</ele>
        <time>2021-06-10T07:52:33.000Z</time>
      </trkpt>
      <trkpt lat="47.32006" lon="-2.39883">
        <ele>39.799999237061</ele>
        <time>2021-06-10T07:52:34.000Z</time>
      </trkpt>
      <trkpt lat="47.32032" lon="-2.39862">
        <ele>40.200000762939</ele>
        <time>2021-06-10T07:52:39.000Z</time>
      </trkpt>
      <trkpt lat="47.32037" lon="-2.39857">
        <ele>40.599998474121</ele>
        <time>2021-06-10T07:52:40.000Z</time>
      </trkpt>
      <trkpt lat="47.32042" lon="-2.39853">
        <ele>41</ele>
        <time>2021-06-10T07:52:41.000Z</time>
      </trkpt>
      <trkpt lat="47.32047" lon="-2.39849">
        <ele>42</ele>
        <time>2021-06-10T07:52:42.000Z</time>
      </trkpt>
      <trkpt lat="47.32079" lon="-2.39825">
        <ele>42</ele>
        <time>2021-06-10T07:52:49.000Z</time>
      </trkpt>
      <trkpt lat="47.32085" lon="-2.39807">
        <ele>42</ele>
        <time>2021-06-10T07:52:53.000Z</time>
      </trkpt>
      <trkpt lat="47.32085" lon="-2.39801">
        <ele>42</ele>
        <time>2021-06-10T07:52:54.000Z</time>
      </trkpt>
      <trkpt lat="47.32083" lon="-2.39782">
        <ele>42</ele>
        <time>2021-06-10T07:52:57.000Z</time>
      </trkpt>
      <trkpt lat="47.32075" lon="-2.39733">
        <ele>42</ele>
        <time>2021-06-10T07:53:04.000Z</time>
      </trkpt>
      <trkpt lat="47.32064" lon="-2.39678">
        <ele>42</ele>
        <time>2021-06-10T07:53:12.000Z</time>
      </trkpt>
      <trkpt lat="47.3206" lon="-2.39638">
        <ele>42</ele>
        <time>2021-06-10T07:53:17.000Z</time>
      </trkpt>
      <trkpt lat="47.32046" lon="-2.39582">
        <ele>42</ele>
        <time>2021-06-10T07:53:22.000Z</time>
      </trkpt>
      <trkpt lat="47.32028" lon="-2.39505">
        <ele>42</ele>
        <time>2021-06-10T07:53:29.000Z</time>
      </trkpt>
      <trkpt lat="47.32025" lon="-2.39495">
        <ele>42</ele>
        <time>2021-06-10T07:53:30.000Z</time>
      </trkpt>
      <trkpt lat="47.32019" lon="-2.39473">
        <ele>41.599998474121</ele>
        <time>2021-06-10T07:53:32.000Z</time>
      </trkpt>
      <trkpt lat="47.32016" lon="-2.39463">
        <ele>41.200000762939</ele>
        <time>2021-06-10T07:53:33.000Z</time>
      </trkpt>
      <trkpt lat="47.32014" lon="-2.39453">
        <ele>40.599998474121</ele>
        <time>2021-06-10T07:53:34.000Z</time>
      </trkpt>
      <trkpt lat="47.32011" lon="-2.39444">
        <ele>40.200000762939</ele>
        <time>2021-06-10T07:53:35.000Z</time>
      </trkpt>
      <trkpt lat="47.3201" lon="-2.39435">
        <ele>39.799999237061</ele>
        <time>2021-06-10T07:53:36.000Z</time>
      </trkpt>
      <trkpt lat="47.32007" lon="-2.39424">
        <ele>39.799999237061</ele>
        <time>2021-06-10T07:53:37.000Z</time>
      </trkpt>
      <trkpt lat="47.31988" lon="-2.3936">
        <ele>39.799999237061</ele>
        <time>2021-06-10T07:53:43.000Z</time>
      </trkpt>
      <trkpt lat="47.31981" lon="-2.39335">
        <ele>39.400001525879</ele>
        <time>2021-06-10T07:53:46.000Z</time>
      </trkpt>
      <trkpt lat="47.31978" lon="-2.39326">
        <ele>39</ele>
        <time>2021-06-10T07:53:47.000Z</time>
      </trkpt>
      <trkpt lat="47.31976" lon="-2.39318">
        <ele>38.599998474121</ele>
        <time>2021-06-10T07:53:48.000Z</time>
      </trkpt>
      <trkpt lat="47.31973" lon="-2.3931">
        <ele>38.200000762939</ele>
        <time>2021-06-10T07:53:49.000Z</time>
      </trkpt>
      <trkpt lat="47.31971" lon="-2.39302">
        <ele>37.799999237061</ele>
        <time>2021-06-10T07:53:50.000Z</time>
      </trkpt>
      <trkpt lat="47.3195" lon="-2.39239">
        <ele>37.799999237061</ele>
        <time>2021-06-10T07:53:57.000Z</time>
      </trkpt>
      <trkpt lat="47.31926" lon="-2.39162">
        <ele>37.799999237061</ele>
        <time>2021-06-10T07:54:05.000Z</time>
      </trkpt>
      <trkpt lat="47.31903" lon="-2.3909">
        <ele>37.799999237061</ele>
        <time>2021-06-10T07:54:12.000Z</time>
      </trkpt>
      <trkpt lat="47.31897" lon="-2.3907">
        <ele>37.799999237061</ele>
        <time>2021-06-10T07:54:14.000Z</time>
      </trkpt>
      <trkpt lat="47.31875" lon="-2.39002">
        <ele>37.799999237061</ele>
        <time>2021-06-10T07:54:21.000Z</time>
      </trkpt>
      <trkpt lat="47.31867" lon="-2.38983">
        <ele>37.400001525879</ele>
        <time>2021-06-10T07:54:23.000Z</time>
      </trkpt>
      <trkpt lat="47.31864" lon="-2.38973">
        <ele>36.799999237061</ele>
        <time>2021-06-10T07:54:24.000Z</time>
      </trkpt>
      <trkpt lat="47.3186" lon="-2.38964">
        <ele>36.400001525879</ele>
        <time>2021-06-10T07:54:25.000Z</time>
      </trkpt>
      <trkpt lat="47.31857" lon="-2.38955">
        <ele>36</ele>
        <time>2021-06-10T07:54:26.000Z</time>
      </trkpt>
      <trkpt lat="47.31854" lon="-2.38946">
        <ele>35.599998474121</ele>
        <time>2021-06-10T07:54:27.000Z</time>
      </trkpt>
      <trkpt lat="47.31848" lon="-2.38928">
        <ele>35.599998474121</ele>
        <time>2021-06-10T07:54:29.000Z</time>
      </trkpt>
      <trkpt lat="47.31831" lon="-2.38857">
        <ele>35.599998474121</ele>
        <time>2021-06-10T07:54:37.000Z</time>
      </trkpt>
      <trkpt lat="47.31819" lon="-2.38793">
        <ele>35.599998474121</ele>
        <time>2021-06-10T07:54:44.000Z</time>
      </trkpt>
      <trkpt lat="47.31819" lon="-2.38782">
        <ele>35.599998474121</ele>
        <time>2021-06-10T07:54:45.000Z</time>
      </trkpt>
      <trkpt lat="47.31819" lon="-2.387">
        <ele>35.599998474121</ele>
        <time>2021-06-10T07:54:53.000Z</time>
      </trkpt>
      <trkpt lat="47.31814" lon="-2.38629">
        <ele>35.599998474121</ele>
        <time>2021-06-10T07:55:00.000Z</time>
      </trkpt>
      <trkpt lat="47.31811" lon="-2.38591">
        <ele>36</ele>
        <time>2021-06-10T07:55:04.000Z</time>
      </trkpt>
      <trkpt lat="47.31811" lon="-2.38584">
        <ele>36.400001525879</ele>
        <time>2021-06-10T07:55:05.000Z</time>
      </trkpt>
      <trkpt lat="47.3181" lon="-2.38578">
        <ele>36.799999237061</ele>
        <time>2021-06-10T07:55:06.000Z</time>
      </trkpt>
      <trkpt lat="47.3181" lon="-2.38573">
        <ele>37.200000762939</ele>
        <time>2021-06-10T07:55:07.000Z</time>
      </trkpt>
      <trkpt lat="47.3181" lon="-2.38567">
        <ele>37.599998474121</ele>
        <time>2021-06-10T07:55:08.000Z</time>
      </trkpt>
      <trkpt lat="47.3181" lon="-2.38543">
        <ele>37.599998474121</ele>
        <time>2021-06-10T07:55:13.000Z</time>
      </trkpt>
      <trkpt lat="47.31812" lon="-2.38539">
        <ele>37.599998474121</ele>
        <time>2021-06-10T07:55:14.000Z</time>
      </trkpt>
      <trkpt lat="47.31818" lon="-2.38537">
        <ele>37.599998474121</ele>
        <time>2021-06-10T07:55:16.000Z</time>
      </trkpt>
      <trkpt lat="47.31833" lon="-2.38533">
        <ele>37.599998474121</ele>
        <time>2021-06-10T07:55:20.000Z</time>
      </trkpt>
      <trkpt lat="47.31838" lon="-2.38532">
        <ele>37.599998474121</ele>
        <time>2021-06-10T07:55:21.000Z</time>
      </trkpt>
      <trkpt lat="47.31842" lon="-2.3853">
        <ele>37.200000762939</ele>
        <time>2021-06-10T07:55:22.000Z</time>
      </trkpt>
      <trkpt lat="47.31847" lon="-2.38528">
        <ele>36.799999237061</ele>
        <time>2021-06-10T07:55:23.000Z</time>
      </trkpt>
      <trkpt lat="47.31852" lon="-2.38527">
        <ele>36.400001525879</ele>
        <time>2021-06-10T07:55:24.000Z</time>
      </trkpt>
      <trkpt lat="47.31857" lon="-2.38524">
        <ele>36</ele>
        <time>2021-06-10T07:55:25.000Z</time>
      </trkpt>
      <trkpt lat="47.31862" lon="-2.38522">
        <ele>35.599998474121</ele>
        <time>2021-06-10T07:55:26.000Z</time>
      </trkpt>
      <trkpt lat="47.31873" lon="-2.38517">
        <ele>35.599998474121</ele>
        <time>2021-06-10T07:55:28.000Z</time>
      </trkpt>
      <trkpt lat="47.31909" lon="-2.385">
        <ele>35.200000762939</ele>
        <time>2021-06-10T07:55:34.000Z</time>
      </trkpt>
      <trkpt lat="47.31915" lon="-2.38496">
        <ele>34.200000762939</ele>
        <time>2021-06-10T07:55:35.000Z</time>
      </trkpt>
      <trkpt lat="47.31921" lon="-2.38493">
        <ele>33.799999237061</ele>
        <time>2021-06-10T07:55:36.000Z</time>
      </trkpt>
      <trkpt lat="47.31927" lon="-2.38491">
        <ele>33.400001525879</ele>
        <time>2021-06-10T07:55:37.000Z</time>
      </trkpt>
      <trkpt lat="47.31946" lon="-2.38486">
        <ele>33.400001525879</ele>
        <time>2021-06-10T07:55:40.000Z</time>
      </trkpt>
      <trkpt lat="47.31959" lon="-2.38482">
        <ele>33</ele>
        <time>2021-06-10T07:55:42.000Z</time>
      </trkpt>
      <trkpt lat="47.31965" lon="-2.3848">
        <ele>32.400001525879</ele>
        <time>2021-06-10T07:55:43.000Z</time>
      </trkpt>
      <trkpt lat="47.31972" lon="-2.38478">
        <ele>32</ele>
        <time>2021-06-10T07:55:44.000Z</time>
      </trkpt>
      <trkpt lat="47.31978" lon="-2.38476">
        <ele>31.60000038147</ele>
        <time>2021-06-10T07:55:45.000Z</time>
      </trkpt>
      <trkpt lat="47.31985" lon="-2.38473">
        <ele>31.200000762939</ele>
        <time>2021-06-10T07:55:46.000Z</time>
      </trkpt>
      <trkpt lat="47.32013" lon="-2.38461">
        <ele>31.200000762939</ele>
        <time>2021-06-10T07:55:51.000Z</time>
      </trkpt>
      <trkpt lat="47.32038" lon="-2.38452">
        <ele>30.799999237061</ele>
        <time>2021-06-10T07:55:55.000Z</time>
      </trkpt>
      <trkpt lat="47.32045" lon="-2.38449">
        <ele>30.39999961853</ele>
        <time>2021-06-10T07:55:56.000Z</time>
      </trkpt>
      <trkpt lat="47.32051" lon="-2.38447">
        <ele>30</ele>
        <time>2021-06-10T07:55:57.000Z</time>
      </trkpt>
      <trkpt lat="47.32058" lon="-2.38445">
        <ele>29.39999961853</ele>
        <time>2021-06-10T07:55:58.000Z</time>
      </trkpt>
      <trkpt lat="47.32064" lon="-2.38442">
        <ele>29</ele>
        <time>2021-06-10T07:55:59.000Z</time>
      </trkpt>
      <trkpt lat="47.32101" lon="-2.38425">
        <ele>29</ele>
        <time>2021-06-10T07:56:05.000Z</time>
      </trkpt>
      <trkpt lat="47.32128" lon="-2.38405">
        <ele>28.60000038147</ele>
        <time>2021-06-10T07:56:10.000Z</time>
      </trkpt>
      <trkpt lat="47.32133" lon="-2.38399">
        <ele>28.200000762939</ele>
        <time>2021-06-10T07:56:11.000Z</time>
      </trkpt>
      <trkpt lat="47.3214" lon="-2.38393">
        <ele>27.799999237061</ele>
        <time>2021-06-10T07:56:12.000Z</time>
      </trkpt>
      <trkpt lat="47.32146" lon="-2.38386">
        <ele>27.39999961853</ele>
        <time>2021-06-10T07:56:13.000Z</time>
      </trkpt>
      <trkpt lat="47.32151" lon="-2.38379">
        <ele>27</ele>
        <time>2021-06-10T07:56:14.000Z</time>
      </trkpt>
      <trkpt lat="47.32157" lon="-2.3837">
        <ele>27</ele>
        <time>2021-06-10T07:56:15.000Z</time>
      </trkpt>
      <trkpt lat="47.32188" lon="-2.38325">
        <ele>27</ele>
        <time>2021-06-10T07:56:22.000Z</time>
      </trkpt>
      <trkpt lat="47.32201" lon="-2.38307">
        <ele>27</ele>
        <time>2021-06-10T07:56:25.000Z</time>
      </trkpt>
      <trkpt lat="47.32209" lon="-2.38297">
        <ele>26.60000038147</ele>
        <time>2021-06-10T07:56:27.000Z</time>
      </trkpt>
      <trkpt lat="47.32213" lon="-2.38295">
        <ele>26.200000762939</ele>
        <time>2021-06-10T07:56:28.000Z</time>
      </trkpt>
      <trkpt lat="47.32217" lon="-2.38294">
        <ele>25.799999237061</ele>
        <time>2021-06-10T07:56:29.000Z</time>
      </trkpt>
      <trkpt lat="47.32222" lon="-2.38294">
        <ele>25.39999961853</ele>
        <time>2021-06-10T07:56:30.000Z</time>
      </trkpt>
      <trkpt lat="47.32227" lon="-2.38293">
        <ele>25</ele>
        <time>2021-06-10T07:56:31.000Z</time>
      </trkpt>
      <trkpt lat="47.32238" lon="-2.38291">
        <ele>25</ele>
        <time>2021-06-10T07:56:33.000Z</time>
      </trkpt>
      <trkpt lat="47.3228" lon="-2.38285">
        <ele>25</ele>
        <time>2021-06-10T07:56:40.000Z</time>
      </trkpt>
      <trkpt lat="47.32308" lon="-2.38293">
        <ele>25</ele>
        <time>2021-06-10T07:56:45.000Z</time>
      </trkpt>
      <trkpt lat="47.32338" lon="-2.38304">
        <ele>25.799999237061</ele>
        <time>2021-06-10T07:56:50.000Z</time>
      </trkpt>
      <trkpt lat="47.32344" lon="-2.38307">
        <ele>26.200000762939</ele>
        <time>2021-06-10T07:56:51.000Z</time>
      </trkpt>
      <trkpt lat="47.32349" lon="-2.3831">
        <ele>26.60000038147</ele>
        <time>2021-06-10T07:56:52.000Z</time>
      </trkpt>
      <trkpt lat="47.32355" lon="-2.38313">
        <ele>27</ele>
        <time>2021-06-10T07:56:53.000Z</time>
      </trkpt>
      <trkpt lat="47.3237" lon="-2.38321">
        <ele>27</ele>
        <time>2021-06-10T07:56:56.000Z</time>
      </trkpt>
      <trkpt lat="47.32375" lon="-2.38323">
        <ele>27.39999961853</ele>
        <time>2021-06-10T07:56:57.000Z</time>
      </trkpt>
      <trkpt lat="47.32381" lon="-2.38326">
        <ele>27.799999237061</ele>
        <time>2021-06-10T07:56:58.000Z</time>
      </trkpt>
      <trkpt lat="47.32387" lon="-2.38329">
        <ele>28.200000762939</ele>
        <time>2021-06-10T07:56:59.000Z</time>
      </trkpt>
      <trkpt lat="47.32392" lon="-2.38333">
        <ele>28.60000038147</ele>
        <time>2021-06-10T07:57:00.000Z</time>
      </trkpt>
      <trkpt lat="47.32398" lon="-2.38336">
        <ele>29</ele>
        <time>2021-06-10T07:57:01.000Z</time>
      </trkpt>
      <trkpt lat="47.32403" lon="-2.38339">
        <ele>29</ele>
        <time>2021-06-10T07:57:02.000Z</time>
      </trkpt>
      <trkpt lat="47.3242" lon="-2.38346">
        <ele>29</ele>
        <time>2021-06-10T07:57:05.000Z</time>
      </trkpt>
      <trkpt lat="47.32439" lon="-2.38353">
        <ele>29</ele>
        <time>2021-06-10T07:57:08.000Z</time>
      </trkpt>
      <trkpt lat="47.32481" lon="-2.38371">
        <ele>29</ele>
        <time>2021-06-10T07:57:15.000Z</time>
      </trkpt>
      <trkpt lat="47.32508" lon="-2.38382">
        <ele>29</ele>
        <time>2021-06-10T07:57:20.000Z</time>
      </trkpt>
      <trkpt lat="47.32517" lon="-2.38382">
        <ele>29</ele>
        <time>2021-06-10T07:57:23.000Z</time>
      </trkpt>
      <trkpt lat="47.32521" lon="-2.3837">
        <ele>29</ele>
        <time>2021-06-10T07:57:26.000Z</time>
      </trkpt>
      <trkpt lat="47.32522" lon="-2.38364">
        <ele>29</ele>
        <time>2021-06-10T07:57:27.000Z</time>
      </trkpt>
      <trkpt lat="47.32523" lon="-2.38344">
        <ele>29</ele>
        <time>2021-06-10T07:57:30.000Z</time>
      </trkpt>
      <trkpt lat="47.32524" lon="-2.38329">
        <ele>29</ele>
        <time>2021-06-10T07:57:32.000Z</time>
      </trkpt>
      <trkpt lat="47.32526" lon="-2.38316">
        <ele>29</ele>
        <time>2021-06-10T07:57:34.000Z</time>
      </trkpt>
      <trkpt lat="47.32532" lon="-2.38306">
        <ele>29</ele>
        <time>2021-06-10T07:57:36.000Z</time>
      </trkpt>
      <trkpt lat="47.32542" lon="-2.38299">
        <ele>28.60000038147</ele>
        <time>2021-06-10T07:57:38.000Z</time>
      </trkpt>
      <trkpt lat="47.32548" lon="-2.38297">
        <ele>27.799999237061</ele>
        <time>2021-06-10T07:57:39.000Z</time>
      </trkpt>
      <trkpt lat="47.32554" lon="-2.38296">
        <ele>27.39999961853</ele>
        <time>2021-06-10T07:57:40.000Z</time>
      </trkpt>
      <trkpt lat="47.32562" lon="-2.38295">
        <ele>27</ele>
        <time>2021-06-10T07:57:41.000Z</time>
      </trkpt>
      <trkpt lat="47.32589" lon="-2.38291">
        <ele>27</ele>
        <time>2021-06-10T07:57:45.000Z</time>
      </trkpt>
      <trkpt lat="47.32597" lon="-2.38292">
        <ele>27</ele>
        <time>2021-06-10T07:57:46.000Z</time>
      </trkpt>
      <trkpt lat="47.32615" lon="-2.38305">
        <ele>27</ele>
        <time>2021-06-10T07:57:49.000Z</time>
      </trkpt>
      <trkpt lat="47.32629" lon="-2.38323">
        <ele>27</ele>
        <time>2021-06-10T07:57:52.000Z</time>
      </trkpt>
      <trkpt lat="47.32637" lon="-2.38334">
        <ele>27</ele>
        <time>2021-06-10T07:57:54.000Z</time>
      </trkpt>
      <trkpt lat="47.32661" lon="-2.38366">
        <ele>27</ele>
        <time>2021-06-10T07:58:00.000Z</time>
      </trkpt>
      <trkpt lat="47.32671" lon="-2.38381">
        <ele>27.39999961853</ele>
        <time>2021-06-10T07:58:03.000Z</time>
      </trkpt>
      <trkpt lat="47.32675" lon="-2.38386">
        <ele>28.39999961853</ele>
        <time>2021-06-10T07:58:04.000Z</time>
      </trkpt>
      <trkpt lat="47.32678" lon="-2.38391">
        <ele>28.799999237061</ele>
        <time>2021-06-10T07:58:05.000Z</time>
      </trkpt>
      <trkpt lat="47.32682" lon="-2.38395">
        <ele>29.200000762939</ele>
        <time>2021-06-10T07:58:06.000Z</time>
      </trkpt>
      <trkpt lat="47.3269" lon="-2.38402">
        <ele>29.60000038147</ele>
        <time>2021-06-10T07:58:08.000Z</time>
      </trkpt>
      <trkpt lat="47.32695" lon="-2.38405">
        <ele>30</ele>
        <time>2021-06-10T07:58:09.000Z</time>
      </trkpt>
      <trkpt lat="47.32699" lon="-2.38407">
        <ele>30.39999961853</ele>
        <time>2021-06-10T07:58:10.000Z</time>
      </trkpt>
      <trkpt lat="47.32703" lon="-2.38408">
        <ele>30.799999237061</ele>
        <time>2021-06-10T07:58:11.000Z</time>
      </trkpt>
      <trkpt lat="47.32707" lon="-2.38409">
        <ele>31.39999961853</ele>
        <time>2021-06-10T07:58:12.000Z</time>
      </trkpt>
      <trkpt lat="47.32723" lon="-2.38408">
        <ele>31.39999961853</ele>
        <time>2021-06-10T07:58:16.000Z</time>
      </trkpt>
      <trkpt lat="47.32727" lon="-2.38407">
        <ele>31.39999961853</ele>
        <time>2021-06-10T07:58:17.000Z</time>
      </trkpt>
      <trkpt lat="47.3274" lon="-2.38402">
        <ele>31.39999961853</ele>
        <time>2021-06-10T07:58:20.000Z</time>
      </trkpt>
      <trkpt lat="47.32745" lon="-2.38401">
        <ele>31.799999237061</ele>
        <time>2021-06-10T07:58:21.000Z</time>
      </trkpt>
      <trkpt lat="47.3275" lon="-2.384">
        <ele>32.200000762939</ele>
        <time>2021-06-10T07:58:22.000Z</time>
      </trkpt>
      <trkpt lat="47.32755" lon="-2.38399">
        <ele>32.599998474121</ele>
        <time>2021-06-10T07:58:23.000Z</time>
      </trkpt>
      <trkpt lat="47.3276" lon="-2.38398">
        <ele>33</ele>
        <time>2021-06-10T07:58:24.000Z</time>
      </trkpt>
      <trkpt lat="47.32764" lon="-2.38397">
        <ele>33.400001525879</ele>
        <time>2021-06-10T07:58:25.000Z</time>
      </trkpt>
      <trkpt lat="47.32776" lon="-2.38394">
        <ele>33.400001525879</ele>
        <time>2021-06-10T07:58:28.000Z</time>
      </trkpt>
      <trkpt lat="47.32783" lon="-2.38377">
        <ele>33.400001525879</ele>
        <time>2021-06-10T07:58:32.000Z</time>
      </trkpt>
      <trkpt lat="47.32786" lon="-2.38347">
        <ele>33.400001525879</ele>
        <time>2021-06-10T07:58:36.000Z</time>
      </trkpt>
      <trkpt lat="47.32789" lon="-2.3833">
        <ele>33.400001525879</ele>
        <time>2021-06-10T07:58:38.000Z</time>
      </trkpt>
      <trkpt lat="47.32796" lon="-2.38303">
        <ele>33.400001525879</ele>
        <time>2021-06-10T07:58:41.000Z</time>
      </trkpt>
      <trkpt lat="47.32803" lon="-2.38274">
        <ele>33</ele>
        <time>2021-06-10T07:58:44.000Z</time>
      </trkpt>
      <trkpt lat="47.32805" lon="-2.38265">
        <ele>32.599998474121</ele>
        <time>2021-06-10T07:58:45.000Z</time>
      </trkpt>
      <trkpt lat="47.32807" lon="-2.38255">
        <ele>32.200000762939</ele>
        <time>2021-06-10T07:58:46.000Z</time>
      </trkpt>
      <trkpt lat="47.3281" lon="-2.38246">
        <ele>31.799999237061</ele>
        <time>2021-06-10T07:58:47.000Z</time>
      </trkpt>
      <trkpt lat="47.32812" lon="-2.38236">
        <ele>31.200000762939</ele>
        <time>2021-06-10T07:58:48.000Z</time>
      </trkpt>
      <trkpt lat="47.32818" lon="-2.38214">
        <ele>30.799999237061</ele>
        <time>2021-06-10T07:58:50.000Z</time>
      </trkpt>
      <trkpt lat="47.32822" lon="-2.38204">
        <ele>30.39999961853</ele>
        <time>2021-06-10T07:58:51.000Z</time>
      </trkpt>
      <trkpt lat="47.32825" lon="-2.38193">
        <ele>30</ele>
        <time>2021-06-10T07:58:52.000Z</time>
      </trkpt>
      <trkpt lat="47.32829" lon="-2.38183">
        <ele>29.200000762939</ele>
        <time>2021-06-10T07:58:53.000Z</time>
      </trkpt>
      <trkpt lat="47.32834" lon="-2.38173">
        <ele>29.200000762939</ele>
        <time>2021-06-10T07:58:54.000Z</time>
      </trkpt>
      <trkpt lat="47.32852" lon="-2.38138">
        <ele>28.799999237061</ele>
        <time>2021-06-10T07:58:58.000Z</time>
      </trkpt>
      <trkpt lat="47.32857" lon="-2.3813">
        <ele>28.39999961853</ele>
        <time>2021-06-10T07:58:59.000Z</time>
      </trkpt>
      <trkpt lat="47.32862" lon="-2.38123">
        <ele>28</ele>
        <time>2021-06-10T07:59:00.000Z</time>
      </trkpt>
      <trkpt lat="47.32867" lon="-2.38115">
        <ele>27.39999961853</ele>
        <time>2021-06-10T07:59:01.000Z</time>
      </trkpt>
      <trkpt lat="47.32871" lon="-2.38107">
        <ele>27</ele>
        <time>2021-06-10T07:59:02.000Z</time>
      </trkpt>
      <trkpt lat="47.329" lon="-2.38058">
        <ele>26.60000038147</ele>
        <time>2021-06-10T07:59:08.000Z</time>
      </trkpt>
      <trkpt lat="47.32904" lon="-2.38051">
        <ele>26.200000762939</ele>
        <time>2021-06-10T07:59:09.000Z</time>
      </trkpt>
      <trkpt lat="47.32909" lon="-2.38043">
        <ele>25.799999237061</ele>
        <time>2021-06-10T07:59:10.000Z</time>
      </trkpt>
      <trkpt lat="47.32913" lon="-2.38035">
        <ele>25.39999961853</ele>
        <time>2021-06-10T07:59:11.000Z</time>
      </trkpt>
      <trkpt lat="47.32918" lon="-2.38027">
        <ele>25</ele>
        <time>2021-06-10T07:59:12.000Z</time>
      </trkpt>
      <trkpt lat="47.32923" lon="-2.3802">
        <ele>25</ele>
        <time>2021-06-10T07:59:13.000Z</time>
      </trkpt>
      <trkpt lat="47.32927" lon="-2.38014">
        <ele>25</ele>
        <time>2021-06-10T07:59:14.000Z</time>
      </trkpt>
      <trkpt lat="47.32954" lon="-2.37974">
        <ele>24.60000038147</ele>
        <time>2021-06-10T07:59:20.000Z</time>
      </trkpt>
      <trkpt lat="47.32958" lon="-2.37968">
        <ele>24.200000762939</ele>
        <time>2021-06-10T07:59:21.000Z</time>
      </trkpt>
      <trkpt lat="47.32962" lon="-2.37961">
        <ele>23.799999237061</ele>
        <time>2021-06-10T07:59:22.000Z</time>
      </trkpt>
      <trkpt lat="47.32966" lon="-2.37954">
        <ele>23.39999961853</ele>
        <time>2021-06-10T07:59:23.000Z</time>
      </trkpt>
      <trkpt lat="47.3297" lon="-2.37947">
        <ele>23</ele>
        <time>2021-06-10T07:59:24.000Z</time>
      </trkpt>
      <trkpt lat="47.32987" lon="-2.37918">
        <ele>23</ele>
        <time>2021-06-10T07:59:28.000Z</time>
      </trkpt>
      <trkpt lat="47.33011" lon="-2.37879">
        <ele>23</ele>
        <time>2021-06-10T07:59:34.000Z</time>
      </trkpt>
      <trkpt lat="47.33017" lon="-2.37868">
        <ele>23</ele>
        <time>2021-06-10T07:59:36.000Z</time>
      </trkpt>
      <trkpt lat="47.3302" lon="-2.37857">
        <ele>23</ele>
        <time>2021-06-10T07:59:38.000Z</time>
      </trkpt>
      <trkpt lat="47.33025" lon="-2.37848">
        <ele>22.60000038147</ele>
        <time>2021-06-10T07:59:40.000Z</time>
      </trkpt>
      <trkpt lat="47.33027" lon="-2.37843">
        <ele>22.200000762939</ele>
        <time>2021-06-10T07:59:41.000Z</time>
      </trkpt>
      <trkpt lat="47.3303" lon="-2.37839">
        <ele>21.200000762939</ele>
        <time>2021-06-10T07:59:42.000Z</time>
      </trkpt>
      <trkpt lat="47.33034" lon="-2.37834">
        <ele>20.799999237061</ele>
        <time>2021-06-10T07:59:43.000Z</time>
      </trkpt>
      <trkpt lat="47.33045" lon="-2.3782">
        <ele>20.799999237061</ele>
        <time>2021-06-10T07:59:46.000Z</time>
      </trkpt>
      <trkpt lat="47.33059" lon="-2.37803">
        <ele>20.799999237061</ele>
        <time>2021-06-10T07:59:49.000Z</time>
      </trkpt>
      <trkpt lat="47.3309" lon="-2.37765">
        <ele>20.39999961853</ele>
        <time>2021-06-10T07:59:56.000Z</time>
      </trkpt>
      <trkpt lat="47.33095" lon="-2.37759">
        <ele>20</ele>
        <time>2021-06-10T07:59:57.000Z</time>
      </trkpt>
      <trkpt lat="47.331" lon="-2.37754">
        <ele>19.60000038147</ele>
        <time>2021-06-10T07:59:58.000Z</time>
      </trkpt>
      <trkpt lat="47.33107" lon="-2.37748">
        <ele>19.200000762939</ele>
        <time>2021-06-10T07:59:59.000Z</time>
      </trkpt>
      <trkpt lat="47.33113" lon="-2.37743">
        <ele>18.799999237061</ele>
        <time>2021-06-10T08:00:00.000Z</time>
      </trkpt>
      <trkpt lat="47.3312" lon="-2.37739">
        <ele>18.799999237061</ele>
        <time>2021-06-10T08:00:01.000Z</time>
      </trkpt>
      <trkpt lat="47.33145" lon="-2.3774">
        <ele>18.799999237061</ele>
        <time>2021-06-10T08:00:05.000Z</time>
      </trkpt>
      <trkpt lat="47.33154" lon="-2.37756">
        <ele>18.799999237061</ele>
        <time>2021-06-10T08:00:07.000Z</time>
      </trkpt>
      <trkpt lat="47.33163" lon="-2.37773">
        <ele>18.799999237061</ele>
        <time>2021-06-10T08:00:09.000Z</time>
      </trkpt>
      <trkpt lat="47.33192" lon="-2.37816">
        <ele>18.799999237061</ele>
        <time>2021-06-10T08:00:15.000Z</time>
      </trkpt>
      <trkpt lat="47.332" lon="-2.37829">
        <ele>18.799999237061</ele>
        <time>2021-06-10T08:00:17.000Z</time>
      </trkpt>
      <trkpt lat="47.33216" lon="-2.37851">
        <ele>19.200000762939</ele>
        <time>2021-06-10T08:00:20.000Z</time>
      </trkpt>
      <trkpt lat="47.3322" lon="-2.37857">
        <ele>19.799999237061</ele>
        <time>2021-06-10T08:00:21.000Z</time>
      </trkpt>
      <trkpt lat="47.33224" lon="-2.37863">
        <ele>20.200000762939</ele>
        <time>2021-06-10T08:00:22.000Z</time>
      </trkpt>
      <trkpt lat="47.3323" lon="-2.37868">
        <ele>20.60000038147</ele>
        <time>2021-06-10T08:00:23.000Z</time>
      </trkpt>
      <trkpt lat="47.33235" lon="-2.37872">
        <ele>21</ele>
        <time>2021-06-10T08:00:24.000Z</time>
      </trkpt>
      <trkpt lat="47.33242" lon="-2.37876">
        <ele>21</ele>
        <time>2021-06-10T08:00:25.000Z</time>
      </trkpt>
      <trkpt lat="47.33264" lon="-2.3788">
        <ele>21</ele>
        <time>2021-06-10T08:00:29.000Z</time>
      </trkpt>
      <trkpt lat="47.33269" lon="-2.37879">
        <ele>21</ele>
        <time>2021-06-10T08:00:30.000Z</time>
      </trkpt>
      <trkpt lat="47.33278" lon="-2.37876">
        <ele>22</ele>
        <time>2021-06-10T08:00:32.000Z</time>
      </trkpt>
      <trkpt lat="47.33282" lon="-2.37874">
        <ele>22.39999961853</ele>
        <time>2021-06-10T08:00:33.000Z</time>
      </trkpt>
      <trkpt lat="47.33286" lon="-2.37873">
        <ele>22.799999237061</ele>
        <time>2021-06-10T08:00:34.000Z</time>
      </trkpt>
      <trkpt lat="47.33291" lon="-2.37872">
        <ele>23.39999961853</ele>
        <time>2021-06-10T08:00:35.000Z</time>
      </trkpt>
      <trkpt lat="47.333" lon="-2.3787">
        <ele>23.799999237061</ele>
        <time>2021-06-10T08:00:37.000Z</time>
      </trkpt>
      <trkpt lat="47.33304" lon="-2.37869">
        <ele>24.200000762939</ele>
        <time>2021-06-10T08:00:38.000Z</time>
      </trkpt>
      <trkpt lat="47.33309" lon="-2.37867">
        <ele>24.60000038147</ele>
        <time>2021-06-10T08:00:39.000Z</time>
      </trkpt>
      <trkpt lat="47.33313" lon="-2.37866">
        <ele>25</ele>
        <time>2021-06-10T08:00:40.000Z</time>
      </trkpt>
      <trkpt lat="47.33317" lon="-2.37864">
        <ele>25.39999961853</ele>
        <time>2021-06-10T08:00:41.000Z</time>
      </trkpt>
      <trkpt lat="47.3334" lon="-2.37857">
        <ele>26</ele>
        <time>2021-06-10T08:00:46.000Z</time>
      </trkpt>
      <trkpt lat="47.33344" lon="-2.37857">
        <ele>26.39999961853</ele>
        <time>2021-06-10T08:00:47.000Z</time>
      </trkpt>
      <trkpt lat="47.33348" lon="-2.37857">
        <ele>26.799999237061</ele>
        <time>2021-06-10T08:00:48.000Z</time>
      </trkpt>
      <trkpt lat="47.33351" lon="-2.37857">
        <ele>27.200000762939</ele>
        <time>2021-06-10T08:00:49.000Z</time>
      </trkpt>
      <trkpt lat="47.33355" lon="-2.37858">
        <ele>27.60000038147</ele>
        <time>2021-06-10T08:00:50.000Z</time>
      </trkpt>
      <trkpt lat="47.33361" lon="-2.37855">
        <ele>27.60000038147</ele>
        <time>2021-06-10T08:00:52.000Z</time>
      </trkpt>
      <trkpt lat="47.33368" lon="-2.37838">
        <ele>27.60000038147</ele>
        <time>2021-06-10T08:00:56.000Z</time>
      </trkpt>
      <trkpt lat="47.33371" lon="-2.3783">
        <ele>27.60000038147</ele>
        <time>2021-06-10T08:00:58.000Z</time>
      </trkpt>
      <trkpt lat="47.33378" lon="-2.37813">
        <ele>27.60000038147</ele>
        <time>2021-06-10T08:01:02.000Z</time>
      </trkpt>
      <trkpt lat="47.33384" lon="-2.37782">
        <ele>27.60000038147</ele>
        <time>2021-06-10T08:01:09.000Z</time>
      </trkpt>
      <trkpt lat="47.33384" lon="-2.37778">
        <ele>28</ele>
        <time>2021-06-10T08:01:10.000Z</time>
      </trkpt>
      <trkpt lat="47.33385" lon="-2.37773">
        <ele>28.39999961853</ele>
        <time>2021-06-10T08:01:11.000Z</time>
      </trkpt>
      <trkpt lat="47.33385" lon="-2.37769">
        <ele>28.799999237061</ele>
        <time>2021-06-10T08:01:12.000Z</time>
      </trkpt>
      <trkpt lat="47.33385" lon="-2.37764">
        <ele>29.200000762939</ele>
        <time>2021-06-10T08:01:13.000Z</time>
      </trkpt>
      <trkpt lat="47.33385" lon="-2.37759">
        <ele>29.60000038147</ele>
        <time>2021-06-10T08:01:14.000Z</time>
      </trkpt>
      <trkpt lat="47.33385" lon="-2.37755">
        <ele>29.60000038147</ele>
        <time>2021-06-10T08:01:15.000Z</time>
      </trkpt>
      <trkpt lat="47.33385" lon="-2.37719">
        <ele>29.60000038147</ele>
        <time>2021-06-10T08:01:23.000Z</time>
      </trkpt>
      <trkpt lat="47.33386" lon="-2.37695">
        <ele>29.60000038147</ele>
        <time>2021-06-10T08:01:29.000Z</time>
      </trkpt>
      <trkpt lat="47.33389" lon="-2.37662">
        <ele>29.60000038147</ele>
        <time>2021-06-10T08:01:34.000Z</time>
      </trkpt>
      <trkpt lat="47.33392" lon="-2.37654">
        <ele>29.60000038147</ele>
        <time>2021-06-10T08:01:35.000Z</time>
      </trkpt>
      <trkpt lat="47.33401" lon="-2.37635">
        <ele>29.60000038147</ele>
        <time>2021-06-10T08:01:38.000Z</time>
      </trkpt>
      <trkpt lat="47.33405" lon="-2.3763">
        <ele>29.60000038147</ele>
        <time>2021-06-10T08:01:39.000Z</time>
      </trkpt>
      <trkpt lat="47.33419" lon="-2.37618">
        <ele>29.60000038147</ele>
        <time>2021-06-10T08:01:42.000Z</time>
      </trkpt>
      <trkpt lat="47.3346" lon="-2.37584">
        <ele>29.60000038147</ele>
        <time>2021-06-10T08:01:50.000Z</time>
      </trkpt>
      <trkpt lat="47.33489" lon="-2.37551">
        <ele>29.60000038147</ele>
        <time>2021-06-10T08:01:57.000Z</time>
      </trkpt>
      <trkpt lat="47.33492" lon="-2.37545">
        <ele>29.60000038147</ele>
        <time>2021-06-10T08:01:58.000Z</time>
      </trkpt>
      <trkpt lat="47.33505" lon="-2.37521">
        <ele>29.60000038147</ele>
        <time>2021-06-10T08:02:02.000Z</time>
      </trkpt>
      <trkpt lat="47.3353" lon="-2.37469">
        <ele>29.60000038147</ele>
        <time>2021-06-10T08:02:09.000Z</time>
      </trkpt>
      <trkpt lat="47.33533" lon="-2.37461">
        <ele>29.60000038147</ele>
        <time>2021-06-10T08:02:10.000Z</time>
      </trkpt>
      <trkpt lat="47.33535" lon="-2.37452">
        <ele>29.200000762939</ele>
        <time>2021-06-10T08:02:11.000Z</time>
      </trkpt>
      <trkpt lat="47.33536" lon="-2.37442">
        <ele>28.799999237061</ele>
        <time>2021-06-10T08:02:12.000Z</time>
      </trkpt>
      <trkpt lat="47.33537" lon="-2.37432">
        <ele>28.39999961853</ele>
        <time>2021-06-10T08:02:13.000Z</time>
      </trkpt>
      <trkpt lat="47.33537" lon="-2.37423">
        <ele>28</ele>
        <time>2021-06-10T08:02:14.000Z</time>
      </trkpt>
      <trkpt lat="47.33537" lon="-2.37414">
        <ele>27.60000038147</ele>
        <time>2021-06-10T08:02:15.000Z</time>
      </trkpt>
      <trkpt lat="47.33537" lon="-2.37387">
        <ele>27.60000038147</ele>
        <time>2021-06-10T08:02:18.000Z</time>
      </trkpt>
      <trkpt lat="47.33537" lon="-2.3736">
        <ele>27.60000038147</ele>
        <time>2021-06-10T08:02:21.000Z</time>
      </trkpt>
      <trkpt lat="47.33536" lon="-2.37351">
        <ele>27.200000762939</ele>
        <time>2021-06-10T08:02:22.000Z</time>
      </trkpt>
      <trkpt lat="47.33534" lon="-2.37342">
        <ele>26.799999237061</ele>
        <time>2021-06-10T08:02:23.000Z</time>
      </trkpt>
      <trkpt lat="47.33531" lon="-2.37332">
        <ele>26.39999961853</ele>
        <time>2021-06-10T08:02:24.000Z</time>
      </trkpt>
      <trkpt lat="47.33528" lon="-2.37323">
        <ele>26</ele>
        <time>2021-06-10T08:02:25.000Z</time>
      </trkpt>
      <trkpt lat="47.33525" lon="-2.37313">
        <ele>25.39999961853</ele>
        <time>2021-06-10T08:02:26.000Z</time>
      </trkpt>
      <trkpt lat="47.3351" lon="-2.37259">
        <ele>25.39999961853</ele>
        <time>2021-06-10T08:02:31.000Z</time>
      </trkpt>
      <trkpt lat="47.33507" lon="-2.37248">
        <ele>25</ele>
        <time>2021-06-10T08:02:32.000Z</time>
      </trkpt>
      <trkpt lat="47.33504" lon="-2.37237">
        <ele>24.60000038147</ele>
        <time>2021-06-10T08:02:33.000Z</time>
      </trkpt>
      <trkpt lat="47.335" lon="-2.37226">
        <ele>24.200000762939</ele>
        <time>2021-06-10T08:02:34.000Z</time>
      </trkpt>
      <trkpt lat="47.33496" lon="-2.37214">
        <ele>23.60000038147</ele>
        <time>2021-06-10T08:02:35.000Z</time>
      </trkpt>
      <trkpt lat="47.33492" lon="-2.37202">
        <ele>23.200000762939</ele>
        <time>2021-06-10T08:02:36.000Z</time>
      </trkpt>
      <trkpt lat="47.33488" lon="-2.3719">
        <ele>22.799999237061</ele>
        <time>2021-06-10T08:02:37.000Z</time>
      </trkpt>
      <trkpt lat="47.33485" lon="-2.37178">
        <ele>22.39999961853</ele>
        <time>2021-06-10T08:02:38.000Z</time>
      </trkpt>
      <trkpt lat="47.33482" lon="-2.37166">
        <ele>21.799999237061</ele>
        <time>2021-06-10T08:02:39.000Z</time>
      </trkpt>
      <trkpt lat="47.3348" lon="-2.37154">
        <ele>21.39999961853</ele>
        <time>2021-06-10T08:02:40.000Z</time>
      </trkpt>
      <trkpt lat="47.33477" lon="-2.37142">
        <ele>21</ele>
        <time>2021-06-10T08:02:41.000Z</time>
      </trkpt>
      <trkpt lat="47.33475" lon="-2.37116">
        <ele>21</ele>
        <time>2021-06-10T08:02:43.000Z</time>
      </trkpt>
      <trkpt lat="47.33472" lon="-2.37079">
        <ele>20.39999961853</ele>
        <time>2021-06-10T08:02:46.000Z</time>
      </trkpt>
      <trkpt lat="47.33471" lon="-2.37067">
        <ele>20</ele>
        <time>2021-06-10T08:02:47.000Z</time>
      </trkpt>
      <trkpt lat="47.3347" lon="-2.37056">
        <ele>19.39999961853</ele>
        <time>2021-06-10T08:02:48.000Z</time>
      </trkpt>
      <trkpt lat="47.3347" lon="-2.37044">
        <ele>19</ele>
        <time>2021-06-10T08:02:49.000Z</time>
      </trkpt>
      <trkpt lat="47.33471" lon="-2.37033">
        <ele>18.39999961853</ele>
        <time>2021-06-10T08:02:50.000Z</time>
      </trkpt>
      <trkpt lat="47.33473" lon="-2.37014">
        <ele>18</ele>
        <time>2021-06-10T08:02:52.000Z</time>
      </trkpt>
      <trkpt lat="47.33473" lon="-2.37006">
        <ele>17.60000038147</ele>
        <time>2021-06-10T08:02:53.000Z</time>
      </trkpt>
      <trkpt lat="47.33473" lon="-2.37">
        <ele>17.200000762939</ele>
        <time>2021-06-10T08:02:54.000Z</time>
      </trkpt>
      <trkpt lat="47.33472" lon="-2.36993">
        <ele>16.60000038147</ele>
        <time>2021-06-10T08:02:55.000Z</time>
      </trkpt>
      <trkpt lat="47.33472" lon="-2.36989">
        <ele>16.200000762939</ele>
        <time>2021-06-10T08:02:56.000Z</time>
      </trkpt>
      <trkpt lat="47.33466" lon="-2.36972">
        <ele>15.39999961853</ele>
        <time>2021-06-10T08:03:00.000Z</time>
      </trkpt>
      <trkpt lat="47.33463" lon="-2.36968">
        <ele>15</ele>
        <time>2021-06-10T08:03:01.000Z</time>
      </trkpt>
      <trkpt lat="47.33461" lon="-2.36964">
        <ele>14.60000038147</ele>
        <time>2021-06-10T08:03:02.000Z</time>
      </trkpt>
      <trkpt lat="47.33459" lon="-2.3696">
        <ele>14.199999809265</ele>
        <time>2021-06-10T08:03:03.000Z</time>
      </trkpt>
      <trkpt lat="47.33457" lon="-2.36951">
        <ele>14.199999809265</ele>
        <time>2021-06-10T08:03:05.000Z</time>
      </trkpt>
      <trkpt lat="47.33455" lon="-2.36922">
        <ele>14.199999809265</ele>
        <time>2021-06-10T08:03:11.000Z</time>
      </trkpt>
      <trkpt lat="47.33452" lon="-2.36893">
        <ele>14.199999809265</ele>
        <time>2021-06-10T08:03:17.000Z</time>
      </trkpt>
      <trkpt lat="47.3345" lon="-2.36876">
        <ele>14.199999809265</ele>
        <time>2021-06-10T08:03:21.000Z</time>
      </trkpt>
      <trkpt lat="47.33451" lon="-2.36864">
        <ele>14.199999809265</ele>
        <time>2021-06-10T08:03:23.000Z</time>
      </trkpt>
      <trkpt lat="47.33454" lon="-2.36857">
        <ele>14.199999809265</ele>
        <time>2021-06-10T08:03:25.000Z</time>
      </trkpt>
      <trkpt lat="47.33462" lon="-2.36848">
        <ele>14.199999809265</ele>
        <time>2021-06-10T08:03:28.000Z</time>
      </trkpt>
      <trkpt lat="47.33466" lon="-2.36838">
        <ele>14.199999809265</ele>
        <time>2021-06-10T08:03:30.000Z</time>
      </trkpt>
      <trkpt lat="47.33473" lon="-2.36804">
        <ele>14.199999809265</ele>
        <time>2021-06-10T08:03:35.000Z</time>
      </trkpt>
      <trkpt lat="47.3348" lon="-2.36755">
        <ele>14.199999809265</ele>
        <time>2021-06-10T08:03:42.000Z</time>
      </trkpt>
      <trkpt lat="47.3349" lon="-2.36724">
        <ele>13.800000190735</ele>
        <time>2021-06-10T08:03:48.000Z</time>
      </trkpt>
      <trkpt lat="47.33493" lon="-2.3672">
        <ele>13.39999961853</ele>
        <time>2021-06-10T08:03:49.000Z</time>
      </trkpt>
      <trkpt lat="47.33495" lon="-2.36716">
        <ele>12.60000038147</ele>
        <time>2021-06-10T08:03:50.000Z</time>
      </trkpt>
      <trkpt lat="47.33499" lon="-2.36712">
        <ele>12.199999809265</ele>
        <time>2021-06-10T08:03:51.000Z</time>
      </trkpt>
      <trkpt lat="47.33513" lon="-2.36689">
        <ele>12.199999809265</ele>
        <time>2021-06-10T08:03:55.000Z</time>
      </trkpt>
      <trkpt lat="47.33529" lon="-2.36661">
        <ele>12.199999809265</ele>
        <time>2021-06-10T08:04:01.000Z</time>
      </trkpt>
      <trkpt lat="47.33542" lon="-2.36641">
        <ele>12.199999809265</ele>
        <time>2021-06-10T08:04:07.000Z</time>
      </trkpt>
      <trkpt lat="47.33541" lon="-2.36637">
        <ele>12.199999809265</ele>
        <time>2021-06-10T08:04:08.000Z</time>
      </trkpt>
      <trkpt lat="47.33535" lon="-2.36625">
        <ele>12.60000038147</ele>
        <time>2021-06-10T08:04:12.000Z</time>
      </trkpt>
      <trkpt lat="47.33532" lon="-2.36623">
        <ele>13</ele>
        <time>2021-06-10T08:04:13.000Z</time>
      </trkpt>
      <trkpt lat="47.3353" lon="-2.36621">
        <ele>13.39999961853</ele>
        <time>2021-06-10T08:04:14.000Z</time>
      </trkpt>
      <trkpt lat="47.33528" lon="-2.36618">
        <ele>14.39999961853</ele>
        <time>2021-06-10T08:04:15.000Z</time>
      </trkpt>
      <trkpt lat="47.33527" lon="-2.36616">
        <ele>14.800000190735</ele>
        <time>2021-06-10T08:04:16.000Z</time>
      </trkpt>
      <trkpt lat="47.33525" lon="-2.36614">
        <ele>15.199999809265</ele>
        <time>2021-06-10T08:04:17.000Z</time>
      </trkpt>
      <trkpt lat="47.33523" lon="-2.36613">
        <ele>15.60000038147</ele>
        <time>2021-06-10T08:04:18.000Z</time>
      </trkpt>
      <trkpt lat="47.33521" lon="-2.36612">
        <ele>16</ele>
        <time>2021-06-10T08:04:19.000Z</time>
      </trkpt>
      <trkpt lat="47.33518" lon="-2.36611">
        <ele>16.39999961853</ele>
        <time>2021-06-10T08:04:20.000Z</time>
      </trkpt>
      <trkpt lat="47.33505" lon="-2.36602">
        <ele>16.39999961853</ele>
        <time>2021-06-10T08:04:26.000Z</time>
      </trkpt>
      <trkpt lat="47.33494" lon="-2.36597">
        <ele>16.799999237061</ele>
        <time>2021-06-10T08:04:31.000Z</time>
      </trkpt>
      <trkpt lat="47.33491" lon="-2.36598">
        <ele>17.200000762939</ele>
        <time>2021-06-10T08:04:32.000Z</time>
      </trkpt>
      <trkpt lat="47.33488" lon="-2.36597">
        <ele>17.799999237061</ele>
        <time>2021-06-10T08:04:33.000Z</time>
      </trkpt>
      <trkpt lat="47.33486" lon="-2.36597">
        <ele>18.200000762939</ele>
        <time>2021-06-10T08:04:34.000Z</time>
      </trkpt>
      <trkpt lat="47.33483" lon="-2.36597">
        <ele>18.60000038147</ele>
        <time>2021-06-10T08:04:35.000Z</time>
      </trkpt>
      <trkpt lat="47.33474" lon="-2.36594">
        <ele>18.60000038147</ele>
        <time>2021-06-10T08:04:39.000Z</time>
      </trkpt>
      <trkpt lat="47.33472" lon="-2.36589">
        <ele>18.60000038147</ele>
        <time>2021-06-10T08:04:41.000Z</time>
      </trkpt>
      <trkpt lat="47.33472" lon="-2.36581">
        <ele>18.60000038147</ele>
        <time>2021-06-10T08:04:43.000Z</time>
      </trkpt>
      <trkpt lat="47.33474" lon="-2.36558">
        <ele>18.60000038147</ele>
        <time>2021-06-10T08:04:48.000Z</time>
      </trkpt>
      <trkpt lat="47.33475" lon="-2.36553">
        <ele>18.60000038147</ele>
        <time>2021-06-10T08:04:49.000Z</time>
      </trkpt>
      <trkpt lat="47.33476" lon="-2.36519">
        <ele>18.60000038147</ele>
        <time>2021-06-10T08:04:56.000Z</time>
      </trkpt>
      <trkpt lat="47.33477" lon="-2.36488">
        <ele>18.60000038147</ele>
        <time>2021-06-10T08:05:03.000Z</time>
      </trkpt>
      <trkpt lat="47.33477" lon="-2.36463">
        <ele>19</ele>
        <time>2021-06-10T08:05:09.000Z</time>
      </trkpt>
      <trkpt lat="47.33476" lon="-2.36458">
        <ele>19.39999961853</ele>
        <time>2021-06-10T08:05:10.000Z</time>
      </trkpt>
      <trkpt lat="47.33476" lon="-2.36452">
        <ele>19.799999237061</ele>
        <time>2021-06-10T08:05:11.000Z</time>
      </trkpt>
      <trkpt lat="47.33476" lon="-2.36447">
        <ele>20.200000762939</ele>
        <time>2021-06-10T08:05:12.000Z</time>
      </trkpt>
      <trkpt lat="47.33475" lon="-2.36442">
        <ele>20.60000038147</ele>
        <time>2021-06-10T08:05:13.000Z</time>
      </trkpt>
      <trkpt lat="47.33472" lon="-2.36433">
        <ele>20.60000038147</ele>
        <time>2021-06-10T08:05:16.000Z</time>
      </trkpt>
      <trkpt lat="47.33469" lon="-2.36431">
        <ele>20.60000038147</ele>
        <time>2021-06-10T08:05:17.000Z</time>
      </trkpt>
      <trkpt lat="47.33454" lon="-2.36421">
        <ele>20.60000038147</ele>
        <time>2021-06-10T08:05:23.000Z</time>
      </trkpt>
      <trkpt lat="47.33444" lon="-2.364">
        <ele>20.60000038147</ele>
        <time>2021-06-10T08:05:30.000Z</time>
      </trkpt>
      <trkpt lat="47.33441" lon="-2.36389">
        <ele>21</ele>
        <time>2021-06-10T08:05:35.000Z</time>
      </trkpt>
      <trkpt lat="47.33439" lon="-2.36386">
        <ele>21.39999961853</ele>
        <time>2021-06-10T08:05:36.000Z</time>
      </trkpt>
      <trkpt lat="47.33438" lon="-2.36382">
        <ele>21.799999237061</ele>
        <time>2021-06-10T08:05:37.000Z</time>
      </trkpt>
      <trkpt lat="47.33437" lon="-2.36378">
        <ele>22.200000762939</ele>
        <time>2021-06-10T08:05:38.000Z</time>
      </trkpt>
      <trkpt lat="47.33435" lon="-2.36374">
        <ele>22.60000038147</ele>
        <time>2021-06-10T08:05:39.000Z</time>
      </trkpt>
      <trkpt lat="47.33431" lon="-2.36357">
        <ele>22.60000038147</ele>
        <time>2021-06-10T08:05:43.000Z</time>
      </trkpt>
      <trkpt lat="47.33423" lon="-2.36322">
        <ele>22.60000038147</ele>
        <time>2021-06-10T08:05:50.000Z</time>
      </trkpt>
      <trkpt lat="47.33419" lon="-2.3631">
        <ele>23</ele>
        <time>2021-06-10T08:05:52.000Z</time>
      </trkpt>
      <trkpt lat="47.33417" lon="-2.36303">
        <ele>23.39999961853</ele>
        <time>2021-06-10T08:05:53.000Z</time>
      </trkpt>
      <trkpt lat="47.33415" lon="-2.36296">
        <ele>24.200000762939</ele>
        <time>2021-06-10T08:05:54.000Z</time>
      </trkpt>
      <trkpt lat="47.33414" lon="-2.36289">
        <ele>24.60000038147</ele>
        <time>2021-06-10T08:05:55.000Z</time>
      </trkpt>
      <trkpt lat="47.33408" lon="-2.36245">
        <ele>24.60000038147</ele>
        <time>2021-06-10T08:06:01.000Z</time>
      </trkpt>
      <trkpt lat="47.33409" lon="-2.36225">
        <ele>24.60000038147</ele>
        <time>2021-06-10T08:06:04.000Z</time>
      </trkpt>
      <trkpt lat="47.33412" lon="-2.36213">
        <ele>24.60000038147</ele>
        <time>2021-06-10T08:06:06.000Z</time>
      </trkpt>
      <trkpt lat="47.33413" lon="-2.36206">
        <ele>24.60000038147</ele>
        <time>2021-06-10T08:06:07.000Z</time>
      </trkpt>
      <trkpt lat="47.33413" lon="-2.36191">
        <ele>24.60000038147</ele>
        <time>2021-06-10T08:06:10.000Z</time>
      </trkpt>
      <trkpt lat="47.33413" lon="-2.36186">
        <ele>25</ele>
        <time>2021-06-10T08:06:11.000Z</time>
      </trkpt>
      <trkpt lat="47.33412" lon="-2.36183">
        <ele>25.39999961853</ele>
        <time>2021-06-10T08:06:12.000Z</time>
      </trkpt>
      <trkpt lat="47.33411" lon="-2.36181">
        <ele>25.799999237061</ele>
        <time>2021-06-10T08:06:13.000Z</time>
      </trkpt>
      <trkpt lat="47.33411" lon="-2.36178">
        <ele>26.200000762939</ele>
        <time>2021-06-10T08:06:14.000Z</time>
      </trkpt>
      <trkpt lat="47.3341" lon="-2.36176">
        <ele>26.60000038147</ele>
        <time>2021-06-10T08:06:15.000Z</time>
      </trkpt>
      <trkpt lat="47.3341" lon="-2.36169">
        <ele>26.60000038147</ele>
        <time>2021-06-10T08:06:19.000Z</time>
      </trkpt>
      <trkpt lat="47.33408" lon="-2.36166">
        <ele>26.60000038147</ele>
        <time>2021-06-10T08:07:22.000Z</time>
      </trkpt>
      <trkpt lat="47.33406" lon="-2.36165">
        <ele>26.60000038147</ele>
        <time>2021-06-10T08:07:23.000Z</time>
      </trkpt>
      <trkpt lat="47.33393" lon="-2.36171">
        <ele>26.60000038147</ele>
        <time>2021-06-10T08:07:27.000Z</time>
      </trkpt>
      <trkpt lat="47.33369" lon="-2.36186">
        <ele>26.60000038147</ele>
        <time>2021-06-10T08:07:33.000Z</time>
      </trkpt>
      <trkpt lat="47.33365" lon="-2.36189">
        <ele>26.60000038147</ele>
        <time>2021-06-10T08:07:34.000Z</time>
      </trkpt>
      <trkpt lat="47.33334" lon="-2.36209">
        <ele>26.60000038147</ele>
        <time>2021-06-10T08:07:41.000Z</time>
      </trkpt>
      <trkpt lat="47.33316" lon="-2.36221">
        <ele>26.60000038147</ele>
        <time>2021-06-10T08:07:45.000Z</time>
      </trkpt>
      <trkpt lat="47.33313" lon="-2.36221">
        <ele>26.60000038147</ele>
        <time>2021-06-10T08:07:46.000Z</time>
      </trkpt>
      <trkpt lat="47.33308" lon="-2.3621">
        <ele>26.60000038147</ele>
        <time>2021-06-10T08:07:48.000Z</time>
      </trkpt>
      <trkpt lat="47.33307" lon="-2.36194">
        <ele>26.60000038147</ele>
        <time>2021-06-10T08:07:50.000Z</time>
      </trkpt>
      <trkpt lat="47.33307" lon="-2.36187">
        <ele>26.60000038147</ele>
        <time>2021-06-10T08:07:51.000Z</time>
      </trkpt>
      <trkpt lat="47.33307" lon="-2.36129">
        <ele>26.60000038147</ele>
        <time>2021-06-10T08:07:59.000Z</time>
      </trkpt>
      <trkpt lat="47.33309" lon="-2.36081">
        <ele>26.60000038147</ele>
        <time>2021-06-10T08:08:05.000Z</time>
      </trkpt>
      <trkpt lat="47.3331" lon="-2.36038">
        <ele>27</ele>
        <time>2021-06-10T08:08:10.000Z</time>
      </trkpt>
      <trkpt lat="47.33311" lon="-2.36029">
        <ele>27.39999961853</ele>
        <time>2021-06-10T08:08:11.000Z</time>
      </trkpt>
      <trkpt lat="47.33312" lon="-2.36019">
        <ele>27.799999237061</ele>
        <time>2021-06-10T08:08:12.000Z</time>
      </trkpt>
      <trkpt lat="47.33313" lon="-2.3601">
        <ele>28.200000762939</ele>
        <time>2021-06-10T08:08:13.000Z</time>
      </trkpt>
      <trkpt lat="47.33314" lon="-2.36002">
        <ele>28.60000038147</ele>
        <time>2021-06-10T08:08:14.000Z</time>
      </trkpt>
      <trkpt lat="47.33319" lon="-2.3596">
        <ele>28.60000038147</ele>
        <time>2021-06-10T08:08:19.000Z</time>
      </trkpt>
      <trkpt lat="47.3332" lon="-2.35943">
        <ele>28.60000038147</ele>
        <time>2021-06-10T08:08:21.000Z</time>
      </trkpt>
      <trkpt lat="47.33316" lon="-2.35919">
        <ele>28.60000038147</ele>
        <time>2021-06-10T08:08:24.000Z</time>
      </trkpt>
      <trkpt lat="47.33314" lon="-2.35911">
        <ele>28.60000038147</ele>
        <time>2021-06-10T08:08:25.000Z</time>
      </trkpt>
      <trkpt lat="47.33311" lon="-2.35903">
        <ele>28.60000038147</ele>
        <time>2021-06-10T08:08:26.000Z</time>
      </trkpt>
      <trkpt lat="47.33297" lon="-2.35885">
        <ele>28.60000038147</ele>
        <time>2021-06-10T08:08:29.000Z</time>
      </trkpt>
      <trkpt lat="47.33285" lon="-2.35877">
        <ele>28.60000038147</ele>
        <time>2021-06-10T08:08:31.000Z</time>
      </trkpt>
      <trkpt lat="47.33268" lon="-2.35861">
        <ele>28.60000038147</ele>
        <time>2021-06-10T08:08:34.000Z</time>
      </trkpt>
      <trkpt lat="47.33262" lon="-2.35854">
        <ele>28.200000762939</ele>
        <time>2021-06-10T08:08:35.000Z</time>
      </trkpt>
      <trkpt lat="47.33257" lon="-2.35848">
        <ele>27.799999237061</ele>
        <time>2021-06-10T08:08:36.000Z</time>
      </trkpt>
      <trkpt lat="47.33252" lon="-2.35843">
        <ele>27.39999961853</ele>
        <time>2021-06-10T08:08:37.000Z</time>
      </trkpt>
      <trkpt lat="47.33246" lon="-2.35837">
        <ele>27</ele>
        <time>2021-06-10T08:08:38.000Z</time>
      </trkpt>
      <trkpt lat="47.3324" lon="-2.35832">
        <ele>26.60000038147</ele>
        <time>2021-06-10T08:08:39.000Z</time>
      </trkpt>
      <trkpt lat="47.33234" lon="-2.35828">
        <ele>26</ele>
        <time>2021-06-10T08:08:40.000Z</time>
      </trkpt>
      <trkpt lat="47.33226" lon="-2.35825">
        <ele>25.39999961853</ele>
        <time>2021-06-10T08:08:41.000Z</time>
      </trkpt>
      <trkpt lat="47.33217" lon="-2.35822">
        <ele>25</ele>
        <time>2021-06-10T08:08:42.000Z</time>
      </trkpt>
      <trkpt lat="47.33209" lon="-2.35819">
        <ele>24.39999961853</ele>
        <time>2021-06-10T08:08:43.000Z</time>
      </trkpt>
      <trkpt lat="47.33175" lon="-2.35812">
        <ele>23.39999961853</ele>
        <time>2021-06-10T08:08:47.000Z</time>
      </trkpt>
      <trkpt lat="47.33167" lon="-2.3581">
        <ele>23</ele>
        <time>2021-06-10T08:08:48.000Z</time>
      </trkpt>
      <trkpt lat="47.33159" lon="-2.35808">
        <ele>22.60000038147</ele>
        <time>2021-06-10T08:08:49.000Z</time>
      </trkpt>
      <trkpt lat="47.33151" lon="-2.35806">
        <ele>22</ele>
        <time>2021-06-10T08:08:50.000Z</time>
      </trkpt>
      <trkpt lat="47.33112" lon="-2.35802">
        <ele>22</ele>
        <time>2021-06-10T08:08:55.000Z</time>
      </trkpt>
      <trkpt lat="47.33074" lon="-2.35806">
        <ele>21.60000038147</ele>
        <time>2021-06-10T08:09:00.000Z</time>
      </trkpt>
      <trkpt lat="47.33067" lon="-2.35806">
        <ele>21.200000762939</ele>
        <time>2021-06-10T08:09:01.000Z</time>
      </trkpt>
      <trkpt lat="47.3306" lon="-2.35807">
        <ele>20.799999237061</ele>
        <time>2021-06-10T08:09:02.000Z</time>
      </trkpt>
      <trkpt lat="47.33053" lon="-2.35807">
        <ele>20.200000762939</ele>
        <time>2021-06-10T08:09:03.000Z</time>
      </trkpt>
      <trkpt lat="47.33046" lon="-2.35807">
        <ele>19.799999237061</ele>
        <time>2021-06-10T08:09:04.000Z</time>
      </trkpt>
      <trkpt lat="47.33039" lon="-2.35806">
        <ele>19.799999237061</ele>
        <time>2021-06-10T08:09:05.000Z</time>
      </trkpt>
      <trkpt lat="47.33027" lon="-2.35797">
        <ele>19.799999237061</ele>
        <time>2021-06-10T08:09:07.000Z</time>
      </trkpt>
      <trkpt lat="47.33016" lon="-2.35784">
        <ele>19.799999237061</ele>
        <time>2021-06-10T08:09:09.000Z</time>
      </trkpt>
      <trkpt lat="47.33012" lon="-2.35776">
        <ele>19.39999961853</ele>
        <time>2021-06-10T08:09:10.000Z</time>
      </trkpt>
      <trkpt lat="47.33007" lon="-2.35766">
        <ele>19</ele>
        <time>2021-06-10T08:09:11.000Z</time>
      </trkpt>
      <trkpt lat="47.33004" lon="-2.35754">
        <ele>18.200000762939</ele>
        <time>2021-06-10T08:09:12.000Z</time>
      </trkpt>
      <trkpt lat="47.33004" lon="-2.35741">
        <ele>17.799999237061</ele>
        <time>2021-06-10T08:09:13.000Z</time>
      </trkpt>
      <trkpt lat="47.33004" lon="-2.3573">
        <ele>17.799999237061</ele>
        <time>2021-06-10T08:09:14.000Z</time>
      </trkpt>
      <trkpt lat="47.33008" lon="-2.35672">
        <ele>17.799999237061</ele>
        <time>2021-06-10T08:09:19.000Z</time>
      </trkpt>
      <trkpt lat="47.33011" lon="-2.35645">
        <ele>17.799999237061</ele>
        <time>2021-06-10T08:09:22.000Z</time>
      </trkpt>
      <trkpt lat="47.33012" lon="-2.35639">
        <ele>17.799999237061</ele>
        <time>2021-06-10T08:09:23.000Z</time>
      </trkpt>
      <trkpt lat="47.33016" lon="-2.35604">
        <ele>17.799999237061</ele>
        <time>2021-06-10T08:09:28.000Z</time>
      </trkpt>
      <trkpt lat="47.33022" lon="-2.35558">
        <ele>17.799999237061</ele>
        <time>2021-06-10T08:09:35.000Z</time>
      </trkpt>
      <trkpt lat="47.33024" lon="-2.35508">
        <ele>17.799999237061</ele>
        <time>2021-06-10T08:09:42.000Z</time>
      </trkpt>
      <trkpt lat="47.33026" lon="-2.35493">
        <ele>18.200000762939</ele>
        <time>2021-06-10T08:09:44.000Z</time>
      </trkpt>
      <trkpt lat="47.33028" lon="-2.35486">
        <ele>18.60000038147</ele>
        <time>2021-06-10T08:09:45.000Z</time>
      </trkpt>
      <trkpt lat="47.33028" lon="-2.35479">
        <ele>19</ele>
        <time>2021-06-10T08:09:46.000Z</time>
      </trkpt>
      <trkpt lat="47.33029" lon="-2.35472">
        <ele>19.39999961853</ele>
        <time>2021-06-10T08:09:47.000Z</time>
      </trkpt>
      <trkpt lat="47.3303" lon="-2.35465">
        <ele>19.799999237061</ele>
        <time>2021-06-10T08:09:48.000Z</time>
      </trkpt>
      <trkpt lat="47.33029" lon="-2.3545">
        <ele>19.799999237061</ele>
        <time>2021-06-10T08:09:51.000Z</time>
      </trkpt>
      <trkpt lat="47.33029" lon="-2.35421">
        <ele>19.799999237061</ele>
        <time>2021-06-10T08:09:57.000Z</time>
      </trkpt>
      <trkpt lat="47.33029" lon="-2.35384">
        <ele>20.200000762939</ele>
        <time>2021-06-10T08:10:03.000Z</time>
      </trkpt>
      <trkpt lat="47.33028" lon="-2.35377">
        <ele>20.60000038147</ele>
        <time>2021-06-10T08:10:04.000Z</time>
      </trkpt>
      <trkpt lat="47.33027" lon="-2.35371">
        <ele>21</ele>
        <time>2021-06-10T08:10:05.000Z</time>
      </trkpt>
      <trkpt lat="47.33027" lon="-2.35363">
        <ele>21.39999961853</ele>
        <time>2021-06-10T08:10:06.000Z</time>
      </trkpt>
      <trkpt lat="47.33027" lon="-2.35357">
        <ele>21.799999237061</ele>
        <time>2021-06-10T08:10:07.000Z</time>
      </trkpt>
      <trkpt lat="47.33027" lon="-2.35335">
        <ele>21.799999237061</ele>
        <time>2021-06-10T08:10:10.000Z</time>
      </trkpt>
      <trkpt lat="47.33027" lon="-2.35286">
        <ele>21.799999237061</ele>
        <time>2021-06-10T08:10:17.000Z</time>
      </trkpt>
      <trkpt lat="47.33029" lon="-2.35264">
        <ele>21.799999237061</ele>
        <time>2021-06-10T08:10:20.000Z</time>
      </trkpt>
      <trkpt lat="47.33028" lon="-2.35251">
        <ele>21.799999237061</ele>
        <time>2021-06-10T08:10:22.000Z</time>
      </trkpt>
      <trkpt lat="47.3303" lon="-2.35223">
        <ele>21.799999237061</ele>
        <time>2021-06-10T08:10:27.000Z</time>
      </trkpt>
      <trkpt lat="47.33037" lon="-2.35197">
        <ele>21.799999237061</ele>
        <time>2021-06-10T08:10:32.000Z</time>
      </trkpt>
      <trkpt lat="47.33044" lon="-2.3518">
        <ele>21.799999237061</ele>
        <time>2021-06-10T08:10:37.000Z</time>
      </trkpt>
      <trkpt lat="47.33052" lon="-2.35153">
        <ele>21.799999237061</ele>
        <time>2021-06-10T08:10:42.000Z</time>
      </trkpt>
      <trkpt lat="47.33054" lon="-2.3515">
        <ele>21.799999237061</ele>
        <time>2021-06-10T08:10:43.000Z</time>
      </trkpt>
      <trkpt lat="47.33058" lon="-2.3514">
        <ele>21.799999237061</ele>
        <time>2021-06-10T08:10:45.000Z</time>
      </trkpt>
      <trkpt lat="47.33072" lon="-2.35116">
        <ele>21.799999237061</ele>
        <time>2021-06-10T08:10:50.000Z</time>
      </trkpt>
      <trkpt lat="47.33081" lon="-2.35103">
        <ele>21.799999237061</ele>
        <time>2021-06-10T08:10:53.000Z</time>
      </trkpt>
      <trkpt lat="47.33089" lon="-2.35095">
        <ele>21.799999237061</ele>
        <time>2021-06-10T08:10:55.000Z</time>
      </trkpt>
      <trkpt lat="47.33105" lon="-2.35072">
        <ele>21.799999237061</ele>
        <time>2021-06-10T08:11:00.000Z</time>
      </trkpt>
      <trkpt lat="47.33121" lon="-2.35051">
        <ele>21.799999237061</ele>
        <time>2021-06-10T08:11:05.000Z</time>
      </trkpt>
      <trkpt lat="47.33141" lon="-2.35019">
        <ele>21.39999961853</ele>
        <time>2021-06-10T08:11:11.000Z</time>
      </trkpt>
      <trkpt lat="47.33144" lon="-2.35014">
        <ele>21</ele>
        <time>2021-06-10T08:11:12.000Z</time>
      </trkpt>
      <trkpt lat="47.33146" lon="-2.3501">
        <ele>20.60000038147</ele>
        <time>2021-06-10T08:11:13.000Z</time>
      </trkpt>
      <trkpt lat="47.33149" lon="-2.35007">
        <ele>20.200000762939</ele>
        <time>2021-06-10T08:11:14.000Z</time>
      </trkpt>
      <trkpt lat="47.3315" lon="-2.35004">
        <ele>19.799999237061</ele>
        <time>2021-06-10T08:11:15.000Z</time>
      </trkpt>
      <trkpt lat="47.33155" lon="-2.34985">
        <ele>19.799999237061</ele>
        <time>2021-06-10T08:11:21.000Z</time>
      </trkpt>
      <trkpt lat="47.33163" lon="-2.34967">
        <ele>19.799999237061</ele>
        <time>2021-06-10T08:11:27.000Z</time>
      </trkpt>
      <trkpt lat="47.33172" lon="-2.34943">
        <ele>19.799999237061</ele>
        <time>2021-06-10T08:11:32.000Z</time>
      </trkpt>
      <trkpt lat="47.33177" lon="-2.34924">
        <ele>19.799999237061</ele>
        <time>2021-06-10T08:11:35.000Z</time>
      </trkpt>
      <trkpt lat="47.33182" lon="-2.34913">
        <ele>19.799999237061</ele>
        <time>2021-06-10T08:11:37.000Z</time>
      </trkpt>
      <trkpt lat="47.33187" lon="-2.34901">
        <ele>19.39999961853</ele>
        <time>2021-06-10T08:11:39.000Z</time>
      </trkpt>
      <trkpt lat="47.3319" lon="-2.34896">
        <ele>18.39999961853</ele>
        <time>2021-06-10T08:11:40.000Z</time>
      </trkpt>
      <trkpt lat="47.33192" lon="-2.3489">
        <ele>18</ele>
        <time>2021-06-10T08:11:41.000Z</time>
      </trkpt>
      <trkpt lat="47.33195" lon="-2.34884">
        <ele>17.60000038147</ele>
        <time>2021-06-10T08:11:42.000Z</time>
      </trkpt>
      <trkpt lat="47.33198" lon="-2.3488">
        <ele>17.60000038147</ele>
        <time>2021-06-10T08:11:43.000Z</time>
      </trkpt>
      <trkpt lat="47.33217" lon="-2.34857">
        <ele>17.60000038147</ele>
        <time>2021-06-10T08:11:48.000Z</time>
      </trkpt>
      <trkpt lat="47.33229" lon="-2.34829">
        <ele>17.60000038147</ele>
        <time>2021-06-10T08:11:54.000Z</time>
      </trkpt>
      <trkpt lat="47.33237" lon="-2.34808">
        <ele>17.60000038147</ele>
        <time>2021-06-10T08:11:59.000Z</time>
      </trkpt>
      <trkpt lat="47.33242" lon="-2.34788">
        <ele>17.200000762939</ele>
        <time>2021-06-10T08:12:03.000Z</time>
      </trkpt>
      <trkpt lat="47.33242" lon="-2.34784">
        <ele>16.799999237061</ele>
        <time>2021-06-10T08:12:04.000Z</time>
      </trkpt>
      <trkpt lat="47.33243" lon="-2.3478">
        <ele>16</ele>
        <time>2021-06-10T08:12:05.000Z</time>
      </trkpt>
      <trkpt lat="47.33244" lon="-2.34776">
        <ele>15.60000038147</ele>
        <time>2021-06-10T08:12:06.000Z</time>
      </trkpt>
      <trkpt lat="47.33246" lon="-2.34761">
        <ele>15.60000038147</ele>
        <time>2021-06-10T08:12:11.000Z</time>
      </trkpt>
      <trkpt lat="47.33252" lon="-2.34748">
        <ele>15.60000038147</ele>
        <time>2021-06-10T08:12:16.000Z</time>
      </trkpt>
      <trkpt lat="47.3326" lon="-2.34726">
        <ele>15.60000038147</ele>
        <time>2021-06-10T08:12:20.000Z</time>
      </trkpt>
      <trkpt lat="47.33266" lon="-2.34693">
        <ele>15.60000038147</ele>
        <time>2021-06-10T08:12:26.000Z</time>
      </trkpt>
      <trkpt lat="47.33269" lon="-2.34687">
        <ele>15.60000038147</ele>
        <time>2021-06-10T08:12:28.000Z</time>
      </trkpt>
      <trkpt lat="47.33274" lon="-2.34682">
        <ele>15.60000038147</ele>
        <time>2021-06-10T08:12:30.000Z</time>
      </trkpt>
      <trkpt lat="47.33282" lon="-2.34672">
        <ele>15.60000038147</ele>
        <time>2021-06-10T08:12:35.000Z</time>
      </trkpt>
      <trkpt lat="47.33283" lon="-2.34669">
        <ele>15.60000038147</ele>
        <time>2021-06-10T08:12:36.000Z</time>
      </trkpt>
      <trkpt lat="47.33288" lon="-2.34653">
        <ele>15.60000038147</ele>
        <time>2021-06-10T08:12:40.000Z</time>
      </trkpt>
      <trkpt lat="47.33299" lon="-2.34621">
        <ele>15.60000038147</ele>
        <time>2021-06-10T08:12:46.000Z</time>
      </trkpt>
      <trkpt lat="47.33306" lon="-2.34596">
        <ele>15.60000038147</ele>
        <time>2021-06-10T08:12:52.000Z</time>
      </trkpt>
      <trkpt lat="47.33315" lon="-2.34582">
        <ele>15.60000038147</ele>
        <time>2021-06-10T08:12:57.000Z</time>
      </trkpt>
      <trkpt lat="47.33335" lon="-2.34549">
        <ele>15.60000038147</ele>
        <time>2021-06-10T08:13:05.000Z</time>
      </trkpt>
      <trkpt lat="47.33347" lon="-2.34521">
        <ele>15.60000038147</ele>
        <time>2021-06-10T08:13:09.000Z</time>
      </trkpt>
      <trkpt lat="47.3335" lon="-2.34516">
        <ele>15.60000038147</ele>
        <time>2021-06-10T08:13:10.000Z</time>
      </trkpt>
      <trkpt lat="47.33357" lon="-2.34505">
        <ele>15.60000038147</ele>
        <time>2021-06-10T08:13:13.000Z</time>
      </trkpt>
      <trkpt lat="47.3336" lon="-2.34504">
        <ele>15.60000038147</ele>
        <time>2021-06-10T08:13:14.000Z</time>
      </trkpt>
      <trkpt lat="47.33373" lon="-2.34515">
        <ele>15.60000038147</ele>
        <time>2021-06-10T08:13:18.000Z</time>
      </trkpt>
      <trkpt lat="47.33382" lon="-2.34526">
        <ele>15.60000038147</ele>
        <time>2021-06-10T08:13:20.000Z</time>
      </trkpt>
      <trkpt lat="47.33393" lon="-2.34546">
        <ele>15.60000038147</ele>
        <time>2021-06-10T08:13:23.000Z</time>
      </trkpt>
      <trkpt lat="47.33413" lon="-2.34585">
        <ele>16</ele>
        <time>2021-06-10T08:13:29.000Z</time>
      </trkpt>
      <trkpt lat="47.33417" lon="-2.34592">
        <ele>16.39999961853</ele>
        <time>2021-06-10T08:13:30.000Z</time>
      </trkpt>
      <trkpt lat="47.33421" lon="-2.34598">
        <ele>17</ele>
        <time>2021-06-10T08:13:31.000Z</time>
      </trkpt>
      <trkpt lat="47.33425" lon="-2.34604">
        <ele>17.39999961853</ele>
        <time>2021-06-10T08:13:32.000Z</time>
      </trkpt>
      <trkpt lat="47.33428" lon="-2.3461">
        <ele>17.799999237061</ele>
        <time>2021-06-10T08:13:33.000Z</time>
      </trkpt>
      <trkpt lat="47.33442" lon="-2.34636">
        <ele>17.799999237061</ele>
        <time>2021-06-10T08:13:37.000Z</time>
      </trkpt>
      <trkpt lat="47.33463" lon="-2.34673">
        <ele>17.799999237061</ele>
        <time>2021-06-10T08:13:43.000Z</time>
      </trkpt>
      <trkpt lat="47.33467" lon="-2.34679">
        <ele>18.200000762939</ele>
        <time>2021-06-10T08:13:44.000Z</time>
      </trkpt>
      <trkpt lat="47.3347" lon="-2.34685">
        <ele>18.60000038147</ele>
        <time>2021-06-10T08:13:45.000Z</time>
      </trkpt>
      <trkpt lat="47.33473" lon="-2.34691">
        <ele>19</ele>
        <time>2021-06-10T08:13:46.000Z</time>
      </trkpt>
      <trkpt lat="47.33476" lon="-2.34695">
        <ele>19.39999961853</ele>
        <time>2021-06-10T08:13:47.000Z</time>
      </trkpt>
      <trkpt lat="47.33479" lon="-2.34699">
        <ele>19.799999237061</ele>
        <time>2021-06-10T08:13:48.000Z</time>
      </trkpt>
      <trkpt lat="47.33481" lon="-2.34703">
        <ele>19.799999237061</ele>
        <time>2021-06-10T08:13:49.000Z</time>
      </trkpt>
      <trkpt lat="47.33502" lon="-2.34732">
        <ele>19.799999237061</ele>
        <time>2021-06-10T08:13:56.000Z</time>
      </trkpt>
      <trkpt lat="47.33517" lon="-2.34751">
        <ele>20.200000762939</ele>
        <time>2021-06-10T08:14:00.000Z</time>
      </trkpt>
      <trkpt lat="47.33521" lon="-2.34756">
        <ele>20.60000038147</ele>
        <time>2021-06-10T08:14:01.000Z</time>
      </trkpt>
      <trkpt lat="47.33525" lon="-2.34761">
        <ele>21</ele>
        <time>2021-06-10T08:14:02.000Z</time>
      </trkpt>
      <trkpt lat="47.33528" lon="-2.34767">
        <ele>21.39999961853</ele>
        <time>2021-06-10T08:14:03.000Z</time>
      </trkpt>
      <trkpt lat="47.33531" lon="-2.34773">
        <ele>21.799999237061</ele>
        <time>2021-06-10T08:14:04.000Z</time>
      </trkpt>
      <trkpt lat="47.33548" lon="-2.34796">
        <ele>21.799999237061</ele>
        <time>2021-06-10T08:14:09.000Z</time>
      </trkpt>
      <trkpt lat="47.3357" lon="-2.34823">
        <ele>21.799999237061</ele>
        <time>2021-06-10T08:14:15.000Z</time>
      </trkpt>
      <trkpt lat="47.33593" lon="-2.34855">
        <ele>21.799999237061</ele>
        <time>2021-06-10T08:14:21.000Z</time>
      </trkpt>
      <trkpt lat="47.33623" lon="-2.34889">
        <ele>21.799999237061</ele>
        <time>2021-06-10T08:14:28.000Z</time>
      </trkpt>
      <trkpt lat="47.33648" lon="-2.3492">
        <ele>21.799999237061</ele>
        <time>2021-06-10T08:14:33.000Z</time>
      </trkpt>
      <trkpt lat="47.33685" lon="-2.34973">
        <ele>21.39999961853</ele>
        <time>2021-06-10T08:14:39.000Z</time>
      </trkpt>
      <trkpt lat="47.33692" lon="-2.34983">
        <ele>21</ele>
        <time>2021-06-10T08:14:40.000Z</time>
      </trkpt>
      <trkpt lat="47.33698" lon="-2.34992">
        <ele>20.60000038147</ele>
        <time>2021-06-10T08:14:41.000Z</time>
      </trkpt>
      <trkpt lat="47.33704" lon="-2.35001">
        <ele>20.200000762939</ele>
        <time>2021-06-10T08:14:42.000Z</time>
      </trkpt>
      <trkpt lat="47.33709" lon="-2.3501">
        <ele>19.799999237061</ele>
        <time>2021-06-10T08:14:43.000Z</time>
      </trkpt>
      <trkpt lat="47.33724" lon="-2.35035">
        <ele>19.799999237061</ele>
        <time>2021-06-10T08:14:46.000Z</time>
      </trkpt>
      <trkpt lat="47.33759" lon="-2.35077">
        <ele>19.799999237061</ele>
        <time>2021-06-10T08:14:52.000Z</time>
      </trkpt>
      <trkpt lat="47.33766" lon="-2.35081">
        <ele>19.799999237061</ele>
        <time>2021-06-10T08:14:53.000Z</time>
      </trkpt>
      <trkpt lat="47.33787" lon="-2.35093">
        <ele>19.799999237061</ele>
        <time>2021-06-10T08:14:56.000Z</time>
      </trkpt>
      <trkpt lat="47.3383" lon="-2.35116">
        <ele>19.799999237061</ele>
        <time>2021-06-10T08:15:02.000Z</time>
      </trkpt>
      <trkpt lat="47.33846" lon="-2.35126">
        <ele>19.799999237061</ele>
        <time>2021-06-10T08:15:04.000Z</time>
      </trkpt>
      <trkpt lat="47.33859" lon="-2.35138">
        <ele>20.39999961853</ele>
        <time>2021-06-10T08:15:06.000Z</time>
      </trkpt>
      <trkpt lat="47.33867" lon="-2.35145">
        <ele>20.799999237061</ele>
        <time>2021-06-10T08:15:07.000Z</time>
      </trkpt>
      <trkpt lat="47.33873" lon="-2.35151">
        <ele>21.39999961853</ele>
        <time>2021-06-10T08:15:08.000Z</time>
      </trkpt>
      <trkpt lat="47.3388" lon="-2.35157">
        <ele>21.799999237061</ele>
        <time>2021-06-10T08:15:09.000Z</time>
      </trkpt>
      <trkpt lat="47.33887" lon="-2.35162">
        <ele>22.39999961853</ele>
        <time>2021-06-10T08:15:10.000Z</time>
      </trkpt>
      <trkpt lat="47.33902" lon="-2.35172">
        <ele>22.39999961853</ele>
        <time>2021-06-10T08:15:12.000Z</time>
      </trkpt>
      <trkpt lat="47.33928" lon="-2.352">
        <ele>22.39999961853</ele>
        <time>2021-06-10T08:15:16.000Z</time>
      </trkpt>
      <trkpt lat="47.33933" lon="-2.35209">
        <ele>22.39999961853</ele>
        <time>2021-06-10T08:15:17.000Z</time>
      </trkpt>
      <trkpt lat="47.33949" lon="-2.35246">
        <ele>22.39999961853</ele>
        <time>2021-06-10T08:15:21.000Z</time>
      </trkpt>
      <trkpt lat="47.33957" lon="-2.35264">
        <ele>22.39999961853</ele>
        <time>2021-06-10T08:15:23.000Z</time>
      </trkpt>
      <trkpt lat="47.33967" lon="-2.35281">
        <ele>22.39999961853</ele>
        <time>2021-06-10T08:15:25.000Z</time>
      </trkpt>
      <trkpt lat="47.33973" lon="-2.35289">
        <ele>22.39999961853</ele>
        <time>2021-06-10T08:15:26.000Z</time>
      </trkpt>
      <trkpt lat="47.34001" lon="-2.35317">
        <ele>22</ele>
        <time>2021-06-10T08:15:30.000Z</time>
      </trkpt>
      <trkpt lat="47.34008" lon="-2.35324">
        <ele>21.39999961853</ele>
        <time>2021-06-10T08:15:31.000Z</time>
      </trkpt>
      <trkpt lat="47.34015" lon="-2.35329">
        <ele>21</ele>
        <time>2021-06-10T08:15:32.000Z</time>
      </trkpt>
      <trkpt lat="47.34022" lon="-2.35335">
        <ele>20.60000038147</ele>
        <time>2021-06-10T08:15:33.000Z</time>
      </trkpt>
      <trkpt lat="47.34028" lon="-2.35341">
        <ele>20.200000762939</ele>
        <time>2021-06-10T08:15:34.000Z</time>
      </trkpt>
      <trkpt lat="47.34047" lon="-2.35361">
        <ele>20.200000762939</ele>
        <time>2021-06-10T08:15:37.000Z</time>
      </trkpt>
      <trkpt lat="47.34052" lon="-2.35368">
        <ele>20.200000762939</ele>
        <time>2021-06-10T08:15:38.000Z</time>
      </trkpt>
      <trkpt lat="47.34062" lon="-2.35384">
        <ele>19.799999237061</ele>
        <time>2021-06-10T08:15:40.000Z</time>
      </trkpt>
      <trkpt lat="47.34067" lon="-2.35393">
        <ele>19.39999961853</ele>
        <time>2021-06-10T08:15:41.000Z</time>
      </trkpt>
      <trkpt lat="47.34071" lon="-2.35402">
        <ele>19</ele>
        <time>2021-06-10T08:15:42.000Z</time>
      </trkpt>
      <trkpt lat="47.34074" lon="-2.35412">
        <ele>18.60000038147</ele>
        <time>2021-06-10T08:15:43.000Z</time>
      </trkpt>
      <trkpt lat="47.34078" lon="-2.35421">
        <ele>18</ele>
        <time>2021-06-10T08:15:44.000Z</time>
      </trkpt>
      <trkpt lat="47.34097" lon="-2.35473">
        <ele>17.60000038147</ele>
        <time>2021-06-10T08:15:50.000Z</time>
      </trkpt>
      <trkpt lat="47.341" lon="-2.35482">
        <ele>17.200000762939</ele>
        <time>2021-06-10T08:15:51.000Z</time>
      </trkpt>
      <trkpt lat="47.34103" lon="-2.35489">
        <ele>16.799999237061</ele>
        <time>2021-06-10T08:15:52.000Z</time>
      </trkpt>
      <trkpt lat="47.34107" lon="-2.35497">
        <ele>16.39999961853</ele>
        <time>2021-06-10T08:15:53.000Z</time>
      </trkpt>
      <trkpt lat="47.34109" lon="-2.35505">
        <ele>16</ele>
        <time>2021-06-10T08:15:54.000Z</time>
      </trkpt>
      <trkpt lat="47.3412" lon="-2.35537">
        <ele>16</ele>
        <time>2021-06-10T08:15:58.000Z</time>
      </trkpt>
      <trkpt lat="47.34142" lon="-2.35602">
        <ele>16</ele>
        <time>2021-06-10T08:16:06.000Z</time>
      </trkpt>
      <trkpt lat="47.34165" lon="-2.3564">
        <ele>16</ele>
        <time>2021-06-10T08:16:12.000Z</time>
      </trkpt>
      <trkpt lat="47.34195" lon="-2.35689">
        <ele>16</ele>
        <time>2021-06-10T08:16:19.000Z</time>
      </trkpt>
      <trkpt lat="47.342" lon="-2.35695">
        <ele>16</ele>
        <time>2021-06-10T08:16:20.000Z</time>
      </trkpt>
      <trkpt lat="47.34205" lon="-2.35699">
        <ele>15.60000038147</ele>
        <time>2021-06-10T08:16:21.000Z</time>
      </trkpt>
      <trkpt lat="47.34211" lon="-2.35702">
        <ele>15.199999809265</ele>
        <time>2021-06-10T08:16:22.000Z</time>
      </trkpt>
      <trkpt lat="47.34217" lon="-2.35704">
        <ele>14.60000038147</ele>
        <time>2021-06-10T08:16:23.000Z</time>
      </trkpt>
      <trkpt lat="47.34223" lon="-2.35704">
        <ele>14.199999809265</ele>
        <time>2021-06-10T08:16:24.000Z</time>
      </trkpt>
      <trkpt lat="47.34228" lon="-2.35703">
        <ele>13.60000038147</ele>
        <time>2021-06-10T08:16:25.000Z</time>
      </trkpt>
      <trkpt lat="47.34234" lon="-2.35702">
        <ele>13.199999809265</ele>
        <time>2021-06-10T08:16:26.000Z</time>
      </trkpt>
      <trkpt lat="47.34244" lon="-2.35695">
        <ele>12.60000038147</ele>
        <time>2021-06-10T08:16:27.000Z</time>
      </trkpt>
      <trkpt lat="47.34252" lon="-2.35687">
        <ele>12.199999809265</ele>
        <time>2021-06-10T08:16:28.000Z</time>
      </trkpt>
      <trkpt lat="47.34259" lon="-2.35678">
        <ele>11.60000038147</ele>
        <time>2021-06-10T08:16:29.000Z</time>
      </trkpt>
      <trkpt lat="47.34267" lon="-2.3567">
        <ele>11.199999809265</ele>
        <time>2021-06-10T08:16:30.000Z</time>
      </trkpt>
      <trkpt lat="47.34274" lon="-2.35662">
        <ele>10.60000038147</ele>
        <time>2021-06-10T08:16:31.000Z</time>
      </trkpt>
      <trkpt lat="47.34279" lon="-2.35651">
        <ele>10.199999809265</ele>
        <time>2021-06-10T08:16:32.000Z</time>
      </trkpt>
      <trkpt lat="47.34285" lon="-2.35642">
        <ele>9.6000003814697</ele>
        <time>2021-06-10T08:16:33.000Z</time>
      </trkpt>
      <trkpt lat="47.34296" lon="-2.35623">
        <ele>9.6000003814697</ele>
        <time>2021-06-10T08:16:35.000Z</time>
      </trkpt>
      <trkpt lat="47.34331" lon="-2.35574">
        <ele>9.6000003814697</ele>
        <time>2021-06-10T08:16:41.000Z</time>
      </trkpt>
      <trkpt lat="47.34346" lon="-2.35552">
        <ele>9.1999998092651</ele>
        <time>2021-06-10T08:16:44.000Z</time>
      </trkpt>
      <trkpt lat="47.34351" lon="-2.35545">
        <ele>8.8000001907349</ele>
        <time>2021-06-10T08:16:45.000Z</time>
      </trkpt>
      <trkpt lat="47.34356" lon="-2.35539">
        <ele>8.3999996185303</ele>
        <time>2021-06-10T08:16:46.000Z</time>
      </trkpt>
      <trkpt lat="47.3436" lon="-2.35532">
        <ele>8</ele>
        <time>2021-06-10T08:16:47.000Z</time>
      </trkpt>
      <trkpt lat="47.34365" lon="-2.35525">
        <ele>7.5999999046326</ele>
        <time>2021-06-10T08:16:48.000Z</time>
      </trkpt>
      <trkpt lat="47.34392" lon="-2.35488">
        <ele>7.5999999046326</ele>
        <time>2021-06-10T08:16:54.000Z</time>
      </trkpt>
      <trkpt lat="47.34412" lon="-2.35452">
        <ele>7.5999999046326</ele>
        <time>2021-06-10T08:16:59.000Z</time>
      </trkpt>
      <trkpt lat="47.34414" lon="-2.35444">
        <ele>7.5999999046326</ele>
        <time>2021-06-10T08:17:00.000Z</time>
      </trkpt>
      <trkpt lat="47.34426" lon="-2.35403">
        <ele>7.5999999046326</ele>
        <time>2021-06-10T08:17:07.000Z</time>
      </trkpt>
      <trkpt lat="47.34429" lon="-2.35401">
        <ele>7.5999999046326</ele>
        <time>2021-06-10T08:17:10.000Z</time>
      </trkpt>
      <trkpt lat="47.3443" lon="-2.354">
        <ele>7.5999999046326</ele>
        <time>2021-06-10T08:17:11.000Z</time>
      </trkpt>
      <trkpt lat="47.34433" lon="-2.35399">
        <ele>7.5999999046326</ele>
        <time>2021-06-10T08:17:13.000Z</time>
      </trkpt>
      <trkpt lat="47.34437" lon="-2.35398">
        <ele>7.5999999046326</ele>
        <time>2021-06-10T08:17:15.000Z</time>
      </trkpt>
      <trkpt lat="47.34438" lon="-2.35397">
        <ele>7.5999999046326</ele>
        <time>2021-06-10T08:17:16.000Z</time>
      </trkpt>
      <trkpt lat="47.34448" lon="-2.35402">
        <ele>7.5999999046326</ele>
        <time>2021-06-10T08:17:20.000Z</time>
      </trkpt>
      <trkpt lat="47.34457" lon="-2.35403">
        <ele>7.5999999046326</ele>
        <time>2021-06-10T08:17:23.000Z</time>
      </trkpt>
      <trkpt lat="47.34463" lon="-2.35406">
        <ele>7.5999999046326</ele>
        <time>2021-06-10T08:17:25.000Z</time>
      </trkpt>
      <trkpt lat="47.34476" lon="-2.354">
        <ele>7.5999999046326</ele>
        <time>2021-06-10T08:17:29.000Z</time>
      </trkpt>
      <trkpt lat="47.34493" lon="-2.35389">
        <ele>7.5999999046326</ele>
        <time>2021-06-10T08:17:34.000Z</time>
      </trkpt>
      <trkpt lat="47.34511" lon="-2.35377">
        <ele>7.5999999046326</ele>
        <time>2021-06-10T08:17:40.000Z</time>
      </trkpt>
      <trkpt lat="47.34522" lon="-2.35372">
        <ele>7.5999999046326</ele>
        <time>2021-06-10T08:17:45.000Z</time>
      </trkpt>
      <trkpt lat="47.3453" lon="-2.35368">
        <ele>7.5999999046326</ele>
        <time>2021-06-10T08:17:51.000Z</time>
      </trkpt>
      <trkpt lat="47.34536" lon="-2.35365">
        <ele>7.5999999046326</ele>
        <time>2021-06-10T08:17:55.000Z</time>
      </trkpt>
      <trkpt lat="47.34537" lon="-2.35365">
        <ele>7.5999999046326</ele>
        <time>2021-06-10T08:17:57.000Z</time>
      </trkpt>
      <trkpt lat="47.34538" lon="-2.35366">
        <ele>7.5999999046326</ele>
        <time>2021-06-10T08:18:32.000Z</time>
      </trkpt>
      <trkpt lat="47.3455" lon="-2.35371">
        <ele>7.5999999046326</ele>
        <time>2021-06-10T08:18:37.000Z</time>
      </trkpt>
      <trkpt lat="47.34559" lon="-2.35369">
        <ele>7.5999999046326</ele>
        <time>2021-06-10T08:18:40.000Z</time>
      </trkpt>
      <trkpt lat="47.34566" lon="-2.35368">
        <ele>7.5999999046326</ele>
        <time>2021-06-10T08:18:43.000Z</time>
      </trkpt>
      <trkpt lat="47.34573" lon="-2.35371">
        <ele>7.5999999046326</ele>
        <time>2021-06-10T08:18:48.000Z</time>
      </trkpt>
      <trkpt lat="47.34579" lon="-2.35373">
        <ele>7.5999999046326</ele>
        <time>2021-06-10T08:18:55.000Z</time>
      </trkpt>
      <trkpt lat="47.34583" lon="-2.35376">
        <ele>7.5999999046326</ele>
        <time>2021-06-10T08:19:26.000Z</time>
      </trkpt>
      <trkpt lat="47.3459" lon="-2.35381">
        <ele>7.5999999046326</ele>
        <time>2021-06-10T08:19:29.000Z</time>
      </trkpt>
      <trkpt lat="47.34599" lon="-2.35386">
        <ele>7.5999999046326</ele>
        <time>2021-06-10T08:19:34.000Z</time>
      </trkpt>
      <trkpt lat="47.34609" lon="-2.35384">
        <ele>7.5999999046326</ele>
        <time>2021-06-10T08:19:41.000Z</time>
      </trkpt>
      <trkpt lat="47.34622" lon="-2.35384">
        <ele>7.5999999046326</ele>
        <time>2021-06-10T08:19:46.000Z</time>
      </trkpt>
      <trkpt lat="47.3463" lon="-2.35389">
        <ele>7.5999999046326</ele>
        <time>2021-06-10T08:19:48.000Z</time>
      </trkpt>
      <trkpt lat="47.34638" lon="-2.35397">
        <ele>7.5999999046326</ele>
        <time>2021-06-10T08:19:50.000Z</time>
      </trkpt>
      <trkpt lat="47.34652" lon="-2.35406">
        <ele>7.5999999046326</ele>
        <time>2021-06-10T08:19:54.000Z</time>
      </trkpt>
      <trkpt lat="47.34655" lon="-2.35405">
        <ele>7.5999999046326</ele>
        <time>2021-06-10T08:19:55.000Z</time>
      </trkpt>
      <trkpt lat="47.34667" lon="-2.35402">
        <ele>7.5999999046326</ele>
        <time>2021-06-10T08:20:00.000Z</time>
      </trkpt>
      <trkpt lat="47.34683" lon="-2.35402">
        <ele>7.5999999046326</ele>
        <time>2021-06-10T08:20:05.000Z</time>
      </trkpt>
      <trkpt lat="47.34695" lon="-2.35398">
        <ele>7.5999999046326</ele>
        <time>2021-06-10T08:20:09.000Z</time>
      </trkpt>
      <trkpt lat="47.34697" lon="-2.35396">
        <ele>7.5999999046326</ele>
        <time>2021-06-10T08:20:10.000Z</time>
      </trkpt>
      <trkpt lat="47.34711" lon="-2.35384">
        <ele>8</ele>
        <time>2021-06-10T08:20:15.000Z</time>
      </trkpt>
      <trkpt lat="47.34713" lon="-2.35381">
        <ele>8.3999996185303</ele>
        <time>2021-06-10T08:20:16.000Z</time>
      </trkpt>
      <trkpt lat="47.34715" lon="-2.35378">
        <ele>8.8000001907349</ele>
        <time>2021-06-10T08:20:17.000Z</time>
      </trkpt>
      <trkpt lat="47.34718" lon="-2.35374">
        <ele>9.6000003814697</ele>
        <time>2021-06-10T08:20:18.000Z</time>
      </trkpt>
      <trkpt lat="47.34723" lon="-2.35365">
        <ele>9.6000003814697</ele>
        <time>2021-06-10T08:20:20.000Z</time>
      </trkpt>
      <trkpt lat="47.34733" lon="-2.35344">
        <ele>9.6000003814697</ele>
        <time>2021-06-10T08:20:25.000Z</time>
      </trkpt>
      <trkpt lat="47.34733" lon="-2.35339">
        <ele>9.6000003814697</ele>
        <time>2021-06-10T08:20:27.000Z</time>
      </trkpt>
      <trkpt lat="47.34733" lon="-2.35333">
        <ele>9.6000003814697</ele>
        <time>2021-06-10T08:20:29.000Z</time>
      </trkpt>
      <trkpt lat="47.34738" lon="-2.35303">
        <ele>9.6000003814697</ele>
        <time>2021-06-10T08:20:36.000Z</time>
      </trkpt>
      <trkpt lat="47.34745" lon="-2.35279">
        <ele>9.1999998092651</ele>
        <time>2021-06-10T08:20:41.000Z</time>
      </trkpt>
      <trkpt lat="47.34746" lon="-2.35275">
        <ele>8.8000001907349</ele>
        <time>2021-06-10T08:20:42.000Z</time>
      </trkpt>
      <trkpt lat="47.34746" lon="-2.3527">
        <ele>8</ele>
        <time>2021-06-10T08:20:43.000Z</time>
      </trkpt>
      <trkpt lat="47.34747" lon="-2.35264">
        <ele>7.5999999046326</ele>
        <time>2021-06-10T08:20:44.000Z</time>
      </trkpt>
      <trkpt lat="47.34749" lon="-2.35251">
        <ele>7.5999999046326</ele>
        <time>2021-06-10T08:20:46.000Z</time>
      </trkpt>
      <trkpt lat="47.34752" lon="-2.35244">
        <ele>7.5999999046326</ele>
        <time>2021-06-10T08:20:47.000Z</time>
      </trkpt>
      <trkpt lat="47.34759" lon="-2.35206">
        <ele>7.5999999046326</ele>
        <time>2021-06-10T08:20:53.000Z</time>
      </trkpt>
      <trkpt lat="47.34763" lon="-2.35173">
        <ele>7.5999999046326</ele>
        <time>2021-06-10T08:20:58.000Z</time>
      </trkpt>
      <trkpt lat="47.34765" lon="-2.35162">
        <ele>7.5999999046326</ele>
        <time>2021-06-10T08:21:00.000Z</time>
      </trkpt>
      <trkpt lat="47.34763" lon="-2.35158">
        <ele>7.5999999046326</ele>
        <time>2021-06-10T08:21:01.000Z</time>
      </trkpt>
      <trkpt lat="47.34751" lon="-2.35133">
        <ele>7.5999999046326</ele>
        <time>2021-06-10T08:21:07.000Z</time>
      </trkpt>
      <trkpt lat="47.34738" lon="-2.35108">
        <ele>7.5999999046326</ele>
        <time>2021-06-10T08:21:12.000Z</time>
      </trkpt>
      <trkpt lat="47.34725" lon="-2.35084">
        <ele>7.5999999046326</ele>
        <time>2021-06-10T08:21:17.000Z</time>
      </trkpt>
      <trkpt lat="47.34713" lon="-2.35061">
        <ele>7.5999999046326</ele>
        <time>2021-06-10T08:21:22.000Z</time>
      </trkpt>
      <trkpt lat="47.34707" lon="-2.35043">
        <ele>7.5999999046326</ele>
        <time>2021-06-10T08:21:27.000Z</time>
      </trkpt>
      <trkpt lat="47.34704" lon="-2.35045">
        <ele>7.5999999046326</ele>
        <time>2021-06-10T08:21:28.000Z</time>
      </trkpt>
      <trkpt lat="47.347" lon="-2.35046">
        <ele>7.5999999046326</ele>
        <time>2021-06-10T08:21:30.000Z</time>
      </trkpt>
      <trkpt lat="47.3468" lon="-2.35034">
        <ele>7.5999999046326</ele>
        <time>2021-06-10T08:21:35.000Z</time>
      </trkpt>
      <trkpt lat="47.34667" lon="-2.35013">
        <ele>7.5999999046326</ele>
        <time>2021-06-10T08:21:39.000Z</time>
      </trkpt>
      <trkpt lat="47.34651" lon="-2.34984">
        <ele>7.5999999046326</ele>
        <time>2021-06-10T08:21:45.000Z</time>
      </trkpt>
      <trkpt lat="47.34607" lon="-2.34954">
        <ele>7.5999999046326</ele>
        <time>2021-06-10T08:21:52.000Z</time>
      </trkpt>
      <trkpt lat="47.34588" lon="-2.34926">
        <ele>7.5999999046326</ele>
        <time>2021-06-10T08:21:58.000Z</time>
      </trkpt>
      <trkpt lat="47.34585" lon="-2.34921">
        <ele>7.5999999046326</ele>
        <time>2021-06-10T08:21:59.000Z</time>
      </trkpt>
      <trkpt lat="47.34578" lon="-2.3491">
        <ele>7.5999999046326</ele>
        <time>2021-06-10T08:22:02.000Z</time>
      </trkpt>
      <trkpt lat="47.34576" lon="-2.34899">
        <ele>7.5999999046326</ele>
        <time>2021-06-10T08:22:07.000Z</time>
      </trkpt>
      <trkpt lat="47.34581" lon="-2.34866">
        <ele>7.5999999046326</ele>
        <time>2021-06-10T08:22:14.000Z</time>
      </trkpt>
      <trkpt lat="47.34591" lon="-2.34833">
        <ele>7.5999999046326</ele>
        <time>2021-06-10T08:22:19.000Z</time>
      </trkpt>
      <trkpt lat="47.3461" lon="-2.34797">
        <ele>7.5999999046326</ele>
        <time>2021-06-10T08:22:23.000Z</time>
      </trkpt>
      <trkpt lat="47.34613" lon="-2.34789">
        <ele>7.5999999046326</ele>
        <time>2021-06-10T08:22:24.000Z</time>
      </trkpt>
      <trkpt lat="47.34623" lon="-2.34769">
        <ele>7.5999999046326</ele>
        <time>2021-06-10T08:22:26.000Z</time>
      </trkpt>
      <trkpt lat="47.3463" lon="-2.3474">
        <ele>7.5999999046326</ele>
        <time>2021-06-10T08:22:29.000Z</time>
      </trkpt>
      <trkpt lat="47.34631" lon="-2.3473">
        <ele>7.5999999046326</ele>
        <time>2021-06-10T08:22:30.000Z</time>
      </trkpt>
      <trkpt lat="47.34632" lon="-2.34721">
        <ele>7.5999999046326</ele>
        <time>2021-06-10T08:22:31.000Z</time>
      </trkpt>
      <trkpt lat="47.34632" lon="-2.34702">
        <ele>7.5999999046326</ele>
        <time>2021-06-10T08:22:33.000Z</time>
      </trkpt>
      <trkpt lat="47.3463" lon="-2.34684">
        <ele>7.5999999046326</ele>
        <time>2021-06-10T08:22:35.000Z</time>
      </trkpt>
      <trkpt lat="47.34626" lon="-2.34658">
        <ele>7.5999999046326</ele>
        <time>2021-06-10T08:22:38.000Z</time>
      </trkpt>
      <trkpt lat="47.34622" lon="-2.34635">
        <ele>8</ele>
        <time>2021-06-10T08:22:41.000Z</time>
      </trkpt>
      <trkpt lat="47.3462" lon="-2.34627">
        <ele>8.3999996185303</ele>
        <time>2021-06-10T08:22:42.000Z</time>
      </trkpt>
      <trkpt lat="47.34619" lon="-2.3462">
        <ele>8.8000001907349</ele>
        <time>2021-06-10T08:22:43.000Z</time>
      </trkpt>
      <trkpt lat="47.34617" lon="-2.34613">
        <ele>9.3999996185303</ele>
        <time>2021-06-10T08:22:44.000Z</time>
      </trkpt>
      <trkpt lat="47.34616" lon="-2.34605">
        <ele>9.8000001907349</ele>
        <time>2021-06-10T08:22:45.000Z</time>
      </trkpt>
      <trkpt lat="47.34616" lon="-2.34596">
        <ele>10.199999809265</ele>
        <time>2021-06-10T08:22:46.000Z</time>
      </trkpt>
      <trkpt lat="47.34615" lon="-2.34589">
        <ele>10.60000038147</ele>
        <time>2021-06-10T08:22:47.000Z</time>
      </trkpt>
      <trkpt lat="47.34613" lon="-2.34582">
        <ele>11</ele>
        <time>2021-06-10T08:22:48.000Z</time>
      </trkpt>
      <trkpt lat="47.34612" lon="-2.34575">
        <ele>11.39999961853</ele>
        <time>2021-06-10T08:22:49.000Z</time>
      </trkpt>
      <trkpt lat="47.34612" lon="-2.34567">
        <ele>11.800000190735</ele>
        <time>2021-06-10T08:22:50.000Z</time>
      </trkpt>
      <trkpt lat="47.3461" lon="-2.34541">
        <ele>11.800000190735</ele>
        <time>2021-06-10T08:22:54.000Z</time>
      </trkpt>
      <trkpt lat="47.34611" lon="-2.34535">
        <ele>11.800000190735</ele>
        <time>2021-06-10T08:22:55.000Z</time>
      </trkpt>
      <trkpt lat="47.34619" lon="-2.34527">
        <ele>11.800000190735</ele>
        <time>2021-06-10T08:22:58.000Z</time>
      </trkpt>
      <trkpt lat="47.34645" lon="-2.34519">
        <ele>11.800000190735</ele>
        <time>2021-06-10T08:23:05.000Z</time>
      </trkpt>
      <trkpt lat="47.34661" lon="-2.34515">
        <ele>11.800000190735</ele>
        <time>2021-06-10T08:23:12.000Z</time>
      </trkpt>
      <trkpt lat="47.34683" lon="-2.34509">
        <ele>11.800000190735</ele>
        <time>2021-06-10T08:23:20.000Z</time>
      </trkpt>
      <trkpt lat="47.34702" lon="-2.345">
        <ele>11.800000190735</ele>
        <time>2021-06-10T08:23:27.000Z</time>
      </trkpt>
      <trkpt lat="47.34712" lon="-2.34495">
        <ele>11.800000190735</ele>
        <time>2021-06-10T08:23:31.000Z</time>
      </trkpt>
      <trkpt lat="47.34716" lon="-2.34493">
        <ele>11.800000190735</ele>
        <time>2021-06-10T08:23:33.000Z</time>
      </trkpt>
      <trkpt lat="47.34729" lon="-2.34488">
        <ele>11.800000190735</ele>
        <time>2021-06-10T08:23:39.000Z</time>
      </trkpt>
      <trkpt lat="47.34745" lon="-2.34479">
        <ele>11.800000190735</ele>
        <time>2021-06-10T08:23:46.000Z</time>
      </trkpt>
      <trkpt lat="47.34746" lon="-2.34476">
        <ele>11.800000190735</ele>
        <time>2021-06-10T08:23:47.000Z</time>
      </trkpt>
      <trkpt lat="47.34748" lon="-2.34467">
        <ele>11.800000190735</ele>
        <time>2021-06-10T08:23:50.000Z</time>
      </trkpt>
      <trkpt lat="47.34754" lon="-2.34442">
        <ele>11.800000190735</ele>
        <time>2021-06-10T08:23:57.000Z</time>
      </trkpt>
      <trkpt lat="47.34764" lon="-2.34422">
        <ele>11.800000190735</ele>
        <time>2021-06-10T08:24:03.000Z</time>
      </trkpt>
      <trkpt lat="47.34772" lon="-2.34407">
        <ele>11.800000190735</ele>
        <time>2021-06-10T08:24:08.000Z</time>
      </trkpt>
      <trkpt lat="47.3478" lon="-2.34389">
        <ele>11.800000190735</ele>
        <time>2021-06-10T08:24:15.000Z</time>
      </trkpt>
      <trkpt lat="47.34794" lon="-2.34384">
        <ele>11.800000190735</ele>
        <time>2021-06-10T08:24:20.000Z</time>
      </trkpt>
      <trkpt lat="47.34816" lon="-2.34382">
        <ele>11.800000190735</ele>
        <time>2021-06-10T08:24:27.000Z</time>
      </trkpt>
      <trkpt lat="47.34836" lon="-2.34378">
        <ele>11.800000190735</ele>
        <time>2021-06-10T08:24:33.000Z</time>
      </trkpt>
      <trkpt lat="47.34854" lon="-2.34377">
        <ele>11.800000190735</ele>
        <time>2021-06-10T08:24:39.000Z</time>
      </trkpt>
      <trkpt lat="47.34876" lon="-2.34375">
        <ele>11.800000190735</ele>
        <time>2021-06-10T08:24:45.000Z</time>
      </trkpt>
      <trkpt lat="47.34884" lon="-2.34376">
        <ele>11.800000190735</ele>
        <time>2021-06-10T08:24:47.000Z</time>
      </trkpt>
      <trkpt lat="47.34897" lon="-2.34378">
        <ele>11.800000190735</ele>
        <time>2021-06-10T08:24:50.000Z</time>
      </trkpt>
      <trkpt lat="47.34914" lon="-2.34372">
        <ele>11.800000190735</ele>
        <time>2021-06-10T08:24:54.000Z</time>
      </trkpt>
      <trkpt lat="47.34918" lon="-2.34371">
        <ele>11.800000190735</ele>
        <time>2021-06-10T08:24:55.000Z</time>
      </trkpt>
      <trkpt lat="47.34933" lon="-2.34373">
        <ele>11.800000190735</ele>
        <time>2021-06-10T08:24:58.000Z</time>
      </trkpt>
      <trkpt lat="47.34944" lon="-2.34374">
        <ele>11.800000190735</ele>
        <time>2021-06-10T08:25:00.000Z</time>
      </trkpt>
      <trkpt lat="47.34959" lon="-2.34373">
        <ele>11.800000190735</ele>
        <time>2021-06-10T08:25:03.000Z</time>
      </trkpt>
      <trkpt lat="47.34964" lon="-2.34373">
        <ele>11.39999961853</ele>
        <time>2021-06-10T08:25:04.000Z</time>
      </trkpt>
      <trkpt lat="47.34968" lon="-2.34373">
        <ele>11</ele>
        <time>2021-06-10T08:25:05.000Z</time>
      </trkpt>
      <trkpt lat="47.34973" lon="-2.34373">
        <ele>10.60000038147</ele>
        <time>2021-06-10T08:25:06.000Z</time>
      </trkpt>
      <trkpt lat="47.34977" lon="-2.34372">
        <ele>10</ele>
        <time>2021-06-10T08:25:07.000Z</time>
      </trkpt>
      <trkpt lat="47.34982" lon="-2.34372">
        <ele>9.6000003814697</ele>
        <time>2021-06-10T08:25:08.000Z</time>
      </trkpt>
      <trkpt lat="47.34991" lon="-2.34371">
        <ele>9.6000003814697</ele>
        <time>2021-06-10T08:25:10.000Z</time>
      </trkpt>
      <trkpt lat="47.35011" lon="-2.34362">
        <ele>9.1999998092651</ele>
        <time>2021-06-10T08:25:16.000Z</time>
      </trkpt>
      <trkpt lat="47.35013" lon="-2.3436">
        <ele>8.8000001907349</ele>
        <time>2021-06-10T08:25:17.000Z</time>
      </trkpt>
      <trkpt lat="47.35015" lon="-2.34358">
        <ele>8.3999996185303</ele>
        <time>2021-06-10T08:25:18.000Z</time>
      </trkpt>
      <trkpt lat="47.35017" lon="-2.34357">
        <ele>8</ele>
        <time>2021-06-10T08:25:19.000Z</time>
      </trkpt>
      <trkpt lat="47.35019" lon="-2.34356">
        <ele>7.5999999046326</ele>
        <time>2021-06-10T08:25:20.000Z</time>
      </trkpt>
      <trkpt lat="47.3502" lon="-2.34354">
        <ele>7.5999999046326</ele>
        <time>2021-06-10T08:25:21.000Z</time>
      </trkpt>
      <trkpt lat="47.35019" lon="-2.34348">
        <ele>7.5999999046326</ele>
        <time>2021-06-10T08:25:25.000Z</time>
      </trkpt>
      <trkpt lat="47.35015" lon="-2.34342">
        <ele>7.5999999046326</ele>
        <time>2021-06-10T08:25:31.000Z</time>
      </trkpt>
      <trkpt lat="47.35008" lon="-2.34323">
        <ele>7.5999999046326</ele>
        <time>2021-06-10T08:25:41.000Z</time>
      </trkpt>
      <trkpt lat="47.35006" lon="-2.34314">
        <ele>8</ele>
        <time>2021-06-10T08:25:44.000Z</time>
      </trkpt>
      <trkpt lat="47.35005" lon="-2.34309">
        <ele>8.3999996185303</ele>
        <time>2021-06-10T08:25:45.000Z</time>
      </trkpt>
      <trkpt lat="47.35005" lon="-2.34305">
        <ele>8.8000001907349</ele>
        <time>2021-06-10T08:25:46.000Z</time>
      </trkpt>
      <trkpt lat="47.35004" lon="-2.34301">
        <ele>9.1999998092651</ele>
        <time>2021-06-10T08:25:47.000Z</time>
      </trkpt>
      <trkpt lat="47.35003" lon="-2.34297">
        <ele>9.6000003814697</ele>
        <time>2021-06-10T08:25:48.000Z</time>
      </trkpt>
      <trkpt lat="47.34996" lon="-2.34273">
        <ele>10</ele>
        <time>2021-06-10T08:25:54.000Z</time>
      </trkpt>
      <trkpt lat="47.34995" lon="-2.34268">
        <ele>10.39999961853</ele>
        <time>2021-06-10T08:25:55.000Z</time>
      </trkpt>
      <trkpt lat="47.34995" lon="-2.34263">
        <ele>11</ele>
        <time>2021-06-10T08:25:56.000Z</time>
      </trkpt>
      <trkpt lat="47.34994" lon="-2.34257">
        <ele>11.39999961853</ele>
        <time>2021-06-10T08:25:57.000Z</time>
      </trkpt>
      <trkpt lat="47.34992" lon="-2.3425">
        <ele>11.800000190735</ele>
        <time>2021-06-10T08:25:58.000Z</time>
      </trkpt>
      <trkpt lat="47.34989" lon="-2.34238">
        <ele>11.800000190735</ele>
        <time>2021-06-10T08:26:00.000Z</time>
      </trkpt>
      <trkpt lat="47.34983" lon="-2.34215">
        <ele>12.60000038147</ele>
        <time>2021-06-10T08:26:04.000Z</time>
      </trkpt>
      <trkpt lat="47.34981" lon="-2.3421">
        <ele>13</ele>
        <time>2021-06-10T08:26:05.000Z</time>
      </trkpt>
      <trkpt lat="47.34978" lon="-2.34206">
        <ele>13.39999961853</ele>
        <time>2021-06-10T08:26:06.000Z</time>
      </trkpt>
      <trkpt lat="47.34974" lon="-2.34202">
        <ele>13.800000190735</ele>
        <time>2021-06-10T08:26:07.000Z</time>
      </trkpt>
      <trkpt lat="47.34968" lon="-2.34197">
        <ele>13.800000190735</ele>
        <time>2021-06-10T08:26:09.000Z</time>
      </trkpt>
      <trkpt lat="47.34961" lon="-2.34197">
        <ele>14.39999961853</ele>
        <time>2021-06-10T08:26:11.000Z</time>
      </trkpt>
      <trkpt lat="47.34958" lon="-2.34197">
        <ele>14.800000190735</ele>
        <time>2021-06-10T08:26:12.000Z</time>
      </trkpt>
      <trkpt lat="47.34955" lon="-2.34197">
        <ele>15.199999809265</ele>
        <time>2021-06-10T08:26:13.000Z</time>
      </trkpt>
      <trkpt lat="47.34951" lon="-2.34198">
        <ele>15.60000038147</ele>
        <time>2021-06-10T08:26:14.000Z</time>
      </trkpt>
      <trkpt lat="47.34949" lon="-2.34199">
        <ele>16</ele>
        <time>2021-06-10T08:26:15.000Z</time>
      </trkpt>
      <trkpt lat="47.34946" lon="-2.34201">
        <ele>16</ele>
        <time>2021-06-10T08:26:16.000Z</time>
      </trkpt>
      <trkpt lat="47.34927" lon="-2.34209">
        <ele>16</ele>
        <time>2021-06-10T08:26:23.000Z</time>
      </trkpt>
      <trkpt lat="47.34924" lon="-2.3421">
        <ele>16.39999961853</ele>
        <time>2021-06-10T08:26:24.000Z</time>
      </trkpt>
      <trkpt lat="47.34922" lon="-2.3421">
        <ele>16.799999237061</ele>
        <time>2021-06-10T08:26:25.000Z</time>
      </trkpt>
      <trkpt lat="47.34919" lon="-2.3421">
        <ele>17.200000762939</ele>
        <time>2021-06-10T08:26:26.000Z</time>
      </trkpt>
      <trkpt lat="47.34916" lon="-2.3421">
        <ele>17.60000038147</ele>
        <time>2021-06-10T08:26:27.000Z</time>
      </trkpt>
      <trkpt lat="47.34913" lon="-2.34209">
        <ele>18</ele>
        <time>2021-06-10T08:26:28.000Z</time>
      </trkpt>
      <trkpt lat="47.34911" lon="-2.34209">
        <ele>18</ele>
        <time>2021-06-10T08:26:29.000Z</time>
      </trkpt>
      <trkpt lat="47.34899" lon="-2.34206">
        <ele>18.39999961853</ele>
        <time>2021-06-10T08:26:35.000Z</time>
      </trkpt>
      <trkpt lat="47.34897" lon="-2.34206">
        <ele>18.799999237061</ele>
        <time>2021-06-10T08:26:36.000Z</time>
      </trkpt>
      <trkpt lat="47.34895" lon="-2.34206">
        <ele>19.200000762939</ele>
        <time>2021-06-10T08:26:37.000Z</time>
      </trkpt>
      <trkpt lat="47.34893" lon="-2.34205">
        <ele>19.60000038147</ele>
        <time>2021-06-10T08:26:38.000Z</time>
      </trkpt>
      <trkpt lat="47.34891" lon="-2.34205">
        <ele>20</ele>
        <time>2021-06-10T08:26:39.000Z</time>
      </trkpt>
      <trkpt lat="47.34889" lon="-2.34204">
        <ele>20</ele>
        <time>2021-06-10T08:26:41.000Z</time>
      </trkpt>
      <trkpt lat="47.34888" lon="-2.34205">
        <ele>20</ele>
        <time>2021-06-10T08:26:42.000Z</time>
      </trkpt>
      <trkpt lat="47.34887" lon="-2.3421">
        <ele>22.200000762939</ele>
        <time>2021-06-10T08:44:49.000Z</time>
      </trkpt>
      <trkpt lat="47.34886" lon="-2.34211">
        <ele>22.200000762939</ele>
        <time>2021-06-10T08:44:50.000Z</time>
      </trkpt>
      <trkpt lat="47.34878" lon="-2.34214">
        <ele>22.200000762939</ele>
        <time>2021-06-10T08:44:54.000Z</time>
      </trkpt>
      <trkpt lat="47.34874" lon="-2.3422">
        <ele>22.200000762939</ele>
        <time>2021-06-10T08:44:56.000Z</time>
      </trkpt>
      <trkpt lat="47.34863" lon="-2.34234">
        <ele>21.799999237061</ele>
        <time>2021-06-10T08:45:01.000Z</time>
      </trkpt>
      <trkpt lat="47.34861" lon="-2.34235">
        <ele>21.200000762939</ele>
        <time>2021-06-10T08:45:02.000Z</time>
      </trkpt>
      <trkpt lat="47.34858" lon="-2.34235">
        <ele>20.799999237061</ele>
        <time>2021-06-10T08:45:03.000Z</time>
      </trkpt>
      <trkpt lat="47.34854" lon="-2.34234">
        <ele>20.39999961853</ele>
        <time>2021-06-10T08:45:04.000Z</time>
      </trkpt>
      <trkpt lat="47.3485" lon="-2.34232">
        <ele>20</ele>
        <time>2021-06-10T08:45:05.000Z</time>
      </trkpt>
      <trkpt lat="47.34845" lon="-2.34231">
        <ele>20</ele>
        <time>2021-06-10T08:45:06.000Z</time>
      </trkpt>
      <trkpt lat="47.3484" lon="-2.3423">
        <ele>20</ele>
        <time>2021-06-10T08:45:07.000Z</time>
      </trkpt>
      <trkpt lat="47.34824" lon="-2.34229">
        <ele>19.39999961853</ele>
        <time>2021-06-10T08:45:10.000Z</time>
      </trkpt>
      <trkpt lat="47.34819" lon="-2.34229">
        <ele>19</ele>
        <time>2021-06-10T08:45:11.000Z</time>
      </trkpt>
      <trkpt lat="47.34812" lon="-2.34229">
        <ele>18.60000038147</ele>
        <time>2021-06-10T08:45:12.000Z</time>
      </trkpt>
      <trkpt lat="47.34807" lon="-2.3423">
        <ele>18.200000762939</ele>
        <time>2021-06-10T08:45:13.000Z</time>
      </trkpt>
      <trkpt lat="47.34801" lon="-2.34231">
        <ele>17.60000038147</ele>
        <time>2021-06-10T08:45:14.000Z</time>
      </trkpt>
      <trkpt lat="47.34794" lon="-2.34234">
        <ele>17.200000762939</ele>
        <time>2021-06-10T08:45:15.000Z</time>
      </trkpt>
      <trkpt lat="47.34788" lon="-2.34236">
        <ele>16.799999237061</ele>
        <time>2021-06-10T08:45:16.000Z</time>
      </trkpt>
      <trkpt lat="47.34781" lon="-2.34238">
        <ele>16.39999961853</ele>
        <time>2021-06-10T08:45:17.000Z</time>
      </trkpt>
      <trkpt lat="47.34775" lon="-2.3424">
        <ele>15.800000190735</ele>
        <time>2021-06-10T08:45:18.000Z</time>
      </trkpt>
      <trkpt lat="47.34768" lon="-2.34242">
        <ele>15.39999961853</ele>
        <time>2021-06-10T08:45:19.000Z</time>
      </trkpt>
      <trkpt lat="47.3474" lon="-2.34249">
        <ele>15.39999961853</ele>
        <time>2021-06-10T08:45:23.000Z</time>
      </trkpt>
      <trkpt lat="47.34725" lon="-2.34253">
        <ele>15</ele>
        <time>2021-06-10T08:45:25.000Z</time>
      </trkpt>
      <trkpt lat="47.34717" lon="-2.34255">
        <ele>14.60000038147</ele>
        <time>2021-06-10T08:45:26.000Z</time>
      </trkpt>
      <trkpt lat="47.3471" lon="-2.34257">
        <ele>14.199999809265</ele>
        <time>2021-06-10T08:45:27.000Z</time>
      </trkpt>
      <trkpt lat="47.34703" lon="-2.34258">
        <ele>13.800000190735</ele>
        <time>2021-06-10T08:45:28.000Z</time>
      </trkpt>
      <trkpt lat="47.34696" lon="-2.3426">
        <ele>13.39999961853</ele>
        <time>2021-06-10T08:45:29.000Z</time>
      </trkpt>
      <trkpt lat="47.34683" lon="-2.34261">
        <ele>13.39999961853</ele>
        <time>2021-06-10T08:45:31.000Z</time>
      </trkpt>
      <trkpt lat="47.34669" lon="-2.34261">
        <ele>13.39999961853</ele>
        <time>2021-06-10T08:45:34.000Z</time>
      </trkpt>
      <trkpt lat="47.34667" lon="-2.34258">
        <ele>13.39999961853</ele>
        <time>2021-06-10T08:45:35.000Z</time>
      </trkpt>
      <trkpt lat="47.34664" lon="-2.34237">
        <ele>13.39999961853</ele>
        <time>2021-06-10T08:45:39.000Z</time>
      </trkpt>
      <trkpt lat="47.34665" lon="-2.34231">
        <ele>13.39999961853</ele>
        <time>2021-06-10T08:45:40.000Z</time>
      </trkpt>
      <trkpt lat="47.34665" lon="-2.34218">
        <ele>13.39999961853</ele>
        <time>2021-06-10T08:45:42.000Z</time>
      </trkpt>
      <trkpt lat="47.34667" lon="-2.34199">
        <ele>13.39999961853</ele>
        <time>2021-06-10T08:45:45.000Z</time>
      </trkpt>
      <trkpt lat="47.34668" lon="-2.34187">
        <ele>13.39999961853</ele>
        <time>2021-06-10T08:45:47.000Z</time>
      </trkpt>
      <trkpt lat="47.3467" lon="-2.34181">
        <ele>13</ele>
        <time>2021-06-10T08:45:48.000Z</time>
      </trkpt>
      <trkpt lat="47.34671" lon="-2.34176">
        <ele>12.60000038147</ele>
        <time>2021-06-10T08:45:49.000Z</time>
      </trkpt>
      <trkpt lat="47.34673" lon="-2.3417">
        <ele>12.199999809265</ele>
        <time>2021-06-10T08:45:50.000Z</time>
      </trkpt>
      <trkpt lat="47.34674" lon="-2.34165">
        <ele>11.800000190735</ele>
        <time>2021-06-10T08:45:51.000Z</time>
      </trkpt>
      <trkpt lat="47.34673" lon="-2.34159">
        <ele>11.39999961853</ele>
        <time>2021-06-10T08:45:52.000Z</time>
      </trkpt>
      <trkpt lat="47.34671" lon="-2.34155">
        <ele>11.39999961853</ele>
        <time>2021-06-10T08:45:53.000Z</time>
      </trkpt>
      <trkpt lat="47.34665" lon="-2.34151">
        <ele>11.39999961853</ele>
        <time>2021-06-10T08:45:56.000Z</time>
      </trkpt>
      <trkpt lat="47.34653" lon="-2.34148">
        <ele>11.39999961853</ele>
        <time>2021-06-10T08:46:02.000Z</time>
      </trkpt>
      <trkpt lat="47.34651" lon="-2.34147">
        <ele>11.39999961853</ele>
        <time>2021-06-10T08:46:03.000Z</time>
      </trkpt>
      <trkpt lat="47.34642" lon="-2.34138">
        <ele>11.39999961853</ele>
        <time>2021-06-10T08:46:07.000Z</time>
      </trkpt>
      <trkpt lat="47.34637" lon="-2.34132">
        <ele>10.800000190735</ele>
        <time>2021-06-10T08:46:09.000Z</time>
      </trkpt>
      <trkpt lat="47.34634" lon="-2.34128">
        <ele>10.39999961853</ele>
        <time>2021-06-10T08:46:10.000Z</time>
      </trkpt>
      <trkpt lat="47.34632" lon="-2.34124">
        <ele>10</ele>
        <time>2021-06-10T08:46:11.000Z</time>
      </trkpt>
      <trkpt lat="47.34629" lon="-2.3412">
        <ele>9.6000003814697</ele>
        <time>2021-06-10T08:46:12.000Z</time>
      </trkpt>
      <trkpt lat="47.34627" lon="-2.34115">
        <ele>9.1999998092651</ele>
        <time>2021-06-10T08:46:13.000Z</time>
      </trkpt>
      <trkpt lat="47.34614" lon="-2.34073">
        <ele>9.1999998092651</ele>
        <time>2021-06-10T08:46:19.000Z</time>
      </trkpt>
      <trkpt lat="47.34606" lon="-2.34029">
        <ele>9.1999998092651</ele>
        <time>2021-06-10T08:46:24.000Z</time>
      </trkpt>
      <trkpt lat="47.34601" lon="-2.34006">
        <ele>8.3999996185303</ele>
        <time>2021-06-10T08:46:27.000Z</time>
      </trkpt>
      <trkpt lat="47.346" lon="-2.34">
        <ele>7.8000001907349</ele>
        <time>2021-06-10T08:46:28.000Z</time>
      </trkpt>
      <trkpt lat="47.34598" lon="-2.33993">
        <ele>7.4000000953674</ele>
        <time>2021-06-10T08:46:29.000Z</time>
      </trkpt>
      <trkpt lat="47.34597" lon="-2.33987">
        <ele>7</ele>
        <time>2021-06-10T08:46:30.000Z</time>
      </trkpt>
      <trkpt lat="47.34588" lon="-2.33954">
        <ele>7</ele>
        <time>2021-06-10T08:46:36.000Z</time>
      </trkpt>
      <trkpt lat="47.34581" lon="-2.33936">
        <ele>7</ele>
        <time>2021-06-10T08:46:41.000Z</time>
      </trkpt>
      <trkpt lat="47.34566" lon="-2.33905">
        <ele>7</ele>
        <time>2021-06-10T08:46:49.000Z</time>
      </trkpt>
      <trkpt lat="47.34565" lon="-2.33901">
        <ele>7</ele>
        <time>2021-06-10T08:46:50.000Z</time>
      </trkpt>
      <trkpt lat="47.34553" lon="-2.33873">
        <ele>7</ele>
        <time>2021-06-10T08:46:56.000Z</time>
      </trkpt>
      <trkpt lat="47.34545" lon="-2.33831">
        <ele>7</ele>
        <time>2021-06-10T08:47:03.000Z</time>
      </trkpt>
      <trkpt lat="47.34543" lon="-2.33817">
        <ele>7.4000000953674</ele>
        <time>2021-06-10T08:47:05.000Z</time>
      </trkpt>
      <trkpt lat="47.34542" lon="-2.3381">
        <ele>7.8000001907349</ele>
        <time>2021-06-10T08:47:06.000Z</time>
      </trkpt>
      <trkpt lat="47.34541" lon="-2.33803">
        <ele>8.1999998092651</ele>
        <time>2021-06-10T08:47:07.000Z</time>
      </trkpt>
      <trkpt lat="47.3454" lon="-2.33796">
        <ele>8.6000003814697</ele>
        <time>2021-06-10T08:47:08.000Z</time>
      </trkpt>
      <trkpt lat="47.34539" lon="-2.33789">
        <ele>9</ele>
        <time>2021-06-10T08:47:09.000Z</time>
      </trkpt>
      <trkpt lat="47.34536" lon="-2.33774">
        <ele>9</ele>
        <time>2021-06-10T08:47:11.000Z</time>
      </trkpt>
      <trkpt lat="47.34533" lon="-2.33743">
        <ele>9</ele>
        <time>2021-06-10T08:47:15.000Z</time>
      </trkpt>
      <trkpt lat="47.34532" lon="-2.33735">
        <ele>9</ele>
        <time>2021-06-10T08:47:16.000Z</time>
      </trkpt>
      <trkpt lat="47.34527" lon="-2.33711">
        <ele>9</ele>
        <time>2021-06-10T08:47:20.000Z</time>
      </trkpt>
      <trkpt lat="47.34525" lon="-2.33696">
        <ele>9</ele>
        <time>2021-06-10T08:47:25.000Z</time>
      </trkpt>
      <trkpt lat="47.3452" lon="-2.33677">
        <ele>9</ele>
        <time>2021-06-10T08:47:30.000Z</time>
      </trkpt>
      <trkpt lat="47.34517" lon="-2.33668">
        <ele>9</ele>
        <time>2021-06-10T08:47:32.000Z</time>
      </trkpt>
      <trkpt lat="47.34514" lon="-2.33648">
        <ele>9</ele>
        <time>2021-06-10T08:47:36.000Z</time>
      </trkpt>
      <trkpt lat="47.34509" lon="-2.3363">
        <ele>8.6000003814697</ele>
        <time>2021-06-10T08:47:40.000Z</time>
      </trkpt>
      <trkpt lat="47.34508" lon="-2.33625">
        <ele>8.1999998092651</ele>
        <time>2021-06-10T08:47:41.000Z</time>
      </trkpt>
      <trkpt lat="47.34507" lon="-2.3362">
        <ele>7.4000000953674</ele>
        <time>2021-06-10T08:47:42.000Z</time>
      </trkpt>
      <trkpt lat="47.34505" lon="-2.33615">
        <ele>7</ele>
        <time>2021-06-10T08:47:43.000Z</time>
      </trkpt>
      <trkpt lat="47.345" lon="-2.33595">
        <ele>7</ele>
        <time>2021-06-10T08:47:47.000Z</time>
      </trkpt>
      <trkpt lat="47.34492" lon="-2.33574">
        <ele>7</ele>
        <time>2021-06-10T08:47:52.000Z</time>
      </trkpt>
      <trkpt lat="47.34489" lon="-2.33549">
        <ele>7</ele>
        <time>2021-06-10T08:47:57.000Z</time>
      </trkpt>
      <trkpt lat="47.34487" lon="-2.33524">
        <ele>7</ele>
        <time>2021-06-10T08:48:01.000Z</time>
      </trkpt>
      <trkpt lat="47.34485" lon="-2.33512">
        <ele>7</ele>
        <time>2021-06-10T08:48:03.000Z</time>
      </trkpt>
      <trkpt lat="47.34478" lon="-2.33468">
        <ele>7</ele>
        <time>2021-06-10T08:48:10.000Z</time>
      </trkpt>
      <trkpt lat="47.34476" lon="-2.33435">
        <ele>7</ele>
        <time>2021-06-10T08:48:16.000Z</time>
      </trkpt>
      <trkpt lat="47.34473" lon="-2.3342">
        <ele>6.5999999046326</ele>
        <time>2021-06-10T08:48:20.000Z</time>
      </trkpt>
      <trkpt lat="47.34472" lon="-2.33417">
        <ele>6.1999998092651</ele>
        <time>2021-06-10T08:48:21.000Z</time>
      </trkpt>
      <trkpt lat="47.3447" lon="-2.33414">
        <ele>5.8000001907349</ele>
        <time>2021-06-10T08:48:22.000Z</time>
      </trkpt>
      <trkpt lat="47.34469" lon="-2.33411">
        <ele>5.4000000953674</ele>
        <time>2021-06-10T08:48:23.000Z</time>
      </trkpt>
      <trkpt lat="47.34468" lon="-2.33408">
        <ele>5</ele>
        <time>2021-06-10T08:48:24.000Z</time>
      </trkpt>
      <trkpt lat="47.34467" lon="-2.33402">
        <ele>5</ele>
        <time>2021-06-10T08:48:26.000Z</time>
      </trkpt>
      <trkpt lat="47.34463" lon="-2.33379">
        <ele>5</ele>
        <time>2021-06-10T08:48:32.000Z</time>
      </trkpt>
      <trkpt lat="47.3446" lon="-2.33344">
        <ele>5</ele>
        <time>2021-06-10T08:48:40.000Z</time>
      </trkpt>
      <trkpt lat="47.34453" lon="-2.33315">
        <ele>5</ele>
        <time>2021-06-10T08:48:46.000Z</time>
      </trkpt>
      <trkpt lat="47.34439" lon="-2.33302">
        <ele>5</ele>
        <time>2021-06-10T08:48:51.000Z</time>
      </trkpt>
      <trkpt lat="47.34427" lon="-2.33282">
        <ele>5</ele>
        <time>2021-06-10T08:48:56.000Z</time>
      </trkpt>
      <trkpt lat="47.34422" lon="-2.33255">
        <ele>5</ele>
        <time>2021-06-10T08:49:01.000Z</time>
      </trkpt>
      <trkpt lat="47.34417" lon="-2.33229">
        <ele>5</ele>
        <time>2021-06-10T08:49:05.000Z</time>
      </trkpt>
      <trkpt lat="47.34415" lon="-2.33215">
        <ele>5</ele>
        <time>2021-06-10T08:49:07.000Z</time>
      </trkpt>
      <trkpt lat="47.34406" lon="-2.33173">
        <ele>5</ele>
        <time>2021-06-10T08:49:14.000Z</time>
      </trkpt>
      <trkpt lat="47.34405" lon="-2.33168">
        <ele>4.4000000953674</ele>
        <time>2021-06-10T08:49:15.000Z</time>
      </trkpt>
      <trkpt lat="47.34404" lon="-2.33162">
        <ele>4</ele>
        <time>2021-06-10T08:49:16.000Z</time>
      </trkpt>
      <trkpt lat="47.34404" lon="-2.33157">
        <ele>3.5999999046326</ele>
        <time>2021-06-10T08:49:17.000Z</time>
      </trkpt>
      <trkpt lat="47.34403" lon="-2.33152">
        <ele>3.2000000476837</ele>
        <time>2021-06-10T08:49:18.000Z</time>
      </trkpt>
      <trkpt lat="47.34402" lon="-2.33148">
        <ele>2.5999999046326</ele>
        <time>2021-06-10T08:49:19.000Z</time>
      </trkpt>
      <trkpt lat="47.34401" lon="-2.33144">
        <ele>2.5999999046326</ele>
        <time>2021-06-10T08:49:20.000Z</time>
      </trkpt>
      <trkpt lat="47.34397" lon="-2.3312">
        <ele>2.5999999046326</ele>
        <time>2021-06-10T08:49:26.000Z</time>
      </trkpt>
      <trkpt lat="47.34392" lon="-2.33098">
        <ele>2.5999999046326</ele>
        <time>2021-06-10T08:49:32.000Z</time>
      </trkpt>
      <trkpt lat="47.34385" lon="-2.33075">
        <ele>2.5999999046326</ele>
        <time>2021-06-10T08:49:38.000Z</time>
      </trkpt>
      <trkpt lat="47.34377" lon="-2.33045">
        <ele>2.5999999046326</ele>
        <time>2021-06-10T08:49:45.000Z</time>
      </trkpt>
      <trkpt lat="47.34367" lon="-2.33013">
        <ele>2.5999999046326</ele>
        <time>2021-06-10T08:49:51.000Z</time>
      </trkpt>
      <trkpt lat="47.34356" lon="-2.32969">
        <ele>2.5999999046326</ele>
        <time>2021-06-10T08:49:57.000Z</time>
      </trkpt>
      <trkpt lat="47.34347" lon="-2.32933">
        <ele>2.5999999046326</ele>
        <time>2021-06-10T08:50:02.000Z</time>
      </trkpt>
      <trkpt lat="47.34347" lon="-2.32926">
        <ele>2.5999999046326</ele>
        <time>2021-06-10T08:50:03.000Z</time>
      </trkpt>
      <trkpt lat="47.34349" lon="-2.32908">
        <ele>2.5999999046326</ele>
        <time>2021-06-10T08:50:06.000Z</time>
      </trkpt>
      <trkpt lat="47.34351" lon="-2.32903">
        <ele>2.5999999046326</ele>
        <time>2021-06-10T08:50:07.000Z</time>
      </trkpt>
      <trkpt lat="47.34357" lon="-2.32893">
        <ele>2.5999999046326</ele>
        <time>2021-06-10T08:50:09.000Z</time>
      </trkpt>
      <trkpt lat="47.34364" lon="-2.32886">
        <ele>2.5999999046326</ele>
        <time>2021-06-10T08:50:11.000Z</time>
      </trkpt>
      <trkpt lat="47.34393" lon="-2.3286">
        <ele>2.5999999046326</ele>
        <time>2021-06-10T08:50:18.000Z</time>
      </trkpt>
      <trkpt lat="47.34427" lon="-2.32841">
        <ele>2.5999999046326</ele>
        <time>2021-06-10T08:50:24.000Z</time>
      </trkpt>
      <trkpt lat="47.34438" lon="-2.32833">
        <ele>2.5999999046326</ele>
        <time>2021-06-10T08:50:26.000Z</time>
      </trkpt>
      <trkpt lat="47.34445" lon="-2.32823">
        <ele>2.5999999046326</ele>
        <time>2021-06-10T08:50:28.000Z</time>
      </trkpt>
      <trkpt lat="47.34449" lon="-2.32804">
        <ele>3.2000000476837</ele>
        <time>2021-06-10T08:50:31.000Z</time>
      </trkpt>
      <trkpt lat="47.34447" lon="-2.32797">
        <ele>3.5999999046326</ele>
        <time>2021-06-10T08:50:32.000Z</time>
      </trkpt>
      <trkpt lat="47.34447" lon="-2.32791">
        <ele>4</ele>
        <time>2021-06-10T08:50:33.000Z</time>
      </trkpt>
      <trkpt lat="47.34447" lon="-2.32785">
        <ele>4.4000000953674</ele>
        <time>2021-06-10T08:50:34.000Z</time>
      </trkpt>
      <trkpt lat="47.34448" lon="-2.32779">
        <ele>5</ele>
        <time>2021-06-10T08:50:35.000Z</time>
      </trkpt>
      <trkpt lat="47.3445" lon="-2.32768">
        <ele>5.4000000953674</ele>
        <time>2021-06-10T08:50:37.000Z</time>
      </trkpt>
      <trkpt lat="47.34451" lon="-2.32763">
        <ele>5.8000001907349</ele>
        <time>2021-06-10T08:50:38.000Z</time>
      </trkpt>
      <trkpt lat="47.34453" lon="-2.32759">
        <ele>6.1999998092651</ele>
        <time>2021-06-10T08:50:39.000Z</time>
      </trkpt>
      <trkpt lat="47.34455" lon="-2.32756">
        <ele>6.5999999046326</ele>
        <time>2021-06-10T08:50:40.000Z</time>
      </trkpt>
      <trkpt lat="47.34458" lon="-2.32753">
        <ele>7</ele>
        <time>2021-06-10T08:50:41.000Z</time>
      </trkpt>
      <trkpt lat="47.34483" lon="-2.32735">
        <ele>7</ele>
        <time>2021-06-10T08:50:46.000Z</time>
      </trkpt>
      <trkpt lat="47.34527" lon="-2.32707">
        <ele>7</ele>
        <time>2021-06-10T08:50:53.000Z</time>
      </trkpt>
      <trkpt lat="47.3455" lon="-2.3269">
        <ele>7</ele>
        <time>2021-06-10T08:50:57.000Z</time>
      </trkpt>
      <trkpt lat="47.34571" lon="-2.32672">
        <ele>7</ele>
        <time>2021-06-10T08:51:01.000Z</time>
      </trkpt>
      <trkpt lat="47.34611" lon="-2.32637">
        <ele>6.5999999046326</ele>
        <time>2021-06-10T08:51:08.000Z</time>
      </trkpt>
      <trkpt lat="47.34616" lon="-2.32634">
        <ele>6.1999998092651</ele>
        <time>2021-06-10T08:51:09.000Z</time>
      </trkpt>
      <trkpt lat="47.34621" lon="-2.32633">
        <ele>5.5999999046326</ele>
        <time>2021-06-10T08:51:10.000Z</time>
      </trkpt>
      <trkpt lat="47.34627" lon="-2.32634">
        <ele>5.1999998092651</ele>
        <time>2021-06-10T08:51:11.000Z</time>
      </trkpt>
      <trkpt lat="47.34633" lon="-2.32635">
        <ele>4.8000001907349</ele>
        <time>2021-06-10T08:51:12.000Z</time>
      </trkpt>
      <trkpt lat="47.34639" lon="-2.32639">
        <ele>4.8000001907349</ele>
        <time>2021-06-10T08:51:13.000Z</time>
      </trkpt>
      <trkpt lat="47.34646" lon="-2.32642">
        <ele>4.1999998092651</ele>
        <time>2021-06-10T08:51:14.000Z</time>
      </trkpt>
      <trkpt lat="47.34653" lon="-2.32645">
        <ele>3.7999999523163</ele>
        <time>2021-06-10T08:51:15.000Z</time>
      </trkpt>
      <trkpt lat="47.34659" lon="-2.3265">
        <ele>3.4000000953674</ele>
        <time>2021-06-10T08:51:16.000Z</time>
      </trkpt>
      <trkpt lat="47.34664" lon="-2.32654">
        <ele>3</ele>
        <time>2021-06-10T08:51:17.000Z</time>
      </trkpt>
      <trkpt lat="47.34669" lon="-2.32659">
        <ele>2.5999999046326</ele>
        <time>2021-06-10T08:51:18.000Z</time>
      </trkpt>
      <trkpt lat="47.34673" lon="-2.32664">
        <ele>2.2000000476837</ele>
        <time>2021-06-10T08:51:19.000Z</time>
      </trkpt>
      <trkpt lat="47.34677" lon="-2.32669">
        <ele>1.6000000238419</ele>
        <time>2021-06-10T08:51:20.000Z</time>
      </trkpt>
      <trkpt lat="47.3468" lon="-2.32673">
        <ele>1.2000000476837</ele>
        <time>2021-06-10T08:51:21.000Z</time>
      </trkpt>
      <trkpt lat="47.34682" lon="-2.32678">
        <ele>0.80000001192093</ele>
        <time>2021-06-10T08:51:22.000Z</time>
      </trkpt>
      <trkpt lat="47.34684" lon="-2.32682">
        <ele>0.40000000596046</ele>
        <time>2021-06-10T08:51:23.000Z</time>
      </trkpt>
      <trkpt lat="47.34687" lon="-2.32692">
        <ele>0.40000000596046</ele>
        <time>2021-06-10T08:51:25.000Z</time>
      </trkpt>
      <trkpt lat="47.34696" lon="-2.32713">
        <ele>0.40000000596046</ele>
        <time>2021-06-10T08:51:30.000Z</time>
      </trkpt>
      <trkpt lat="47.34711" lon="-2.32741">
        <ele>0.40000000596046</ele>
        <time>2021-06-10T08:51:37.000Z</time>
      </trkpt>
      <trkpt lat="47.34718" lon="-2.32745">
        <ele>0.40000000596046</ele>
        <time>2021-06-10T08:51:39.000Z</time>
      </trkpt>
      <trkpt lat="47.34722" lon="-2.32743">
        <ele>0.40000000596046</ele>
        <time>2021-06-10T08:51:41.000Z</time>
      </trkpt>
      <trkpt lat="47.34729" lon="-2.32739">
        <ele>0.40000000596046</ele>
        <time>2021-06-10T08:51:46.000Z</time>
      </trkpt>
      <trkpt lat="47.34731" lon="-2.32737">
        <ele>0.40000000596046</ele>
        <time>2021-06-10T08:51:48.000Z</time>
      </trkpt>
      <trkpt lat="47.34733" lon="-2.32738">
        <ele>0.40000000596046</ele>
        <time>2021-06-10T08:51:51.000Z</time>
      </trkpt>
      <trkpt lat="47.34731" lon="-2.32738">
        <ele>0.40000000596046</ele>
        <time>2021-06-10T08:52:19.000Z</time>
      </trkpt>
      <trkpt lat="47.34728" lon="-2.32741">
        <ele>0.40000000596046</ele>
        <time>2021-06-10T08:52:21.000Z</time>
      </trkpt>
      <trkpt lat="47.34716" lon="-2.32744">
        <ele>0.40000000596046</ele>
        <time>2021-06-10T08:52:26.000Z</time>
      </trkpt>
      <trkpt lat="47.34708" lon="-2.32734">
        <ele>0.40000000596046</ele>
        <time>2021-06-10T08:52:30.000Z</time>
      </trkpt>
      <trkpt lat="47.34707" lon="-2.32732">
        <ele>0.40000000596046</ele>
        <time>2021-06-10T08:52:31.000Z</time>
      </trkpt>
      <trkpt lat="47.34697" lon="-2.32717">
        <ele>0.40000000596046</ele>
        <time>2021-06-10T08:52:36.000Z</time>
      </trkpt>
      <trkpt lat="47.34684" lon="-2.32696">
        <ele>0.40000000596046</ele>
        <time>2021-06-10T08:52:42.000Z</time>
      </trkpt>
      <trkpt lat="47.34669" lon="-2.32665">
        <ele>0.40000000596046</ele>
        <time>2021-06-10T08:52:49.000Z</time>
      </trkpt>
      <trkpt lat="47.34657" lon="-2.3265">
        <ele>0.40000000596046</ele>
        <time>2021-06-10T08:52:54.000Z</time>
      </trkpt>
      <trkpt lat="47.34648" lon="-2.32642">
        <ele>0.80000001192093</ele>
        <time>2021-06-10T08:52:57.000Z</time>
      </trkpt>
      <trkpt lat="47.34645" lon="-2.3264">
        <ele>1.2000000476837</ele>
        <time>2021-06-10T08:52:58.000Z</time>
      </trkpt>
      <trkpt lat="47.34641" lon="-2.32637">
        <ele>1.6000000238419</ele>
        <time>2021-06-10T08:52:59.000Z</time>
      </trkpt>
      <trkpt lat="47.34638" lon="-2.32635">
        <ele>2.2000000476837</ele>
        <time>2021-06-10T08:53:00.000Z</time>
      </trkpt>
      <trkpt lat="47.34636" lon="-2.32632">
        <ele>2.5999999046326</ele>
        <time>2021-06-10T08:53:01.000Z</time>
      </trkpt>
      <trkpt lat="47.3463" lon="-2.32619">
        <ele>2.5999999046326</ele>
        <time>2021-06-10T08:53:05.000Z</time>
      </trkpt>
      <trkpt lat="47.3463" lon="-2.32617">
        <ele>2.5999999046326</ele>
        <time>2021-06-10T08:53:06.000Z</time>
      </trkpt>
      <trkpt lat="47.34632" lon="-2.32609">
        <ele>2.5999999046326</ele>
        <time>2021-06-10T08:53:09.000Z</time>
      </trkpt>
      <trkpt lat="47.34639" lon="-2.32598">
        <ele>2.5999999046326</ele>
        <time>2021-06-10T08:53:16.000Z</time>
      </trkpt>
      <trkpt lat="47.34643" lon="-2.32583">
        <ele>2.5999999046326</ele>
        <time>2021-06-10T08:53:23.000Z</time>
      </trkpt>
      <trkpt lat="47.34644" lon="-2.32574">
        <ele>2.5999999046326</ele>
        <time>2021-06-10T08:53:27.000Z</time>
      </trkpt>
      <trkpt lat="47.34644" lon="-2.32571">
        <ele>2.5999999046326</ele>
        <time>2021-06-10T08:54:25.000Z</time>
      </trkpt>
      <trkpt lat="47.34648" lon="-2.32556">
        <ele>2.5999999046326</ele>
        <time>2021-06-10T08:54:31.000Z</time>
      </trkpt>
      <trkpt lat="47.34654" lon="-2.32542">
        <ele>2.5999999046326</ele>
        <time>2021-06-10T08:54:36.000Z</time>
      </trkpt>
      <trkpt lat="47.34664" lon="-2.32528">
        <ele>2.5999999046326</ele>
        <time>2021-06-10T08:54:40.000Z</time>
      </trkpt>
      <trkpt lat="47.3467" lon="-2.32526">
        <ele>2.5999999046326</ele>
        <time>2021-06-10T08:54:41.000Z</time>
      </trkpt>
      <trkpt lat="47.34689" lon="-2.3252">
        <ele>2.5999999046326</ele>
        <time>2021-06-10T08:54:46.000Z</time>
      </trkpt>
      <trkpt lat="47.347" lon="-2.32516">
        <ele>2.5999999046326</ele>
        <time>2021-06-10T08:54:49.000Z</time>
      </trkpt>
      <trkpt lat="47.34711" lon="-2.32513">
        <ele>2.5999999046326</ele>
        <time>2021-06-10T08:54:52.000Z</time>
      </trkpt>
      <trkpt lat="47.34714" lon="-2.32511">
        <ele>2.5999999046326</ele>
        <time>2021-06-10T08:54:54.000Z</time>
      </trkpt>
      <trkpt lat="47.3472" lon="-2.32509">
        <ele>2.5999999046326</ele>
        <time>2021-06-10T08:54:57.000Z</time>
      </trkpt>
      <trkpt lat="47.34734" lon="-2.32502">
        <ele>2.5999999046326</ele>
        <time>2021-06-10T08:55:03.000Z</time>
      </trkpt>
      <trkpt lat="47.34757" lon="-2.32479">
        <ele>2.5999999046326</ele>
        <time>2021-06-10T08:55:10.000Z</time>
      </trkpt>
      <trkpt lat="47.3478" lon="-2.32458">
        <ele>2.5999999046326</ele>
        <time>2021-06-10T08:55:16.000Z</time>
      </trkpt>
      <trkpt lat="47.348" lon="-2.32432">
        <ele>2.5999999046326</ele>
        <time>2021-06-10T08:55:22.000Z</time>
      </trkpt>
      <trkpt lat="47.34803" lon="-2.32427">
        <ele>2.5999999046326</ele>
        <time>2021-06-10T08:55:23.000Z</time>
      </trkpt>
      <trkpt lat="47.34819" lon="-2.32403">
        <ele>2.5999999046326</ele>
        <time>2021-06-10T08:55:28.000Z</time>
      </trkpt>
      <trkpt lat="47.34826" lon="-2.32395">
        <ele>2.5999999046326</ele>
        <time>2021-06-10T08:55:30.000Z</time>
      </trkpt>
      <trkpt lat="47.34846" lon="-2.32369">
        <ele>2.5999999046326</ele>
        <time>2021-06-10T08:55:36.000Z</time>
      </trkpt>
      <trkpt lat="47.34865" lon="-2.32333">
        <ele>2.5999999046326</ele>
        <time>2021-06-10T08:55:43.000Z</time>
      </trkpt>
      <trkpt lat="47.34864" lon="-2.32313">
        <ele>2.5999999046326</ele>
        <time>2021-06-10T08:55:47.000Z</time>
      </trkpt>
      <trkpt lat="47.34847" lon="-2.32291">
        <ele>2.5999999046326</ele>
        <time>2021-06-10T08:55:52.000Z</time>
      </trkpt>
      <trkpt lat="47.34819" lon="-2.32265">
        <ele>2.5999999046326</ele>
        <time>2021-06-10T08:55:58.000Z</time>
      </trkpt>
      <trkpt lat="47.34799" lon="-2.32236">
        <ele>2.5999999046326</ele>
        <time>2021-06-10T08:56:05.000Z</time>
      </trkpt>
      <trkpt lat="47.34784" lon="-2.32205">
        <ele>2.5999999046326</ele>
        <time>2021-06-10T08:56:11.000Z</time>
      </trkpt>
      <trkpt lat="47.3477" lon="-2.3218">
        <ele>2.5999999046326</ele>
        <time>2021-06-10T08:56:16.000Z</time>
      </trkpt>
      <trkpt lat="47.34757" lon="-2.3215">
        <ele>2.5999999046326</ele>
        <time>2021-06-10T08:56:21.000Z</time>
      </trkpt>
      <trkpt lat="47.34755" lon="-2.32144">
        <ele>2.5999999046326</ele>
        <time>2021-06-10T08:56:22.000Z</time>
      </trkpt>
      <trkpt lat="47.34747" lon="-2.3212">
        <ele>2.5999999046326</ele>
        <time>2021-06-10T08:56:26.000Z</time>
      </trkpt>
      <trkpt lat="47.34746" lon="-2.32106">
        <ele>2.5999999046326</ele>
        <time>2021-06-10T08:56:28.000Z</time>
      </trkpt>
      <trkpt lat="47.34752" lon="-2.32079">
        <ele>2.5999999046326</ele>
        <time>2021-06-10T08:56:32.000Z</time>
      </trkpt>
      <trkpt lat="47.34763" lon="-2.32058">
        <ele>2.5999999046326</ele>
        <time>2021-06-10T08:56:35.000Z</time>
      </trkpt>
      <trkpt lat="47.34767" lon="-2.32052">
        <ele>2.5999999046326</ele>
        <time>2021-06-10T08:56:36.000Z</time>
      </trkpt>
      <trkpt lat="47.34779" lon="-2.32034">
        <ele>2.5999999046326</ele>
        <time>2021-06-10T08:56:39.000Z</time>
      </trkpt>
      <trkpt lat="47.34784" lon="-2.3202">
        <ele>2.5999999046326</ele>
        <time>2021-06-10T08:56:41.000Z</time>
      </trkpt>
      <trkpt lat="47.34804" lon="-2.31958">
        <ele>2.5999999046326</ele>
        <time>2021-06-10T08:56:49.000Z</time>
      </trkpt>
      <trkpt lat="47.3482" lon="-2.31908">
        <ele>2.5999999046326</ele>
        <time>2021-06-10T08:56:56.000Z</time>
      </trkpt>
      <trkpt lat="47.34825" lon="-2.31897">
        <ele>2.5999999046326</ele>
        <time>2021-06-10T08:56:58.000Z</time>
      </trkpt>
      <trkpt lat="47.34829" lon="-2.31891">
        <ele>2.5999999046326</ele>
        <time>2021-06-10T08:57:00.000Z</time>
      </trkpt>
      <trkpt lat="47.34832" lon="-2.31888">
        <ele>2.5999999046326</ele>
        <time>2021-06-10T08:57:04.000Z</time>
      </trkpt>
      <trkpt lat="47.34829" lon="-2.31891">
        <ele>0.60000002384186</ele>
        <time>2021-06-10T08:58:23.000Z</time>
      </trkpt>
      <trkpt lat="47.34828" lon="-2.31896">
        <ele>0.60000002384186</ele>
        <time>2021-06-10T08:58:25.000Z</time>
      </trkpt>
      <trkpt lat="47.34825" lon="-2.319">
        <ele>0.60000002384186</ele>
        <time>2021-06-10T08:58:27.000Z</time>
      </trkpt>
      <trkpt lat="47.34819" lon="-2.31912">
        <ele>0.60000002384186</ele>
        <time>2021-06-10T08:58:30.000Z</time>
      </trkpt>
      <trkpt lat="47.3481" lon="-2.31935">
        <ele>0.60000002384186</ele>
        <time>2021-06-10T08:58:35.000Z</time>
      </trkpt>
      <trkpt lat="47.34798" lon="-2.31974">
        <ele>0.60000002384186</ele>
        <time>2021-06-10T08:58:42.000Z</time>
      </trkpt>
      <trkpt lat="47.34785" lon="-2.32016">
        <ele>0.60000002384186</ele>
        <time>2021-06-10T08:58:49.000Z</time>
      </trkpt>
      <trkpt lat="47.3478" lon="-2.32028">
        <ele>0.60000002384186</ele>
        <time>2021-06-10T08:58:51.000Z</time>
      </trkpt>
      <trkpt lat="47.34772" lon="-2.32043">
        <ele>0.60000002384186</ele>
        <time>2021-06-10T08:58:54.000Z</time>
      </trkpt>
      <trkpt lat="47.34754" lon="-2.32077">
        <ele>0.60000002384186</ele>
        <time>2021-06-10T08:59:00.000Z</time>
      </trkpt>
      <trkpt lat="47.34745" lon="-2.32092">
        <ele>1</ele>
        <time>2021-06-10T08:59:03.000Z</time>
      </trkpt>
      <trkpt lat="47.34742" lon="-2.32096">
        <ele>1.3999999761581</ele>
        <time>2021-06-10T08:59:04.000Z</time>
      </trkpt>
      <trkpt lat="47.34739" lon="-2.321">
        <ele>1.7999999523163</ele>
        <time>2021-06-10T08:59:05.000Z</time>
      </trkpt>
      <trkpt lat="47.34734" lon="-2.32105">
        <ele>2.2000000476837</ele>
        <time>2021-06-10T08:59:06.000Z</time>
      </trkpt>
      <trkpt lat="47.34729" lon="-2.32109">
        <ele>2.5999999046326</ele>
        <time>2021-06-10T08:59:07.000Z</time>
      </trkpt>
      <trkpt lat="47.34714" lon="-2.32121">
        <ele>2.5999999046326</ele>
        <time>2021-06-10T08:59:10.000Z</time>
      </trkpt>
      <trkpt lat="47.34686" lon="-2.32146">
        <ele>3</ele>
        <time>2021-06-10T08:59:16.000Z</time>
      </trkpt>
      <trkpt lat="47.34681" lon="-2.3215">
        <ele>3.4000000953674</ele>
        <time>2021-06-10T08:59:17.000Z</time>
      </trkpt>
      <trkpt lat="47.34676" lon="-2.32155">
        <ele>3.7999999523163</ele>
        <time>2021-06-10T08:59:18.000Z</time>
      </trkpt>
      <trkpt lat="47.34671" lon="-2.32159">
        <ele>4.1999998092651</ele>
        <time>2021-06-10T08:59:19.000Z</time>
      </trkpt>
      <trkpt lat="47.34666" lon="-2.32163">
        <ele>4.5999999046326</ele>
        <time>2021-06-10T08:59:20.000Z</time>
      </trkpt>
      <trkpt lat="47.34637" lon="-2.32188">
        <ele>4.5999999046326</ele>
        <time>2021-06-10T08:59:26.000Z</time>
      </trkpt>
      <trkpt lat="47.34604" lon="-2.32216">
        <ele>4.5999999046326</ele>
        <time>2021-06-10T08:59:33.000Z</time>
      </trkpt>
      <trkpt lat="47.34587" lon="-2.32233">
        <ele>5</ele>
        <time>2021-06-10T08:59:37.000Z</time>
      </trkpt>
      <trkpt lat="47.34582" lon="-2.32238">
        <ele>5.8000001907349</ele>
        <time>2021-06-10T08:59:38.000Z</time>
      </trkpt>
      <trkpt lat="47.34578" lon="-2.32242">
        <ele>6.1999998092651</ele>
        <time>2021-06-10T08:59:39.000Z</time>
      </trkpt>
      <trkpt lat="47.34573" lon="-2.32246">
        <ele>6.5999999046326</ele>
        <time>2021-06-10T08:59:40.000Z</time>
      </trkpt>
      <trkpt lat="47.34538" lon="-2.32275">
        <ele>6.5999999046326</ele>
        <time>2021-06-10T08:59:47.000Z</time>
      </trkpt>
      <trkpt lat="47.34529" lon="-2.32284">
        <ele>7</ele>
        <time>2021-06-10T08:59:49.000Z</time>
      </trkpt>
      <trkpt lat="47.34524" lon="-2.32288">
        <ele>7.4000000953674</ele>
        <time>2021-06-10T08:59:50.000Z</time>
      </trkpt>
      <trkpt lat="47.34519" lon="-2.32291">
        <ele>7.8000001907349</ele>
        <time>2021-06-10T08:59:51.000Z</time>
      </trkpt>
      <trkpt lat="47.34514" lon="-2.32296">
        <ele>8.1999998092651</ele>
        <time>2021-06-10T08:59:52.000Z</time>
      </trkpt>
      <trkpt lat="47.34509" lon="-2.323">
        <ele>8.6000003814697</ele>
        <time>2021-06-10T08:59:53.000Z</time>
      </trkpt>
      <trkpt lat="47.34504" lon="-2.32304">
        <ele>8.6000003814697</ele>
        <time>2021-06-10T08:59:54.000Z</time>
      </trkpt>
      <trkpt lat="47.34481" lon="-2.32328">
        <ele>8.6000003814697</ele>
        <time>2021-06-10T08:59:59.000Z</time>
      </trkpt>
      <trkpt lat="47.34477" lon="-2.32332">
        <ele>8.6000003814697</ele>
        <time>2021-06-10T09:00:00.000Z</time>
      </trkpt>
      <trkpt lat="47.34444" lon="-2.32364">
        <ele>8.6000003814697</ele>
        <time>2021-06-10T09:00:07.000Z</time>
      </trkpt>
      <trkpt lat="47.34414" lon="-2.32398">
        <ele>8.6000003814697</ele>
        <time>2021-06-10T09:00:14.000Z</time>
      </trkpt>
      <trkpt lat="47.34385" lon="-2.32444">
        <ele>8.6000003814697</ele>
        <time>2021-06-10T09:00:21.000Z</time>
      </trkpt>
      <trkpt lat="47.34365" lon="-2.32486">
        <ele>8.6000003814697</ele>
        <time>2021-06-10T09:00:27.000Z</time>
      </trkpt>
      <trkpt lat="47.34338" lon="-2.3253">
        <ele>8.6000003814697</ele>
        <time>2021-06-10T09:00:34.000Z</time>
      </trkpt>
      <trkpt lat="47.34334" lon="-2.32535">
        <ele>8.6000003814697</ele>
        <time>2021-06-10T09:00:35.000Z</time>
      </trkpt>
      <trkpt lat="47.34306" lon="-2.32552">
        <ele>8.6000003814697</ele>
        <time>2021-06-10T09:00:40.000Z</time>
      </trkpt>
      <trkpt lat="47.34301" lon="-2.32555">
        <ele>9</ele>
        <time>2021-06-10T09:00:41.000Z</time>
      </trkpt>
      <trkpt lat="47.34295" lon="-2.32557">
        <ele>9.6000003814697</ele>
        <time>2021-06-10T09:00:42.000Z</time>
      </trkpt>
      <trkpt lat="47.34289" lon="-2.32558">
        <ele>10</ele>
        <time>2021-06-10T09:00:43.000Z</time>
      </trkpt>
      <trkpt lat="47.34284" lon="-2.3256">
        <ele>10.39999961853</ele>
        <time>2021-06-10T09:00:44.000Z</time>
      </trkpt>
      <trkpt lat="47.34278" lon="-2.32561">
        <ele>10.800000190735</ele>
        <time>2021-06-10T09:00:45.000Z</time>
      </trkpt>
      <trkpt lat="47.34272" lon="-2.32562">
        <ele>10.800000190735</ele>
        <time>2021-06-10T09:00:46.000Z</time>
      </trkpt>
      <trkpt lat="47.34221" lon="-2.32572">
        <ele>10.800000190735</ele>
        <time>2021-06-10T09:00:55.000Z</time>
      </trkpt>
      <trkpt lat="47.34175" lon="-2.3258">
        <ele>10.800000190735</ele>
        <time>2021-06-10T09:01:03.000Z</time>
      </trkpt>
      <trkpt lat="47.34164" lon="-2.3258">
        <ele>10.800000190735</ele>
        <time>2021-06-10T09:01:05.000Z</time>
      </trkpt>
      <trkpt lat="47.3416" lon="-2.32576">
        <ele>11.199999809265</ele>
        <time>2021-06-10T09:01:06.000Z</time>
      </trkpt>
      <trkpt lat="47.34157" lon="-2.32569">
        <ele>11.60000038147</ele>
        <time>2021-06-10T09:01:07.000Z</time>
      </trkpt>
      <trkpt lat="47.34156" lon="-2.32562">
        <ele>12</ele>
        <time>2021-06-10T09:01:08.000Z</time>
      </trkpt>
      <trkpt lat="47.34155" lon="-2.32554">
        <ele>12.39999961853</ele>
        <time>2021-06-10T09:01:09.000Z</time>
      </trkpt>
      <trkpt lat="47.34154" lon="-2.32546">
        <ele>13</ele>
        <time>2021-06-10T09:01:10.000Z</time>
      </trkpt>
      <trkpt lat="47.34148" lon="-2.32484">
        <ele>13</ele>
        <time>2021-06-10T09:01:17.000Z</time>
      </trkpt>
      <trkpt lat="47.34144" lon="-2.32466">
        <ele>13</ele>
        <time>2021-06-10T09:01:19.000Z</time>
      </trkpt>
      <trkpt lat="47.34134" lon="-2.32433">
        <ele>13</ele>
        <time>2021-06-10T09:01:23.000Z</time>
      </trkpt>
      <trkpt lat="47.34121" lon="-2.32386">
        <ele>13</ele>
        <time>2021-06-10T09:01:29.000Z</time>
      </trkpt>
      <trkpt lat="47.34102" lon="-2.32324">
        <ele>13</ele>
        <time>2021-06-10T09:01:36.000Z</time>
      </trkpt>
      <trkpt lat="47.34084" lon="-2.32255">
        <ele>12.39999961853</ele>
        <time>2021-06-10T09:01:43.000Z</time>
      </trkpt>
      <trkpt lat="47.3408" lon="-2.32245">
        <ele>12</ele>
        <time>2021-06-10T09:01:44.000Z</time>
      </trkpt>
      <trkpt lat="47.34075" lon="-2.32236">
        <ele>11.60000038147</ele>
        <time>2021-06-10T09:01:45.000Z</time>
      </trkpt>
      <trkpt lat="47.34069" lon="-2.32228">
        <ele>11.199999809265</ele>
        <time>2021-06-10T09:01:46.000Z</time>
      </trkpt>
      <trkpt lat="47.34062" lon="-2.32222">
        <ele>10.800000190735</ele>
        <time>2021-06-10T09:01:47.000Z</time>
      </trkpt>
      <trkpt lat="47.34041" lon="-2.32214">
        <ele>10.39999961853</ele>
        <time>2021-06-10T09:01:50.000Z</time>
      </trkpt>
      <trkpt lat="47.34033" lon="-2.32214">
        <ele>10</ele>
        <time>2021-06-10T09:01:51.000Z</time>
      </trkpt>
      <trkpt lat="47.34026" lon="-2.32214">
        <ele>9.6000003814697</ele>
        <time>2021-06-10T09:01:52.000Z</time>
      </trkpt>
      <trkpt lat="47.34018" lon="-2.32215">
        <ele>9.1999998092651</ele>
        <time>2021-06-10T09:01:53.000Z</time>
      </trkpt>
      <trkpt lat="47.3401" lon="-2.32215">
        <ele>8.8000001907349</ele>
        <time>2021-06-10T09:01:54.000Z</time>
      </trkpt>
      <trkpt lat="47.34002" lon="-2.32216">
        <ele>8.8000001907349</ele>
        <time>2021-06-10T09:01:55.000Z</time>
      </trkpt>
      <trkpt lat="47.33958" lon="-2.32216">
        <ele>8.8000001907349</ele>
        <time>2021-06-10T09:02:01.000Z</time>
      </trkpt>
      <trkpt lat="47.33952" lon="-2.32214">
        <ele>8.8000001907349</ele>
        <time>2021-06-10T09:02:02.000Z</time>
      </trkpt>
      <trkpt lat="47.33946" lon="-2.32212">
        <ele>8.8000001907349</ele>
        <time>2021-06-10T09:02:03.000Z</time>
      </trkpt>
      <trkpt lat="47.33926" lon="-2.32203">
        <ele>8.8000001907349</ele>
        <time>2021-06-10T09:02:06.000Z</time>
      </trkpt>
      <trkpt lat="47.33913" lon="-2.32201">
        <ele>8.8000001907349</ele>
        <time>2021-06-10T09:02:08.000Z</time>
      </trkpt>
      <trkpt lat="47.33897" lon="-2.32199">
        <ele>8.8000001907349</ele>
        <time>2021-06-10T09:02:11.000Z</time>
      </trkpt>
      <trkpt lat="47.33863" lon="-2.32198">
        <ele>8.8000001907349</ele>
        <time>2021-06-10T09:02:16.000Z</time>
      </trkpt>
      <trkpt lat="47.33822" lon="-2.32205">
        <ele>8.8000001907349</ele>
        <time>2021-06-10T09:02:23.000Z</time>
      </trkpt>
      <trkpt lat="47.33777" lon="-2.32216">
        <ele>8.8000001907349</ele>
        <time>2021-06-10T09:02:30.000Z</time>
      </trkpt>
      <trkpt lat="47.33729" lon="-2.32237">
        <ele>8.8000001907349</ele>
        <time>2021-06-10T09:02:37.000Z</time>
      </trkpt>
      <trkpt lat="47.33677" lon="-2.32269">
        <ele>8.8000001907349</ele>
        <time>2021-06-10T09:02:45.000Z</time>
      </trkpt>
      <trkpt lat="47.33639" lon="-2.32286">
        <ele>8.8000001907349</ele>
        <time>2021-06-10T09:02:51.000Z</time>
      </trkpt>
      <trkpt lat="47.336" lon="-2.32291">
        <ele>8.8000001907349</ele>
        <time>2021-06-10T09:02:57.000Z</time>
      </trkpt>
      <trkpt lat="47.3356" lon="-2.323">
        <ele>8.8000001907349</ele>
        <time>2021-06-10T09:03:03.000Z</time>
      </trkpt>
      <trkpt lat="47.33541" lon="-2.32304">
        <ele>8.8000001907349</ele>
        <time>2021-06-10T09:03:06.000Z</time>
      </trkpt>
      <trkpt lat="47.33526" lon="-2.32304">
        <ele>8.8000001907349</ele>
        <time>2021-06-10T09:03:08.000Z</time>
      </trkpt>
      <trkpt lat="47.33518" lon="-2.32306">
        <ele>8.8000001907349</ele>
        <time>2021-06-10T09:03:09.000Z</time>
      </trkpt>
      <trkpt lat="47.33495" lon="-2.32316">
        <ele>8.8000001907349</ele>
        <time>2021-06-10T09:03:12.000Z</time>
      </trkpt>
      <trkpt lat="47.33446" lon="-2.32343">
        <ele>8.8000001907349</ele>
        <time>2021-06-10T09:03:19.000Z</time>
      </trkpt>
      <trkpt lat="47.33406" lon="-2.32374">
        <ele>8.8000001907349</ele>
        <time>2021-06-10T09:03:26.000Z</time>
      </trkpt>
      <trkpt lat="47.33364" lon="-2.32412">
        <ele>8.8000001907349</ele>
        <time>2021-06-10T09:03:34.000Z</time>
      </trkpt>
      <trkpt lat="47.33347" lon="-2.32435">
        <ele>8.8000001907349</ele>
        <time>2021-06-10T09:03:38.000Z</time>
      </trkpt>
      <trkpt lat="47.33339" lon="-2.32447">
        <ele>8.8000001907349</ele>
        <time>2021-06-10T09:03:40.000Z</time>
      </trkpt>
      <trkpt lat="47.33331" lon="-2.32454">
        <ele>8.8000001907349</ele>
        <time>2021-06-10T09:03:42.000Z</time>
      </trkpt>
      <trkpt lat="47.33321" lon="-2.32458">
        <ele>8.8000001907349</ele>
        <time>2021-06-10T09:03:44.000Z</time>
      </trkpt>
      <trkpt lat="47.33305" lon="-2.32464">
        <ele>8.8000001907349</ele>
        <time>2021-06-10T09:03:47.000Z</time>
      </trkpt>
      <trkpt lat="47.33287" lon="-2.32472">
        <ele>8.8000001907349</ele>
        <time>2021-06-10T09:03:50.000Z</time>
      </trkpt>
      <trkpt lat="47.33245" lon="-2.32492">
        <ele>8.8000001907349</ele>
        <time>2021-06-10T09:03:57.000Z</time>
      </trkpt>
      <trkpt lat="47.332" lon="-2.32512">
        <ele>8.8000001907349</ele>
        <time>2021-06-10T09:04:04.000Z</time>
      </trkpt>
      <trkpt lat="47.33161" lon="-2.32531">
        <ele>8.8000001907349</ele>
        <time>2021-06-10T09:04:10.000Z</time>
      </trkpt>
      <trkpt lat="47.33154" lon="-2.32536">
        <ele>8.8000001907349</ele>
        <time>2021-06-10T09:04:11.000Z</time>
      </trkpt>
      <trkpt lat="47.33115" lon="-2.32568">
        <ele>8.8000001907349</ele>
        <time>2021-06-10T09:04:17.000Z</time>
      </trkpt>
      <trkpt lat="47.3307" lon="-2.32604">
        <ele>8.8000001907349</ele>
        <time>2021-06-10T09:04:24.000Z</time>
      </trkpt>
      <trkpt lat="47.33043" lon="-2.32625">
        <ele>8.1999998092651</ele>
        <time>2021-06-10T09:04:28.000Z</time>
      </trkpt>
      <trkpt lat="47.33036" lon="-2.32631">
        <ele>7.8000001907349</ele>
        <time>2021-06-10T09:04:29.000Z</time>
      </trkpt>
      <trkpt lat="47.3303" lon="-2.32636">
        <ele>7.4000000953674</ele>
        <time>2021-06-10T09:04:30.000Z</time>
      </trkpt>
      <trkpt lat="47.33023" lon="-2.32639">
        <ele>7</ele>
        <time>2021-06-10T09:04:31.000Z</time>
      </trkpt>
      <trkpt lat="47.33015" lon="-2.32639">
        <ele>6.5999999046326</ele>
        <time>2021-06-10T09:04:32.000Z</time>
      </trkpt>
      <trkpt lat="47.33009" lon="-2.32636">
        <ele>6.5999999046326</ele>
        <time>2021-06-10T09:04:33.000Z</time>
      </trkpt>
      <trkpt lat="47.32988" lon="-2.32629">
        <ele>6.5999999046326</ele>
        <time>2021-06-10T09:04:36.000Z</time>
      </trkpt>
      <trkpt lat="47.32972" lon="-2.3264">
        <ele>6.5999999046326</ele>
        <time>2021-06-10T09:04:39.000Z</time>
      </trkpt>
      <trkpt lat="47.32966" lon="-2.32643">
        <ele>6.5999999046326</ele>
        <time>2021-06-10T09:04:40.000Z</time>
      </trkpt>
      <trkpt lat="47.32947" lon="-2.32648">
        <ele>6.5999999046326</ele>
        <time>2021-06-10T09:04:43.000Z</time>
      </trkpt>
      <trkpt lat="47.32927" lon="-2.32649">
        <ele>6.5999999046326</ele>
        <time>2021-06-10T09:04:46.000Z</time>
      </trkpt>
      <trkpt lat="47.3292" lon="-2.32645">
        <ele>6.5999999046326</ele>
        <time>2021-06-10T09:04:47.000Z</time>
      </trkpt>
      <trkpt lat="47.32906" lon="-2.3263">
        <ele>6.5999999046326</ele>
        <time>2021-06-10T09:04:50.000Z</time>
      </trkpt>
      <trkpt lat="47.32895" lon="-2.32603">
        <ele>6.5999999046326</ele>
        <time>2021-06-10T09:04:54.000Z</time>
      </trkpt>
      <trkpt lat="47.32894" lon="-2.32578">
        <ele>6.5999999046326</ele>
        <time>2021-06-10T09:04:57.000Z</time>
      </trkpt>
      <trkpt lat="47.32895" lon="-2.32569">
        <ele>6.5999999046326</ele>
        <time>2021-06-10T09:04:58.000Z</time>
      </trkpt>
      <trkpt lat="47.32896" lon="-2.32528">
        <ele>6.5999999046326</ele>
        <time>2021-06-10T09:05:02.000Z</time>
      </trkpt>
      <trkpt lat="47.32893" lon="-2.32508">
        <ele>6.5999999046326</ele>
        <time>2021-06-10T09:05:04.000Z</time>
      </trkpt>
      <trkpt lat="47.32876" lon="-2.32458">
        <ele>6.5999999046326</ele>
        <time>2021-06-10T09:05:10.000Z</time>
      </trkpt>
      <trkpt lat="47.32855" lon="-2.32439">
        <ele>6.5999999046326</ele>
        <time>2021-06-10T09:05:14.000Z</time>
      </trkpt>
      <trkpt lat="47.32817" lon="-2.32406">
        <ele>6.5999999046326</ele>
        <time>2021-06-10T09:05:21.000Z</time>
      </trkpt>
      <trkpt lat="47.3279" lon="-2.32377">
        <ele>6.5999999046326</ele>
        <time>2021-06-10T09:05:26.000Z</time>
      </trkpt>
      <trkpt lat="47.32784" lon="-2.32373">
        <ele>6.5999999046326</ele>
        <time>2021-06-10T09:05:27.000Z</time>
      </trkpt>
      <trkpt lat="47.3274" lon="-2.32345">
        <ele>6.5999999046326</ele>
        <time>2021-06-10T09:05:34.000Z</time>
      </trkpt>
      <trkpt lat="47.32723" lon="-2.32335">
        <ele>7.1999998092651</ele>
        <time>2021-06-10T09:05:37.000Z</time>
      </trkpt>
      <trkpt lat="47.32717" lon="-2.32332">
        <ele>7.5999999046326</ele>
        <time>2021-06-10T09:05:38.000Z</time>
      </trkpt>
      <trkpt lat="47.32712" lon="-2.32329">
        <ele>8</ele>
        <time>2021-06-10T09:05:39.000Z</time>
      </trkpt>
      <trkpt lat="47.32706" lon="-2.32327">
        <ele>8.3999996185303</ele>
        <time>2021-06-10T09:05:40.000Z</time>
      </trkpt>
      <trkpt lat="47.327" lon="-2.32325">
        <ele>8.8000001907349</ele>
        <time>2021-06-10T09:05:41.000Z</time>
      </trkpt>
      <trkpt lat="47.32659" lon="-2.32311">
        <ele>8.8000001907349</ele>
        <time>2021-06-10T09:05:48.000Z</time>
      </trkpt>
      <trkpt lat="47.32631" lon="-2.32308">
        <ele>8.8000001907349</ele>
        <time>2021-06-10T09:05:53.000Z</time>
      </trkpt>
      <trkpt lat="47.32589" lon="-2.3231">
        <ele>8.8000001907349</ele>
        <time>2021-06-10T09:06:00.000Z</time>
      </trkpt>
      <trkpt lat="47.32572" lon="-2.32312">
        <ele>9.1999998092651</ele>
        <time>2021-06-10T09:06:03.000Z</time>
      </trkpt>
      <trkpt lat="47.32567" lon="-2.32312">
        <ele>9.6000003814697</ele>
        <time>2021-06-10T09:06:04.000Z</time>
      </trkpt>
      <trkpt lat="47.32562" lon="-2.32313">
        <ele>10</ele>
        <time>2021-06-10T09:06:05.000Z</time>
      </trkpt>
      <trkpt lat="47.32558" lon="-2.32313">
        <ele>10.39999961853</ele>
        <time>2021-06-10T09:06:06.000Z</time>
      </trkpt>
      <trkpt lat="47.32554" lon="-2.32314">
        <ele>11</ele>
        <time>2021-06-10T09:06:07.000Z</time>
      </trkpt>
      <trkpt lat="47.3254" lon="-2.32314">
        <ele>11</ele>
        <time>2021-06-10T09:06:12.000Z</time>
      </trkpt>
      <trkpt lat="47.32538" lon="-2.32316">
        <ele>11</ele>
        <time>2021-06-10T09:06:16.000Z</time>
      </trkpt>
      <trkpt lat="47.32536" lon="-2.32313">
        <ele>11</ele>
        <time>2021-06-10T09:06:27.000Z</time>
      </trkpt>
      <trkpt lat="47.32535" lon="-2.32308">
        <ele>11</ele>
        <time>2021-06-10T09:06:29.000Z</time>
      </trkpt>
      <trkpt lat="47.32535" lon="-2.323">
        <ele>11</ele>
        <time>2021-06-10T09:06:31.000Z</time>
      </trkpt>
      <trkpt lat="47.32536" lon="-2.32288">
        <ele>11</ele>
        <time>2021-06-10T09:06:33.000Z</time>
      </trkpt>
      <trkpt lat="47.32538" lon="-2.3228">
        <ele>11</ele>
        <time>2021-06-10T09:06:34.000Z</time>
      </trkpt>
      <trkpt lat="47.32545" lon="-2.32251">
        <ele>11</ele>
        <time>2021-06-10T09:06:37.000Z</time>
      </trkpt>
      <trkpt lat="47.32547" lon="-2.32241">
        <ele>10.39999961853</ele>
        <time>2021-06-10T09:06:38.000Z</time>
      </trkpt>
      <trkpt lat="47.3255" lon="-2.32231">
        <ele>10</ele>
        <time>2021-06-10T09:06:39.000Z</time>
      </trkpt>
      <trkpt lat="47.32552" lon="-2.3222">
        <ele>9.6000003814697</ele>
        <time>2021-06-10T09:06:40.000Z</time>
      </trkpt>
      <trkpt lat="47.32554" lon="-2.3221">
        <ele>9.1999998092651</ele>
        <time>2021-06-10T09:06:41.000Z</time>
      </trkpt>
      <trkpt lat="47.32557" lon="-2.322">
        <ele>8.8000001907349</ele>
        <time>2021-06-10T09:06:42.000Z</time>
      </trkpt>
      <trkpt lat="47.32565" lon="-2.32172">
        <ele>8.8000001907349</ele>
        <time>2021-06-10T09:06:45.000Z</time>
      </trkpt>
      <trkpt lat="47.3258" lon="-2.32126">
        <ele>8.8000001907349</ele>
        <time>2021-06-10T09:06:51.000Z</time>
      </trkpt>
      <trkpt lat="47.32586" lon="-2.32113">
        <ele>8.8000001907349</ele>
        <time>2021-06-10T09:06:53.000Z</time>
      </trkpt>
      <trkpt lat="47.32593" lon="-2.32102">
        <ele>8.8000001907349</ele>
        <time>2021-06-10T09:06:55.000Z</time>
      </trkpt>
      <trkpt lat="47.32601" lon="-2.32094">
        <ele>8.8000001907349</ele>
        <time>2021-06-10T09:06:57.000Z</time>
      </trkpt>
      <trkpt lat="47.3262" lon="-2.32092">
        <ele>8.8000001907349</ele>
        <time>2021-06-10T09:07:00.000Z</time>
      </trkpt>
      <trkpt lat="47.32627" lon="-2.32092">
        <ele>8.8000001907349</ele>
        <time>2021-06-10T09:07:01.000Z</time>
      </trkpt>
      <trkpt lat="47.32664" lon="-2.32086">
        <ele>8.8000001907349</ele>
        <time>2021-06-10T09:07:06.000Z</time>
      </trkpt>
      <trkpt lat="47.32715" lon="-2.32066">
        <ele>8.8000001907349</ele>
        <time>2021-06-10T09:07:13.000Z</time>
      </trkpt>
      <trkpt lat="47.32753" lon="-2.32046">
        <ele>8.8000001907349</ele>
        <time>2021-06-10T09:07:19.000Z</time>
      </trkpt>
      <trkpt lat="47.32807" lon="-2.3202">
        <ele>8.8000001907349</ele>
        <time>2021-06-10T09:07:27.000Z</time>
      </trkpt>
      <trkpt lat="47.32841" lon="-2.31999">
        <ele>8.8000001907349</ele>
        <time>2021-06-10T09:07:32.000Z</time>
      </trkpt>
      <trkpt lat="47.32884" lon="-2.31964">
        <ele>8.8000001907349</ele>
        <time>2021-06-10T09:07:39.000Z</time>
      </trkpt>
      <trkpt lat="47.3293" lon="-2.3192">
        <ele>8.8000001907349</ele>
        <time>2021-06-10T09:07:47.000Z</time>
      </trkpt>
      <trkpt lat="47.32973" lon="-2.31881">
        <ele>8.8000001907349</ele>
        <time>2021-06-10T09:07:54.000Z</time>
      </trkpt>
      <trkpt lat="47.33009" lon="-2.31849">
        <ele>8.8000001907349</ele>
        <time>2021-06-10T09:08:00.000Z</time>
      </trkpt>
      <trkpt lat="47.33032" lon="-2.31828">
        <ele>8.8000001907349</ele>
        <time>2021-06-10T09:08:04.000Z</time>
      </trkpt>
      <trkpt lat="47.33056" lon="-2.31801">
        <ele>8.8000001907349</ele>
        <time>2021-06-10T09:08:08.000Z</time>
      </trkpt>
      <trkpt lat="47.3306" lon="-2.31789">
        <ele>8.8000001907349</ele>
        <time>2021-06-10T09:08:09.000Z</time>
      </trkpt>
      <trkpt lat="47.33067" lon="-2.31742">
        <ele>8.8000001907349</ele>
        <time>2021-06-10T09:08:13.000Z</time>
      </trkpt>
      <trkpt lat="47.33059" lon="-2.31708">
        <ele>8.3999996185303</ele>
        <time>2021-06-10T09:08:16.000Z</time>
      </trkpt>
      <trkpt lat="47.33057" lon="-2.31697">
        <ele>7.4000000953674</ele>
        <time>2021-06-10T09:08:17.000Z</time>
      </trkpt>
      <trkpt lat="47.33055" lon="-2.31686">
        <ele>7</ele>
        <time>2021-06-10T09:08:18.000Z</time>
      </trkpt>
      <trkpt lat="47.33055" lon="-2.31676">
        <ele>6.5999999046326</ele>
        <time>2021-06-10T09:08:19.000Z</time>
      </trkpt>
      <trkpt lat="47.33057" lon="-2.31655">
        <ele>6.5999999046326</ele>
        <time>2021-06-10T09:08:21.000Z</time>
      </trkpt>
      <trkpt lat="47.3306" lon="-2.31644">
        <ele>6.5999999046326</ele>
        <time>2021-06-10T09:08:22.000Z</time>
      </trkpt>
      <trkpt lat="47.33067" lon="-2.3163">
        <ele>6.5999999046326</ele>
        <time>2021-06-10T09:08:24.000Z</time>
      </trkpt>
      <trkpt lat="47.33077" lon="-2.31629">
        <ele>6.5999999046326</ele>
        <time>2021-06-10T09:08:25.000Z</time>
      </trkpt>
      <trkpt lat="47.33085" lon="-2.31626">
        <ele>6.5999999046326</ele>
        <time>2021-06-10T09:08:26.000Z</time>
      </trkpt>
      <trkpt lat="47.33144" lon="-2.31612">
        <ele>6.5999999046326</ele>
        <time>2021-06-10T09:08:33.000Z</time>
      </trkpt>
      <trkpt lat="47.33166" lon="-2.31604">
        <ele>6.5999999046326</ele>
        <time>2021-06-10T09:08:36.000Z</time>
      </trkpt>
      <trkpt lat="47.33177" lon="-2.31595">
        <ele>6.5999999046326</ele>
        <time>2021-06-10T09:08:38.000Z</time>
      </trkpt>
      <trkpt lat="47.33183" lon="-2.3159">
        <ele>6.5999999046326</ele>
        <time>2021-06-10T09:08:39.000Z</time>
      </trkpt>
      <trkpt lat="47.33196" lon="-2.31567">
        <ele>6.5999999046326</ele>
        <time>2021-06-10T09:08:42.000Z</time>
      </trkpt>
      <trkpt lat="47.332" lon="-2.31559">
        <ele>6.5999999046326</ele>
        <time>2021-06-10T09:08:43.000Z</time>
      </trkpt>
      <trkpt lat="47.33222" lon="-2.31509">
        <ele>6.5999999046326</ele>
        <time>2021-06-10T09:08:49.000Z</time>
      </trkpt>
      <trkpt lat="47.33242" lon="-2.31462">
        <ele>6.1999998092651</ele>
        <time>2021-06-10T09:08:55.000Z</time>
      </trkpt>
      <trkpt lat="47.33245" lon="-2.31455">
        <ele>5.8000001907349</ele>
        <time>2021-06-10T09:08:56.000Z</time>
      </trkpt>
      <trkpt lat="47.33248" lon="-2.31448">
        <ele>5.4000000953674</ele>
        <time>2021-06-10T09:08:57.000Z</time>
      </trkpt>
      <trkpt lat="47.33251" lon="-2.31442">
        <ele>5</ele>
        <time>2021-06-10T09:08:58.000Z</time>
      </trkpt>
      <trkpt lat="47.33253" lon="-2.31435">
        <ele>4.5999999046326</ele>
        <time>2021-06-10T09:08:59.000Z</time>
      </trkpt>
      <trkpt lat="47.33255" lon="-2.31421">
        <ele>4.5999999046326</ele>
        <time>2021-06-10T09:09:01.000Z</time>
      </trkpt>
      <trkpt lat="47.33256" lon="-2.31414">
        <ele>4.5999999046326</ele>
        <time>2021-06-10T09:09:02.000Z</time>
      </trkpt>
      <trkpt lat="47.3325" lon="-2.31396">
        <ele>4.5999999046326</ele>
        <time>2021-06-10T09:09:05.000Z</time>
      </trkpt>
      <trkpt lat="47.33248" lon="-2.31388">
        <ele>4.5999999046326</ele>
        <time>2021-06-10T09:09:06.000Z</time>
      </trkpt>
      <trkpt lat="47.33228" lon="-2.31346">
        <ele>4.5999999046326</ele>
        <time>2021-06-10T09:09:12.000Z</time>
      </trkpt>
      <trkpt lat="47.33208" lon="-2.31299">
        <ele>4.5999999046326</ele>
        <time>2021-06-10T09:09:18.000Z</time>
      </trkpt>
      <trkpt lat="47.33181" lon="-2.31238">
        <ele>4.5999999046326</ele>
        <time>2021-06-10T09:09:26.000Z</time>
      </trkpt>
      <trkpt lat="47.33174" lon="-2.31213">
        <ele>4.5999999046326</ele>
        <time>2021-06-10T09:09:29.000Z</time>
      </trkpt>
      <trkpt lat="47.33167" lon="-2.31197">
        <ele>4.5999999046326</ele>
        <time>2021-06-10T09:09:31.000Z</time>
      </trkpt>
      <trkpt lat="47.33144" lon="-2.31141">
        <ele>4.5999999046326</ele>
        <time>2021-06-10T09:09:38.000Z</time>
      </trkpt>
      <trkpt lat="47.33121" lon="-2.31093">
        <ele>4.5999999046326</ele>
        <time>2021-06-10T09:09:44.000Z</time>
      </trkpt>
      <trkpt lat="47.33104" lon="-2.31077">
        <ele>4.5999999046326</ele>
        <time>2021-06-10T09:09:47.000Z</time>
      </trkpt>
      <trkpt lat="47.33097" lon="-2.31074">
        <ele>4.5999999046326</ele>
        <time>2021-06-10T09:09:48.000Z</time>
      </trkpt>
      <trkpt lat="47.33074" lon="-2.31075">
        <ele>4.5999999046326</ele>
        <time>2021-06-10T09:09:51.000Z</time>
      </trkpt>
      <trkpt lat="47.33053" lon="-2.31092">
        <ele>4.5999999046326</ele>
        <time>2021-06-10T09:09:54.000Z</time>
      </trkpt>
      <trkpt lat="47.33038" lon="-2.31117">
        <ele>4.5999999046326</ele>
        <time>2021-06-10T09:09:57.000Z</time>
      </trkpt>
      <trkpt lat="47.33033" lon="-2.31126">
        <ele>4.5999999046326</ele>
        <time>2021-06-10T09:09:58.000Z</time>
      </trkpt>
      <trkpt lat="47.33" lon="-2.31179">
        <ele>4.5999999046326</ele>
        <time>2021-06-10T09:10:05.000Z</time>
      </trkpt>
      <trkpt lat="47.32967" lon="-2.31226">
        <ele>4.5999999046326</ele>
        <time>2021-06-10T09:10:12.000Z</time>
      </trkpt>
      <trkpt lat="47.32938" lon="-2.31267">
        <ele>4.5999999046326</ele>
        <time>2021-06-10T09:10:19.000Z</time>
      </trkpt>
      <trkpt lat="47.32933" lon="-2.31276">
        <ele>4.5999999046326</ele>
        <time>2021-06-10T09:10:23.000Z</time>
      </trkpt>
      <trkpt lat="47.32932" lon="-2.31277">
        <ele>4.5999999046326</ele>
        <time>2021-06-10T09:10:24.000Z</time>
      </trkpt>
      <trkpt lat="47.3293" lon="-2.31271">
        <ele>4.5999999046326</ele>
        <time>2021-06-10T09:10:27.000Z</time>
      </trkpt>
      <trkpt lat="47.32932" lon="-2.31266">
        <ele>4.5999999046326</ele>
        <time>2021-06-10T09:10:29.000Z</time>
      </trkpt>
      <trkpt lat="47.32934" lon="-2.31258">
        <ele>4.5999999046326</ele>
        <time>2021-06-10T09:10:31.000Z</time>
      </trkpt>
      <trkpt lat="47.32929" lon="-2.31234">
        <ele>4.5999999046326</ele>
        <time>2021-06-10T09:10:35.000Z</time>
      </trkpt>
      <trkpt lat="47.32917" lon="-2.31188">
        <ele>4.5999999046326</ele>
        <time>2021-06-10T09:10:41.000Z</time>
      </trkpt>
      <trkpt lat="47.32899" lon="-2.31109">
        <ele>4.5999999046326</ele>
        <time>2021-06-10T09:10:50.000Z</time>
      </trkpt>
      <trkpt lat="47.32892" lon="-2.31054">
        <ele>4.5999999046326</ele>
        <time>2021-06-10T09:10:56.000Z</time>
      </trkpt>
      <trkpt lat="47.32892" lon="-2.31009">
        <ele>5</ele>
        <time>2021-06-10T09:11:01.000Z</time>
      </trkpt>
      <trkpt lat="47.32893" lon="-2.31">
        <ele>5.4000000953674</ele>
        <time>2021-06-10T09:11:02.000Z</time>
      </trkpt>
      <trkpt lat="47.32894" lon="-2.30991">
        <ele>5.8000001907349</ele>
        <time>2021-06-10T09:11:03.000Z</time>
      </trkpt>
      <trkpt lat="47.32894" lon="-2.30982">
        <ele>6.1999998092651</ele>
        <time>2021-06-10T09:11:04.000Z</time>
      </trkpt>
      <trkpt lat="47.32895" lon="-2.30973">
        <ele>6.5999999046326</ele>
        <time>2021-06-10T09:11:05.000Z</time>
      </trkpt>
      <trkpt lat="47.32899" lon="-2.30927">
        <ele>6.5999999046326</ele>
        <time>2021-06-10T09:11:10.000Z</time>
      </trkpt>
      <trkpt lat="47.32904" lon="-2.30865">
        <ele>6.5999999046326</ele>
        <time>2021-06-10T09:11:17.000Z</time>
      </trkpt>
      <trkpt lat="47.32909" lon="-2.30818">
        <ele>6.5999999046326</ele>
        <time>2021-06-10T09:11:23.000Z</time>
      </trkpt>
      <trkpt lat="47.32911" lon="-2.30813">
        <ele>6.5999999046326</ele>
        <time>2021-06-10T09:11:24.000Z</time>
      </trkpt>
      <trkpt lat="47.32925" lon="-2.30808">
        <ele>6.5999999046326</ele>
        <time>2021-06-10T09:11:27.000Z</time>
      </trkpt>
      <trkpt lat="47.32938" lon="-2.30809">
        <ele>6.5999999046326</ele>
        <time>2021-06-10T09:11:29.000Z</time>
      </trkpt>
      <trkpt lat="47.32951" lon="-2.30809">
        <ele>6.5999999046326</ele>
        <time>2021-06-10T09:11:31.000Z</time>
      </trkpt>
      <trkpt lat="47.32992" lon="-2.30804">
        <ele>6.5999999046326</ele>
        <time>2021-06-10T09:11:37.000Z</time>
      </trkpt>
      <trkpt lat="47.3303" lon="-2.30806">
        <ele>6.5999999046326</ele>
        <time>2021-06-10T09:11:43.000Z</time>
      </trkpt>
      <trkpt lat="47.33042" lon="-2.30806">
        <ele>6.5999999046326</ele>
        <time>2021-06-10T09:11:45.000Z</time>
      </trkpt>
      <trkpt lat="47.33054" lon="-2.30797">
        <ele>6.5999999046326</ele>
        <time>2021-06-10T09:11:47.000Z</time>
      </trkpt>
      <trkpt lat="47.33058" lon="-2.30789">
        <ele>6.1999998092651</ele>
        <time>2021-06-10T09:11:48.000Z</time>
      </trkpt>
      <trkpt lat="47.33062" lon="-2.30781">
        <ele>5.8000001907349</ele>
        <time>2021-06-10T09:11:49.000Z</time>
      </trkpt>
      <trkpt lat="47.33066" lon="-2.30773">
        <ele>5.4000000953674</ele>
        <time>2021-06-10T09:11:50.000Z</time>
      </trkpt>
      <trkpt lat="47.33068" lon="-2.30764">
        <ele>5</ele>
        <time>2021-06-10T09:11:51.000Z</time>
      </trkpt>
      <trkpt lat="47.3307" lon="-2.30754">
        <ele>4.5999999046326</ele>
        <time>2021-06-10T09:11:52.000Z</time>
      </trkpt>
      <trkpt lat="47.33072" lon="-2.30744">
        <ele>4.5999999046326</ele>
        <time>2021-06-10T09:11:53.000Z</time>
      </trkpt>
      <trkpt lat="47.33073" lon="-2.30734">
        <ele>4.5999999046326</ele>
        <time>2021-06-10T09:11:54.000Z</time>
      </trkpt>
      <trkpt lat="47.33082" lon="-2.30662">
        <ele>4.5999999046326</ele>
        <time>2021-06-10T09:12:01.000Z</time>
      </trkpt>
      <trkpt lat="47.33091" lon="-2.30591">
        <ele>4.5999999046326</ele>
        <time>2021-06-10T09:12:08.000Z</time>
      </trkpt>
      <trkpt lat="47.33094" lon="-2.30583">
        <ele>4.5999999046326</ele>
        <time>2021-06-10T09:12:09.000Z</time>
      </trkpt>
      <trkpt lat="47.33102" lon="-2.30565">
        <ele>4.5999999046326</ele>
        <time>2021-06-10T09:12:12.000Z</time>
      </trkpt>
      <trkpt lat="47.33108" lon="-2.30557">
        <ele>4.5999999046326</ele>
        <time>2021-06-10T09:12:14.000Z</time>
      </trkpt>
      <trkpt lat="47.33116" lon="-2.30552">
        <ele>4.5999999046326</ele>
        <time>2021-06-10T09:12:16.000Z</time>
      </trkpt>
      <trkpt lat="47.33135" lon="-2.30542">
        <ele>4.5999999046326</ele>
        <time>2021-06-10T09:12:19.000Z</time>
      </trkpt>
      <trkpt lat="47.33142" lon="-2.3054">
        <ele>4.5999999046326</ele>
        <time>2021-06-10T09:12:20.000Z</time>
      </trkpt>
      <trkpt lat="47.3319" lon="-2.30525">
        <ele>4.5999999046326</ele>
        <time>2021-06-10T09:12:26.000Z</time>
      </trkpt>
      <trkpt lat="47.33224" lon="-2.30516">
        <ele>4.5999999046326</ele>
        <time>2021-06-10T09:12:31.000Z</time>
      </trkpt>
      <trkpt lat="47.33275" lon="-2.30505">
        <ele>4.5999999046326</ele>
        <time>2021-06-10T09:12:39.000Z</time>
      </trkpt>
      <trkpt lat="47.33308" lon="-2.30499">
        <ele>4.5999999046326</ele>
        <time>2021-06-10T09:12:45.000Z</time>
      </trkpt>
      <trkpt lat="47.33325" lon="-2.30498">
        <ele>4.5999999046326</ele>
        <time>2021-06-10T09:12:50.000Z</time>
      </trkpt>
      <trkpt lat="47.33326" lon="-2.30498">
        <ele>4.1999998092651</ele>
        <time>2021-06-10T09:12:51.000Z</time>
      </trkpt>
      <trkpt lat="47.33328" lon="-2.30497">
        <ele>3.7999999523163</ele>
        <time>2021-06-10T09:12:52.000Z</time>
      </trkpt>
      <trkpt lat="47.33329" lon="-2.30498">
        <ele>3.4000000953674</ele>
        <time>2021-06-10T09:12:53.000Z</time>
      </trkpt>
      <trkpt lat="47.3333" lon="-2.30498">
        <ele>3</ele>
        <time>2021-06-10T09:12:54.000Z</time>
      </trkpt>
      <trkpt lat="47.3333" lon="-2.30498">
        <ele>2.5999999046326</ele>
        <time>2021-06-10T09:12:55.000Z</time>
      </trkpt>
      <trkpt lat="47.3333" lon="-2.30498">
        <ele>2.5999999046326</ele>
        <time>2021-06-10T09:12:56.000Z</time>
      </trkpt>
      <trkpt lat="47.33336" lon="-2.30498">
        <ele>2.5999999046326</ele>
        <time>2021-06-10T09:13:25.000Z</time>
      </trkpt>
      <trkpt lat="47.3334" lon="-2.30501">
        <ele>2.5999999046326</ele>
        <time>2021-06-10T09:13:27.000Z</time>
      </trkpt>
      <trkpt lat="47.3335" lon="-2.30509">
        <ele>2.5999999046326</ele>
        <time>2021-06-10T09:13:31.000Z</time>
      </trkpt>
      <trkpt lat="47.33351" lon="-2.30512">
        <ele>2.5999999046326</ele>
        <time>2021-06-10T09:13:32.000Z</time>
      </trkpt>
      <trkpt lat="47.33355" lon="-2.30529">
        <ele>2.5999999046326</ele>
        <time>2021-06-10T09:13:37.000Z</time>
      </trkpt>
      <trkpt lat="47.33362" lon="-2.30545">
        <ele>2.5999999046326</ele>
        <time>2021-06-10T09:13:43.000Z</time>
      </trkpt>
      <trkpt lat="47.33365" lon="-2.30546">
        <ele>2.5999999046326</ele>
        <time>2021-06-10T09:13:44.000Z</time>
      </trkpt>
      <trkpt lat="47.3337" lon="-2.30548">
        <ele>2.5999999046326</ele>
        <time>2021-06-10T09:13:47.000Z</time>
      </trkpt>
      <trkpt lat="47.33374" lon="-2.30551">
        <ele>2.5999999046326</ele>
        <time>2021-06-10T09:13:52.000Z</time>
      </trkpt>
      <trkpt lat="47.33372" lon="-2.30549">
        <ele>2.5999999046326</ele>
        <time>2021-06-10T09:15:47.000Z</time>
      </trkpt>
      <trkpt lat="47.33368" lon="-2.30547">
        <ele>2.5999999046326</ele>
        <time>2021-06-10T09:15:50.000Z</time>
      </trkpt>
      <trkpt lat="47.33364" lon="-2.30542">
        <ele>2.5999999046326</ele>
        <time>2021-06-10T09:15:53.000Z</time>
      </trkpt>
      <trkpt lat="47.33362" lon="-2.30534">
        <ele>2.5999999046326</ele>
        <time>2021-06-10T09:15:55.000Z</time>
      </trkpt>
      <trkpt lat="47.3336" lon="-2.30526">
        <ele>2.5999999046326</ele>
        <time>2021-06-10T09:15:57.000Z</time>
      </trkpt>
      <trkpt lat="47.33356" lon="-2.30516">
        <ele>2.5999999046326</ele>
        <time>2021-06-10T09:16:01.000Z</time>
      </trkpt>
      <trkpt lat="47.33355" lon="-2.30514">
        <ele>2.5999999046326</ele>
        <time>2021-06-10T09:16:03.000Z</time>
      </trkpt>
      <trkpt lat="47.33345" lon="-2.30505">
        <ele>2.5999999046326</ele>
        <time>2021-06-10T09:16:20.000Z</time>
      </trkpt>
      <trkpt lat="47.33343" lon="-2.30504">
        <ele>2.5999999046326</ele>
        <time>2021-06-10T09:16:21.000Z</time>
      </trkpt>
      <trkpt lat="47.33335" lon="-2.30501">
        <ele>2.5999999046326</ele>
        <time>2021-06-10T09:16:28.000Z</time>
      </trkpt>
      <trkpt lat="47.3333" lon="-2.30501">
        <ele>2.5999999046326</ele>
        <time>2021-06-10T09:16:33.000Z</time>
      </trkpt>
      <trkpt lat="47.33329" lon="-2.30503">
        <ele>2.5999999046326</ele>
        <time>2021-06-10T09:16:36.000Z</time>
      </trkpt>
      <trkpt lat="47.33325" lon="-2.30505">
        <ele>2.5999999046326</ele>
        <time>2021-06-10T09:16:39.000Z</time>
      </trkpt>
      <trkpt lat="47.33319" lon="-2.30504">
        <ele>2.5999999046326</ele>
        <time>2021-06-10T09:16:42.000Z</time>
      </trkpt>
      <trkpt lat="47.33301" lon="-2.30508">
        <ele>2.5999999046326</ele>
        <time>2021-06-10T09:16:49.000Z</time>
      </trkpt>
      <trkpt lat="47.33281" lon="-2.30512">
        <ele>2.5999999046326</ele>
        <time>2021-06-10T09:16:54.000Z</time>
      </trkpt>
      <trkpt lat="47.33244" lon="-2.30517">
        <ele>2.5999999046326</ele>
        <time>2021-06-10T09:17:02.000Z</time>
      </trkpt>
      <trkpt lat="47.33215" lon="-2.30528">
        <ele>2.5999999046326</ele>
        <time>2021-06-10T09:17:09.000Z</time>
      </trkpt>
      <trkpt lat="47.3321" lon="-2.30529">
        <ele>3</ele>
        <time>2021-06-10T09:17:10.000Z</time>
      </trkpt>
      <trkpt lat="47.33204" lon="-2.30531">
        <ele>3.4000000953674</ele>
        <time>2021-06-10T09:17:11.000Z</time>
      </trkpt>
      <trkpt lat="47.33199" lon="-2.30532">
        <ele>3.7999999523163</ele>
        <time>2021-06-10T09:17:12.000Z</time>
      </trkpt>
      <trkpt lat="47.33194" lon="-2.30534">
        <ele>4.1999998092651</ele>
        <time>2021-06-10T09:17:13.000Z</time>
      </trkpt>
      <trkpt lat="47.33189" lon="-2.30536">
        <ele>4.5999999046326</ele>
        <time>2021-06-10T09:17:14.000Z</time>
      </trkpt>
      <trkpt lat="47.33183" lon="-2.30537">
        <ele>4.5999999046326</ele>
        <time>2021-06-10T09:17:15.000Z</time>
      </trkpt>
      <trkpt lat="47.33178" lon="-2.30538">
        <ele>4.5999999046326</ele>
        <time>2021-06-10T09:17:16.000Z</time>
      </trkpt>
      <trkpt lat="47.33152" lon="-2.30548">
        <ele>4.5999999046326</ele>
        <time>2021-06-10T09:17:21.000Z</time>
      </trkpt>
      <trkpt lat="47.33147" lon="-2.30551">
        <ele>4.5999999046326</ele>
        <time>2021-06-10T09:17:22.000Z</time>
      </trkpt>
      <trkpt lat="47.33115" lon="-2.30567">
        <ele>4.5999999046326</ele>
        <time>2021-06-10T09:17:28.000Z</time>
      </trkpt>
      <trkpt lat="47.33106" lon="-2.30572">
        <ele>4.5999999046326</ele>
        <time>2021-06-10T09:17:30.000Z</time>
      </trkpt>
      <trkpt lat="47.33097" lon="-2.30583">
        <ele>4.5999999046326</ele>
        <time>2021-06-10T09:17:32.000Z</time>
      </trkpt>
      <trkpt lat="47.33087" lon="-2.30614">
        <ele>4.5999999046326</ele>
        <time>2021-06-10T09:17:36.000Z</time>
      </trkpt>
      <trkpt lat="47.33084" lon="-2.30629">
        <ele>4.5999999046326</ele>
        <time>2021-06-10T09:17:38.000Z</time>
      </trkpt>
      <trkpt lat="47.3308" lon="-2.30662">
        <ele>4.5999999046326</ele>
        <time>2021-06-10T09:17:42.000Z</time>
      </trkpt>
      <trkpt lat="47.3307" lon="-2.30716">
        <ele>4.5999999046326</ele>
        <time>2021-06-10T09:17:49.000Z</time>
      </trkpt>
      <trkpt lat="47.3306" lon="-2.30773">
        <ele>4.5999999046326</ele>
        <time>2021-06-10T09:17:56.000Z</time>
      </trkpt>
      <trkpt lat="47.33057" lon="-2.30789">
        <ele>4.5999999046326</ele>
        <time>2021-06-10T09:17:58.000Z</time>
      </trkpt>
      <trkpt lat="47.3305" lon="-2.30801">
        <ele>4.5999999046326</ele>
        <time>2021-06-10T09:18:00.000Z</time>
      </trkpt>
      <trkpt lat="47.33031" lon="-2.30808">
        <ele>4.5999999046326</ele>
        <time>2021-06-10T09:18:03.000Z</time>
      </trkpt>
      <trkpt lat="47.33025" lon="-2.30807">
        <ele>4.5999999046326</ele>
        <time>2021-06-10T09:18:04.000Z</time>
      </trkpt>
      <trkpt lat="47.32991" lon="-2.30806">
        <ele>4.5999999046326</ele>
        <time>2021-06-10T09:18:10.000Z</time>
      </trkpt>
      <trkpt lat="47.32974" lon="-2.30806">
        <ele>5</ele>
        <time>2021-06-10T09:18:13.000Z</time>
      </trkpt>
      <trkpt lat="47.32969" lon="-2.30806">
        <ele>5.5999999046326</ele>
        <time>2021-06-10T09:18:14.000Z</time>
      </trkpt>
      <trkpt lat="47.32963" lon="-2.30806">
        <ele>6</ele>
        <time>2021-06-10T09:18:15.000Z</time>
      </trkpt>
      <trkpt lat="47.32957" lon="-2.30807">
        <ele>6.4000000953674</ele>
        <time>2021-06-10T09:18:16.000Z</time>
      </trkpt>
      <trkpt lat="47.32952" lon="-2.30808">
        <ele>6.8000001907349</ele>
        <time>2021-06-10T09:18:17.000Z</time>
      </trkpt>
      <trkpt lat="47.32921" lon="-2.30811">
        <ele>6.8000001907349</ele>
        <time>2021-06-10T09:18:23.000Z</time>
      </trkpt>
      <trkpt lat="47.32916" lon="-2.30813">
        <ele>6.8000001907349</ele>
        <time>2021-06-10T09:18:24.000Z</time>
      </trkpt>
      <trkpt lat="47.32909" lon="-2.30821">
        <ele>6.8000001907349</ele>
        <time>2021-06-10T09:18:26.000Z</time>
      </trkpt>
      <trkpt lat="47.32906" lon="-2.30836">
        <ele>6.8000001907349</ele>
        <time>2021-06-10T09:18:28.000Z</time>
      </trkpt>
      <trkpt lat="47.32904" lon="-2.30852">
        <ele>6.8000001907349</ele>
        <time>2021-06-10T09:18:30.000Z</time>
      </trkpt>
      <trkpt lat="47.32901" lon="-2.30899">
        <ele>7.1999998092651</ele>
        <time>2021-06-10T09:18:36.000Z</time>
      </trkpt>
      <trkpt lat="47.32901" lon="-2.30907">
        <ele>7.5999999046326</ele>
        <time>2021-06-10T09:18:37.000Z</time>
      </trkpt>
      <trkpt lat="47.32901" lon="-2.30914">
        <ele>8</ele>
        <time>2021-06-10T09:18:38.000Z</time>
      </trkpt>
      <trkpt lat="47.32901" lon="-2.30922">
        <ele>8.3999996185303</ele>
        <time>2021-06-10T09:18:39.000Z</time>
      </trkpt>
      <trkpt lat="47.32901" lon="-2.3093">
        <ele>8.8000001907349</ele>
        <time>2021-06-10T09:18:40.000Z</time>
      </trkpt>
      <trkpt lat="47.32899" lon="-2.30954">
        <ele>8.8000001907349</ele>
        <time>2021-06-10T09:18:43.000Z</time>
      </trkpt>
      <trkpt lat="47.32898" lon="-2.30972">
        <ele>8.8000001907349</ele>
        <time>2021-06-10T09:18:45.000Z</time>
      </trkpt>
      <trkpt lat="47.32897" lon="-2.3105">
        <ele>8.8000001907349</ele>
        <time>2021-06-10T09:18:53.000Z</time>
      </trkpt>
      <trkpt lat="47.32904" lon="-2.31111">
        <ele>8.8000001907349</ele>
        <time>2021-06-10T09:18:59.000Z</time>
      </trkpt>
      <trkpt lat="47.32917" lon="-2.3116">
        <ele>8.1999998092651</ele>
        <time>2021-06-10T09:19:04.000Z</time>
      </trkpt>
      <trkpt lat="47.32918" lon="-2.31169">
        <ele>7.8000001907349</ele>
        <time>2021-06-10T09:19:05.000Z</time>
      </trkpt>
      <trkpt lat="47.32921" lon="-2.31178">
        <ele>7.4000000953674</ele>
        <time>2021-06-10T09:19:06.000Z</time>
      </trkpt>
      <trkpt lat="47.32923" lon="-2.31188">
        <ele>7</ele>
        <time>2021-06-10T09:19:07.000Z</time>
      </trkpt>
      <trkpt lat="47.32925" lon="-2.31197">
        <ele>6.5999999046326</ele>
        <time>2021-06-10T09:19:08.000Z</time>
      </trkpt>
      <trkpt lat="47.32935" lon="-2.31237">
        <ele>6.5999999046326</ele>
        <time>2021-06-10T09:19:13.000Z</time>
      </trkpt>
      <trkpt lat="47.32939" lon="-2.31251">
        <ele>6.5999999046326</ele>
        <time>2021-06-10T09:19:15.000Z</time>
      </trkpt>
      <trkpt lat="47.32938" lon="-2.31265">
        <ele>6.5999999046326</ele>
        <time>2021-06-10T09:19:17.000Z</time>
      </trkpt>
      <trkpt lat="47.32926" lon="-2.31283">
        <ele>6.5999999046326</ele>
        <time>2021-06-10T09:19:21.000Z</time>
      </trkpt>
      <trkpt lat="47.32909" lon="-2.31292">
        <ele>6.5999999046326</ele>
        <time>2021-06-10T09:19:24.000Z</time>
      </trkpt>
      <trkpt lat="47.32897" lon="-2.31297">
        <ele>6.5999999046326</ele>
        <time>2021-06-10T09:19:26.000Z</time>
      </trkpt>
      <trkpt lat="47.32861" lon="-2.31311">
        <ele>6.5999999046326</ele>
        <time>2021-06-10T09:19:32.000Z</time>
      </trkpt>
      <trkpt lat="47.32851" lon="-2.31316">
        <ele>6.5999999046326</ele>
        <time>2021-06-10T09:19:34.000Z</time>
      </trkpt>
      <trkpt lat="47.32846" lon="-2.31328">
        <ele>6.5999999046326</ele>
        <time>2021-06-10T09:19:36.000Z</time>
      </trkpt>
      <trkpt lat="47.32844" lon="-2.31343">
        <ele>6.5999999046326</ele>
        <time>2021-06-10T09:19:38.000Z</time>
      </trkpt>
      <trkpt lat="47.32843" lon="-2.3135">
        <ele>6.5999999046326</ele>
        <time>2021-06-10T09:19:39.000Z</time>
      </trkpt>
      <trkpt lat="47.32841" lon="-2.31357">
        <ele>6.5999999046326</ele>
        <time>2021-06-10T09:19:40.000Z</time>
      </trkpt>
      <trkpt lat="47.32826" lon="-2.31378">
        <ele>7</ele>
        <time>2021-06-10T09:19:44.000Z</time>
      </trkpt>
      <trkpt lat="47.3282" lon="-2.31382">
        <ele>7.4000000953674</ele>
        <time>2021-06-10T09:19:45.000Z</time>
      </trkpt>
      <trkpt lat="47.32815" lon="-2.31385">
        <ele>7.8000001907349</ele>
        <time>2021-06-10T09:19:46.000Z</time>
      </trkpt>
      <trkpt lat="47.3281" lon="-2.31389">
        <ele>8.1999998092651</ele>
        <time>2021-06-10T09:19:47.000Z</time>
      </trkpt>
      <trkpt lat="47.32805" lon="-2.31392">
        <ele>8.8000001907349</ele>
        <time>2021-06-10T09:19:48.000Z</time>
      </trkpt>
      <trkpt lat="47.32793" lon="-2.31402">
        <ele>8.8000001907349</ele>
        <time>2021-06-10T09:19:51.000Z</time>
      </trkpt>
      <trkpt lat="47.32784" lon="-2.3141">
        <ele>8.8000001907349</ele>
        <time>2021-06-10T09:19:56.000Z</time>
      </trkpt>
      <trkpt lat="47.32783" lon="-2.31411">
        <ele>8.8000001907349</ele>
        <time>2021-06-10T09:19:58.000Z</time>
      </trkpt>
      <trkpt lat="47.32764" lon="-2.31417">
        <ele>8.8000001907349</ele>
        <time>2021-06-10T09:20:30.000Z</time>
      </trkpt>
      <trkpt lat="47.32763" lon="-2.31417">
        <ele>8.8000001907349</ele>
        <time>2021-06-10T09:20:31.000Z</time>
      </trkpt>
      <trkpt lat="47.32762" lon="-2.31418">
        <ele>8.8000001907349</ele>
        <time>2021-06-10T09:20:32.000Z</time>
      </trkpt>
      <trkpt lat="47.32762" lon="-2.31418">
        <ele>8.8000001907349</ele>
        <time>2021-06-10T09:20:33.000Z</time>
      </trkpt>
      <trkpt lat="47.32761" lon="-2.31422">
        <ele>8.8000001907349</ele>
        <time>2021-06-10T09:20:36.000Z</time>
      </trkpt>
      <trkpt lat="47.3276" lon="-2.31425">
        <ele>8.8000001907349</ele>
        <time>2021-06-10T09:20:37.000Z</time>
      </trkpt>
      <trkpt lat="47.32754" lon="-2.31443">
        <ele>8.8000001907349</ele>
        <time>2021-06-10T09:20:41.000Z</time>
      </trkpt>
      <trkpt lat="47.32742" lon="-2.31464">
        <ele>8.8000001907349</ele>
        <time>2021-06-10T09:20:45.000Z</time>
      </trkpt>
      <trkpt lat="47.32724" lon="-2.31494">
        <ele>8.8000001907349</ele>
        <time>2021-06-10T09:20:50.000Z</time>
      </trkpt>
      <trkpt lat="47.32715" lon="-2.31504">
        <ele>8.8000001907349</ele>
        <time>2021-06-10T09:20:52.000Z</time>
      </trkpt>
      <trkpt lat="47.32688" lon="-2.31528">
        <ele>9.1999998092651</ele>
        <time>2021-06-10T09:20:58.000Z</time>
      </trkpt>
      <trkpt lat="47.32684" lon="-2.31531">
        <ele>9.6000003814697</ele>
        <time>2021-06-10T09:20:59.000Z</time>
      </trkpt>
      <trkpt lat="47.32679" lon="-2.31533">
        <ele>10</ele>
        <time>2021-06-10T09:21:00.000Z</time>
      </trkpt>
      <trkpt lat="47.32675" lon="-2.31535">
        <ele>10.39999961853</ele>
        <time>2021-06-10T09:21:01.000Z</time>
      </trkpt>
      <trkpt lat="47.32672" lon="-2.31536">
        <ele>10.800000190735</ele>
        <time>2021-06-10T09:21:02.000Z</time>
      </trkpt>
      <trkpt lat="47.32665" lon="-2.31541">
        <ele>10.800000190735</ele>
        <time>2021-06-10T09:21:04.000Z</time>
      </trkpt>
      <trkpt lat="47.32645" lon="-2.3155">
        <ele>10.800000190735</ele>
        <time>2021-06-10T09:21:10.000Z</time>
      </trkpt>
      <trkpt lat="47.32627" lon="-2.31557">
        <ele>10.800000190735</ele>
        <time>2021-06-10T09:21:16.000Z</time>
      </trkpt>
      <trkpt lat="47.32605" lon="-2.31567">
        <ele>10.800000190735</ele>
        <time>2021-06-10T09:21:23.000Z</time>
      </trkpt>
      <trkpt lat="47.32585" lon="-2.31576">
        <ele>10.800000190735</ele>
        <time>2021-06-10T09:21:30.000Z</time>
      </trkpt>
      <trkpt lat="47.32568" lon="-2.31584">
        <ele>10.800000190735</ele>
        <time>2021-06-10T09:21:36.000Z</time>
      </trkpt>
      <trkpt lat="47.32554" lon="-2.31595">
        <ele>10.800000190735</ele>
        <time>2021-06-10T09:21:41.000Z</time>
      </trkpt>
      <trkpt lat="47.32536" lon="-2.31619">
        <ele>11.199999809265</ele>
        <time>2021-06-10T09:21:46.000Z</time>
      </trkpt>
      <trkpt lat="47.32533" lon="-2.31623">
        <ele>11.60000038147</ele>
        <time>2021-06-10T09:21:47.000Z</time>
      </trkpt>
      <trkpt lat="47.3253" lon="-2.31628">
        <ele>12</ele>
        <time>2021-06-10T09:21:48.000Z</time>
      </trkpt>
      <trkpt lat="47.32526" lon="-2.31633">
        <ele>12.60000038147</ele>
        <time>2021-06-10T09:21:49.000Z</time>
      </trkpt>
      <trkpt lat="47.32522" lon="-2.31637">
        <ele>13</ele>
        <time>2021-06-10T09:21:50.000Z</time>
      </trkpt>
      <trkpt lat="47.32511" lon="-2.31653">
        <ele>13</ele>
        <time>2021-06-10T09:21:54.000Z</time>
      </trkpt>
      <trkpt lat="47.3251" lon="-2.31658">
        <ele>13</ele>
        <time>2021-06-10T09:21:55.000Z</time>
      </trkpt>
      <trkpt lat="47.32509" lon="-2.31679">
        <ele>13</ele>
        <time>2021-06-10T09:21:58.000Z</time>
      </trkpt>
      <trkpt lat="47.32513" lon="-2.31718">
        <ele>13</ele>
        <time>2021-06-10T09:22:03.000Z</time>
      </trkpt>
      <trkpt lat="47.3252" lon="-2.31781">
        <ele>13</ele>
        <time>2021-06-10T09:22:11.000Z</time>
      </trkpt>
      <trkpt lat="47.32523" lon="-2.31847">
        <ele>13</ele>
        <time>2021-06-10T09:22:19.000Z</time>
      </trkpt>
      <trkpt lat="47.32518" lon="-2.31908">
        <ele>13</ele>
        <time>2021-06-10T09:22:26.000Z</time>
      </trkpt>
      <trkpt lat="47.32509" lon="-2.3198">
        <ele>13</ele>
        <time>2021-06-10T09:22:34.000Z</time>
      </trkpt>
      <trkpt lat="47.32508" lon="-2.32034">
        <ele>13</ele>
        <time>2021-06-10T09:22:40.000Z</time>
      </trkpt>
      <trkpt lat="47.32504" lon="-2.32081">
        <ele>13</ele>
        <time>2021-06-10T09:22:46.000Z</time>
      </trkpt>
      <trkpt lat="47.32493" lon="-2.32095">
        <ele>13</ele>
        <time>2021-06-10T09:22:49.000Z</time>
      </trkpt>
      <trkpt lat="47.32479" lon="-2.32098">
        <ele>13</ele>
        <time>2021-06-10T09:22:51.000Z</time>
      </trkpt>
      <trkpt lat="47.32465" lon="-2.32099">
        <ele>13</ele>
        <time>2021-06-10T09:22:53.000Z</time>
      </trkpt>
      <trkpt lat="47.3241" lon="-2.32101">
        <ele>13</ele>
        <time>2021-06-10T09:23:01.000Z</time>
      </trkpt>
      <trkpt lat="47.32378" lon="-2.32106">
        <ele>13</ele>
        <time>2021-06-10T09:23:06.000Z</time>
      </trkpt>
      <trkpt lat="47.32355" lon="-2.32108">
        <ele>13</ele>
        <time>2021-06-10T09:23:11.000Z</time>
      </trkpt>
      <trkpt lat="47.32353" lon="-2.32108">
        <ele>12.60000038147</ele>
        <time>2021-06-10T09:23:12.000Z</time>
      </trkpt>
      <trkpt lat="47.32352" lon="-2.32108">
        <ele>12</ele>
        <time>2021-06-10T09:23:13.000Z</time>
      </trkpt>
      <trkpt lat="47.32351" lon="-2.32109">
        <ele>11.60000038147</ele>
        <time>2021-06-10T09:23:14.000Z</time>
      </trkpt>
      <trkpt lat="47.32349" lon="-2.32109">
        <ele>11.199999809265</ele>
        <time>2021-06-10T09:23:15.000Z</time>
      </trkpt>
      <trkpt lat="47.32347" lon="-2.32109">
        <ele>10.800000190735</ele>
        <time>2021-06-10T09:23:16.000Z</time>
      </trkpt>
      <trkpt lat="47.32336" lon="-2.32105">
        <ele>10.800000190735</ele>
        <time>2021-06-10T09:23:22.000Z</time>
      </trkpt>
      <trkpt lat="47.32325" lon="-2.32105">
        <ele>10.800000190735</ele>
        <time>2021-06-10T09:23:29.000Z</time>
      </trkpt>
      <trkpt lat="47.32325" lon="-2.32105">
        <ele>10.800000190735</ele>
        <time>2021-06-10T09:23:30.000Z</time>
      </trkpt>
      <trkpt lat="47.32326" lon="-2.32103">
        <ele>10.800000190735</ele>
        <time>2021-06-10T09:23:41.000Z</time>
      </trkpt>
      <trkpt lat="47.3233" lon="-2.32104">
        <ele>10.800000190735</ele>
        <time>2021-06-10T09:23:43.000Z</time>
      </trkpt>
      <trkpt lat="47.32344" lon="-2.32105">
        <ele>10.800000190735</ele>
        <time>2021-06-10T09:23:49.000Z</time>
      </trkpt>
      <trkpt lat="47.32354" lon="-2.32108">
        <ele>10.800000190735</ele>
        <time>2021-06-10T09:23:54.000Z</time>
      </trkpt>
      <trkpt lat="47.32366" lon="-2.3211">
        <ele>10.800000190735</ele>
        <time>2021-06-10T09:24:00.000Z</time>
      </trkpt>
      <trkpt lat="47.32379" lon="-2.32109">
        <ele>10.800000190735</ele>
        <time>2021-06-10T09:24:07.000Z</time>
      </trkpt>
      <trkpt lat="47.32381" lon="-2.3211">
        <ele>10.800000190735</ele>
        <time>2021-06-10T09:24:09.000Z</time>
      </trkpt>
      <trkpt lat="47.32379" lon="-2.32108">
        <ele>10.800000190735</ele>
        <time>2021-06-10T09:24:45.000Z</time>
      </trkpt>
      <trkpt lat="47.32378" lon="-2.32108">
        <ele>10.800000190735</ele>
        <time>2021-06-10T09:24:46.000Z</time>
      </trkpt>
      <trkpt lat="47.32372" lon="-2.32108">
        <ele>10.800000190735</ele>
        <time>2021-06-10T09:24:49.000Z</time>
      </trkpt>
      <trkpt lat="47.32366" lon="-2.32108">
        <ele>10.800000190735</ele>
        <time>2021-06-10T09:24:51.000Z</time>
      </trkpt>
      <trkpt lat="47.32353" lon="-2.32111">
        <ele>10.800000190735</ele>
        <time>2021-06-10T09:24:57.000Z</time>
      </trkpt>
      <trkpt lat="47.32353" lon="-2.32111">
        <ele>10.800000190735</ele>
        <time>2021-06-10T09:24:58.000Z</time>
      </trkpt>
      <trkpt lat="47.32351" lon="-2.32111">
        <ele>10.800000190735</ele>
        <time>2021-06-10T09:25:00.000Z</time>
      </trkpt>
      <trkpt lat="47.32344" lon="-2.32108">
        <ele>10.800000190735</ele>
        <time>2021-06-10T09:25:03.000Z</time>
      </trkpt>
      <trkpt lat="47.32314" lon="-2.32103">
        <ele>10.800000190735</ele>
        <time>2021-06-10T09:25:11.000Z</time>
      </trkpt>
      <trkpt lat="47.32285" lon="-2.32103">
        <ele>10.800000190735</ele>
        <time>2021-06-10T09:25:18.000Z</time>
      </trkpt>
      <trkpt lat="47.32245" lon="-2.32109">
        <ele>10.800000190735</ele>
        <time>2021-06-10T09:25:26.000Z</time>
      </trkpt>
      <trkpt lat="47.32215" lon="-2.32115">
        <ele>10.800000190735</ele>
        <time>2021-06-10T09:25:32.000Z</time>
      </trkpt>
      <trkpt lat="47.32197" lon="-2.3212">
        <ele>10.800000190735</ele>
        <time>2021-06-10T09:25:37.000Z</time>
      </trkpt>
      <trkpt lat="47.32177" lon="-2.32134">
        <ele>10.800000190735</ele>
        <time>2021-06-10T09:25:41.000Z</time>
      </trkpt>
      <trkpt lat="47.32141" lon="-2.32167">
        <ele>10.800000190735</ele>
        <time>2021-06-10T09:25:48.000Z</time>
      </trkpt>
      <trkpt lat="47.32119" lon="-2.32181">
        <ele>10.800000190735</ele>
        <time>2021-06-10T09:25:52.000Z</time>
      </trkpt>
      <trkpt lat="47.32107" lon="-2.32185">
        <ele>10.800000190735</ele>
        <time>2021-06-10T09:25:54.000Z</time>
      </trkpt>
      <trkpt lat="47.32101" lon="-2.32185">
        <ele>10.800000190735</ele>
        <time>2021-06-10T09:25:55.000Z</time>
      </trkpt>
      <trkpt lat="47.32077" lon="-2.32186">
        <ele>10.800000190735</ele>
        <time>2021-06-10T09:25:59.000Z</time>
      </trkpt>
      <trkpt lat="47.32049" lon="-2.32189">
        <ele>11.199999809265</ele>
        <time>2021-06-10T09:26:04.000Z</time>
      </trkpt>
      <trkpt lat="47.32044" lon="-2.3219">
        <ele>11.60000038147</ele>
        <time>2021-06-10T09:26:05.000Z</time>
      </trkpt>
      <trkpt lat="47.32039" lon="-2.32191">
        <ele>12</ele>
        <time>2021-06-10T09:26:06.000Z</time>
      </trkpt>
      <trkpt lat="47.32033" lon="-2.32192">
        <ele>12.39999961853</ele>
        <time>2021-06-10T09:26:07.000Z</time>
      </trkpt>
      <trkpt lat="47.32027" lon="-2.32193">
        <ele>12.800000190735</ele>
        <time>2021-06-10T09:26:08.000Z</time>
      </trkpt>
      <trkpt lat="47.32016" lon="-2.32196">
        <ele>12.800000190735</ele>
        <time>2021-06-10T09:26:10.000Z</time>
      </trkpt>
      <trkpt lat="47.32" lon="-2.32204">
        <ele>12.800000190735</ele>
        <time>2021-06-10T09:26:13.000Z</time>
      </trkpt>
      <trkpt lat="47.31965" lon="-2.32231">
        <ele>12.800000190735</ele>
        <time>2021-06-10T09:26:20.000Z</time>
      </trkpt>
      <trkpt lat="47.31959" lon="-2.32242">
        <ele>12.800000190735</ele>
        <time>2021-06-10T09:26:22.000Z</time>
      </trkpt>
      <trkpt lat="47.31956" lon="-2.32247">
        <ele>13.199999809265</ele>
        <time>2021-06-10T09:26:23.000Z</time>
      </trkpt>
      <trkpt lat="47.31954" lon="-2.32252">
        <ele>14</ele>
        <time>2021-06-10T09:26:24.000Z</time>
      </trkpt>
      <trkpt lat="47.31953" lon="-2.32257">
        <ele>14.39999961853</ele>
        <time>2021-06-10T09:26:25.000Z</time>
      </trkpt>
      <trkpt lat="47.31952" lon="-2.32262">
        <ele>14.800000190735</ele>
        <time>2021-06-10T09:26:26.000Z</time>
      </trkpt>
      <trkpt lat="47.3195" lon="-2.32264">
        <ele>14.800000190735</ele>
        <time>2021-06-10T09:26:27.000Z</time>
      </trkpt>
      <trkpt lat="47.31947" lon="-2.32261">
        <ele>15.199999809265</ele>
        <time>2021-06-10T09:26:29.000Z</time>
      </trkpt>
      <trkpt lat="47.31946" lon="-2.32257">
        <ele>15.800000190735</ele>
        <time>2021-06-10T09:26:30.000Z</time>
      </trkpt>
      <trkpt lat="47.31947" lon="-2.32253">
        <ele>16.200000762939</ele>
        <time>2021-06-10T09:26:31.000Z</time>
      </trkpt>
      <trkpt lat="47.31948" lon="-2.32248">
        <ele>16.799999237061</ele>
        <time>2021-06-10T09:26:32.000Z</time>
      </trkpt>
      <trkpt lat="47.31949" lon="-2.32242">
        <ele>17.200000762939</ele>
        <time>2021-06-10T09:26:33.000Z</time>
      </trkpt>
      <trkpt lat="47.31951" lon="-2.32237">
        <ele>17.200000762939</ele>
        <time>2021-06-10T09:26:34.000Z</time>
      </trkpt>
      <trkpt lat="47.31955" lon="-2.32222">
        <ele>17.200000762939</ele>
        <time>2021-06-10T09:26:37.000Z</time>
      </trkpt>
      <trkpt lat="47.31953" lon="-2.32217">
        <ele>17.200000762939</ele>
        <time>2021-06-10T09:26:38.000Z</time>
      </trkpt>
      <trkpt lat="47.31942" lon="-2.32212">
        <ele>17.60000038147</ele>
        <time>2021-06-10T09:26:41.000Z</time>
      </trkpt>
      <trkpt lat="47.31938" lon="-2.32211">
        <ele>18</ele>
        <time>2021-06-10T09:26:42.000Z</time>
      </trkpt>
      <trkpt lat="47.31934" lon="-2.3221">
        <ele>18.39999961853</ele>
        <time>2021-06-10T09:26:43.000Z</time>
      </trkpt>
      <trkpt lat="47.3193" lon="-2.32209">
        <ele>18.799999237061</ele>
        <time>2021-06-10T09:26:44.000Z</time>
      </trkpt>
      <trkpt lat="47.31927" lon="-2.32208">
        <ele>19.200000762939</ele>
        <time>2021-06-10T09:26:45.000Z</time>
      </trkpt>
      <trkpt lat="47.31916" lon="-2.32205">
        <ele>19.200000762939</ele>
        <time>2021-06-10T09:26:48.000Z</time>
      </trkpt>
      <trkpt lat="47.31912" lon="-2.32205">
        <ele>20.200000762939</ele>
        <time>2021-06-10T09:26:49.000Z</time>
      </trkpt>
      <trkpt lat="47.31909" lon="-2.32205">
        <ele>20.60000038147</ele>
        <time>2021-06-10T09:26:50.000Z</time>
      </trkpt>
      <trkpt lat="47.31905" lon="-2.32205">
        <ele>21</ele>
        <time>2021-06-10T09:26:51.000Z</time>
      </trkpt>
      <trkpt lat="47.31902" lon="-2.32205">
        <ele>21.39999961853</ele>
        <time>2021-06-10T09:26:52.000Z</time>
      </trkpt>
      <trkpt lat="47.31891" lon="-2.32207">
        <ele>21.39999961853</ele>
        <time>2021-06-10T09:26:55.000Z</time>
      </trkpt>
      <trkpt lat="47.31884" lon="-2.32209">
        <ele>21.799999237061</ele>
        <time>2021-06-10T09:26:57.000Z</time>
      </trkpt>
      <trkpt lat="47.3188" lon="-2.3221">
        <ele>22.39999961853</ele>
        <time>2021-06-10T09:26:58.000Z</time>
      </trkpt>
      <trkpt lat="47.31876" lon="-2.32211">
        <ele>22.799999237061</ele>
        <time>2021-06-10T09:26:59.000Z</time>
      </trkpt>
      <trkpt lat="47.31872" lon="-2.32212">
        <ele>23.200000762939</ele>
        <time>2021-06-10T09:27:00.000Z</time>
      </trkpt>
      <trkpt lat="47.31869" lon="-2.32213">
        <ele>23.60000038147</ele>
        <time>2021-06-10T09:27:01.000Z</time>
      </trkpt>
      <trkpt lat="47.31861" lon="-2.32215">
        <ele>23.60000038147</ele>
        <time>2021-06-10T09:27:03.000Z</time>
      </trkpt>
      <trkpt lat="47.31848" lon="-2.32219">
        <ele>24</ele>
        <time>2021-06-10T09:27:07.000Z</time>
      </trkpt>
      <trkpt lat="47.31845" lon="-2.32221">
        <ele>24.60000038147</ele>
        <time>2021-06-10T09:27:08.000Z</time>
      </trkpt>
      <trkpt lat="47.31841" lon="-2.32222">
        <ele>25</ele>
        <time>2021-06-10T09:27:09.000Z</time>
      </trkpt>
      <trkpt lat="47.31838" lon="-2.32223">
        <ele>25.60000038147</ele>
        <time>2021-06-10T09:27:10.000Z</time>
      </trkpt>
      <trkpt lat="47.31834" lon="-2.32224">
        <ele>26</ele>
        <time>2021-06-10T09:27:11.000Z</time>
      </trkpt>
      <trkpt lat="47.31825" lon="-2.32227">
        <ele>26.39999961853</ele>
        <time>2021-06-10T09:27:14.000Z</time>
      </trkpt>
      <trkpt lat="47.31821" lon="-2.32227">
        <ele>26.799999237061</ele>
        <time>2021-06-10T09:27:15.000Z</time>
      </trkpt>
      <trkpt lat="47.31817" lon="-2.32227">
        <ele>27.200000762939</ele>
        <time>2021-06-10T09:27:16.000Z</time>
      </trkpt>
      <trkpt lat="47.31814" lon="-2.32228">
        <ele>27.60000038147</ele>
        <time>2021-06-10T09:27:17.000Z</time>
      </trkpt>
      <trkpt lat="47.31811" lon="-2.32228">
        <ele>28</ele>
        <time>2021-06-10T09:27:18.000Z</time>
      </trkpt>
      <trkpt lat="47.31807" lon="-2.32227">
        <ele>28</ele>
        <time>2021-06-10T09:27:19.000Z</time>
      </trkpt>
      <trkpt lat="47.31782" lon="-2.32229">
        <ele>28.39999961853</ele>
        <time>2021-06-10T09:27:26.000Z</time>
      </trkpt>
      <trkpt lat="47.31778" lon="-2.32229">
        <ele>28.799999237061</ele>
        <time>2021-06-10T09:27:27.000Z</time>
      </trkpt>
      <trkpt lat="47.31775" lon="-2.3223">
        <ele>29.200000762939</ele>
        <time>2021-06-10T09:27:28.000Z</time>
      </trkpt>
      <trkpt lat="47.31773" lon="-2.32229">
        <ele>29.60000038147</ele>
        <time>2021-06-10T09:27:29.000Z</time>
      </trkpt>
      <trkpt lat="47.3177" lon="-2.3223">
        <ele>30.200000762939</ele>
        <time>2021-06-10T09:27:30.000Z</time>
      </trkpt>
      <trkpt lat="47.31759" lon="-2.32232">
        <ele>30.200000762939</ele>
        <time>2021-06-10T09:27:34.000Z</time>
      </trkpt>
      <trkpt lat="47.31757" lon="-2.32235">
        <ele>30.200000762939</ele>
        <time>2021-06-10T09:27:38.000Z</time>
      </trkpt>
      <trkpt lat="47.31757" lon="-2.32238">
        <ele>30.200000762939</ele>
        <time>2021-06-10T09:28:18.000Z</time>
      </trkpt>
      <trkpt lat="47.31759" lon="-2.32245">
        <ele>30.200000762939</ele>
        <time>2021-06-10T09:28:20.000Z</time>
      </trkpt>
      <trkpt lat="47.31764" lon="-2.32266">
        <ele>30.200000762939</ele>
        <time>2021-06-10T09:28:24.000Z</time>
      </trkpt>
      <trkpt lat="47.31765" lon="-2.32272">
        <ele>30.200000762939</ele>
        <time>2021-06-10T09:28:25.000Z</time>
      </trkpt>
      <trkpt lat="47.31777" lon="-2.32319">
        <ele>30.200000762939</ele>
        <time>2021-06-10T09:28:31.000Z</time>
      </trkpt>
      <trkpt lat="47.31787" lon="-2.32377">
        <ele>30.200000762939</ele>
        <time>2021-06-10T09:28:37.000Z</time>
      </trkpt>
      <trkpt lat="47.31797" lon="-2.32435">
        <ele>30.200000762939</ele>
        <time>2021-06-10T09:28:43.000Z</time>
      </trkpt>
      <trkpt lat="47.31798" lon="-2.32444">
        <ele>29.60000038147</ele>
        <time>2021-06-10T09:28:44.000Z</time>
      </trkpt>
      <trkpt lat="47.318" lon="-2.32452">
        <ele>29.200000762939</ele>
        <time>2021-06-10T09:28:45.000Z</time>
      </trkpt>
      <trkpt lat="47.31802" lon="-2.3246">
        <ele>28.799999237061</ele>
        <time>2021-06-10T09:28:46.000Z</time>
      </trkpt>
      <trkpt lat="47.31804" lon="-2.32468">
        <ele>28.39999961853</ele>
        <time>2021-06-10T09:28:47.000Z</time>
      </trkpt>
      <trkpt lat="47.31806" lon="-2.32476">
        <ele>28</ele>
        <time>2021-06-10T09:28:48.000Z</time>
      </trkpt>
      <trkpt lat="47.31808" lon="-2.32485">
        <ele>27.39999961853</ele>
        <time>2021-06-10T09:28:49.000Z</time>
      </trkpt>
      <trkpt lat="47.3181" lon="-2.32493">
        <ele>27</ele>
        <time>2021-06-10T09:28:50.000Z</time>
      </trkpt>
      <trkpt lat="47.31813" lon="-2.32502">
        <ele>26</ele>
        <time>2021-06-10T09:28:51.000Z</time>
      </trkpt>
      <trkpt lat="47.31819" lon="-2.32528">
        <ele>25.39999961853</ele>
        <time>2021-06-10T09:28:54.000Z</time>
      </trkpt>
      <trkpt lat="47.31821" lon="-2.32537">
        <ele>25</ele>
        <time>2021-06-10T09:28:55.000Z</time>
      </trkpt>
      <trkpt lat="47.31823" lon="-2.32546">
        <ele>24.60000038147</ele>
        <time>2021-06-10T09:28:56.000Z</time>
      </trkpt>
      <trkpt lat="47.31825" lon="-2.32556">
        <ele>24.200000762939</ele>
        <time>2021-06-10T09:28:57.000Z</time>
      </trkpt>
      <trkpt lat="47.31826" lon="-2.32565">
        <ele>23.799999237061</ele>
        <time>2021-06-10T09:28:58.000Z</time>
      </trkpt>
      <trkpt lat="47.31831" lon="-2.3259">
        <ele>23.799999237061</ele>
        <time>2021-06-10T09:29:01.000Z</time>
      </trkpt>
      <trkpt lat="47.31832" lon="-2.32597">
        <ele>23.39999961853</ele>
        <time>2021-06-10T09:29:02.000Z</time>
      </trkpt>
      <trkpt lat="47.31833" lon="-2.32603">
        <ele>22.799999237061</ele>
        <time>2021-06-10T09:29:03.000Z</time>
      </trkpt>
      <trkpt lat="47.31835" lon="-2.3261">
        <ele>22.39999961853</ele>
        <time>2021-06-10T09:29:04.000Z</time>
      </trkpt>
      <trkpt lat="47.31836" lon="-2.32618">
        <ele>22</ele>
        <time>2021-06-10T09:29:05.000Z</time>
      </trkpt>
      <trkpt lat="47.31838" lon="-2.32627">
        <ele>21.60000038147</ele>
        <time>2021-06-10T09:29:06.000Z</time>
      </trkpt>
      <trkpt lat="47.31854" lon="-2.32677">
        <ele>21.60000038147</ele>
        <time>2021-06-10T09:29:12.000Z</time>
      </trkpt>
      <trkpt lat="47.31875" lon="-2.32733">
        <ele>21.60000038147</ele>
        <time>2021-06-10T09:29:18.000Z</time>
      </trkpt>
      <trkpt lat="47.31878" lon="-2.32742">
        <ele>21.200000762939</ele>
        <time>2021-06-10T09:29:19.000Z</time>
      </trkpt>
      <trkpt lat="47.31881" lon="-2.32752">
        <ele>20.799999237061</ele>
        <time>2021-06-10T09:29:20.000Z</time>
      </trkpt>
      <trkpt lat="47.31883" lon="-2.32762">
        <ele>20.39999961853</ele>
        <time>2021-06-10T09:29:21.000Z</time>
      </trkpt>
      <trkpt lat="47.31885" lon="-2.32773">
        <ele>19.799999237061</ele>
        <time>2021-06-10T09:29:22.000Z</time>
      </trkpt>
      <trkpt lat="47.31887" lon="-2.32784">
        <ele>19.39999961853</ele>
        <time>2021-06-10T09:29:23.000Z</time>
      </trkpt>
      <trkpt lat="47.31892" lon="-2.32851">
        <ele>19.39999961853</ele>
        <time>2021-06-10T09:29:29.000Z</time>
      </trkpt>
      <trkpt lat="47.31894" lon="-2.32914">
        <ele>19.39999961853</ele>
        <time>2021-06-10T09:29:35.000Z</time>
      </trkpt>
      <trkpt lat="47.31894" lon="-2.32923">
        <ele>19.39999961853</ele>
        <time>2021-06-10T09:29:36.000Z</time>
      </trkpt>
      <trkpt lat="47.31892" lon="-2.32953">
        <ele>19.39999961853</ele>
        <time>2021-06-10T09:29:39.000Z</time>
      </trkpt>
      <trkpt lat="47.31891" lon="-2.32963">
        <ele>19.39999961853</ele>
        <time>2021-06-10T09:29:40.000Z</time>
      </trkpt>
      <trkpt lat="47.3189" lon="-2.32973">
        <ele>19</ele>
        <time>2021-06-10T09:29:41.000Z</time>
      </trkpt>
      <trkpt lat="47.31888" lon="-2.32982">
        <ele>18.60000038147</ele>
        <time>2021-06-10T09:29:42.000Z</time>
      </trkpt>
      <trkpt lat="47.31888" lon="-2.32992">
        <ele>18.200000762939</ele>
        <time>2021-06-10T09:29:43.000Z</time>
      </trkpt>
      <trkpt lat="47.31888" lon="-2.33003">
        <ele>17.799999237061</ele>
        <time>2021-06-10T09:29:44.000Z</time>
      </trkpt>
      <trkpt lat="47.31889" lon="-2.33013">
        <ele>17.200000762939</ele>
        <time>2021-06-10T09:29:45.000Z</time>
      </trkpt>
      <trkpt lat="47.31888" lon="-2.3307">
        <ele>17.200000762939</ele>
        <time>2021-06-10T09:29:51.000Z</time>
      </trkpt>
      <trkpt lat="47.31883" lon="-2.3312">
        <ele>17.200000762939</ele>
        <time>2021-06-10T09:29:57.000Z</time>
      </trkpt>
      <trkpt lat="47.31882" lon="-2.33128">
        <ele>17.200000762939</ele>
        <time>2021-06-10T09:29:58.000Z</time>
      </trkpt>
      <trkpt lat="47.31876" lon="-2.33155">
        <ele>17.200000762939</ele>
        <time>2021-06-10T09:30:02.000Z</time>
      </trkpt>
      <trkpt lat="47.31875" lon="-2.33162">
        <ele>17.799999237061</ele>
        <time>2021-06-10T09:30:03.000Z</time>
      </trkpt>
      <trkpt lat="47.31874" lon="-2.33168">
        <ele>18.200000762939</ele>
        <time>2021-06-10T09:30:04.000Z</time>
      </trkpt>
      <trkpt lat="47.31874" lon="-2.33174">
        <ele>18.60000038147</ele>
        <time>2021-06-10T09:30:05.000Z</time>
      </trkpt>
      <trkpt lat="47.31874" lon="-2.3318">
        <ele>19.60000038147</ele>
        <time>2021-06-10T09:30:06.000Z</time>
      </trkpt>
      <trkpt lat="47.31873" lon="-2.33186">
        <ele>19.60000038147</ele>
        <time>2021-06-10T09:30:07.000Z</time>
      </trkpt>
      <trkpt lat="47.31872" lon="-2.33199">
        <ele>19.60000038147</ele>
        <time>2021-06-10T09:30:09.000Z</time>
      </trkpt>
      <trkpt lat="47.31871" lon="-2.33213">
        <ele>19.60000038147</ele>
        <time>2021-06-10T09:30:11.000Z</time>
      </trkpt>
      <trkpt lat="47.3187" lon="-2.33221">
        <ele>20</ele>
        <time>2021-06-10T09:30:12.000Z</time>
      </trkpt>
      <trkpt lat="47.31868" lon="-2.33228">
        <ele>20.39999961853</ele>
        <time>2021-06-10T09:30:13.000Z</time>
      </trkpt>
      <trkpt lat="47.31866" lon="-2.33235">
        <ele>20.799999237061</ele>
        <time>2021-06-10T09:30:14.000Z</time>
      </trkpt>
      <trkpt lat="47.31864" lon="-2.33241">
        <ele>21.200000762939</ele>
        <time>2021-06-10T09:30:15.000Z</time>
      </trkpt>
      <trkpt lat="47.31861" lon="-2.33247">
        <ele>21.60000038147</ele>
        <time>2021-06-10T09:30:16.000Z</time>
      </trkpt>
      <trkpt lat="47.31859" lon="-2.33253">
        <ele>21.60000038147</ele>
        <time>2021-06-10T09:30:17.000Z</time>
      </trkpt>
      <trkpt lat="47.31856" lon="-2.33259">
        <ele>21.60000038147</ele>
        <time>2021-06-10T09:30:18.000Z</time>
      </trkpt>
      <trkpt lat="47.31835" lon="-2.33284">
        <ele>21.60000038147</ele>
        <time>2021-06-10T09:30:24.000Z</time>
      </trkpt>
      <trkpt lat="47.31819" lon="-2.33298">
        <ele>22</ele>
        <time>2021-06-10T09:30:28.000Z</time>
      </trkpt>
      <trkpt lat="47.31815" lon="-2.33302">
        <ele>22.60000038147</ele>
        <time>2021-06-10T09:30:29.000Z</time>
      </trkpt>
      <trkpt lat="47.31812" lon="-2.33305">
        <ele>23</ele>
        <time>2021-06-10T09:30:30.000Z</time>
      </trkpt>
      <trkpt lat="47.31809" lon="-2.33308">
        <ele>23.799999237061</ele>
        <time>2021-06-10T09:30:31.000Z</time>
      </trkpt>
      <trkpt lat="47.31796" lon="-2.33317">
        <ele>24.200000762939</ele>
        <time>2021-06-10T09:30:35.000Z</time>
      </trkpt>
      <trkpt lat="47.31793" lon="-2.33318">
        <ele>24.60000038147</ele>
        <time>2021-06-10T09:30:36.000Z</time>
      </trkpt>
      <trkpt lat="47.3179" lon="-2.33321">
        <ele>25.200000762939</ele>
        <time>2021-06-10T09:30:37.000Z</time>
      </trkpt>
      <trkpt lat="47.31787" lon="-2.33323">
        <ele>25.60000038147</ele>
        <time>2021-06-10T09:30:38.000Z</time>
      </trkpt>
      <trkpt lat="47.31783" lon="-2.33323">
        <ele>26</ele>
        <time>2021-06-10T09:30:39.000Z</time>
      </trkpt>
      <trkpt lat="47.31777" lon="-2.33319">
        <ele>26</ele>
        <time>2021-06-10T09:30:41.000Z</time>
      </trkpt>
      <trkpt lat="47.3177" lon="-2.33309">
        <ele>26.39999961853</ele>
        <time>2021-06-10T09:30:44.000Z</time>
      </trkpt>
      <trkpt lat="47.31768" lon="-2.33305">
        <ele>26.799999237061</ele>
        <time>2021-06-10T09:30:45.000Z</time>
      </trkpt>
      <trkpt lat="47.31766" lon="-2.33301">
        <ele>27.200000762939</ele>
        <time>2021-06-10T09:30:46.000Z</time>
      </trkpt>
      <trkpt lat="47.31764" lon="-2.33297">
        <ele>27.799999237061</ele>
        <time>2021-06-10T09:30:47.000Z</time>
      </trkpt>
      <trkpt lat="47.31763" lon="-2.33293">
        <ele>28.200000762939</ele>
        <time>2021-06-10T09:30:48.000Z</time>
      </trkpt>
      <trkpt lat="47.31754" lon="-2.33259">
        <ele>28.200000762939</ele>
        <time>2021-06-10T09:30:54.000Z</time>
      </trkpt>
      <trkpt lat="47.3175" lon="-2.33255">
        <ele>28.200000762939</ele>
        <time>2021-06-10T09:30:55.000Z</time>
      </trkpt>
      <trkpt lat="47.3174" lon="-2.33254">
        <ele>28.200000762939</ele>
        <time>2021-06-10T09:30:57.000Z</time>
      </trkpt>
      <trkpt lat="47.31731" lon="-2.33257">
        <ele>28.60000038147</ele>
        <time>2021-06-10T09:30:59.000Z</time>
      </trkpt>
      <trkpt lat="47.31727" lon="-2.33259">
        <ele>29</ele>
        <time>2021-06-10T09:31:00.000Z</time>
      </trkpt>
      <trkpt lat="47.31721" lon="-2.3326">
        <ele>29.39999961853</ele>
        <time>2021-06-10T09:31:01.000Z</time>
      </trkpt>
      <trkpt lat="47.31714" lon="-2.33261">
        <ele>29.799999237061</ele>
        <time>2021-06-10T09:31:02.000Z</time>
      </trkpt>
      <trkpt lat="47.31709" lon="-2.33263">
        <ele>30.200000762939</ele>
        <time>2021-06-10T09:31:03.000Z</time>
      </trkpt>
      <trkpt lat="47.31688" lon="-2.3327">
        <ele>30.200000762939</ele>
        <time>2021-06-10T09:31:08.000Z</time>
      </trkpt>
      <trkpt lat="47.31683" lon="-2.33272">
        <ele>30.200000762939</ele>
        <time>2021-06-10T09:31:09.000Z</time>
      </trkpt>
      <trkpt lat="47.31673" lon="-2.33276">
        <ele>30.799999237061</ele>
        <time>2021-06-10T09:31:11.000Z</time>
      </trkpt>
      <trkpt lat="47.31669" lon="-2.33278">
        <ele>31.200000762939</ele>
        <time>2021-06-10T09:31:12.000Z</time>
      </trkpt>
      <trkpt lat="47.31664" lon="-2.3328">
        <ele>31.60000038147</ele>
        <time>2021-06-10T09:31:13.000Z</time>
      </trkpt>
      <trkpt lat="47.31659" lon="-2.33283">
        <ele>32</ele>
        <time>2021-06-10T09:31:14.000Z</time>
      </trkpt>
      <trkpt lat="47.31654" lon="-2.33286">
        <ele>32.599998474121</ele>
        <time>2021-06-10T09:31:15.000Z</time>
      </trkpt>
      <trkpt lat="47.31645" lon="-2.33291">
        <ele>32.599998474121</ele>
        <time>2021-06-10T09:31:17.000Z</time>
      </trkpt>
      <trkpt lat="47.31607" lon="-2.33311">
        <ele>32.599998474121</ele>
        <time>2021-06-10T09:31:25.000Z</time>
      </trkpt>
      <trkpt lat="47.31597" lon="-2.33317">
        <ele>33</ele>
        <time>2021-06-10T09:31:27.000Z</time>
      </trkpt>
      <trkpt lat="47.31592" lon="-2.3332">
        <ele>33.400001525879</ele>
        <time>2021-06-10T09:31:28.000Z</time>
      </trkpt>
      <trkpt lat="47.31587" lon="-2.33323">
        <ele>33.799999237061</ele>
        <time>2021-06-10T09:31:29.000Z</time>
      </trkpt>
      <trkpt lat="47.31581" lon="-2.33326">
        <ele>34.200000762939</ele>
        <time>2021-06-10T09:31:30.000Z</time>
      </trkpt>
      <trkpt lat="47.31576" lon="-2.3333">
        <ele>34.599998474121</ele>
        <time>2021-06-10T09:31:31.000Z</time>
      </trkpt>
      <trkpt lat="47.31564" lon="-2.33335">
        <ele>34.599998474121</ele>
        <time>2021-06-10T09:31:33.000Z</time>
      </trkpt>
      <trkpt lat="47.31524" lon="-2.3335">
        <ele>34.599998474121</ele>
        <time>2021-06-10T09:31:40.000Z</time>
      </trkpt>
      <trkpt lat="47.3149" lon="-2.33368">
        <ele>34.599998474121</ele>
        <time>2021-06-10T09:31:46.000Z</time>
      </trkpt>
      <trkpt lat="47.31481" lon="-2.33367">
        <ele>34.599998474121</ele>
        <time>2021-06-10T09:31:48.000Z</time>
      </trkpt>
      <trkpt lat="47.31472" lon="-2.33355">
        <ele>34.599998474121</ele>
        <time>2021-06-10T09:31:51.000Z</time>
      </trkpt>
      <trkpt lat="47.3147" lon="-2.3335">
        <ele>34.599998474121</ele>
        <time>2021-06-10T09:31:52.000Z</time>
      </trkpt>
      <trkpt lat="47.31456" lon="-2.33316">
        <ele>34.599998474121</ele>
        <time>2021-06-10T09:31:59.000Z</time>
      </trkpt>
      <trkpt lat="47.31442" lon="-2.33292">
        <ele>34.599998474121</ele>
        <time>2021-06-10T09:32:05.000Z</time>
      </trkpt>
      <trkpt lat="47.31422" lon="-2.33274">
        <ele>34.599998474121</ele>
        <time>2021-06-10T09:32:11.000Z</time>
      </trkpt>
      <trkpt lat="47.31395" lon="-2.33252">
        <ele>34.200000762939</ele>
        <time>2021-06-10T09:32:19.000Z</time>
      </trkpt>
      <trkpt lat="47.31392" lon="-2.3325">
        <ele>33.799999237061</ele>
        <time>2021-06-10T09:32:20.000Z</time>
      </trkpt>
      <trkpt lat="47.31389" lon="-2.33248">
        <ele>33.200000762939</ele>
        <time>2021-06-10T09:32:21.000Z</time>
      </trkpt>
      <trkpt lat="47.31386" lon="-2.33246">
        <ele>32.799999237061</ele>
        <time>2021-06-10T09:32:22.000Z</time>
      </trkpt>
      <trkpt lat="47.31383" lon="-2.33244">
        <ele>32.400001525879</ele>
        <time>2021-06-10T09:32:23.000Z</time>
      </trkpt>
      <trkpt lat="47.31371" lon="-2.33236">
        <ele>32.400001525879</ele>
        <time>2021-06-10T09:32:27.000Z</time>
      </trkpt>
      <trkpt lat="47.31351" lon="-2.33221">
        <ele>32.400001525879</ele>
        <time>2021-06-10T09:32:34.000Z</time>
      </trkpt>
      <trkpt lat="47.31327" lon="-2.33201">
        <ele>32.400001525879</ele>
        <time>2021-06-10T09:32:42.000Z</time>
      </trkpt>
      <trkpt lat="47.31295" lon="-2.33174">
        <ele>32.400001525879</ele>
        <time>2021-06-10T09:32:50.000Z</time>
      </trkpt>
      <trkpt lat="47.31269" lon="-2.33159">
        <ele>32.400001525879</ele>
        <time>2021-06-10T09:32:57.000Z</time>
      </trkpt>
      <trkpt lat="47.3124" lon="-2.3315">
        <ele>32.400001525879</ele>
        <time>2021-06-10T09:33:05.000Z</time>
      </trkpt>
      <trkpt lat="47.31226" lon="-2.33148">
        <ele>32.400001525879</ele>
        <time>2021-06-10T09:33:10.000Z</time>
      </trkpt>
      <trkpt lat="47.31226" lon="-2.33146">
        <ele>32.400001525879</ele>
        <time>2021-06-10T09:33:12.000Z</time>
      </trkpt>
      <trkpt lat="47.31228" lon="-2.33141">
        <ele>30.39999961853</ele>
        <time>2021-06-10T09:34:35.000Z</time>
      </trkpt>
      <trkpt lat="47.31229" lon="-2.33139">
        <ele>30.39999961853</ele>
        <time>2021-06-10T09:34:36.000Z</time>
      </trkpt>
      <trkpt lat="47.31237" lon="-2.33119">
        <ele>30.39999961853</ele>
        <time>2021-06-10T09:34:41.000Z</time>
      </trkpt>
      <trkpt lat="47.31241" lon="-2.33112">
        <ele>30.39999961853</ele>
        <time>2021-06-10T09:34:43.000Z</time>
      </trkpt>
      <trkpt lat="47.3125" lon="-2.33092">
        <ele>30.39999961853</ele>
        <time>2021-06-10T09:34:47.000Z</time>
      </trkpt>
      <trkpt lat="47.31259" lon="-2.33073">
        <ele>30.39999961853</ele>
        <time>2021-06-10T09:34:50.000Z</time>
      </trkpt>
      <trkpt lat="47.31266" lon="-2.33061">
        <ele>30.39999961853</ele>
        <time>2021-06-10T09:34:52.000Z</time>
      </trkpt>
      <trkpt lat="47.3127" lon="-2.33056">
        <ele>30.39999961853</ele>
        <time>2021-06-10T09:34:53.000Z</time>
      </trkpt>
      <trkpt lat="47.31296" lon="-2.33014">
        <ele>30.39999961853</ele>
        <time>2021-06-10T09:35:00.000Z</time>
      </trkpt>
      <trkpt lat="47.31318" lon="-2.32974">
        <ele>30.39999961853</ele>
        <time>2021-06-10T09:35:07.000Z</time>
      </trkpt>
      <trkpt lat="47.31341" lon="-2.32927">
        <ele>30.39999961853</ele>
        <time>2021-06-10T09:35:14.000Z</time>
      </trkpt>
      <trkpt lat="47.31352" lon="-2.32902">
        <ele>30.39999961853</ele>
        <time>2021-06-10T09:35:18.000Z</time>
      </trkpt>
      <trkpt lat="47.31353" lon="-2.32895">
        <ele>30.39999961853</ele>
        <time>2021-06-10T09:35:19.000Z</time>
      </trkpt>
      <trkpt lat="47.31348" lon="-2.3288">
        <ele>30.39999961853</ele>
        <time>2021-06-10T09:35:22.000Z</time>
      </trkpt>
      <trkpt lat="47.31342" lon="-2.32871">
        <ele>30.39999961853</ele>
        <time>2021-06-10T09:35:24.000Z</time>
      </trkpt>
      <trkpt lat="47.31328" lon="-2.32853">
        <ele>30.39999961853</ele>
        <time>2021-06-10T09:35:28.000Z</time>
      </trkpt>
      <trkpt lat="47.31308" lon="-2.32823">
        <ele>30.39999961853</ele>
        <time>2021-06-10T09:35:34.000Z</time>
      </trkpt>
      <trkpt lat="47.31305" lon="-2.32818">
        <ele>30.39999961853</ele>
        <time>2021-06-10T09:35:35.000Z</time>
      </trkpt>
      <trkpt lat="47.31292" lon="-2.32795">
        <ele>30.39999961853</ele>
        <time>2021-06-10T09:35:39.000Z</time>
      </trkpt>
      <trkpt lat="47.31282" lon="-2.32782">
        <ele>30.39999961853</ele>
        <time>2021-06-10T09:35:41.000Z</time>
      </trkpt>
      <trkpt lat="47.3127" lon="-2.32772">
        <ele>30.39999961853</ele>
        <time>2021-06-10T09:35:43.000Z</time>
      </trkpt>
      <trkpt lat="47.31258" lon="-2.32764">
        <ele>30.39999961853</ele>
        <time>2021-06-10T09:35:45.000Z</time>
      </trkpt>
      <trkpt lat="47.31235" lon="-2.32749">
        <ele>30.39999961853</ele>
        <time>2021-06-10T09:35:49.000Z</time>
      </trkpt>
      <trkpt lat="47.31209" lon="-2.32726">
        <ele>30.39999961853</ele>
        <time>2021-06-10T09:35:54.000Z</time>
      </trkpt>
      <trkpt lat="47.31206" lon="-2.32719">
        <ele>30.39999961853</ele>
        <time>2021-06-10T09:35:55.000Z</time>
      </trkpt>
      <trkpt lat="47.31193" lon="-2.32677">
        <ele>30.39999961853</ele>
        <time>2021-06-10T09:36:00.000Z</time>
      </trkpt>
      <trkpt lat="47.3118" lon="-2.32632">
        <ele>30.39999961853</ele>
        <time>2021-06-10T09:36:05.000Z</time>
      </trkpt>
      <trkpt lat="47.31179" lon="-2.32622">
        <ele>30.39999961853</ele>
        <time>2021-06-10T09:36:06.000Z</time>
      </trkpt>
      <trkpt lat="47.31177" lon="-2.3259">
        <ele>30.39999961853</ele>
        <time>2021-06-10T09:36:09.000Z</time>
      </trkpt>
      <trkpt lat="47.31177" lon="-2.3257">
        <ele>30.39999961853</ele>
        <time>2021-06-10T09:36:11.000Z</time>
      </trkpt>
      <trkpt lat="47.31179" lon="-2.32486">
        <ele>30.39999961853</ele>
        <time>2021-06-10T09:36:19.000Z</time>
      </trkpt>
      <trkpt lat="47.31182" lon="-2.3245">
        <ele>30.39999961853</ele>
        <time>2021-06-10T09:36:23.000Z</time>
      </trkpt>
      <trkpt lat="47.31181" lon="-2.32443">
        <ele>30.39999961853</ele>
        <time>2021-06-10T09:36:24.000Z</time>
      </trkpt>
      <trkpt lat="47.31173" lon="-2.3243">
        <ele>30.39999961853</ele>
        <time>2021-06-10T09:36:27.000Z</time>
      </trkpt>
      <trkpt lat="47.31168" lon="-2.32428">
        <ele>30</ele>
        <time>2021-06-10T09:36:28.000Z</time>
      </trkpt>
      <trkpt lat="47.31164" lon="-2.32427">
        <ele>29.60000038147</ele>
        <time>2021-06-10T09:36:29.000Z</time>
      </trkpt>
      <trkpt lat="47.31159" lon="-2.32426">
        <ele>29.200000762939</ele>
        <time>2021-06-10T09:36:30.000Z</time>
      </trkpt>
      <trkpt lat="47.31155" lon="-2.32424">
        <ele>28.799999237061</ele>
        <time>2021-06-10T09:36:31.000Z</time>
      </trkpt>
      <trkpt lat="47.31152" lon="-2.3242">
        <ele>28.39999961853</ele>
        <time>2021-06-10T09:36:32.000Z</time>
      </trkpt>
      <trkpt lat="47.3115" lon="-2.3241">
        <ele>28.39999961853</ele>
        <time>2021-06-10T09:36:34.000Z</time>
      </trkpt>
      <trkpt lat="47.3115" lon="-2.3239">
        <ele>28.39999961853</ele>
        <time>2021-06-10T09:36:37.000Z</time>
      </trkpt>
      <trkpt lat="47.31149" lon="-2.32383">
        <ele>28.39999961853</ele>
        <time>2021-06-10T09:36:38.000Z</time>
      </trkpt>
      <trkpt lat="47.31148" lon="-2.32374">
        <ele>28.39999961853</ele>
        <time>2021-06-10T09:36:39.000Z</time>
      </trkpt>
      <trkpt lat="47.31142" lon="-2.32322">
        <ele>28.39999961853</ele>
        <time>2021-06-10T09:36:45.000Z</time>
      </trkpt>
      <trkpt lat="47.31139" lon="-2.32307">
        <ele>28</ele>
        <time>2021-06-10T09:36:47.000Z</time>
      </trkpt>
      <trkpt lat="47.31136" lon="-2.323">
        <ele>27.60000038147</ele>
        <time>2021-06-10T09:36:48.000Z</time>
      </trkpt>
      <trkpt lat="47.31133" lon="-2.32293">
        <ele>27.200000762939</ele>
        <time>2021-06-10T09:36:49.000Z</time>
      </trkpt>
      <trkpt lat="47.3113" lon="-2.32286">
        <ele>26.799999237061</ele>
        <time>2021-06-10T09:36:50.000Z</time>
      </trkpt>
      <trkpt lat="47.31127" lon="-2.32279">
        <ele>26.39999961853</ele>
        <time>2021-06-10T09:36:51.000Z</time>
      </trkpt>
      <trkpt lat="47.31103" lon="-2.3223">
        <ele>26.39999961853</ele>
        <time>2021-06-10T09:36:57.000Z</time>
      </trkpt>
      <trkpt lat="47.31096" lon="-2.32213">
        <ele>26</ele>
        <time>2021-06-10T09:36:59.000Z</time>
      </trkpt>
      <trkpt lat="47.31093" lon="-2.32205">
        <ele>25.39999961853</ele>
        <time>2021-06-10T09:37:00.000Z</time>
      </trkpt>
      <trkpt lat="47.3109" lon="-2.32198">
        <ele>25</ele>
        <time>2021-06-10T09:37:01.000Z</time>
      </trkpt>
      <trkpt lat="47.31087" lon="-2.32193">
        <ele>24.60000038147</ele>
        <time>2021-06-10T09:37:02.000Z</time>
      </trkpt>
      <trkpt lat="47.31084" lon="-2.32187">
        <ele>24.200000762939</ele>
        <time>2021-06-10T09:37:03.000Z</time>
      </trkpt>
      <trkpt lat="47.31081" lon="-2.32182">
        <ele>23.60000038147</ele>
        <time>2021-06-10T09:37:04.000Z</time>
      </trkpt>
      <trkpt lat="47.31078" lon="-2.32176">
        <ele>23.200000762939</ele>
        <time>2021-06-10T09:37:05.000Z</time>
      </trkpt>
      <trkpt lat="47.31075" lon="-2.32171">
        <ele>22.200000762939</ele>
        <time>2021-06-10T09:37:06.000Z</time>
      </trkpt>
      <trkpt lat="47.31063" lon="-2.32148">
        <ele>22.200000762939</ele>
        <time>2021-06-10T09:37:10.000Z</time>
      </trkpt>
      <trkpt lat="47.31051" lon="-2.32133">
        <ele>22.200000762939</ele>
        <time>2021-06-10T09:37:14.000Z</time>
      </trkpt>
      <trkpt lat="47.31036" lon="-2.32111">
        <ele>21.799999237061</ele>
        <time>2021-06-10T09:37:19.000Z</time>
      </trkpt>
      <trkpt lat="47.31032" lon="-2.32107">
        <ele>21.39999961853</ele>
        <time>2021-06-10T09:37:20.000Z</time>
      </trkpt>
      <trkpt lat="47.3103" lon="-2.32102">
        <ele>21</ele>
        <time>2021-06-10T09:37:21.000Z</time>
      </trkpt>
      <trkpt lat="47.31027" lon="-2.32097">
        <ele>20.60000038147</ele>
        <time>2021-06-10T09:37:22.000Z</time>
      </trkpt>
      <trkpt lat="47.31024" lon="-2.32092">
        <ele>20.200000762939</ele>
        <time>2021-06-10T09:37:23.000Z</time>
      </trkpt>
      <trkpt lat="47.31014" lon="-2.32077">
        <ele>20.200000762939</ele>
        <time>2021-06-10T09:37:26.000Z</time>
      </trkpt>
      <trkpt lat="47.31" lon="-2.32051">
        <ele>20.200000762939</ele>
        <time>2021-06-10T09:37:30.000Z</time>
      </trkpt>
      <trkpt lat="47.30996" lon="-2.32044">
        <ele>20.200000762939</ele>
        <time>2021-06-10T09:37:31.000Z</time>
      </trkpt>
      <trkpt lat="47.30993" lon="-2.32037">
        <ele>20.200000762939</ele>
        <time>2021-06-10T09:37:32.000Z</time>
      </trkpt>
      <trkpt lat="47.30981" lon="-2.32011">
        <ele>20.200000762939</ele>
        <time>2021-06-10T09:37:36.000Z</time>
      </trkpt>
      <trkpt lat="47.30973" lon="-2.31991">
        <ele>19.60000038147</ele>
        <time>2021-06-10T09:37:39.000Z</time>
      </trkpt>
      <trkpt lat="47.3097" lon="-2.31984">
        <ele>19.200000762939</ele>
        <time>2021-06-10T09:37:40.000Z</time>
      </trkpt>
      <trkpt lat="47.30968" lon="-2.31977">
        <ele>18.799999237061</ele>
        <time>2021-06-10T09:37:41.000Z</time>
      </trkpt>
      <trkpt lat="47.30966" lon="-2.3197">
        <ele>18.39999961853</ele>
        <time>2021-06-10T09:37:42.000Z</time>
      </trkpt>
      <trkpt lat="47.30965" lon="-2.31962">
        <ele>18</ele>
        <time>2021-06-10T09:37:43.000Z</time>
      </trkpt>
      <trkpt lat="47.30967" lon="-2.31942">
        <ele>18</ele>
        <time>2021-06-10T09:37:46.000Z</time>
      </trkpt>
      <trkpt lat="47.30968" lon="-2.31936">
        <ele>18</ele>
        <time>2021-06-10T09:37:47.000Z</time>
      </trkpt>
      <trkpt lat="47.30977" lon="-2.31909">
        <ele>18</ele>
        <time>2021-06-10T09:37:51.000Z</time>
      </trkpt>
      <trkpt lat="47.30979" lon="-2.319">
        <ele>18</ele>
        <time>2021-06-10T09:37:52.000Z</time>
      </trkpt>
      <trkpt lat="47.30989" lon="-2.31856">
        <ele>18</ele>
        <time>2021-06-10T09:37:58.000Z</time>
      </trkpt>
      <trkpt lat="47.30997" lon="-2.31835">
        <ele>18</ele>
        <time>2021-06-10T09:38:01.000Z</time>
      </trkpt>
      <trkpt lat="47.30997" lon="-2.31822">
        <ele>18</ele>
        <time>2021-06-10T09:38:03.000Z</time>
      </trkpt>
      <trkpt lat="47.30989" lon="-2.31811">
        <ele>18</ele>
        <time>2021-06-10T09:38:05.000Z</time>
      </trkpt>
      <trkpt lat="47.30978" lon="-2.31799">
        <ele>18</ele>
        <time>2021-06-10T09:38:07.000Z</time>
      </trkpt>
      <trkpt lat="47.30966" lon="-2.31787">
        <ele>18</ele>
        <time>2021-06-10T09:38:09.000Z</time>
      </trkpt>
      <trkpt lat="47.30922" lon="-2.31738">
        <ele>18</ele>
        <time>2021-06-10T09:38:17.000Z</time>
      </trkpt>
      <trkpt lat="47.30906" lon="-2.31718">
        <ele>18.39999961853</ele>
        <time>2021-06-10T09:38:20.000Z</time>
      </trkpt>
      <trkpt lat="47.309" lon="-2.31712">
        <ele>18.799999237061</ele>
        <time>2021-06-10T09:38:21.000Z</time>
      </trkpt>
      <trkpt lat="47.30895" lon="-2.31705">
        <ele>19.200000762939</ele>
        <time>2021-06-10T09:38:22.000Z</time>
      </trkpt>
      <trkpt lat="47.3089" lon="-2.31699">
        <ele>19.60000038147</ele>
        <time>2021-06-10T09:38:23.000Z</time>
      </trkpt>
      <trkpt lat="47.30885" lon="-2.31692">
        <ele>20</ele>
        <time>2021-06-10T09:38:24.000Z</time>
      </trkpt>
      <trkpt lat="47.3088" lon="-2.31685">
        <ele>20</ele>
        <time>2021-06-10T09:38:25.000Z</time>
      </trkpt>
      <trkpt lat="47.30849" lon="-2.31649">
        <ele>20</ele>
        <time>2021-06-10T09:38:31.000Z</time>
      </trkpt>
      <trkpt lat="47.30844" lon="-2.31645">
        <ele>20</ele>
        <time>2021-06-10T09:38:32.000Z</time>
      </trkpt>
      <trkpt lat="47.30834" lon="-2.31649">
        <ele>20</ele>
        <time>2021-06-10T09:38:34.000Z</time>
      </trkpt>
      <trkpt lat="47.30825" lon="-2.3166">
        <ele>20</ele>
        <time>2021-06-10T09:38:36.000Z</time>
      </trkpt>
      <trkpt lat="47.30815" lon="-2.31673">
        <ele>20</ele>
        <time>2021-06-10T09:38:38.000Z</time>
      </trkpt>
      <trkpt lat="47.30804" lon="-2.31687">
        <ele>19.60000038147</ele>
        <time>2021-06-10T09:38:40.000Z</time>
      </trkpt>
      <trkpt lat="47.30799" lon="-2.31695">
        <ele>19.200000762939</ele>
        <time>2021-06-10T09:38:41.000Z</time>
      </trkpt>
      <trkpt lat="47.30793" lon="-2.31702">
        <ele>18.799999237061</ele>
        <time>2021-06-10T09:38:42.000Z</time>
      </trkpt>
      <trkpt lat="47.30788" lon="-2.31709">
        <ele>18.39999961853</ele>
        <time>2021-06-10T09:38:43.000Z</time>
      </trkpt>
      <trkpt lat="47.30782" lon="-2.31715">
        <ele>18</ele>
        <time>2021-06-10T09:38:44.000Z</time>
      </trkpt>
      <trkpt lat="47.30756" lon="-2.31745">
        <ele>17.60000038147</ele>
        <time>2021-06-10T09:38:49.000Z</time>
      </trkpt>
      <trkpt lat="47.30752" lon="-2.31748">
        <ele>17</ele>
        <time>2021-06-10T09:38:50.000Z</time>
      </trkpt>
      <trkpt lat="47.30747" lon="-2.31751">
        <ele>16.60000038147</ele>
        <time>2021-06-10T09:38:51.000Z</time>
      </trkpt>
      <trkpt lat="47.30742" lon="-2.31754">
        <ele>16.200000762939</ele>
        <time>2021-06-10T09:38:52.000Z</time>
      </trkpt>
      <trkpt lat="47.30737" lon="-2.31757">
        <ele>15.800000190735</ele>
        <time>2021-06-10T09:38:53.000Z</time>
      </trkpt>
      <trkpt lat="47.30732" lon="-2.31758">
        <ele>15.800000190735</ele>
        <time>2021-06-10T09:38:54.000Z</time>
      </trkpt>
      <trkpt lat="47.30728" lon="-2.31757">
        <ele>15.800000190735</ele>
        <time>2021-06-10T09:38:55.000Z</time>
      </trkpt>
      <trkpt lat="47.30724" lon="-2.31747">
        <ele>15.800000190735</ele>
        <time>2021-06-10T09:38:57.000Z</time>
      </trkpt>
      <trkpt lat="47.30721" lon="-2.3173">
        <ele>15.800000190735</ele>
        <time>2021-06-10T09:39:02.000Z</time>
      </trkpt>
      <trkpt lat="47.30719" lon="-2.31724">
        <ele>15.800000190735</ele>
        <time>2021-06-10T09:39:04.000Z</time>
      </trkpt>
      <trkpt lat="47.30713" lon="-2.31713">
        <ele>15.800000190735</ele>
        <time>2021-06-10T09:39:08.000Z</time>
      </trkpt>
      <trkpt lat="47.30707" lon="-2.317">
        <ele>15.800000190735</ele>
        <time>2021-06-10T09:39:14.000Z</time>
      </trkpt>
      <trkpt lat="47.30695" lon="-2.31679">
        <ele>15.800000190735</ele>
        <time>2021-06-10T09:39:21.000Z</time>
      </trkpt>
      <trkpt lat="47.30686" lon="-2.3166">
        <ele>15.39999961853</ele>
        <time>2021-06-10T09:39:25.000Z</time>
      </trkpt>
      <trkpt lat="47.30685" lon="-2.31654">
        <ele>15</ele>
        <time>2021-06-10T09:39:26.000Z</time>
      </trkpt>
      <trkpt lat="47.30683" lon="-2.31648">
        <ele>14.60000038147</ele>
        <time>2021-06-10T09:39:27.000Z</time>
      </trkpt>
      <trkpt lat="47.30682" lon="-2.31642">
        <ele>14</ele>
        <time>2021-06-10T09:39:28.000Z</time>
      </trkpt>
      <trkpt lat="47.3068" lon="-2.31636">
        <ele>13.60000038147</ele>
        <time>2021-06-10T09:39:29.000Z</time>
      </trkpt>
      <trkpt lat="47.30671" lon="-2.31611">
        <ele>13.60000038147</ele>
        <time>2021-06-10T09:39:34.000Z</time>
      </trkpt>
      <trkpt lat="47.30656" lon="-2.31583">
        <ele>13.60000038147</ele>
        <time>2021-06-10T09:39:41.000Z</time>
      </trkpt>
      <trkpt lat="47.30645" lon="-2.31559">
        <ele>13.60000038147</ele>
        <time>2021-06-10T09:39:46.000Z</time>
      </trkpt>
      <trkpt lat="47.30629" lon="-2.31517">
        <ele>13.60000038147</ele>
        <time>2021-06-10T09:39:55.000Z</time>
      </trkpt>
      <trkpt lat="47.30622" lon="-2.31495">
        <ele>14.60000038147</ele>
        <time>2021-06-10T09:40:00.000Z</time>
      </trkpt>
      <trkpt lat="47.3062" lon="-2.31491">
        <ele>15</ele>
        <time>2021-06-10T09:40:01.000Z</time>
      </trkpt>
      <trkpt lat="47.30618" lon="-2.31486">
        <ele>15.39999961853</ele>
        <time>2021-06-10T09:40:02.000Z</time>
      </trkpt>
      <trkpt lat="47.30616" lon="-2.31482">
        <ele>15.800000190735</ele>
        <time>2021-06-10T09:40:03.000Z</time>
      </trkpt>
      <trkpt lat="47.30601" lon="-2.31445">
        <ele>15.800000190735</ele>
        <time>2021-06-10T09:40:10.000Z</time>
      </trkpt>
      <trkpt lat="47.30578" lon="-2.31393">
        <ele>15.800000190735</ele>
        <time>2021-06-10T09:40:19.000Z</time>
      </trkpt>
      <trkpt lat="47.30557" lon="-2.31355">
        <ele>15.800000190735</ele>
        <time>2021-06-10T09:40:26.000Z</time>
      </trkpt>
      <trkpt lat="47.30533" lon="-2.3132">
        <ele>15.800000190735</ele>
        <time>2021-06-10T09:40:33.000Z</time>
      </trkpt>
      <trkpt lat="47.30519" lon="-2.31298">
        <ele>15.800000190735</ele>
        <time>2021-06-10T09:40:38.000Z</time>
      </trkpt>
      <trkpt lat="47.30493" lon="-2.31257">
        <ele>15.800000190735</ele>
        <time>2021-06-10T09:40:46.000Z</time>
      </trkpt>
      <trkpt lat="47.30471" lon="-2.31207">
        <ele>15.800000190735</ele>
        <time>2021-06-10T09:40:54.000Z</time>
      </trkpt>
      <trkpt lat="47.30449" lon="-2.31139">
        <ele>15.800000190735</ele>
        <time>2021-06-10T09:41:03.000Z</time>
      </trkpt>
      <trkpt lat="47.30444" lon="-2.31123">
        <ele>15.800000190735</ele>
        <time>2021-06-10T09:41:05.000Z</time>
      </trkpt>
      <trkpt lat="47.30434" lon="-2.31112">
        <ele>15.800000190735</ele>
        <time>2021-06-10T09:41:07.000Z</time>
      </trkpt>
      <trkpt lat="47.30421" lon="-2.31103">
        <ele>15.800000190735</ele>
        <time>2021-06-10T09:41:09.000Z</time>
      </trkpt>
      <trkpt lat="47.30404" lon="-2.31089">
        <ele>15.800000190735</ele>
        <time>2021-06-10T09:41:12.000Z</time>
      </trkpt>
      <trkpt lat="47.30387" lon="-2.31072">
        <ele>15.800000190735</ele>
        <time>2021-06-10T09:41:15.000Z</time>
      </trkpt>
      <trkpt lat="47.30373" lon="-2.31053">
        <ele>15.800000190735</ele>
        <time>2021-06-10T09:41:18.000Z</time>
      </trkpt>
      <trkpt lat="47.30347" lon="-2.31019">
        <ele>15.800000190735</ele>
        <time>2021-06-10T09:41:23.000Z</time>
      </trkpt>
      <trkpt lat="47.30313" lon="-2.30975">
        <ele>15.800000190735</ele>
        <time>2021-06-10T09:41:29.000Z</time>
      </trkpt>
      <trkpt lat="47.30301" lon="-2.30957">
        <ele>15.39999961853</ele>
        <time>2021-06-10T09:41:31.000Z</time>
      </trkpt>
      <trkpt lat="47.30295" lon="-2.30948">
        <ele>14.800000190735</ele>
        <time>2021-06-10T09:41:32.000Z</time>
      </trkpt>
      <trkpt lat="47.30289" lon="-2.3094">
        <ele>14.39999961853</ele>
        <time>2021-06-10T09:41:33.000Z</time>
      </trkpt>
      <trkpt lat="47.30283" lon="-2.30931">
        <ele>13.800000190735</ele>
        <time>2021-06-10T09:41:34.000Z</time>
      </trkpt>
      <trkpt lat="47.30277" lon="-2.30923">
        <ele>13.39999961853</ele>
        <time>2021-06-10T09:41:35.000Z</time>
      </trkpt>
      <trkpt lat="47.30264" lon="-2.30905">
        <ele>13.39999961853</ele>
        <time>2021-06-10T09:41:37.000Z</time>
      </trkpt>
      <trkpt lat="47.30251" lon="-2.30888">
        <ele>12.39999961853</ele>
        <time>2021-06-10T09:41:39.000Z</time>
      </trkpt>
      <trkpt lat="47.30244" lon="-2.30879">
        <ele>11.800000190735</ele>
        <time>2021-06-10T09:41:40.000Z</time>
      </trkpt>
      <trkpt lat="47.30238" lon="-2.30871">
        <ele>11.39999961853</ele>
        <time>2021-06-10T09:41:41.000Z</time>
      </trkpt>
      <trkpt lat="47.30231" lon="-2.30864">
        <ele>11</ele>
        <time>2021-06-10T09:41:42.000Z</time>
      </trkpt>
      <trkpt lat="47.30224" lon="-2.30858">
        <ele>11</ele>
        <time>2021-06-10T09:41:43.000Z</time>
      </trkpt>
      <trkpt lat="47.30218" lon="-2.30852">
        <ele>10.39999961853</ele>
        <time>2021-06-10T09:41:44.000Z</time>
      </trkpt>
      <trkpt lat="47.30213" lon="-2.30846">
        <ele>10</ele>
        <time>2021-06-10T09:41:45.000Z</time>
      </trkpt>
      <trkpt lat="47.30208" lon="-2.30842">
        <ele>9.6000003814697</ele>
        <time>2021-06-10T09:41:46.000Z</time>
      </trkpt>
      <trkpt lat="47.30204" lon="-2.30837">
        <ele>9.1999998092651</ele>
        <time>2021-06-10T09:41:47.000Z</time>
      </trkpt>
      <trkpt lat="47.30199" lon="-2.30831">
        <ele>8.8000001907349</ele>
        <time>2021-06-10T09:41:48.000Z</time>
      </trkpt>
      <trkpt lat="47.30186" lon="-2.30817">
        <ele>8.1999998092651</ele>
        <time>2021-06-10T09:41:51.000Z</time>
      </trkpt>
      <trkpt lat="47.30182" lon="-2.30812">
        <ele>7.8000001907349</ele>
        <time>2021-06-10T09:41:52.000Z</time>
      </trkpt>
      <trkpt lat="47.30177" lon="-2.30806">
        <ele>7.4000000953674</ele>
        <time>2021-06-10T09:41:53.000Z</time>
      </trkpt>
      <trkpt lat="47.30174" lon="-2.30802">
        <ele>7</ele>
        <time>2021-06-10T09:41:54.000Z</time>
      </trkpt>
      <trkpt lat="47.3017" lon="-2.30799">
        <ele>6.5999999046326</ele>
        <time>2021-06-10T09:41:55.000Z</time>
      </trkpt>
      <trkpt lat="47.30163" lon="-2.30794">
        <ele>6.5999999046326</ele>
        <time>2021-06-10T09:41:58.000Z</time>
      </trkpt>
      <trkpt lat="47.30161" lon="-2.30792">
        <ele>6.5999999046326</ele>
        <time>2021-06-10T09:42:02.000Z</time>
      </trkpt>
      <trkpt lat="47.30162" lon="-2.30783">
        <ele>4.5999999046326</ele>
        <time>2021-06-10T09:42:32.000Z</time>
      </trkpt>
      <trkpt lat="47.30164" lon="-2.30763">
        <ele>4.5999999046326</ele>
        <time>2021-06-10T09:42:37.000Z</time>
      </trkpt>
      <trkpt lat="47.30167" lon="-2.30734">
        <ele>4.5999999046326</ele>
        <time>2021-06-10T09:42:42.000Z</time>
      </trkpt>
      <trkpt lat="47.30168" lon="-2.30721">
        <ele>4.5999999046326</ele>
        <time>2021-06-10T09:42:44.000Z</time>
      </trkpt>
      <trkpt lat="47.30166" lon="-2.30708">
        <ele>4.5999999046326</ele>
        <time>2021-06-10T09:42:46.000Z</time>
      </trkpt>
      <trkpt lat="47.30166" lon="-2.30701">
        <ele>4.5999999046326</ele>
        <time>2021-06-10T09:42:47.000Z</time>
      </trkpt>
      <trkpt lat="47.30162" lon="-2.30661">
        <ele>4.5999999046326</ele>
        <time>2021-06-10T09:42:54.000Z</time>
      </trkpt>
      <trkpt lat="47.30164" lon="-2.30628">
        <ele>4.5999999046326</ele>
        <time>2021-06-10T09:43:00.000Z</time>
      </trkpt>
      <trkpt lat="47.30166" lon="-2.30622">
        <ele>4.5999999046326</ele>
        <time>2021-06-10T09:43:01.000Z</time>
      </trkpt>
      <trkpt lat="47.30168" lon="-2.30615">
        <ele>5</ele>
        <time>2021-06-10T09:43:02.000Z</time>
      </trkpt>
      <trkpt lat="47.30169" lon="-2.30608">
        <ele>5.4000000953674</ele>
        <time>2021-06-10T09:43:03.000Z</time>
      </trkpt>
      <trkpt lat="47.3017" lon="-2.30602">
        <ele>5.8000001907349</ele>
        <time>2021-06-10T09:43:04.000Z</time>
      </trkpt>
      <trkpt lat="47.30173" lon="-2.30597">
        <ele>6.1999998092651</ele>
        <time>2021-06-10T09:43:05.000Z</time>
      </trkpt>
      <trkpt lat="47.30176" lon="-2.30592">
        <ele>6.5999999046326</ele>
        <time>2021-06-10T09:43:06.000Z</time>
      </trkpt>
      <trkpt lat="47.30181" lon="-2.30588">
        <ele>6.5999999046326</ele>
        <time>2021-06-10T09:43:07.000Z</time>
      </trkpt>
      <trkpt lat="47.30197" lon="-2.30583">
        <ele>6.5999999046326</ele>
        <time>2021-06-10T09:43:10.000Z</time>
      </trkpt>
      <trkpt lat="47.30214" lon="-2.30579">
        <ele>6.5999999046326</ele>
        <time>2021-06-10T09:43:13.000Z</time>
      </trkpt>
      <trkpt lat="47.30224" lon="-2.30572">
        <ele>6.5999999046326</ele>
        <time>2021-06-10T09:43:15.000Z</time>
      </trkpt>
      <trkpt lat="47.30228" lon="-2.30555">
        <ele>6.5999999046326</ele>
        <time>2021-06-10T09:43:17.000Z</time>
      </trkpt>
      <trkpt lat="47.30222" lon="-2.30534">
        <ele>6.5999999046326</ele>
        <time>2021-06-10T09:43:20.000Z</time>
      </trkpt>
      <trkpt lat="47.30208" lon="-2.3052">
        <ele>6.5999999046326</ele>
        <time>2021-06-10T09:43:23.000Z</time>
      </trkpt>
      <trkpt lat="47.30204" lon="-2.30516">
        <ele>6.5999999046326</ele>
        <time>2021-06-10T09:43:24.000Z</time>
      </trkpt>
      <trkpt lat="47.30173" lon="-2.30486">
        <ele>6.5999999046326</ele>
        <time>2021-06-10T09:43:31.000Z</time>
      </trkpt>
      <trkpt lat="47.30157" lon="-2.30463">
        <ele>6.5999999046326</ele>
        <time>2021-06-10T09:43:35.000Z</time>
      </trkpt>
      <trkpt lat="47.30154" lon="-2.30456">
        <ele>6.5999999046326</ele>
        <time>2021-06-10T09:43:36.000Z</time>
      </trkpt>
      <trkpt lat="47.30133" lon="-2.30396">
        <ele>6.5999999046326</ele>
        <time>2021-06-10T09:43:44.000Z</time>
      </trkpt>
      <trkpt lat="47.30116" lon="-2.3034">
        <ele>6.5999999046326</ele>
        <time>2021-06-10T09:43:51.000Z</time>
      </trkpt>
      <trkpt lat="47.30104" lon="-2.3029">
        <ele>6.5999999046326</ele>
        <time>2021-06-10T09:43:57.000Z</time>
      </trkpt>
      <trkpt lat="47.30104" lon="-2.30281">
        <ele>6.5999999046326</ele>
        <time>2021-06-10T09:43:58.000Z</time>
      </trkpt>
      <trkpt lat="47.30116" lon="-2.30262">
        <ele>6.5999999046326</ele>
        <time>2021-06-10T09:44:01.000Z</time>
      </trkpt>
      <trkpt lat="47.30133" lon="-2.30259">
        <ele>6.5999999046326</ele>
        <time>2021-06-10T09:44:04.000Z</time>
      </trkpt>
      <trkpt lat="47.30175" lon="-2.30244">
        <ele>6.5999999046326</ele>
        <time>2021-06-10T09:44:11.000Z</time>
      </trkpt>
      <trkpt lat="47.30188" lon="-2.30238">
        <ele>6.5999999046326</ele>
        <time>2021-06-10T09:44:13.000Z</time>
      </trkpt>
      <trkpt lat="47.30199" lon="-2.30229">
        <ele>6.5999999046326</ele>
        <time>2021-06-10T09:44:15.000Z</time>
      </trkpt>
      <trkpt lat="47.30203" lon="-2.30224">
        <ele>6.5999999046326</ele>
        <time>2021-06-10T09:44:16.000Z</time>
      </trkpt>
      <trkpt lat="47.30206" lon="-2.30219">
        <ele>6.5999999046326</ele>
        <time>2021-06-10T09:44:17.000Z</time>
      </trkpt>
      <trkpt lat="47.30207" lon="-2.30209">
        <ele>6.5999999046326</ele>
        <time>2021-06-10T09:44:19.000Z</time>
      </trkpt>
      <trkpt lat="47.30201" lon="-2.30195">
        <ele>6.5999999046326</ele>
        <time>2021-06-10T09:44:22.000Z</time>
      </trkpt>
      <trkpt lat="47.30199" lon="-2.30189">
        <ele>6.5999999046326</ele>
        <time>2021-06-10T09:44:23.000Z</time>
      </trkpt>
      <trkpt lat="47.30188" lon="-2.30161">
        <ele>6.5999999046326</ele>
        <time>2021-06-10T09:44:27.000Z</time>
      </trkpt>
      <trkpt lat="47.30172" lon="-2.3012">
        <ele>6.5999999046326</ele>
        <time>2021-06-10T09:44:33.000Z</time>
      </trkpt>
      <trkpt lat="47.30158" lon="-2.30082">
        <ele>6.5999999046326</ele>
        <time>2021-06-10T09:44:38.000Z</time>
      </trkpt>
      <trkpt lat="47.30152" lon="-2.3007">
        <ele>6.5999999046326</ele>
        <time>2021-06-10T09:44:40.000Z</time>
      </trkpt>
      <trkpt lat="47.30131" lon="-2.30023">
        <ele>6.5999999046326</ele>
        <time>2021-06-10T09:44:47.000Z</time>
      </trkpt>
      <trkpt lat="47.30128" lon="-2.30018">
        <ele>6.1999998092651</ele>
        <time>2021-06-10T09:44:48.000Z</time>
      </trkpt>
      <trkpt lat="47.30124" lon="-2.30015">
        <ele>5.8000001907349</ele>
        <time>2021-06-10T09:44:49.000Z</time>
      </trkpt>
      <trkpt lat="47.30122" lon="-2.30011">
        <ele>5.1999998092651</ele>
        <time>2021-06-10T09:44:50.000Z</time>
      </trkpt>
      <trkpt lat="47.3012" lon="-2.30007">
        <ele>4.8000001907349</ele>
        <time>2021-06-10T09:44:51.000Z</time>
      </trkpt>
      <trkpt lat="47.30118" lon="-2.30004">
        <ele>4.4000000953674</ele>
        <time>2021-06-10T09:44:52.000Z</time>
      </trkpt>
      <trkpt lat="47.30113" lon="-2.30002">
        <ele>4.4000000953674</ele>
        <time>2021-06-10T09:44:54.000Z</time>
      </trkpt>
      <trkpt lat="47.3011" lon="-2.3">
        <ele>4.4000000953674</ele>
        <time>2021-06-10T09:44:55.000Z</time>
      </trkpt>
      <trkpt lat="47.30108" lon="-2.29997">
        <ele>4.4000000953674</ele>
        <time>2021-06-10T09:44:56.000Z</time>
      </trkpt>
      <trkpt lat="47.30104" lon="-2.29988">
        <ele>4.4000000953674</ele>
        <time>2021-06-10T09:44:59.000Z</time>
      </trkpt>
      <trkpt lat="47.30101" lon="-2.29978">
        <ele>4.4000000953674</ele>
        <time>2021-06-10T09:45:02.000Z</time>
      </trkpt>
      <trkpt lat="47.301" lon="-2.29971">
        <ele>4.4000000953674</ele>
        <time>2021-06-10T09:45:04.000Z</time>
      </trkpt>
      <trkpt lat="47.30097" lon="-2.29953">
        <ele>4.4000000953674</ele>
        <time>2021-06-10T09:45:09.000Z</time>
      </trkpt>
      <trkpt lat="47.30095" lon="-2.29935">
        <ele>4.4000000953674</ele>
        <time>2021-06-10T09:45:13.000Z</time>
      </trkpt>
      <trkpt lat="47.30097" lon="-2.29922">
        <ele>4.4000000953674</ele>
        <time>2021-06-10T09:45:16.000Z</time>
      </trkpt>
      <trkpt lat="47.30099" lon="-2.2992">
        <ele>4.4000000953674</ele>
        <time>2021-06-10T09:45:17.000Z</time>
      </trkpt>
      <trkpt lat="47.30111" lon="-2.29903">
        <ele>4.4000000953674</ele>
        <time>2021-06-10T09:45:22.000Z</time>
      </trkpt>
      <trkpt lat="47.30132" lon="-2.29882">
        <ele>4.4000000953674</ele>
        <time>2021-06-10T09:45:29.000Z</time>
      </trkpt>
      <trkpt lat="47.30146" lon="-2.29868">
        <ele>4.4000000953674</ele>
        <time>2021-06-10T09:45:34.000Z</time>
      </trkpt>
      <trkpt lat="47.30163" lon="-2.29842">
        <ele>4.4000000953674</ele>
        <time>2021-06-10T09:45:41.000Z</time>
      </trkpt>
      <trkpt lat="47.30172" lon="-2.29831">
        <ele>4.4000000953674</ele>
        <time>2021-06-10T09:45:47.000Z</time>
      </trkpt>
      <trkpt lat="47.30186" lon="-2.29812">
        <ele>4.4000000953674</ele>
        <time>2021-06-10T09:45:53.000Z</time>
      </trkpt>
      <trkpt lat="47.30202" lon="-2.2979">
        <ele>4.4000000953674</ele>
        <time>2021-06-10T09:45:59.000Z</time>
      </trkpt>
      <trkpt lat="47.30217" lon="-2.29765">
        <ele>4.4000000953674</ele>
        <time>2021-06-10T09:46:05.000Z</time>
      </trkpt>
      <trkpt lat="47.30232" lon="-2.29742">
        <ele>4.4000000953674</ele>
        <time>2021-06-10T09:46:12.000Z</time>
      </trkpt>
      <trkpt lat="47.30243" lon="-2.29722">
        <ele>4.4000000953674</ele>
        <time>2021-06-10T09:46:19.000Z</time>
      </trkpt>
      <trkpt lat="47.30243" lon="-2.29719">
        <ele>4.4000000953674</ele>
        <time>2021-06-10T09:46:20.000Z</time>
      </trkpt>
      <trkpt lat="47.3024" lon="-2.29715">
        <ele>4.4000000953674</ele>
        <time>2021-06-10T09:46:22.000Z</time>
      </trkpt>
      <trkpt lat="47.30235" lon="-2.29711">
        <ele>4.4000000953674</ele>
        <time>2021-06-10T09:46:24.000Z</time>
      </trkpt>
      <trkpt lat="47.30226" lon="-2.29705">
        <ele>4.4000000953674</ele>
        <time>2021-06-10T09:46:26.000Z</time>
      </trkpt>
      <trkpt lat="47.30202" lon="-2.2969">
        <ele>4.4000000953674</ele>
        <time>2021-06-10T09:46:31.000Z</time>
      </trkpt>
      <trkpt lat="47.30173" lon="-2.29677">
        <ele>4.4000000953674</ele>
        <time>2021-06-10T09:46:37.000Z</time>
      </trkpt>
      <trkpt lat="47.30141" lon="-2.2966">
        <ele>4.4000000953674</ele>
        <time>2021-06-10T09:46:44.000Z</time>
      </trkpt>
      <trkpt lat="47.30112" lon="-2.29655">
        <ele>4.4000000953674</ele>
        <time>2021-06-10T09:46:50.000Z</time>
      </trkpt>
      <trkpt lat="47.30086" lon="-2.29648">
        <ele>4.4000000953674</ele>
        <time>2021-06-10T09:46:56.000Z</time>
      </trkpt>
      <trkpt lat="47.30064" lon="-2.29641">
        <ele>4.4000000953674</ele>
        <time>2021-06-10T09:47:03.000Z</time>
      </trkpt>
      <trkpt lat="47.30041" lon="-2.29635">
        <ele>4.4000000953674</ele>
        <time>2021-06-10T09:47:10.000Z</time>
      </trkpt>
      <trkpt lat="47.30018" lon="-2.29636">
        <ele>4.4000000953674</ele>
        <time>2021-06-10T09:47:16.000Z</time>
      </trkpt>
      <trkpt lat="47.2999" lon="-2.29637">
        <ele>4.4000000953674</ele>
        <time>2021-06-10T09:47:24.000Z</time>
      </trkpt>
      <trkpt lat="47.2997" lon="-2.2964">
        <ele>4.4000000953674</ele>
        <time>2021-06-10T09:47:29.000Z</time>
      </trkpt>
      <trkpt lat="47.29966" lon="-2.2964">
        <ele>4.4000000953674</ele>
        <time>2021-06-10T09:47:30.000Z</time>
      </trkpt>
      <trkpt lat="47.2994" lon="-2.29647">
        <ele>4.4000000953674</ele>
        <time>2021-06-10T09:47:36.000Z</time>
      </trkpt>
      <trkpt lat="47.29933" lon="-2.29653">
        <ele>4.8000001907349</ele>
        <time>2021-06-10T09:47:38.000Z</time>
      </trkpt>
      <trkpt lat="47.2993" lon="-2.29656">
        <ele>5.1999998092651</ele>
        <time>2021-06-10T09:47:39.000Z</time>
      </trkpt>
      <trkpt lat="47.29927" lon="-2.29659">
        <ele>5.5999999046326</ele>
        <time>2021-06-10T09:47:40.000Z</time>
      </trkpt>
      <trkpt lat="47.29924" lon="-2.29661">
        <ele>6</ele>
        <time>2021-06-10T09:47:41.000Z</time>
      </trkpt>
      <trkpt lat="47.2992" lon="-2.29664">
        <ele>6.4000000953674</ele>
        <time>2021-06-10T09:47:42.000Z</time>
      </trkpt>
      <trkpt lat="47.29915" lon="-2.29675">
        <ele>6.4000000953674</ele>
        <time>2021-06-10T09:47:45.000Z</time>
      </trkpt>
      <trkpt lat="47.29916" lon="-2.29681">
        <ele>6.4000000953674</ele>
        <time>2021-06-10T09:47:46.000Z</time>
      </trkpt>
      <trkpt lat="47.29923" lon="-2.29704">
        <ele>6.4000000953674</ele>
        <time>2021-06-10T09:47:50.000Z</time>
      </trkpt>
      <trkpt lat="47.29928" lon="-2.29716">
        <ele>6.4000000953674</ele>
        <time>2021-06-10T09:47:52.000Z</time>
      </trkpt>
      <trkpt lat="47.29937" lon="-2.29742">
        <ele>6.4000000953674</ele>
        <time>2021-06-10T09:47:56.000Z</time>
      </trkpt>
      <trkpt lat="47.29943" lon="-2.29753">
        <ele>6.4000000953674</ele>
        <time>2021-06-10T09:47:58.000Z</time>
      </trkpt>
      <trkpt lat="47.29946" lon="-2.29764">
        <ele>6.4000000953674</ele>
        <time>2021-06-10T09:48:00.000Z</time>
      </trkpt>
      <trkpt lat="47.29948" lon="-2.29769">
        <ele>6.4000000953674</ele>
        <time>2021-06-10T09:48:01.000Z</time>
      </trkpt>
      <trkpt lat="47.29952" lon="-2.29796">
        <ele>6.4000000953674</ele>
        <time>2021-06-10T09:48:06.000Z</time>
      </trkpt>
      <trkpt lat="47.2995" lon="-2.298">
        <ele>6.4000000953674</ele>
        <time>2021-06-10T09:48:07.000Z</time>
      </trkpt>
      <trkpt lat="47.2994" lon="-2.29813">
        <ele>6.4000000953674</ele>
        <time>2021-06-10T09:48:11.000Z</time>
      </trkpt>
      <trkpt lat="47.29934" lon="-2.29817">
        <ele>6.4000000953674</ele>
        <time>2021-06-10T09:48:13.000Z</time>
      </trkpt>
      <trkpt lat="47.29925" lon="-2.29822">
        <ele>6.4000000953674</ele>
        <time>2021-06-10T09:48:16.000Z</time>
      </trkpt>
      <trkpt lat="47.29905" lon="-2.29838">
        <ele>6.4000000953674</ele>
        <time>2021-06-10T09:48:22.000Z</time>
      </trkpt>
      <trkpt lat="47.29903" lon="-2.29858">
        <ele>6.4000000953674</ele>
        <time>2021-06-10T09:48:25.000Z</time>
      </trkpt>
      <trkpt lat="47.29906" lon="-2.29881">
        <ele>6.4000000953674</ele>
        <time>2021-06-10T09:48:28.000Z</time>
      </trkpt>
      <trkpt lat="47.29908" lon="-2.29897">
        <ele>6.4000000953674</ele>
        <time>2021-06-10T09:48:30.000Z</time>
      </trkpt>
      <trkpt lat="47.29908" lon="-2.29925">
        <ele>6.4000000953674</ele>
        <time>2021-06-10T09:48:33.000Z</time>
      </trkpt>
      <trkpt lat="47.29901" lon="-2.29936">
        <ele>6.4000000953674</ele>
        <time>2021-06-10T09:48:35.000Z</time>
      </trkpt>
      <trkpt lat="47.29883" lon="-2.29941">
        <ele>6.4000000953674</ele>
        <time>2021-06-10T09:48:38.000Z</time>
      </trkpt>
      <trkpt lat="47.29844" lon="-2.29952">
        <ele>6.4000000953674</ele>
        <time>2021-06-10T09:48:45.000Z</time>
      </trkpt>
      <trkpt lat="47.29826" lon="-2.29954">
        <ele>6.4000000953674</ele>
        <time>2021-06-10T09:48:48.000Z</time>
      </trkpt>
      <trkpt lat="47.29814" lon="-2.29953">
        <ele>6.4000000953674</ele>
        <time>2021-06-10T09:48:50.000Z</time>
      </trkpt>
      <trkpt lat="47.2978" lon="-2.29955">
        <ele>6.4000000953674</ele>
        <time>2021-06-10T09:48:56.000Z</time>
      </trkpt>
      <trkpt lat="47.29776" lon="-2.29958">
        <ele>6.4000000953674</ele>
        <time>2021-06-10T09:48:57.000Z</time>
      </trkpt>
      <trkpt lat="47.29744" lon="-2.29984">
        <ele>6.4000000953674</ele>
        <time>2021-06-10T09:49:03.000Z</time>
      </trkpt>
      <trkpt lat="47.29707" lon="-2.3">
        <ele>6.4000000953674</ele>
        <time>2021-06-10T09:49:09.000Z</time>
      </trkpt>
      <trkpt lat="47.29669" lon="-2.29999">
        <ele>6.4000000953674</ele>
        <time>2021-06-10T09:49:15.000Z</time>
      </trkpt>
      <trkpt lat="47.29663" lon="-2.29997">
        <ele>6.4000000953674</ele>
        <time>2021-06-10T09:49:16.000Z</time>
      </trkpt>
      <trkpt lat="47.29649" lon="-2.29985">
        <ele>6.4000000953674</ele>
        <time>2021-06-10T09:49:19.000Z</time>
      </trkpt>
      <trkpt lat="47.29645" lon="-2.29983">
        <ele>6.4000000953674</ele>
        <time>2021-06-10T09:49:20.000Z</time>
      </trkpt>
      <trkpt lat="47.29634" lon="-2.29988">
        <ele>6.4000000953674</ele>
        <time>2021-06-10T09:49:22.000Z</time>
      </trkpt>
      <trkpt lat="47.2961" lon="-2.3">
        <ele>6.4000000953674</ele>
        <time>2021-06-10T09:49:26.000Z</time>
      </trkpt>
      <trkpt lat="47.2956" lon="-2.30018">
        <ele>6.4000000953674</ele>
        <time>2021-06-10T09:49:33.000Z</time>
      </trkpt>
      <trkpt lat="47.29527" lon="-2.3003">
        <ele>6.4000000953674</ele>
        <time>2021-06-10T09:49:38.000Z</time>
      </trkpt>
      <trkpt lat="47.29522" lon="-2.3003">
        <ele>6.4000000953674</ele>
        <time>2021-06-10T09:49:39.000Z</time>
      </trkpt>
      <trkpt lat="47.29506" lon="-2.30026">
        <ele>6.4000000953674</ele>
        <time>2021-06-10T09:49:42.000Z</time>
      </trkpt>
      <trkpt lat="47.295" lon="-2.30027">
        <ele>6.4000000953674</ele>
        <time>2021-06-10T09:49:43.000Z</time>
      </trkpt>
      <trkpt lat="47.29465" lon="-2.30029">
        <ele>6.4000000953674</ele>
        <time>2021-06-10T09:49:49.000Z</time>
      </trkpt>
      <trkpt lat="47.29416" lon="-2.30029">
        <ele>6.8000001907349</ele>
        <time>2021-06-10T09:49:57.000Z</time>
      </trkpt>
      <trkpt lat="47.2941" lon="-2.30029">
        <ele>7.4000000953674</ele>
        <time>2021-06-10T09:49:58.000Z</time>
      </trkpt>
      <trkpt lat="47.29405" lon="-2.30027">
        <ele>7.8000001907349</ele>
        <time>2021-06-10T09:49:59.000Z</time>
      </trkpt>
      <trkpt lat="47.294" lon="-2.30026">
        <ele>8.1999998092651</ele>
        <time>2021-06-10T09:50:00.000Z</time>
      </trkpt>
      <trkpt lat="47.29395" lon="-2.30024">
        <ele>8.6000003814697</ele>
        <time>2021-06-10T09:50:01.000Z</time>
      </trkpt>
      <trkpt lat="47.2939" lon="-2.30023">
        <ele>8.6000003814697</ele>
        <time>2021-06-10T09:50:02.000Z</time>
      </trkpt>
      <trkpt lat="47.29375" lon="-2.30018">
        <ele>8.6000003814697</ele>
        <time>2021-06-10T09:50:05.000Z</time>
      </trkpt>
      <trkpt lat="47.29366" lon="-2.30012">
        <ele>8.6000003814697</ele>
        <time>2021-06-10T09:50:07.000Z</time>
      </trkpt>
      <trkpt lat="47.29349" lon="-2.30005">
        <ele>8.6000003814697</ele>
        <time>2021-06-10T09:50:12.000Z</time>
      </trkpt>
      <trkpt lat="47.29345" lon="-2.30006">
        <ele>8.6000003814697</ele>
        <time>2021-06-10T09:50:14.000Z</time>
      </trkpt>
      <trkpt lat="47.29345" lon="-2.30012">
        <ele>8.6000003814697</ele>
        <time>2021-06-10T09:50:16.000Z</time>
      </trkpt>
      <trkpt lat="47.29343" lon="-2.3003">
        <ele>8.6000003814697</ele>
        <time>2021-06-10T09:50:19.000Z</time>
      </trkpt>
      <trkpt lat="47.29343" lon="-2.30037">
        <ele>8.6000003814697</ele>
        <time>2021-06-10T09:50:20.000Z</time>
      </trkpt>
      <trkpt lat="47.29339" lon="-2.30086">
        <ele>8.6000003814697</ele>
        <time>2021-06-10T09:50:27.000Z</time>
      </trkpt>
      <trkpt lat="47.29334" lon="-2.30114">
        <ele>8.6000003814697</ele>
        <time>2021-06-10T09:50:31.000Z</time>
      </trkpt>
      <trkpt lat="47.29331" lon="-2.30119">
        <ele>8.6000003814697</ele>
        <time>2021-06-10T09:50:33.000Z</time>
      </trkpt>
      <trkpt lat="47.2933" lon="-2.3012">
        <ele>8.6000003814697</ele>
        <time>2021-06-10T09:50:36.000Z</time>
      </trkpt>
      <trkpt lat="47.29328" lon="-2.30122">
        <ele>8.6000003814697</ele>
        <time>2021-06-10T09:52:32.000Z</time>
      </trkpt>
      <trkpt lat="47.29327" lon="-2.30124">
        <ele>8.6000003814697</ele>
        <time>2021-06-10T09:52:33.000Z</time>
      </trkpt>
      <trkpt lat="47.29322" lon="-2.30139">
        <ele>8.6000003814697</ele>
        <time>2021-06-10T09:52:37.000Z</time>
      </trkpt>
      <trkpt lat="47.29313" lon="-2.30172">
        <ele>8.6000003814697</ele>
        <time>2021-06-10T09:52:43.000Z</time>
      </trkpt>
      <trkpt lat="47.29308" lon="-2.30192">
        <ele>8.6000003814697</ele>
        <time>2021-06-10T09:52:46.000Z</time>
      </trkpt>
      <trkpt lat="47.29302" lon="-2.30214">
        <ele>8.6000003814697</ele>
        <time>2021-06-10T09:52:49.000Z</time>
      </trkpt>
      <trkpt lat="47.29287" lon="-2.30254">
        <ele>8.6000003814697</ele>
        <time>2021-06-10T09:52:55.000Z</time>
      </trkpt>
      <trkpt lat="47.29264" lon="-2.303">
        <ele>8.6000003814697</ele>
        <time>2021-06-10T09:53:02.000Z</time>
      </trkpt>
      <trkpt lat="47.29243" lon="-2.30345">
        <ele>8.6000003814697</ele>
        <time>2021-06-10T09:53:08.000Z</time>
      </trkpt>
      <trkpt lat="47.29211" lon="-2.30412">
        <ele>8.6000003814697</ele>
        <time>2021-06-10T09:53:18.000Z</time>
      </trkpt>
      <trkpt lat="47.29191" lon="-2.30457">
        <ele>8.6000003814697</ele>
        <time>2021-06-10T09:53:25.000Z</time>
      </trkpt>
      <trkpt lat="47.29188" lon="-2.30463">
        <ele>8.6000003814697</ele>
        <time>2021-06-10T09:53:26.000Z</time>
      </trkpt>
      <trkpt lat="47.29178" lon="-2.30485">
        <ele>8.6000003814697</ele>
        <time>2021-06-10T09:53:30.000Z</time>
      </trkpt>
      <trkpt lat="47.29178" lon="-2.305">
        <ele>8.6000003814697</ele>
        <time>2021-06-10T09:53:33.000Z</time>
      </trkpt>
      <trkpt lat="47.29185" lon="-2.30505">
        <ele>8.6000003814697</ele>
        <time>2021-06-10T09:53:36.000Z</time>
      </trkpt>
      <trkpt lat="47.29196" lon="-2.30502">
        <ele>8.6000003814697</ele>
        <time>2021-06-10T09:53:39.000Z</time>
      </trkpt>
      <trkpt lat="47.29222" lon="-2.30492">
        <ele>8.6000003814697</ele>
        <time>2021-06-10T09:53:44.000Z</time>
      </trkpt>
      <trkpt lat="47.29229" lon="-2.3049">
        <ele>8.6000003814697</ele>
        <time>2021-06-10T09:53:45.000Z</time>
      </trkpt>
      <trkpt lat="47.29248" lon="-2.30493">
        <ele>8.6000003814697</ele>
        <time>2021-06-10T09:53:48.000Z</time>
      </trkpt>
      <trkpt lat="47.29284" lon="-2.30506">
        <ele>8.6000003814697</ele>
        <time>2021-06-10T09:53:54.000Z</time>
      </trkpt>
      <trkpt lat="47.29327" lon="-2.30532">
        <ele>8.6000003814697</ele>
        <time>2021-06-10T09:54:02.000Z</time>
      </trkpt>
      <trkpt lat="47.2936" lon="-2.30552">
        <ele>8.6000003814697</ele>
        <time>2021-06-10T09:54:09.000Z</time>
      </trkpt>
      <trkpt lat="47.29375" lon="-2.3056">
        <ele>9</ele>
        <time>2021-06-10T09:54:12.000Z</time>
      </trkpt>
      <trkpt lat="47.2938" lon="-2.30563">
        <ele>9.3999996185303</ele>
        <time>2021-06-10T09:54:13.000Z</time>
      </trkpt>
      <trkpt lat="47.29384" lon="-2.30566">
        <ele>10</ele>
        <time>2021-06-10T09:54:14.000Z</time>
      </trkpt>
      <trkpt lat="47.29389" lon="-2.30568">
        <ele>10.39999961853</ele>
        <time>2021-06-10T09:54:15.000Z</time>
      </trkpt>
      <trkpt lat="47.29393" lon="-2.30571">
        <ele>10.800000190735</ele>
        <time>2021-06-10T09:54:16.000Z</time>
      </trkpt>
      <trkpt lat="47.29417" lon="-2.3058">
        <ele>11.199999809265</ele>
        <time>2021-06-10T09:54:21.000Z</time>
      </trkpt>
      <trkpt lat="47.29423" lon="-2.3058">
        <ele>11.60000038147</ele>
        <time>2021-06-10T09:54:22.000Z</time>
      </trkpt>
      <trkpt lat="47.29428" lon="-2.30581">
        <ele>12</ele>
        <time>2021-06-10T09:54:23.000Z</time>
      </trkpt>
      <trkpt lat="47.29433" lon="-2.30581">
        <ele>12.39999961853</ele>
        <time>2021-06-10T09:54:24.000Z</time>
      </trkpt>
      <trkpt lat="47.29439" lon="-2.30581">
        <ele>12.800000190735</ele>
        <time>2021-06-10T09:54:25.000Z</time>
      </trkpt>
      <trkpt lat="47.29455" lon="-2.30579">
        <ele>12.800000190735</ele>
        <time>2021-06-10T09:54:28.000Z</time>
      </trkpt>
      <trkpt lat="47.29467" lon="-2.30576">
        <ele>13.199999809265</ele>
        <time>2021-06-10T09:54:30.000Z</time>
      </trkpt>
      <trkpt lat="47.29473" lon="-2.30574">
        <ele>13.800000190735</ele>
        <time>2021-06-10T09:54:31.000Z</time>
      </trkpt>
      <trkpt lat="47.29479" lon="-2.30574">
        <ele>14.199999809265</ele>
        <time>2021-06-10T09:54:32.000Z</time>
      </trkpt>
      <trkpt lat="47.29485" lon="-2.30573">
        <ele>14.60000038147</ele>
        <time>2021-06-10T09:54:33.000Z</time>
      </trkpt>
      <trkpt lat="47.2949" lon="-2.30572">
        <ele>15</ele>
        <time>2021-06-10T09:54:34.000Z</time>
      </trkpt>
      <trkpt lat="47.29501" lon="-2.30571">
        <ele>15</ele>
        <time>2021-06-10T09:54:36.000Z</time>
      </trkpt>
      <trkpt lat="47.29547" lon="-2.30564">
        <ele>15</ele>
        <time>2021-06-10T09:54:44.000Z</time>
      </trkpt>
      <trkpt lat="47.29593" lon="-2.30557">
        <ele>15</ele>
        <time>2021-06-10T09:54:51.000Z</time>
      </trkpt>
      <trkpt lat="47.29643" lon="-2.30542">
        <ele>15</ele>
        <time>2021-06-10T09:54:59.000Z</time>
      </trkpt>
      <trkpt lat="47.29699" lon="-2.30522">
        <ele>15</ele>
        <time>2021-06-10T09:55:08.000Z</time>
      </trkpt>
      <trkpt lat="47.29705" lon="-2.3052">
        <ele>15</ele>
        <time>2021-06-10T09:55:09.000Z</time>
      </trkpt>
      <trkpt lat="47.29764" lon="-2.30501">
        <ele>15</ele>
        <time>2021-06-10T09:55:18.000Z</time>
      </trkpt>
      <trkpt lat="47.29778" lon="-2.30497">
        <ele>14.60000038147</ele>
        <time>2021-06-10T09:55:20.000Z</time>
      </trkpt>
      <trkpt lat="47.29785" lon="-2.30495">
        <ele>14.199999809265</ele>
        <time>2021-06-10T09:55:21.000Z</time>
      </trkpt>
      <trkpt lat="47.29793" lon="-2.30493">
        <ele>13.800000190735</ele>
        <time>2021-06-10T09:55:22.000Z</time>
      </trkpt>
      <trkpt lat="47.298" lon="-2.30491">
        <ele>13.199999809265</ele>
        <time>2021-06-10T09:55:23.000Z</time>
      </trkpt>
      <trkpt lat="47.29807" lon="-2.3049">
        <ele>12.800000190735</ele>
        <time>2021-06-10T09:55:24.000Z</time>
      </trkpt>
      <trkpt lat="47.29814" lon="-2.30488">
        <ele>12.800000190735</ele>
        <time>2021-06-10T09:55:25.000Z</time>
      </trkpt>
      <trkpt lat="47.29842" lon="-2.30482">
        <ele>12.39999961853</ele>
        <time>2021-06-10T09:55:29.000Z</time>
      </trkpt>
      <trkpt lat="47.29849" lon="-2.3048">
        <ele>12</ele>
        <time>2021-06-10T09:55:30.000Z</time>
      </trkpt>
      <trkpt lat="47.29856" lon="-2.30478">
        <ele>11.60000038147</ele>
        <time>2021-06-10T09:55:31.000Z</time>
      </trkpt>
      <trkpt lat="47.29863" lon="-2.30477">
        <ele>11.199999809265</ele>
        <time>2021-06-10T09:55:32.000Z</time>
      </trkpt>
      <trkpt lat="47.2987" lon="-2.30476">
        <ele>10.800000190735</ele>
        <time>2021-06-10T09:55:33.000Z</time>
      </trkpt>
      <trkpt lat="47.29899" lon="-2.30479">
        <ele>10.800000190735</ele>
        <time>2021-06-10T09:55:37.000Z</time>
      </trkpt>
      <trkpt lat="47.29934" lon="-2.30497">
        <ele>10.39999961853</ele>
        <time>2021-06-10T09:55:42.000Z</time>
      </trkpt>
      <trkpt lat="47.29941" lon="-2.30501">
        <ele>10</ele>
        <time>2021-06-10T09:55:43.000Z</time>
      </trkpt>
      <trkpt lat="47.29948" lon="-2.30505">
        <ele>9.6000003814697</ele>
        <time>2021-06-10T09:55:44.000Z</time>
      </trkpt>
      <trkpt lat="47.29956" lon="-2.3051">
        <ele>9.1999998092651</ele>
        <time>2021-06-10T09:55:45.000Z</time>
      </trkpt>
      <trkpt lat="47.29963" lon="-2.30514">
        <ele>8.6000003814697</ele>
        <time>2021-06-10T09:55:46.000Z</time>
      </trkpt>
      <trkpt lat="47.29999" lon="-2.30533">
        <ele>8.6000003814697</ele>
        <time>2021-06-10T09:55:51.000Z</time>
      </trkpt>
      <trkpt lat="47.30037" lon="-2.30539">
        <ele>8.1999998092651</ele>
        <time>2021-06-10T09:55:56.000Z</time>
      </trkpt>
      <trkpt lat="47.30044" lon="-2.30538">
        <ele>7.8000001907349</ele>
        <time>2021-06-10T09:55:57.000Z</time>
      </trkpt>
      <trkpt lat="47.30052" lon="-2.30538">
        <ele>7.4000000953674</ele>
        <time>2021-06-10T09:55:58.000Z</time>
      </trkpt>
      <trkpt lat="47.30058" lon="-2.30538">
        <ele>7</ele>
        <time>2021-06-10T09:55:59.000Z</time>
      </trkpt>
      <trkpt lat="47.30065" lon="-2.30538">
        <ele>6.4000000953674</ele>
        <time>2021-06-10T09:56:00.000Z</time>
      </trkpt>
      <trkpt lat="47.30079" lon="-2.30537">
        <ele>6.4000000953674</ele>
        <time>2021-06-10T09:56:02.000Z</time>
      </trkpt>
      <trkpt lat="47.301" lon="-2.30537">
        <ele>6.4000000953674</ele>
        <time>2021-06-10T09:56:05.000Z</time>
      </trkpt>
      <trkpt lat="47.30113" lon="-2.30543">
        <ele>6.4000000953674</ele>
        <time>2021-06-10T09:56:07.000Z</time>
      </trkpt>
      <trkpt lat="47.30132" lon="-2.30566">
        <ele>6.4000000953674</ele>
        <time>2021-06-10T09:56:11.000Z</time>
      </trkpt>
      <trkpt lat="47.30139" lon="-2.30581">
        <ele>6.4000000953674</ele>
        <time>2021-06-10T09:56:13.000Z</time>
      </trkpt>
      <trkpt lat="47.30148" lon="-2.30605">
        <ele>6.4000000953674</ele>
        <time>2021-06-10T09:56:16.000Z</time>
      </trkpt>
      <trkpt lat="47.30162" lon="-2.30662">
        <ele>6.4000000953674</ele>
        <time>2021-06-10T09:56:23.000Z</time>
      </trkpt>
      <trkpt lat="47.30163" lon="-2.30671">
        <ele>6.4000000953674</ele>
        <time>2021-06-10T09:56:24.000Z</time>
      </trkpt>
      <trkpt lat="47.30171" lon="-2.30718">
        <ele>6.4000000953674</ele>
        <time>2021-06-10T09:56:29.000Z</time>
      </trkpt>
      <trkpt lat="47.30171" lon="-2.30728">
        <ele>6.4000000953674</ele>
        <time>2021-06-10T09:56:30.000Z</time>
      </trkpt>
      <trkpt lat="47.30166" lon="-2.30767">
        <ele>6.4000000953674</ele>
        <time>2021-06-10T09:56:34.000Z</time>
      </trkpt>
      <trkpt lat="47.30164" lon="-2.30777">
        <ele>6</ele>
        <time>2021-06-10T09:56:35.000Z</time>
      </trkpt>
      <trkpt lat="47.30162" lon="-2.30786">
        <ele>5.5999999046326</ele>
        <time>2021-06-10T09:56:36.000Z</time>
      </trkpt>
      <trkpt lat="47.3016" lon="-2.30795">
        <ele>5.1999998092651</ele>
        <time>2021-06-10T09:56:37.000Z</time>
      </trkpt>
      <trkpt lat="47.30157" lon="-2.30804">
        <ele>4.8000001907349</ele>
        <time>2021-06-10T09:56:38.000Z</time>
      </trkpt>
      <trkpt lat="47.30155" lon="-2.30814">
        <ele>4.4000000953674</ele>
        <time>2021-06-10T09:56:39.000Z</time>
      </trkpt>
      <trkpt lat="47.30153" lon="-2.30823">
        <ele>4.4000000953674</ele>
        <time>2021-06-10T09:56:40.000Z</time>
      </trkpt>
      <trkpt lat="47.30136" lon="-2.30886">
        <ele>4.4000000953674</ele>
        <time>2021-06-10T09:56:47.000Z</time>
      </trkpt>
      <trkpt lat="47.30118" lon="-2.30955">
        <ele>4.4000000953674</ele>
        <time>2021-06-10T09:56:55.000Z</time>
      </trkpt>
      <trkpt lat="47.30108" lon="-2.31018">
        <ele>4.4000000953674</ele>
        <time>2021-06-10T09:57:02.000Z</time>
      </trkpt>
      <trkpt lat="47.30094" lon="-2.31088">
        <ele>4.4000000953674</ele>
        <time>2021-06-10T09:57:10.000Z</time>
      </trkpt>
      <trkpt lat="47.30076" lon="-2.31153">
        <ele>4.4000000953674</ele>
        <time>2021-06-10T09:57:18.000Z</time>
      </trkpt>
      <trkpt lat="47.30074" lon="-2.31161">
        <ele>4.8000001907349</ele>
        <time>2021-06-10T09:57:19.000Z</time>
      </trkpt>
      <trkpt lat="47.30072" lon="-2.31169">
        <ele>5.1999998092651</ele>
        <time>2021-06-10T09:57:20.000Z</time>
      </trkpt>
      <trkpt lat="47.3007" lon="-2.31177">
        <ele>5.5999999046326</ele>
        <time>2021-06-10T09:57:21.000Z</time>
      </trkpt>
      <trkpt lat="47.30069" lon="-2.31186">
        <ele>6</ele>
        <time>2021-06-10T09:57:22.000Z</time>
      </trkpt>
      <trkpt lat="47.30067" lon="-2.31194">
        <ele>6.4000000953674</ele>
        <time>2021-06-10T09:57:23.000Z</time>
      </trkpt>
      <trkpt lat="47.30059" lon="-2.31226">
        <ele>6.4000000953674</ele>
        <time>2021-06-10T09:57:27.000Z</time>
      </trkpt>
      <trkpt lat="47.30048" lon="-2.3128">
        <ele>6.4000000953674</ele>
        <time>2021-06-10T09:57:34.000Z</time>
      </trkpt>
      <trkpt lat="47.3004" lon="-2.3133">
        <ele>6.4000000953674</ele>
        <time>2021-06-10T09:57:40.000Z</time>
      </trkpt>
      <trkpt lat="47.30039" lon="-2.31339">
        <ele>6.4000000953674</ele>
        <time>2021-06-10T09:57:41.000Z</time>
      </trkpt>
      <trkpt lat="47.30042" lon="-2.31376">
        <ele>6.4000000953674</ele>
        <time>2021-06-10T09:57:45.000Z</time>
      </trkpt>
      <trkpt lat="47.30043" lon="-2.31384">
        <ele>6.4000000953674</ele>
        <time>2021-06-10T09:57:46.000Z</time>
      </trkpt>
      <trkpt lat="47.30054" lon="-2.31444">
        <ele>6.4000000953674</ele>
        <time>2021-06-10T09:57:53.000Z</time>
      </trkpt>
      <trkpt lat="47.30062" lon="-2.31503">
        <ele>6.4000000953674</ele>
        <time>2021-06-10T09:58:00.000Z</time>
      </trkpt>
      <trkpt lat="47.30069" lon="-2.31565">
        <ele>6.4000000953674</ele>
        <time>2021-06-10T09:58:08.000Z</time>
      </trkpt>
      <trkpt lat="47.3007" lon="-2.31572">
        <ele>6.8000001907349</ele>
        <time>2021-06-10T09:58:09.000Z</time>
      </trkpt>
      <trkpt lat="47.3007" lon="-2.3158">
        <ele>7.1999998092651</ele>
        <time>2021-06-10T09:58:10.000Z</time>
      </trkpt>
      <trkpt lat="47.30071" lon="-2.31588">
        <ele>7.5999999046326</ele>
        <time>2021-06-10T09:58:11.000Z</time>
      </trkpt>
      <trkpt lat="47.30071" lon="-2.31595">
        <ele>8</ele>
        <time>2021-06-10T09:58:12.000Z</time>
      </trkpt>
      <trkpt lat="47.30072" lon="-2.31603">
        <ele>8.3999996185303</ele>
        <time>2021-06-10T09:58:13.000Z</time>
      </trkpt>
      <trkpt lat="47.30073" lon="-2.3161">
        <ele>8.3999996185303</ele>
        <time>2021-06-10T09:58:14.000Z</time>
      </trkpt>
      <trkpt lat="47.30073" lon="-2.31618">
        <ele>8.3999996185303</ele>
        <time>2021-06-10T09:58:15.000Z</time>
      </trkpt>
      <trkpt lat="47.30079" lon="-2.31672">
        <ele>8.3999996185303</ele>
        <time>2021-06-10T09:58:22.000Z</time>
      </trkpt>
      <trkpt lat="47.30083" lon="-2.31715">
        <ele>8.3999996185303</ele>
        <time>2021-06-10T09:58:28.000Z</time>
      </trkpt>
      <trkpt lat="47.30091" lon="-2.31768">
        <ele>8.3999996185303</ele>
        <time>2021-06-10T09:58:35.000Z</time>
      </trkpt>
      <trkpt lat="47.30093" lon="-2.31783">
        <ele>9</ele>
        <time>2021-06-10T09:58:37.000Z</time>
      </trkpt>
      <trkpt lat="47.30095" lon="-2.31791">
        <ele>9.3999996185303</ele>
        <time>2021-06-10T09:58:38.000Z</time>
      </trkpt>
      <trkpt lat="47.30096" lon="-2.31799">
        <ele>9.8000001907349</ele>
        <time>2021-06-10T09:58:39.000Z</time>
      </trkpt>
      <trkpt lat="47.30097" lon="-2.31808">
        <ele>10.199999809265</ele>
        <time>2021-06-10T09:58:40.000Z</time>
      </trkpt>
      <trkpt lat="47.30098" lon="-2.31815">
        <ele>10.60000038147</ele>
        <time>2021-06-10T09:58:41.000Z</time>
      </trkpt>
      <trkpt lat="47.30107" lon="-2.31862">
        <ele>10.60000038147</ele>
        <time>2021-06-10T09:58:47.000Z</time>
      </trkpt>
      <trkpt lat="47.30108" lon="-2.31872">
        <ele>10.60000038147</ele>
        <time>2021-06-10T09:58:48.000Z</time>
      </trkpt>
      <trkpt lat="47.30107" lon="-2.31891">
        <ele>10.60000038147</ele>
        <time>2021-06-10T09:58:50.000Z</time>
      </trkpt>
      <trkpt lat="47.30093" lon="-2.31921">
        <ele>10.60000038147</ele>
        <time>2021-06-10T09:58:54.000Z</time>
      </trkpt>
      <trkpt lat="47.30089" lon="-2.31927">
        <ele>10.60000038147</ele>
        <time>2021-06-10T09:58:55.000Z</time>
      </trkpt>
      <trkpt lat="47.30072" lon="-2.31939">
        <ele>10.60000038147</ele>
        <time>2021-06-10T09:58:58.000Z</time>
      </trkpt>
      <trkpt lat="47.3004" lon="-2.31961">
        <ele>11</ele>
        <time>2021-06-10T09:59:04.000Z</time>
      </trkpt>
      <trkpt lat="47.30035" lon="-2.31964">
        <ele>11.39999961853</ele>
        <time>2021-06-10T09:59:05.000Z</time>
      </trkpt>
      <trkpt lat="47.3003" lon="-2.31967">
        <ele>11.800000190735</ele>
        <time>2021-06-10T09:59:06.000Z</time>
      </trkpt>
      <trkpt lat="47.30025" lon="-2.31969">
        <ele>12.199999809265</ele>
        <time>2021-06-10T09:59:07.000Z</time>
      </trkpt>
      <trkpt lat="47.3002" lon="-2.31972">
        <ele>12.60000038147</ele>
        <time>2021-06-10T09:59:08.000Z</time>
      </trkpt>
      <trkpt lat="47.29998" lon="-2.31982">
        <ele>12.60000038147</ele>
        <time>2021-06-10T09:59:12.000Z</time>
      </trkpt>
      <trkpt lat="47.29989" lon="-2.31988">
        <ele>13.199999809265</ele>
        <time>2021-06-10T09:59:14.000Z</time>
      </trkpt>
      <trkpt lat="47.29984" lon="-2.31991">
        <ele>13.60000038147</ele>
        <time>2021-06-10T09:59:15.000Z</time>
      </trkpt>
      <trkpt lat="47.29979" lon="-2.31993">
        <ele>14</ele>
        <time>2021-06-10T09:59:16.000Z</time>
      </trkpt>
      <trkpt lat="47.29974" lon="-2.31997">
        <ele>14.39999961853</ele>
        <time>2021-06-10T09:59:17.000Z</time>
      </trkpt>
      <trkpt lat="47.2997" lon="-2.32001">
        <ele>14.800000190735</ele>
        <time>2021-06-10T09:59:18.000Z</time>
      </trkpt>
      <trkpt lat="47.29966" lon="-2.32006">
        <ele>14.800000190735</ele>
        <time>2021-06-10T09:59:19.000Z</time>
      </trkpt>
      <trkpt lat="47.29956" lon="-2.32034">
        <ele>14.800000190735</ele>
        <time>2021-06-10T09:59:23.000Z</time>
      </trkpt>
      <trkpt lat="47.29955" lon="-2.32042">
        <ele>15.199999809265</ele>
        <time>2021-06-10T09:59:24.000Z</time>
      </trkpt>
      <trkpt lat="47.29954" lon="-2.32049">
        <ele>15.60000038147</ele>
        <time>2021-06-10T09:59:25.000Z</time>
      </trkpt>
      <trkpt lat="47.29953" lon="-2.32055">
        <ele>16.200000762939</ele>
        <time>2021-06-10T09:59:26.000Z</time>
      </trkpt>
      <trkpt lat="47.2995" lon="-2.3206">
        <ele>16.60000038147</ele>
        <time>2021-06-10T09:59:27.000Z</time>
      </trkpt>
      <trkpt lat="47.29947" lon="-2.32064">
        <ele>17</ele>
        <time>2021-06-10T09:59:28.000Z</time>
      </trkpt>
      <trkpt lat="47.29938" lon="-2.32069">
        <ele>17</ele>
        <time>2021-06-10T09:59:30.000Z</time>
      </trkpt>
      <trkpt lat="47.29934" lon="-2.32072">
        <ele>17.39999961853</ele>
        <time>2021-06-10T09:59:31.000Z</time>
      </trkpt>
      <trkpt lat="47.2993" lon="-2.32074">
        <ele>17.799999237061</ele>
        <time>2021-06-10T09:59:32.000Z</time>
      </trkpt>
      <trkpt lat="47.29925" lon="-2.32076">
        <ele>18.200000762939</ele>
        <time>2021-06-10T09:59:33.000Z</time>
      </trkpt>
      <trkpt lat="47.29921" lon="-2.32077">
        <ele>18.60000038147</ele>
        <time>2021-06-10T09:59:34.000Z</time>
      </trkpt>
      <trkpt lat="47.29918" lon="-2.32077">
        <ele>19</ele>
        <time>2021-06-10T09:59:35.000Z</time>
      </trkpt>
      <trkpt lat="47.29914" lon="-2.32078">
        <ele>19</ele>
        <time>2021-06-10T09:59:36.000Z</time>
      </trkpt>
      <trkpt lat="47.29888" lon="-2.32073">
        <ele>19</ele>
        <time>2021-06-10T09:59:43.000Z</time>
      </trkpt>
      <trkpt lat="47.29876" lon="-2.32064">
        <ele>19</ele>
        <time>2021-06-10T09:59:48.000Z</time>
      </trkpt>
      <trkpt lat="47.29872" lon="-2.32044">
        <ele>19</ele>
        <time>2021-06-10T09:59:52.000Z</time>
      </trkpt>
      <trkpt lat="47.29874" lon="-2.32023">
        <ele>19</ele>
        <time>2021-06-10T09:59:56.000Z</time>
      </trkpt>
      <trkpt lat="47.29875" lon="-2.3202">
        <ele>19</ele>
        <time>2021-06-10T09:59:57.000Z</time>
      </trkpt>
      <trkpt lat="47.29884" lon="-2.32009">
        <ele>19</ele>
        <time>2021-06-10T10:00:03.000Z</time>
      </trkpt>
      <trkpt lat="47.29893" lon="-2.31999">
        <ele>19</ele>
        <time>2021-06-10T10:00:10.000Z</time>
      </trkpt>
      <trkpt lat="47.29894" lon="-2.31999">
        <ele>19</ele>
        <time>2021-06-10T10:00:11.000Z</time>
      </trkpt>
      <trkpt lat="47.29898" lon="-2.32">
        <ele>25</ele>
        <time>2021-06-10T10:55:33.000Z</time>
      </trkpt>
      <trkpt lat="47.29896" lon="-2.32003">
        <ele>25</ele>
        <time>2021-06-10T10:55:35.000Z</time>
      </trkpt>
      <trkpt lat="47.29891" lon="-2.32007">
        <ele>25</ele>
        <time>2021-06-10T10:55:38.000Z</time>
      </trkpt>
      <trkpt lat="47.29883" lon="-2.32012">
        <ele>25</ele>
        <time>2021-06-10T10:55:41.000Z</time>
      </trkpt>
      <trkpt lat="47.29872" lon="-2.32018">
        <ele>25</ele>
        <time>2021-06-10T10:55:46.000Z</time>
      </trkpt>
      <trkpt lat="47.29869" lon="-2.32017">
        <ele>25</ele>
        <time>2021-06-10T10:55:47.000Z</time>
      </trkpt>
      <trkpt lat="47.29853" lon="-2.32009">
        <ele>25</ele>
        <time>2021-06-10T10:55:55.000Z</time>
      </trkpt>
      <trkpt lat="47.29848" lon="-2.32006">
        <ele>25</ele>
        <time>2021-06-10T10:56:00.000Z</time>
      </trkpt>
      <trkpt lat="47.29842" lon="-2.32003">
        <ele>25</ele>
        <time>2021-06-10T10:56:14.000Z</time>
      </trkpt>
      <trkpt lat="47.29833" lon="-2.31996">
        <ele>25</ele>
        <time>2021-06-10T10:56:19.000Z</time>
      </trkpt>
      <trkpt lat="47.29821" lon="-2.31993">
        <ele>25</ele>
        <time>2021-06-10T10:56:24.000Z</time>
      </trkpt>
      <trkpt lat="47.29802" lon="-2.31992">
        <ele>25</ele>
        <time>2021-06-10T10:56:30.000Z</time>
      </trkpt>
      <trkpt lat="47.29789" lon="-2.31985">
        <ele>25</ele>
        <time>2021-06-10T10:56:35.000Z</time>
      </trkpt>
      <trkpt lat="47.29772" lon="-2.31986">
        <ele>25</ele>
        <time>2021-06-10T10:56:41.000Z</time>
      </trkpt>
      <trkpt lat="47.29749" lon="-2.31985">
        <ele>25</ele>
        <time>2021-06-10T10:56:47.000Z</time>
      </trkpt>
      <trkpt lat="47.29726" lon="-2.31977">
        <ele>25</ele>
        <time>2021-06-10T10:56:53.000Z</time>
      </trkpt>
      <trkpt lat="47.29708" lon="-2.31967">
        <ele>25.39999961853</ele>
        <time>2021-06-10T10:56:58.000Z</time>
      </trkpt>
      <trkpt lat="47.29704" lon="-2.31966">
        <ele>25.799999237061</ele>
        <time>2021-06-10T10:56:59.000Z</time>
      </trkpt>
      <trkpt lat="47.297" lon="-2.31964">
        <ele>26.39999961853</ele>
        <time>2021-06-10T10:57:00.000Z</time>
      </trkpt>
      <trkpt lat="47.29697" lon="-2.31963">
        <ele>26.799999237061</ele>
        <time>2021-06-10T10:57:01.000Z</time>
      </trkpt>
      <trkpt lat="47.29693" lon="-2.31961">
        <ele>27.200000762939</ele>
        <time>2021-06-10T10:57:02.000Z</time>
      </trkpt>
      <trkpt lat="47.29686" lon="-2.31957">
        <ele>27.200000762939</ele>
        <time>2021-06-10T10:57:04.000Z</time>
      </trkpt>
      <trkpt lat="47.29668" lon="-2.31946">
        <ele>27.200000762939</ele>
        <time>2021-06-10T10:57:09.000Z</time>
      </trkpt>
      <trkpt lat="47.29665" lon="-2.31944">
        <ele>27.200000762939</ele>
        <time>2021-06-10T10:57:10.000Z</time>
      </trkpt>
      <trkpt lat="47.29653" lon="-2.31942">
        <ele>27.200000762939</ele>
        <time>2021-06-10T10:57:15.000Z</time>
      </trkpt>
      <trkpt lat="47.29651" lon="-2.31964">
        <ele>27.200000762939</ele>
        <time>2021-06-10T10:57:21.000Z</time>
      </trkpt>
      <trkpt lat="47.29652" lon="-2.31971">
        <ele>27.200000762939</ele>
        <time>2021-06-10T10:57:22.000Z</time>
      </trkpt>
      <trkpt lat="47.29652" lon="-2.32007">
        <ele>27.200000762939</ele>
        <time>2021-06-10T10:57:28.000Z</time>
      </trkpt>
      <trkpt lat="47.29652" lon="-2.32014">
        <ele>27.60000038147</ele>
        <time>2021-06-10T10:57:29.000Z</time>
      </trkpt>
      <trkpt lat="47.29653" lon="-2.32021">
        <ele>28</ele>
        <time>2021-06-10T10:57:30.000Z</time>
      </trkpt>
      <trkpt lat="47.29653" lon="-2.32027">
        <ele>28.39999961853</ele>
        <time>2021-06-10T10:57:31.000Z</time>
      </trkpt>
      <trkpt lat="47.29653" lon="-2.32032">
        <ele>28.799999237061</ele>
        <time>2021-06-10T10:57:32.000Z</time>
      </trkpt>
      <trkpt lat="47.29654" lon="-2.32038">
        <ele>29.200000762939</ele>
        <time>2021-06-10T10:57:33.000Z</time>
      </trkpt>
      <trkpt lat="47.29654" lon="-2.32044">
        <ele>29.200000762939</ele>
        <time>2021-06-10T10:57:34.000Z</time>
      </trkpt>
      <trkpt lat="47.29655" lon="-2.32077">
        <ele>29.200000762939</ele>
        <time>2021-06-10T10:57:40.000Z</time>
      </trkpt>
      <trkpt lat="47.29657" lon="-2.32113">
        <ele>29.60000038147</ele>
        <time>2021-06-10T10:57:47.000Z</time>
      </trkpt>
      <trkpt lat="47.29658" lon="-2.32117">
        <ele>30</ele>
        <time>2021-06-10T10:57:48.000Z</time>
      </trkpt>
      <trkpt lat="47.29658" lon="-2.32123">
        <ele>30.39999961853</ele>
        <time>2021-06-10T10:57:49.000Z</time>
      </trkpt>
      <trkpt lat="47.29659" lon="-2.32129">
        <ele>30.799999237061</ele>
        <time>2021-06-10T10:57:50.000Z</time>
      </trkpt>
      <trkpt lat="47.29659" lon="-2.32135">
        <ele>31.200000762939</ele>
        <time>2021-06-10T10:57:51.000Z</time>
      </trkpt>
      <trkpt lat="47.2966" lon="-2.32152">
        <ele>31.200000762939</ele>
        <time>2021-06-10T10:57:54.000Z</time>
      </trkpt>
      <trkpt lat="47.29661" lon="-2.32201">
        <ele>31.200000762939</ele>
        <time>2021-06-10T10:58:02.000Z</time>
      </trkpt>
      <trkpt lat="47.2966" lon="-2.32233">
        <ele>31.200000762939</ele>
        <time>2021-06-10T10:58:07.000Z</time>
      </trkpt>
      <trkpt lat="47.29661" lon="-2.32245">
        <ele>31.200000762939</ele>
        <time>2021-06-10T10:58:09.000Z</time>
      </trkpt>
      <trkpt lat="47.29663" lon="-2.32289">
        <ele>31.200000762939</ele>
        <time>2021-06-10T10:58:16.000Z</time>
      </trkpt>
      <trkpt lat="47.29662" lon="-2.32339">
        <ele>31.200000762939</ele>
        <time>2021-06-10T10:58:24.000Z</time>
      </trkpt>
      <trkpt lat="47.29662" lon="-2.32364">
        <ele>31.200000762939</ele>
        <time>2021-06-10T10:58:29.000Z</time>
      </trkpt>
      <trkpt lat="47.29653" lon="-2.32384">
        <ele>31.200000762939</ele>
        <time>2021-06-10T10:58:34.000Z</time>
      </trkpt>
      <trkpt lat="47.29637" lon="-2.32397">
        <ele>30.799999237061</ele>
        <time>2021-06-10T10:58:38.000Z</time>
      </trkpt>
      <trkpt lat="47.29632" lon="-2.324">
        <ele>30.39999961853</ele>
        <time>2021-06-10T10:58:39.000Z</time>
      </trkpt>
      <trkpt lat="47.29628" lon="-2.32404">
        <ele>30</ele>
        <time>2021-06-10T10:58:40.000Z</time>
      </trkpt>
      <trkpt lat="47.29623" lon="-2.32407">
        <ele>29.60000038147</ele>
        <time>2021-06-10T10:58:41.000Z</time>
      </trkpt>
      <trkpt lat="47.29618" lon="-2.3241">
        <ele>29.200000762939</ele>
        <time>2021-06-10T10:58:42.000Z</time>
      </trkpt>
      <trkpt lat="47.29603" lon="-2.3242">
        <ele>29.200000762939</ele>
        <time>2021-06-10T10:58:45.000Z</time>
      </trkpt>
      <trkpt lat="47.29564" lon="-2.32447">
        <ele>28.799999237061</ele>
        <time>2021-06-10T10:58:53.000Z</time>
      </trkpt>
      <trkpt lat="47.29559" lon="-2.3245">
        <ele>28.39999961853</ele>
        <time>2021-06-10T10:58:54.000Z</time>
      </trkpt>
      <trkpt lat="47.29555" lon="-2.32454">
        <ele>28</ele>
        <time>2021-06-10T10:58:55.000Z</time>
      </trkpt>
      <trkpt lat="47.2955" lon="-2.32458">
        <ele>27.60000038147</ele>
        <time>2021-06-10T10:58:56.000Z</time>
      </trkpt>
      <trkpt lat="47.29546" lon="-2.32462">
        <ele>27.200000762939</ele>
        <time>2021-06-10T10:58:57.000Z</time>
      </trkpt>
      <trkpt lat="47.29515" lon="-2.32487">
        <ele>27.200000762939</ele>
        <time>2021-06-10T10:59:04.000Z</time>
      </trkpt>
      <trkpt lat="47.2951" lon="-2.3249">
        <ele>27.200000762939</ele>
        <time>2021-06-10T10:59:05.000Z</time>
      </trkpt>
      <trkpt lat="47.29482" lon="-2.32509">
        <ele>27.200000762939</ele>
        <time>2021-06-10T10:59:11.000Z</time>
      </trkpt>
      <trkpt lat="47.29441" lon="-2.32538">
        <ele>27.200000762939</ele>
        <time>2021-06-10T10:59:20.000Z</time>
      </trkpt>
      <trkpt lat="47.29437" lon="-2.32543">
        <ele>27.200000762939</ele>
        <time>2021-06-10T10:59:21.000Z</time>
      </trkpt>
      <trkpt lat="47.29422" lon="-2.32567">
        <ele>27.200000762939</ele>
        <time>2021-06-10T10:59:25.000Z</time>
      </trkpt>
      <trkpt lat="47.29419" lon="-2.32575">
        <ele>26.799999237061</ele>
        <time>2021-06-10T10:59:26.000Z</time>
      </trkpt>
      <trkpt lat="47.29417" lon="-2.32582">
        <ele>26.39999961853</ele>
        <time>2021-06-10T10:59:27.000Z</time>
      </trkpt>
      <trkpt lat="47.29414" lon="-2.3259">
        <ele>26</ele>
        <time>2021-06-10T10:59:28.000Z</time>
      </trkpt>
      <trkpt lat="47.29412" lon="-2.32598">
        <ele>25.60000038147</ele>
        <time>2021-06-10T10:59:29.000Z</time>
      </trkpt>
      <trkpt lat="47.2941" lon="-2.32607">
        <ele>25.200000762939</ele>
        <time>2021-06-10T10:59:30.000Z</time>
      </trkpt>
      <trkpt lat="47.29398" lon="-2.32675">
        <ele>25.200000762939</ele>
        <time>2021-06-10T10:59:38.000Z</time>
      </trkpt>
      <trkpt lat="47.29396" lon="-2.32682">
        <ele>25.200000762939</ele>
        <time>2021-06-10T10:59:39.000Z</time>
      </trkpt>
      <trkpt lat="47.29386" lon="-2.32702">
        <ele>25.200000762939</ele>
        <time>2021-06-10T10:59:42.000Z</time>
      </trkpt>
      <trkpt lat="47.29383" lon="-2.32707">
        <ele>25.200000762939</ele>
        <time>2021-06-10T10:59:43.000Z</time>
      </trkpt>
      <trkpt lat="47.29375" lon="-2.32717">
        <ele>25.200000762939</ele>
        <time>2021-06-10T10:59:45.000Z</time>
      </trkpt>
      <trkpt lat="47.29366" lon="-2.32725">
        <ele>25.200000762939</ele>
        <time>2021-06-10T10:59:47.000Z</time>
      </trkpt>
      <trkpt lat="47.2934" lon="-2.32745">
        <ele>25.200000762939</ele>
        <time>2021-06-10T10:59:53.000Z</time>
      </trkpt>
      <trkpt lat="47.29308" lon="-2.32768">
        <ele>25.200000762939</ele>
        <time>2021-06-10T11:00:01.000Z</time>
      </trkpt>
      <trkpt lat="47.29274" lon="-2.32797">
        <ele>25.200000762939</ele>
        <time>2021-06-10T11:00:09.000Z</time>
      </trkpt>
      <trkpt lat="47.29252" lon="-2.3282">
        <ele>25.200000762939</ele>
        <time>2021-06-10T11:00:14.000Z</time>
      </trkpt>
      <trkpt lat="47.29247" lon="-2.32826">
        <ele>25.200000762939</ele>
        <time>2021-06-10T11:00:15.000Z</time>
      </trkpt>
      <trkpt lat="47.29243" lon="-2.32832">
        <ele>25.200000762939</ele>
        <time>2021-06-10T11:00:16.000Z</time>
      </trkpt>
      <trkpt lat="47.29219" lon="-2.32878">
        <ele>25.200000762939</ele>
        <time>2021-06-10T11:00:23.000Z</time>
      </trkpt>
      <trkpt lat="47.29202" lon="-2.32922">
        <ele>25.200000762939</ele>
        <time>2021-06-10T11:00:30.000Z</time>
      </trkpt>
      <trkpt lat="47.29186" lon="-2.32969">
        <ele>25.200000762939</ele>
        <time>2021-06-10T11:00:37.000Z</time>
      </trkpt>
      <trkpt lat="47.29176" lon="-2.32995">
        <ele>25.200000762939</ele>
        <time>2021-06-10T11:00:41.000Z</time>
      </trkpt>
      <trkpt lat="47.29169" lon="-2.33007">
        <ele>25.200000762939</ele>
        <time>2021-06-10T11:00:43.000Z</time>
      </trkpt>
      <trkpt lat="47.29144" lon="-2.33045">
        <ele>25.200000762939</ele>
        <time>2021-06-10T11:00:50.000Z</time>
      </trkpt>
      <trkpt lat="47.29114" lon="-2.33086">
        <ele>25.200000762939</ele>
        <time>2021-06-10T11:00:58.000Z</time>
      </trkpt>
      <trkpt lat="47.29088" lon="-2.33121">
        <ele>25.200000762939</ele>
        <time>2021-06-10T11:01:05.000Z</time>
      </trkpt>
      <trkpt lat="47.29084" lon="-2.33125">
        <ele>25.200000762939</ele>
        <time>2021-06-10T11:01:06.000Z</time>
      </trkpt>
      <trkpt lat="47.29064" lon="-2.33145">
        <ele>25.200000762939</ele>
        <time>2021-06-10T11:01:11.000Z</time>
      </trkpt>
      <trkpt lat="47.29035" lon="-2.33171">
        <ele>25.200000762939</ele>
        <time>2021-06-10T11:01:18.000Z</time>
      </trkpt>
      <trkpt lat="47.28992" lon="-2.33206">
        <ele>25.60000038147</ele>
        <time>2021-06-10T11:01:28.000Z</time>
      </trkpt>
      <trkpt lat="47.28988" lon="-2.33211">
        <ele>26</ele>
        <time>2021-06-10T11:01:29.000Z</time>
      </trkpt>
      <trkpt lat="47.28984" lon="-2.33217">
        <ele>26.39999961853</ele>
        <time>2021-06-10T11:01:30.000Z</time>
      </trkpt>
      <trkpt lat="47.2898" lon="-2.33222">
        <ele>26.799999237061</ele>
        <time>2021-06-10T11:01:31.000Z</time>
      </trkpt>
      <trkpt lat="47.28977" lon="-2.33229">
        <ele>27.39999961853</ele>
        <time>2021-06-10T11:01:32.000Z</time>
      </trkpt>
      <trkpt lat="47.2897" lon="-2.33241">
        <ele>27.39999961853</ele>
        <time>2021-06-10T11:01:34.000Z</time>
      </trkpt>
      <trkpt lat="47.28966" lon="-2.33247">
        <ele>27.39999961853</ele>
        <time>2021-06-10T11:01:35.000Z</time>
      </trkpt>
      <trkpt lat="47.28951" lon="-2.33277">
        <ele>27.39999961853</ele>
        <time>2021-06-10T11:01:40.000Z</time>
      </trkpt>
      <trkpt lat="47.2893" lon="-2.33325">
        <ele>27.39999961853</ele>
        <time>2021-06-10T11:01:48.000Z</time>
      </trkpt>
      <trkpt lat="47.28916" lon="-2.33373">
        <ele>27.39999961853</ele>
        <time>2021-06-10T11:01:55.000Z</time>
      </trkpt>
      <trkpt lat="47.28899" lon="-2.33433">
        <ele>27.39999961853</ele>
        <time>2021-06-10T11:02:04.000Z</time>
      </trkpt>
      <trkpt lat="47.28891" lon="-2.3345">
        <ele>27.39999961853</ele>
        <time>2021-06-10T11:02:07.000Z</time>
      </trkpt>
      <trkpt lat="47.2888" lon="-2.33462">
        <ele>27.39999961853</ele>
        <time>2021-06-10T11:02:10.000Z</time>
      </trkpt>
      <trkpt lat="47.28875" lon="-2.33465">
        <ele>27.39999961853</ele>
        <time>2021-06-10T11:02:11.000Z</time>
      </trkpt>
      <trkpt lat="47.28855" lon="-2.33472">
        <ele>27.39999961853</ele>
        <time>2021-06-10T11:02:15.000Z</time>
      </trkpt>
      <trkpt lat="47.28817" lon="-2.33478">
        <ele>27.39999961853</ele>
        <time>2021-06-10T11:02:22.000Z</time>
      </trkpt>
      <trkpt lat="47.28759" lon="-2.33489">
        <ele>27.39999961853</ele>
        <time>2021-06-10T11:02:33.000Z</time>
      </trkpt>
      <trkpt lat="47.28727" lon="-2.33495">
        <ele>27.39999961853</ele>
        <time>2021-06-10T11:02:40.000Z</time>
      </trkpt>
      <trkpt lat="47.28712" lon="-2.33499">
        <ele>27.39999961853</ele>
        <time>2021-06-10T11:02:45.000Z</time>
      </trkpt>
      <trkpt lat="47.28701" lon="-2.33492">
        <ele>27.39999961853</ele>
        <time>2021-06-10T11:02:48.000Z</time>
      </trkpt>
      <trkpt lat="47.28697" lon="-2.33488">
        <ele>27.39999961853</ele>
        <time>2021-06-10T11:02:49.000Z</time>
      </trkpt>
      <trkpt lat="47.28675" lon="-2.33459">
        <ele>27.39999961853</ele>
        <time>2021-06-10T11:02:55.000Z</time>
      </trkpt>
      <trkpt lat="47.28648" lon="-2.3342">
        <ele>27.39999961853</ele>
        <time>2021-06-10T11:03:02.000Z</time>
      </trkpt>
      <trkpt lat="47.28624" lon="-2.3337">
        <ele>27.39999961853</ele>
        <time>2021-06-10T11:03:10.000Z</time>
      </trkpt>
      <trkpt lat="47.2861" lon="-2.33336">
        <ele>27.39999961853</ele>
        <time>2021-06-10T11:03:15.000Z</time>
      </trkpt>
      <trkpt lat="47.28606" lon="-2.33332">
        <ele>27.39999961853</ele>
        <time>2021-06-10T11:03:16.000Z</time>
      </trkpt>
      <trkpt lat="47.28587" lon="-2.33332">
        <ele>27.39999961853</ele>
        <time>2021-06-10T11:03:19.000Z</time>
      </trkpt>
      <trkpt lat="47.28571" lon="-2.33348">
        <ele>26.799999237061</ele>
        <time>2021-06-10T11:03:22.000Z</time>
      </trkpt>
      <trkpt lat="47.28565" lon="-2.33353">
        <ele>26.39999961853</ele>
        <time>2021-06-10T11:03:23.000Z</time>
      </trkpt>
      <trkpt lat="47.28559" lon="-2.33358">
        <ele>26</ele>
        <time>2021-06-10T11:03:24.000Z</time>
      </trkpt>
      <trkpt lat="47.28553" lon="-2.33363">
        <ele>25.60000038147</ele>
        <time>2021-06-10T11:03:25.000Z</time>
      </trkpt>
      <trkpt lat="47.28547" lon="-2.33368">
        <ele>25.200000762939</ele>
        <time>2021-06-10T11:03:26.000Z</time>
      </trkpt>
      <trkpt lat="47.28524" lon="-2.33388">
        <ele>25.200000762939</ele>
        <time>2021-06-10T11:03:30.000Z</time>
      </trkpt>
      <trkpt lat="47.28481" lon="-2.33426">
        <ele>25.200000762939</ele>
        <time>2021-06-10T11:03:38.000Z</time>
      </trkpt>
      <trkpt lat="47.2844" lon="-2.33463">
        <ele>25.200000762939</ele>
        <time>2021-06-10T11:03:46.000Z</time>
      </trkpt>
      <trkpt lat="47.28399" lon="-2.33497">
        <ele>25.200000762939</ele>
        <time>2021-06-10T11:03:54.000Z</time>
      </trkpt>
      <trkpt lat="47.28394" lon="-2.33499">
        <ele>25.200000762939</ele>
        <time>2021-06-10T11:03:55.000Z</time>
      </trkpt>
      <trkpt lat="47.28376" lon="-2.33502">
        <ele>25.200000762939</ele>
        <time>2021-06-10T11:03:58.000Z</time>
      </trkpt>
      <trkpt lat="47.28365" lon="-2.335">
        <ele>25.200000762939</ele>
        <time>2021-06-10T11:04:00.000Z</time>
      </trkpt>
      <trkpt lat="47.28353" lon="-2.33495">
        <ele>25.200000762939</ele>
        <time>2021-06-10T11:04:02.000Z</time>
      </trkpt>
      <trkpt lat="47.28319" lon="-2.33479">
        <ele>25.200000762939</ele>
        <time>2021-06-10T11:04:08.000Z</time>
      </trkpt>
      <trkpt lat="47.28296" lon="-2.33484">
        <ele>25.200000762939</ele>
        <time>2021-06-10T11:04:12.000Z</time>
      </trkpt>
      <trkpt lat="47.28281" lon="-2.33495">
        <ele>25.200000762939</ele>
        <time>2021-06-10T11:04:15.000Z</time>
      </trkpt>
      <trkpt lat="47.28271" lon="-2.33504">
        <ele>25.200000762939</ele>
        <time>2021-06-10T11:04:17.000Z</time>
      </trkpt>
      <trkpt lat="47.28232" lon="-2.33537">
        <ele>25.200000762939</ele>
        <time>2021-06-10T11:04:25.000Z</time>
      </trkpt>
      <trkpt lat="47.28189" lon="-2.33573">
        <ele>25.200000762939</ele>
        <time>2021-06-10T11:04:35.000Z</time>
      </trkpt>
      <trkpt lat="47.28156" lon="-2.33601">
        <ele>25.200000762939</ele>
        <time>2021-06-10T11:04:42.000Z</time>
      </trkpt>
      <trkpt lat="47.28117" lon="-2.33632">
        <ele>25.200000762939</ele>
        <time>2021-06-10T11:04:49.000Z</time>
      </trkpt>
      <trkpt lat="47.28098" lon="-2.33647">
        <ele>25.200000762939</ele>
        <time>2021-06-10T11:04:53.000Z</time>
      </trkpt>
      <trkpt lat="47.28095" lon="-2.33648">
        <ele>25.200000762939</ele>
        <time>2021-06-10T11:04:54.000Z</time>
      </trkpt>
      <trkpt lat="47.28092" lon="-2.33645">
        <ele>24.799999237061</ele>
        <time>2021-06-10T11:04:55.000Z</time>
      </trkpt>
      <trkpt lat="47.2809" lon="-2.33641">
        <ele>24.39999961853</ele>
        <time>2021-06-10T11:04:56.000Z</time>
      </trkpt>
      <trkpt lat="47.2809" lon="-2.33635">
        <ele>24</ele>
        <time>2021-06-10T11:04:57.000Z</time>
      </trkpt>
      <trkpt lat="47.2809" lon="-2.33628">
        <ele>23.60000038147</ele>
        <time>2021-06-10T11:04:58.000Z</time>
      </trkpt>
      <trkpt lat="47.2809" lon="-2.3362">
        <ele>23.200000762939</ele>
        <time>2021-06-10T11:04:59.000Z</time>
      </trkpt>
      <trkpt lat="47.28089" lon="-2.33613">
        <ele>23.200000762939</ele>
        <time>2021-06-10T11:05:00.000Z</time>
      </trkpt>
      <trkpt lat="47.28087" lon="-2.33598">
        <ele>23.200000762939</ele>
        <time>2021-06-10T11:05:02.000Z</time>
      </trkpt>
      <trkpt lat="47.28078" lon="-2.33552">
        <ele>23.200000762939</ele>
        <time>2021-06-10T11:05:08.000Z</time>
      </trkpt>
      <trkpt lat="47.28072" lon="-2.3352">
        <ele>23.200000762939</ele>
        <time>2021-06-10T11:05:13.000Z</time>
      </trkpt>
      <trkpt lat="47.2806" lon="-2.3352">
        <ele>23.200000762939</ele>
        <time>2021-06-10T11:05:16.000Z</time>
      </trkpt>
      <trkpt lat="47.28056" lon="-2.3352">
        <ele>23.200000762939</ele>
        <time>2021-06-10T11:05:17.000Z</time>
      </trkpt>
      <trkpt lat="47.2804" lon="-2.33522">
        <ele>23.200000762939</ele>
        <time>2021-06-10T11:05:22.000Z</time>
      </trkpt>
      <trkpt lat="47.2802" lon="-2.33525">
        <ele>23.200000762939</ele>
        <time>2021-06-10T11:05:29.000Z</time>
      </trkpt>
      <trkpt lat="47.27998" lon="-2.33539">
        <ele>23.200000762939</ele>
        <time>2021-06-10T11:05:36.000Z</time>
      </trkpt>
      <trkpt lat="47.27975" lon="-2.33554">
        <ele>23.200000762939</ele>
        <time>2021-06-10T11:05:43.000Z</time>
      </trkpt>
      <trkpt lat="47.27941" lon="-2.33577">
        <ele>23.200000762939</ele>
        <time>2021-06-10T11:05:52.000Z</time>
      </trkpt>
      <trkpt lat="47.27921" lon="-2.33593">
        <ele>23.200000762939</ele>
        <time>2021-06-10T11:05:57.000Z</time>
      </trkpt>
      <trkpt lat="47.27916" lon="-2.33595">
        <ele>23.200000762939</ele>
        <time>2021-06-10T11:05:58.000Z</time>
      </trkpt>
      <trkpt lat="47.27879" lon="-2.33613">
        <ele>23.60000038147</ele>
        <time>2021-06-10T11:06:06.000Z</time>
      </trkpt>
      <trkpt lat="47.27874" lon="-2.33615">
        <ele>24.39999961853</ele>
        <time>2021-06-10T11:06:07.000Z</time>
      </trkpt>
      <trkpt lat="47.2787" lon="-2.33617">
        <ele>24.799999237061</ele>
        <time>2021-06-10T11:06:08.000Z</time>
      </trkpt>
      <trkpt lat="47.27865" lon="-2.33619">
        <ele>25.200000762939</ele>
        <time>2021-06-10T11:06:09.000Z</time>
      </trkpt>
      <trkpt lat="47.27833" lon="-2.33632">
        <ele>25.200000762939</ele>
        <time>2021-06-10T11:06:16.000Z</time>
      </trkpt>
      <trkpt lat="47.27807" lon="-2.33645">
        <ele>25.200000762939</ele>
        <time>2021-06-10T11:06:23.000Z</time>
      </trkpt>
      <trkpt lat="47.27799" lon="-2.33647">
        <ele>25.60000038147</ele>
        <time>2021-06-10T11:06:25.000Z</time>
      </trkpt>
      <trkpt lat="47.27796" lon="-2.33649">
        <ele>26</ele>
        <time>2021-06-10T11:06:26.000Z</time>
      </trkpt>
      <trkpt lat="47.27792" lon="-2.3365">
        <ele>26.39999961853</ele>
        <time>2021-06-10T11:06:27.000Z</time>
      </trkpt>
      <trkpt lat="47.27788" lon="-2.33652">
        <ele>26.799999237061</ele>
        <time>2021-06-10T11:06:28.000Z</time>
      </trkpt>
      <trkpt lat="47.27784" lon="-2.33654">
        <ele>27.200000762939</ele>
        <time>2021-06-10T11:06:29.000Z</time>
      </trkpt>
      <trkpt lat="47.2778" lon="-2.33656">
        <ele>27.200000762939</ele>
        <time>2021-06-10T11:06:30.000Z</time>
      </trkpt>
      <trkpt lat="47.27776" lon="-2.33658">
        <ele>27.200000762939</ele>
        <time>2021-06-10T11:06:31.000Z</time>
      </trkpt>
      <trkpt lat="47.27761" lon="-2.33673">
        <ele>27.200000762939</ele>
        <time>2021-06-10T11:06:35.000Z</time>
      </trkpt>
      <trkpt lat="47.27728" lon="-2.33706">
        <ele>27.200000762939</ele>
        <time>2021-06-10T11:06:43.000Z</time>
      </trkpt>
      <trkpt lat="47.27712" lon="-2.33723">
        <ele>27.60000038147</ele>
        <time>2021-06-10T11:06:48.000Z</time>
      </trkpt>
      <trkpt lat="47.27709" lon="-2.33725">
        <ele>28</ele>
        <time>2021-06-10T11:06:49.000Z</time>
      </trkpt>
      <trkpt lat="47.27706" lon="-2.33725">
        <ele>28.39999961853</ele>
        <time>2021-06-10T11:06:50.000Z</time>
      </trkpt>
      <trkpt lat="47.27703" lon="-2.33723">
        <ele>28.799999237061</ele>
        <time>2021-06-10T11:06:51.000Z</time>
      </trkpt>
      <trkpt lat="47.277" lon="-2.33721">
        <ele>29.200000762939</ele>
        <time>2021-06-10T11:06:52.000Z</time>
      </trkpt>
      <trkpt lat="47.2769" lon="-2.33698">
        <ele>29.200000762939</ele>
        <time>2021-06-10T11:06:56.000Z</time>
      </trkpt>
      <trkpt lat="47.27684" lon="-2.33685">
        <ele>29.200000762939</ele>
        <time>2021-06-10T11:06:58.000Z</time>
      </trkpt>
      <trkpt lat="47.2767" lon="-2.33651">
        <ele>29.200000762939</ele>
        <time>2021-06-10T11:07:03.000Z</time>
      </trkpt>
      <trkpt lat="47.27644" lon="-2.33589">
        <ele>29.200000762939</ele>
        <time>2021-06-10T11:07:12.000Z</time>
      </trkpt>
      <trkpt lat="47.27633" lon="-2.33571">
        <ele>29.200000762939</ele>
        <time>2021-06-10T11:07:15.000Z</time>
      </trkpt>
      <trkpt lat="47.27625" lon="-2.33559">
        <ele>29.799999237061</ele>
        <time>2021-06-10T11:07:17.000Z</time>
      </trkpt>
      <trkpt lat="47.27621" lon="-2.33554">
        <ele>30.200000762939</ele>
        <time>2021-06-10T11:07:18.000Z</time>
      </trkpt>
      <trkpt lat="47.27617" lon="-2.33549">
        <ele>30.60000038147</ele>
        <time>2021-06-10T11:07:19.000Z</time>
      </trkpt>
      <trkpt lat="47.27613" lon="-2.33544">
        <ele>31.200000762939</ele>
        <time>2021-06-10T11:07:20.000Z</time>
      </trkpt>
      <trkpt lat="47.27609" lon="-2.33539">
        <ele>31.60000038147</ele>
        <time>2021-06-10T11:07:21.000Z</time>
      </trkpt>
      <trkpt lat="47.27594" lon="-2.33526">
        <ele>31.60000038147</ele>
        <time>2021-06-10T11:07:24.000Z</time>
      </trkpt>
      <trkpt lat="47.27562" lon="-2.33511">
        <ele>31.60000038147</ele>
        <time>2021-06-10T11:07:30.000Z</time>
      </trkpt>
      <trkpt lat="47.27553" lon="-2.33505">
        <ele>31.60000038147</ele>
        <time>2021-06-10T11:07:32.000Z</time>
      </trkpt>
      <trkpt lat="47.27549" lon="-2.33495">
        <ele>31.60000038147</ele>
        <time>2021-06-10T11:07:34.000Z</time>
      </trkpt>
      <trkpt lat="47.27551" lon="-2.33474">
        <ele>31.60000038147</ele>
        <time>2021-06-10T11:07:38.000Z</time>
      </trkpt>
      <trkpt lat="47.27551" lon="-2.33467">
        <ele>31.60000038147</ele>
        <time>2021-06-10T11:07:39.000Z</time>
      </trkpt>
      <trkpt lat="47.27553" lon="-2.33453">
        <ele>31.60000038147</ele>
        <time>2021-06-10T11:07:41.000Z</time>
      </trkpt>
      <trkpt lat="47.27552" lon="-2.33438">
        <ele>31.60000038147</ele>
        <time>2021-06-10T11:07:43.000Z</time>
      </trkpt>
      <trkpt lat="47.27549" lon="-2.33417">
        <ele>31.60000038147</ele>
        <time>2021-06-10T11:07:46.000Z</time>
      </trkpt>
      <trkpt lat="47.27543" lon="-2.33397">
        <ele>31.60000038147</ele>
        <time>2021-06-10T11:07:49.000Z</time>
      </trkpt>
      <trkpt lat="47.27532" lon="-2.3338">
        <ele>31.60000038147</ele>
        <time>2021-06-10T11:07:53.000Z</time>
      </trkpt>
      <trkpt lat="47.27526" lon="-2.33367">
        <ele>31.60000038147</ele>
        <time>2021-06-10T11:07:57.000Z</time>
      </trkpt>
      <trkpt lat="47.2752" lon="-2.3336">
        <ele>31.60000038147</ele>
        <time>2021-06-10T11:07:59.000Z</time>
      </trkpt>
      <trkpt lat="47.27513" lon="-2.33353">
        <ele>31.60000038147</ele>
        <time>2021-06-10T11:08:01.000Z</time>
      </trkpt>
      <trkpt lat="47.27509" lon="-2.3335">
        <ele>31.60000038147</ele>
        <time>2021-06-10T11:08:02.000Z</time>
      </trkpt>
      <trkpt lat="47.27499" lon="-2.33344">
        <ele>31.60000038147</ele>
        <time>2021-06-10T11:08:04.000Z</time>
      </trkpt>
      <trkpt lat="47.27483" lon="-2.33336">
        <ele>31.60000038147</ele>
        <time>2021-06-10T11:08:07.000Z</time>
      </trkpt>
      <trkpt lat="47.27455" lon="-2.33332">
        <ele>31.60000038147</ele>
        <time>2021-06-10T11:08:12.000Z</time>
      </trkpt>
      <trkpt lat="47.27441" lon="-2.33318">
        <ele>31.60000038147</ele>
        <time>2021-06-10T11:08:15.000Z</time>
      </trkpt>
      <trkpt lat="47.27433" lon="-2.33294">
        <ele>31.60000038147</ele>
        <time>2021-06-10T11:08:18.000Z</time>
      </trkpt>
      <trkpt lat="47.2743" lon="-2.33287">
        <ele>31.60000038147</ele>
        <time>2021-06-10T11:08:19.000Z</time>
      </trkpt>
      <trkpt lat="47.27416" lon="-2.33259">
        <ele>31.60000038147</ele>
        <time>2021-06-10T11:08:24.000Z</time>
      </trkpt>
      <trkpt lat="47.27415" lon="-2.33258">
        <ele>31.200000762939</ele>
        <time>2021-06-10T11:08:25.000Z</time>
      </trkpt>
      <trkpt lat="47.27414" lon="-2.33257">
        <ele>30.60000038147</ele>
        <time>2021-06-10T11:08:26.000Z</time>
      </trkpt>
      <trkpt lat="47.27413" lon="-2.33257">
        <ele>30.200000762939</ele>
        <time>2021-06-10T11:08:27.000Z</time>
      </trkpt>
      <trkpt lat="47.27413" lon="-2.33256">
        <ele>29.799999237061</ele>
        <time>2021-06-10T11:08:28.000Z</time>
      </trkpt>
      <trkpt lat="47.27411" lon="-2.33253">
        <ele>29.39999961853</ele>
        <time>2021-06-10T11:08:29.000Z</time>
      </trkpt>
      <trkpt lat="47.27407" lon="-2.33244">
        <ele>29.39999961853</ele>
        <time>2021-06-10T11:08:31.000Z</time>
      </trkpt>
      <trkpt lat="47.27401" lon="-2.33233">
        <ele>29.39999961853</ele>
        <time>2021-06-10T11:08:33.000Z</time>
      </trkpt>
      <trkpt lat="47.27389" lon="-2.33217">
        <ele>29.39999961853</ele>
        <time>2021-06-10T11:08:36.000Z</time>
      </trkpt>
      <trkpt lat="47.27375" lon="-2.33202">
        <ele>29.39999961853</ele>
        <time>2021-06-10T11:08:39.000Z</time>
      </trkpt>
      <trkpt lat="47.27357" lon="-2.33189">
        <ele>29.39999961853</ele>
        <time>2021-06-10T11:08:42.000Z</time>
      </trkpt>
      <trkpt lat="47.27323" lon="-2.33156">
        <ele>28.799999237061</ele>
        <time>2021-06-10T11:08:48.000Z</time>
      </trkpt>
      <trkpt lat="47.27318" lon="-2.3315">
        <ele>28.39999961853</ele>
        <time>2021-06-10T11:08:49.000Z</time>
      </trkpt>
      <trkpt lat="47.27313" lon="-2.33144">
        <ele>28</ele>
        <time>2021-06-10T11:08:50.000Z</time>
      </trkpt>
      <trkpt lat="47.27308" lon="-2.33137">
        <ele>27.39999961853</ele>
        <time>2021-06-10T11:08:51.000Z</time>
      </trkpt>
      <trkpt lat="47.27305" lon="-2.33128">
        <ele>27</ele>
        <time>2021-06-10T11:08:52.000Z</time>
      </trkpt>
      <trkpt lat="47.27302" lon="-2.33121">
        <ele>27</ele>
        <time>2021-06-10T11:08:53.000Z</time>
      </trkpt>
      <trkpt lat="47.27302" lon="-2.33112">
        <ele>27</ele>
        <time>2021-06-10T11:08:55.000Z</time>
      </trkpt>
      <trkpt lat="47.27305" lon="-2.33105">
        <ele>26.60000038147</ele>
        <time>2021-06-10T11:08:57.000Z</time>
      </trkpt>
      <trkpt lat="47.27307" lon="-2.331">
        <ele>26.200000762939</ele>
        <time>2021-06-10T11:08:58.000Z</time>
      </trkpt>
      <trkpt lat="47.2731" lon="-2.33094">
        <ele>25.799999237061</ele>
        <time>2021-06-10T11:08:59.000Z</time>
      </trkpt>
      <trkpt lat="47.27316" lon="-2.33083">
        <ele>24.799999237061</ele>
        <time>2021-06-10T11:09:00.000Z</time>
      </trkpt>
      <trkpt lat="47.27329" lon="-2.33051">
        <ele>24.799999237061</ele>
        <time>2021-06-10T11:09:04.000Z</time>
      </trkpt>
      <trkpt lat="47.27355" lon="-2.32986">
        <ele>24.799999237061</ele>
        <time>2021-06-10T11:09:12.000Z</time>
      </trkpt>
      <trkpt lat="47.27372" lon="-2.32951">
        <ele>24.799999237061</ele>
        <time>2021-06-10T11:09:17.000Z</time>
      </trkpt>
      <trkpt lat="47.27384" lon="-2.32926">
        <ele>24.39999961853</ele>
        <time>2021-06-10T11:09:21.000Z</time>
      </trkpt>
      <trkpt lat="47.27385" lon="-2.32922">
        <ele>24</ele>
        <time>2021-06-10T11:09:22.000Z</time>
      </trkpt>
      <trkpt lat="47.27386" lon="-2.32918">
        <ele>23.60000038147</ele>
        <time>2021-06-10T11:09:23.000Z</time>
      </trkpt>
      <trkpt lat="47.27388" lon="-2.32914">
        <ele>23</ele>
        <time>2021-06-10T11:09:24.000Z</time>
      </trkpt>
      <trkpt lat="47.2739" lon="-2.32912">
        <ele>22.60000038147</ele>
        <time>2021-06-10T11:09:25.000Z</time>
      </trkpt>
      <trkpt lat="47.27393" lon="-2.32909">
        <ele>22.60000038147</ele>
        <time>2021-06-10T11:09:26.000Z</time>
      </trkpt>
      <trkpt lat="47.27402" lon="-2.32893">
        <ele>22.60000038147</ele>
        <time>2021-06-10T11:09:30.000Z</time>
      </trkpt>
      <trkpt lat="47.27406" lon="-2.32881">
        <ele>22.60000038147</ele>
        <time>2021-06-10T11:09:32.000Z</time>
      </trkpt>
      <trkpt lat="47.27422" lon="-2.32836">
        <ele>22.200000762939</ele>
        <time>2021-06-10T11:09:38.000Z</time>
      </trkpt>
      <trkpt lat="47.27424" lon="-2.32828">
        <ele>21.799999237061</ele>
        <time>2021-06-10T11:09:39.000Z</time>
      </trkpt>
      <trkpt lat="47.27426" lon="-2.32819">
        <ele>21.39999961853</ele>
        <time>2021-06-10T11:09:40.000Z</time>
      </trkpt>
      <trkpt lat="47.27428" lon="-2.3281">
        <ele>21</ele>
        <time>2021-06-10T11:09:41.000Z</time>
      </trkpt>
      <trkpt lat="47.2743" lon="-2.32801">
        <ele>20.60000038147</ele>
        <time>2021-06-10T11:09:42.000Z</time>
      </trkpt>
      <trkpt lat="47.27433" lon="-2.32783">
        <ele>20.60000038147</ele>
        <time>2021-06-10T11:09:44.000Z</time>
      </trkpt>
      <trkpt lat="47.27444" lon="-2.32732">
        <ele>20.200000762939</ele>
        <time>2021-06-10T11:09:50.000Z</time>
      </trkpt>
      <trkpt lat="47.27446" lon="-2.32723">
        <ele>19.799999237061</ele>
        <time>2021-06-10T11:09:51.000Z</time>
      </trkpt>
      <trkpt lat="47.27449" lon="-2.32713">
        <ele>19.39999961853</ele>
        <time>2021-06-10T11:09:52.000Z</time>
      </trkpt>
      <trkpt lat="47.27452" lon="-2.32704">
        <ele>19</ele>
        <time>2021-06-10T11:09:53.000Z</time>
      </trkpt>
      <trkpt lat="47.27456" lon="-2.32696">
        <ele>18.39999961853</ele>
        <time>2021-06-10T11:09:54.000Z</time>
      </trkpt>
      <trkpt lat="47.27459" lon="-2.32689">
        <ele>18</ele>
        <time>2021-06-10T11:09:55.000Z</time>
      </trkpt>
      <trkpt lat="47.27463" lon="-2.32686">
        <ele>17.39999961853</ele>
        <time>2021-06-10T11:09:56.000Z</time>
      </trkpt>
      <trkpt lat="47.27468" lon="-2.32683">
        <ele>17</ele>
        <time>2021-06-10T11:09:57.000Z</time>
      </trkpt>
      <trkpt lat="47.27473" lon="-2.3268">
        <ele>16.39999961853</ele>
        <time>2021-06-10T11:09:58.000Z</time>
      </trkpt>
      <trkpt lat="47.27479" lon="-2.32677">
        <ele>15.800000190735</ele>
        <time>2021-06-10T11:09:59.000Z</time>
      </trkpt>
      <trkpt lat="47.27484" lon="-2.32671">
        <ele>15.39999961853</ele>
        <time>2021-06-10T11:10:00.000Z</time>
      </trkpt>
      <trkpt lat="47.2749" lon="-2.32664">
        <ele>14.39999961853</ele>
        <time>2021-06-10T11:10:01.000Z</time>
      </trkpt>
      <trkpt lat="47.27498" lon="-2.32647">
        <ele>14.39999961853</ele>
        <time>2021-06-10T11:10:03.000Z</time>
      </trkpt>
      <trkpt lat="47.27505" lon="-2.32633">
        <ele>14.39999961853</ele>
        <time>2021-06-10T11:10:05.000Z</time>
      </trkpt>
      <trkpt lat="47.27518" lon="-2.32622">
        <ele>14</ele>
        <time>2021-06-10T11:10:08.000Z</time>
      </trkpt>
      <trkpt lat="47.27523" lon="-2.3262">
        <ele>13.60000038147</ele>
        <time>2021-06-10T11:10:09.000Z</time>
      </trkpt>
      <trkpt lat="47.27528" lon="-2.32615">
        <ele>13.199999809265</ele>
        <time>2021-06-10T11:10:10.000Z</time>
      </trkpt>
      <trkpt lat="47.27532" lon="-2.32609">
        <ele>12.800000190735</ele>
        <time>2021-06-10T11:10:11.000Z</time>
      </trkpt>
      <trkpt lat="47.27536" lon="-2.32603">
        <ele>12.199999809265</ele>
        <time>2021-06-10T11:10:12.000Z</time>
      </trkpt>
      <trkpt lat="47.27543" lon="-2.32583">
        <ele>12.199999809265</ele>
        <time>2021-06-10T11:10:15.000Z</time>
      </trkpt>
      <trkpt lat="47.27539" lon="-2.32559">
        <ele>12.199999809265</ele>
        <time>2021-06-10T11:10:19.000Z</time>
      </trkpt>
      <trkpt lat="47.27538" lon="-2.32554">
        <ele>12.199999809265</ele>
        <time>2021-06-10T11:10:20.000Z</time>
      </trkpt>
      <trkpt lat="47.27532" lon="-2.32533">
        <ele>12.199999809265</ele>
        <time>2021-06-10T11:10:24.000Z</time>
      </trkpt>
      <trkpt lat="47.27532" lon="-2.32528">
        <ele>12.800000190735</ele>
        <time>2021-06-10T11:10:25.000Z</time>
      </trkpt>
      <trkpt lat="47.27533" lon="-2.32523">
        <ele>13.60000038147</ele>
        <time>2021-06-10T11:10:26.000Z</time>
      </trkpt>
      <trkpt lat="47.27534" lon="-2.32519">
        <ele>14</ele>
        <time>2021-06-10T11:10:27.000Z</time>
      </trkpt>
      <trkpt lat="47.27535" lon="-2.32515">
        <ele>14.39999961853</ele>
        <time>2021-06-10T11:10:28.000Z</time>
      </trkpt>
      <trkpt lat="47.27538" lon="-2.32507">
        <ele>15</ele>
        <time>2021-06-10T11:10:30.000Z</time>
      </trkpt>
      <trkpt lat="47.27539" lon="-2.32503">
        <ele>15.39999961853</ele>
        <time>2021-06-10T11:10:31.000Z</time>
      </trkpt>
      <trkpt lat="47.27541" lon="-2.32499">
        <ele>15.800000190735</ele>
        <time>2021-06-10T11:10:32.000Z</time>
      </trkpt>
      <trkpt lat="47.27542" lon="-2.32494">
        <ele>16.200000762939</ele>
        <time>2021-06-10T11:10:33.000Z</time>
      </trkpt>
      <trkpt lat="47.27543" lon="-2.32489">
        <ele>16.799999237061</ele>
        <time>2021-06-10T11:10:34.000Z</time>
      </trkpt>
      <trkpt lat="47.27544" lon="-2.32484">
        <ele>17.200000762939</ele>
        <time>2021-06-10T11:10:35.000Z</time>
      </trkpt>
      <trkpt lat="47.27545" lon="-2.32479">
        <ele>17.60000038147</ele>
        <time>2021-06-10T11:10:36.000Z</time>
      </trkpt>
      <trkpt lat="47.27547" lon="-2.32474">
        <ele>18</ele>
        <time>2021-06-10T11:10:37.000Z</time>
      </trkpt>
      <trkpt lat="47.27548" lon="-2.32469">
        <ele>18.39999961853</ele>
        <time>2021-06-10T11:10:38.000Z</time>
      </trkpt>
      <trkpt lat="47.27551" lon="-2.32464">
        <ele>18.799999237061</ele>
        <time>2021-06-10T11:10:39.000Z</time>
      </trkpt>
      <trkpt lat="47.27557" lon="-2.32447">
        <ele>18.799999237061</ele>
        <time>2021-06-10T11:10:42.000Z</time>
      </trkpt>
      <trkpt lat="47.27559" lon="-2.32441">
        <ele>19.200000762939</ele>
        <time>2021-06-10T11:10:43.000Z</time>
      </trkpt>
      <trkpt lat="47.27561" lon="-2.32435">
        <ele>19.60000038147</ele>
        <time>2021-06-10T11:10:44.000Z</time>
      </trkpt>
      <trkpt lat="47.27563" lon="-2.32429">
        <ele>20</ele>
        <time>2021-06-10T11:10:45.000Z</time>
      </trkpt>
      <trkpt lat="47.27564" lon="-2.32424">
        <ele>20.60000038147</ele>
        <time>2021-06-10T11:10:46.000Z</time>
      </trkpt>
      <trkpt lat="47.27565" lon="-2.32418">
        <ele>21</ele>
        <time>2021-06-10T11:10:47.000Z</time>
      </trkpt>
      <trkpt lat="47.27566" lon="-2.32406">
        <ele>21</ele>
        <time>2021-06-10T11:10:49.000Z</time>
      </trkpt>
      <trkpt lat="47.27575" lon="-2.32372">
        <ele>21</ele>
        <time>2021-06-10T11:10:55.000Z</time>
      </trkpt>
      <trkpt lat="47.27581" lon="-2.32362">
        <ele>21</ele>
        <time>2021-06-10T11:10:57.000Z</time>
      </trkpt>
      <trkpt lat="47.2759" lon="-2.32337">
        <ele>21</ele>
        <time>2021-06-10T11:11:01.000Z</time>
      </trkpt>
      <trkpt lat="47.27603" lon="-2.32303">
        <ele>21</ele>
        <time>2021-06-10T11:11:07.000Z</time>
      </trkpt>
      <trkpt lat="47.27606" lon="-2.32293">
        <ele>21</ele>
        <time>2021-06-10T11:11:09.000Z</time>
      </trkpt>
      <trkpt lat="47.27603" lon="-2.32283">
        <ele>21</ele>
        <time>2021-06-10T11:11:11.000Z</time>
      </trkpt>
      <trkpt lat="47.27595" lon="-2.32275">
        <ele>21</ele>
        <time>2021-06-10T11:11:13.000Z</time>
      </trkpt>
      <trkpt lat="47.27586" lon="-2.32267">
        <ele>21</ele>
        <time>2021-06-10T11:11:15.000Z</time>
      </trkpt>
      <trkpt lat="47.27547" lon="-2.32233">
        <ele>21</ele>
        <time>2021-06-10T11:11:22.000Z</time>
      </trkpt>
      <trkpt lat="47.27528" lon="-2.32215">
        <ele>20.39999961853</ele>
        <time>2021-06-10T11:11:25.000Z</time>
      </trkpt>
      <trkpt lat="47.27521" lon="-2.32207">
        <ele>20</ele>
        <time>2021-06-10T11:11:26.000Z</time>
      </trkpt>
      <trkpt lat="47.27515" lon="-2.32199">
        <ele>19.60000038147</ele>
        <time>2021-06-10T11:11:27.000Z</time>
      </trkpt>
      <trkpt lat="47.27509" lon="-2.32191">
        <ele>19</ele>
        <time>2021-06-10T11:11:28.000Z</time>
      </trkpt>
      <trkpt lat="47.27503" lon="-2.32182">
        <ele>18.60000038147</ele>
        <time>2021-06-10T11:11:29.000Z</time>
      </trkpt>
      <trkpt lat="47.2747" lon="-2.3214">
        <ele>18.60000038147</ele>
        <time>2021-06-10T11:11:34.000Z</time>
      </trkpt>
      <trkpt lat="47.27464" lon="-2.32132">
        <ele>18.200000762939</ele>
        <time>2021-06-10T11:11:35.000Z</time>
      </trkpt>
      <trkpt lat="47.27458" lon="-2.32124">
        <ele>17.799999237061</ele>
        <time>2021-06-10T11:11:36.000Z</time>
      </trkpt>
      <trkpt lat="47.27452" lon="-2.32116">
        <ele>17.39999961853</ele>
        <time>2021-06-10T11:11:37.000Z</time>
      </trkpt>
      <trkpt lat="47.27446" lon="-2.32108">
        <ele>17</ele>
        <time>2021-06-10T11:11:38.000Z</time>
      </trkpt>
      <trkpt lat="47.27441" lon="-2.32101">
        <ele>16.60000038147</ele>
        <time>2021-06-10T11:11:39.000Z</time>
      </trkpt>
      <trkpt lat="47.27429" lon="-2.32086">
        <ele>16.60000038147</ele>
        <time>2021-06-10T11:11:41.000Z</time>
      </trkpt>
      <trkpt lat="47.27383" lon="-2.32035">
        <ele>16.60000038147</ele>
        <time>2021-06-10T11:11:48.000Z</time>
      </trkpt>
      <trkpt lat="47.27376" lon="-2.32028">
        <ele>16.200000762939</ele>
        <time>2021-06-10T11:11:49.000Z</time>
      </trkpt>
      <trkpt lat="47.27369" lon="-2.3202">
        <ele>15.60000038147</ele>
        <time>2021-06-10T11:11:50.000Z</time>
      </trkpt>
      <trkpt lat="47.27361" lon="-2.32012">
        <ele>15.199999809265</ele>
        <time>2021-06-10T11:11:51.000Z</time>
      </trkpt>
      <trkpt lat="47.27354" lon="-2.32004">
        <ele>14.800000190735</ele>
        <time>2021-06-10T11:11:52.000Z</time>
      </trkpt>
      <trkpt lat="47.27347" lon="-2.31996">
        <ele>14.39999961853</ele>
        <time>2021-06-10T11:11:53.000Z</time>
      </trkpt>
      <trkpt lat="47.27333" lon="-2.31982">
        <ele>14.39999961853</ele>
        <time>2021-06-10T11:11:55.000Z</time>
      </trkpt>
      <trkpt lat="47.27315" lon="-2.31961">
        <ele>14</ele>
        <time>2021-06-10T11:11:58.000Z</time>
      </trkpt>
      <trkpt lat="47.27309" lon="-2.31956">
        <ele>13.60000038147</ele>
        <time>2021-06-10T11:11:59.000Z</time>
      </trkpt>
      <trkpt lat="47.27303" lon="-2.31951">
        <ele>13.199999809265</ele>
        <time>2021-06-10T11:12:00.000Z</time>
      </trkpt>
      <trkpt lat="47.27298" lon="-2.31945">
        <ele>12.800000190735</ele>
        <time>2021-06-10T11:12:01.000Z</time>
      </trkpt>
      <trkpt lat="47.27292" lon="-2.31941">
        <ele>12.39999961853</ele>
        <time>2021-06-10T11:12:02.000Z</time>
      </trkpt>
      <trkpt lat="47.27276" lon="-2.31931">
        <ele>12.39999961853</ele>
        <time>2021-06-10T11:12:05.000Z</time>
      </trkpt>
      <trkpt lat="47.27241" lon="-2.31922">
        <ele>12.39999961853</ele>
        <time>2021-06-10T11:12:11.000Z</time>
      </trkpt>
      <trkpt lat="47.27222" lon="-2.31914">
        <ele>12.39999961853</ele>
        <time>2021-06-10T11:12:14.000Z</time>
      </trkpt>
      <trkpt lat="47.2721" lon="-2.31907">
        <ele>12.39999961853</ele>
        <time>2021-06-10T11:12:16.000Z</time>
      </trkpt>
      <trkpt lat="47.27199" lon="-2.31897">
        <ele>12.39999961853</ele>
        <time>2021-06-10T11:12:18.000Z</time>
      </trkpt>
      <trkpt lat="47.27183" lon="-2.31881">
        <ele>12.39999961853</ele>
        <time>2021-06-10T11:12:21.000Z</time>
      </trkpt>
      <trkpt lat="47.27152" lon="-2.31842">
        <ele>12.39999961853</ele>
        <time>2021-06-10T11:12:28.000Z</time>
      </trkpt>
      <trkpt lat="47.2712" lon="-2.31794">
        <ele>12.39999961853</ele>
        <time>2021-06-10T11:12:36.000Z</time>
      </trkpt>
      <trkpt lat="47.27098" lon="-2.31771">
        <ele>12.800000190735</ele>
        <time>2021-06-10T11:12:41.000Z</time>
      </trkpt>
      <trkpt lat="47.27094" lon="-2.31767">
        <ele>13.199999809265</ele>
        <time>2021-06-10T11:12:42.000Z</time>
      </trkpt>
      <trkpt lat="47.27089" lon="-2.31763">
        <ele>13.60000038147</ele>
        <time>2021-06-10T11:12:43.000Z</time>
      </trkpt>
      <trkpt lat="47.27085" lon="-2.3176">
        <ele>14.199999809265</ele>
        <time>2021-06-10T11:12:44.000Z</time>
      </trkpt>
      <trkpt lat="47.2708" lon="-2.31756">
        <ele>14.60000038147</ele>
        <time>2021-06-10T11:12:45.000Z</time>
      </trkpt>
      <trkpt lat="47.27044" lon="-2.31727">
        <ele>14.60000038147</ele>
        <time>2021-06-10T11:12:53.000Z</time>
      </trkpt>
      <trkpt lat="47.27023" lon="-2.31708">
        <ele>15</ele>
        <time>2021-06-10T11:12:58.000Z</time>
      </trkpt>
      <trkpt lat="47.27019" lon="-2.31705">
        <ele>15.39999961853</ele>
        <time>2021-06-10T11:12:59.000Z</time>
      </trkpt>
      <trkpt lat="47.27014" lon="-2.31701">
        <ele>15.800000190735</ele>
        <time>2021-06-10T11:13:00.000Z</time>
      </trkpt>
      <trkpt lat="47.27009" lon="-2.31698">
        <ele>16.200000762939</ele>
        <time>2021-06-10T11:13:01.000Z</time>
      </trkpt>
      <trkpt lat="47.27004" lon="-2.31695">
        <ele>16.60000038147</ele>
        <time>2021-06-10T11:13:02.000Z</time>
      </trkpt>
      <trkpt lat="47.26985" lon="-2.31683">
        <ele>16.60000038147</ele>
        <time>2021-06-10T11:13:06.000Z</time>
      </trkpt>
      <trkpt lat="47.26973" lon="-2.31674">
        <ele>17</ele>
        <time>2021-06-10T11:13:09.000Z</time>
      </trkpt>
      <trkpt lat="47.26968" lon="-2.31672">
        <ele>17.60000038147</ele>
        <time>2021-06-10T11:13:10.000Z</time>
      </trkpt>
      <trkpt lat="47.26964" lon="-2.31669">
        <ele>18</ele>
        <time>2021-06-10T11:13:11.000Z</time>
      </trkpt>
      <trkpt lat="47.26961" lon="-2.31666">
        <ele>18.39999961853</ele>
        <time>2021-06-10T11:13:12.000Z</time>
      </trkpt>
      <trkpt lat="47.26957" lon="-2.31664">
        <ele>18.799999237061</ele>
        <time>2021-06-10T11:13:13.000Z</time>
      </trkpt>
      <trkpt lat="47.26943" lon="-2.31654">
        <ele>19.39999961853</ele>
        <time>2021-06-10T11:13:17.000Z</time>
      </trkpt>
      <trkpt lat="47.26939" lon="-2.31652">
        <ele>19.799999237061</ele>
        <time>2021-06-10T11:13:18.000Z</time>
      </trkpt>
      <trkpt lat="47.26935" lon="-2.3165">
        <ele>20.200000762939</ele>
        <time>2021-06-10T11:13:19.000Z</time>
      </trkpt>
      <trkpt lat="47.26931" lon="-2.31648">
        <ele>21</ele>
        <time>2021-06-10T11:13:20.000Z</time>
      </trkpt>
      <trkpt lat="47.26908" lon="-2.31635">
        <ele>21.39999961853</ele>
        <time>2021-06-10T11:13:26.000Z</time>
      </trkpt>
      <trkpt lat="47.26904" lon="-2.31633">
        <ele>21.799999237061</ele>
        <time>2021-06-10T11:13:27.000Z</time>
      </trkpt>
      <trkpt lat="47.269" lon="-2.31632">
        <ele>22.200000762939</ele>
        <time>2021-06-10T11:13:28.000Z</time>
      </trkpt>
      <trkpt lat="47.26896" lon="-2.31632">
        <ele>22.60000038147</ele>
        <time>2021-06-10T11:13:29.000Z</time>
      </trkpt>
      <trkpt lat="47.26893" lon="-2.31632">
        <ele>23</ele>
        <time>2021-06-10T11:13:30.000Z</time>
      </trkpt>
      <trkpt lat="47.26889" lon="-2.31632">
        <ele>23</ele>
        <time>2021-06-10T11:13:31.000Z</time>
      </trkpt>
      <trkpt lat="47.26884" lon="-2.31636">
        <ele>23</ele>
        <time>2021-06-10T11:13:33.000Z</time>
      </trkpt>
      <trkpt lat="47.26882" lon="-2.31641">
        <ele>23</ele>
        <time>2021-06-10T11:13:34.000Z</time>
      </trkpt>
      <trkpt lat="47.26883" lon="-2.31668">
        <ele>23</ele>
        <time>2021-06-10T11:13:38.000Z</time>
      </trkpt>
      <trkpt lat="47.2689" lon="-2.31722">
        <ele>23</ele>
        <time>2021-06-10T11:13:45.000Z</time>
      </trkpt>
      <trkpt lat="47.2689" lon="-2.3173">
        <ele>23</ele>
        <time>2021-06-10T11:13:46.000Z</time>
      </trkpt>
      <trkpt lat="47.26885" lon="-2.31755">
        <ele>23</ele>
        <time>2021-06-10T11:13:49.000Z</time>
      </trkpt>
      <trkpt lat="47.26869" lon="-2.3178">
        <ele>23</ele>
        <time>2021-06-10T11:13:53.000Z</time>
      </trkpt>
      <trkpt lat="47.26853" lon="-2.3179">
        <ele>23</ele>
        <time>2021-06-10T11:13:56.000Z</time>
      </trkpt>
      <trkpt lat="47.26841" lon="-2.31795">
        <ele>23</ele>
        <time>2021-06-10T11:13:58.000Z</time>
      </trkpt>
      <trkpt lat="47.26801" lon="-2.31814">
        <ele>23</ele>
        <time>2021-06-10T11:14:05.000Z</time>
      </trkpt>
      <trkpt lat="47.26759" lon="-2.31841">
        <ele>23</ele>
        <time>2021-06-10T11:14:13.000Z</time>
      </trkpt>
      <trkpt lat="47.26737" lon="-2.31856">
        <ele>23</ele>
        <time>2021-06-10T11:14:18.000Z</time>
      </trkpt>
      <trkpt lat="47.26733" lon="-2.31853">
        <ele>23</ele>
        <time>2021-06-10T11:14:19.000Z</time>
      </trkpt>
      <trkpt lat="47.26726" lon="-2.31836">
        <ele>23</ele>
        <time>2021-06-10T11:14:22.000Z</time>
      </trkpt>
      <trkpt lat="47.26724" lon="-2.31829">
        <ele>23</ele>
        <time>2021-06-10T11:14:23.000Z</time>
      </trkpt>
      <trkpt lat="47.26717" lon="-2.31809">
        <ele>23.39999961853</ele>
        <time>2021-06-10T11:14:26.000Z</time>
      </trkpt>
      <trkpt lat="47.26715" lon="-2.31802">
        <ele>24</ele>
        <time>2021-06-10T11:14:27.000Z</time>
      </trkpt>
      <trkpt lat="47.26713" lon="-2.31795">
        <ele>24.39999961853</ele>
        <time>2021-06-10T11:14:28.000Z</time>
      </trkpt>
      <trkpt lat="47.26712" lon="-2.31788">
        <ele>24.799999237061</ele>
        <time>2021-06-10T11:14:29.000Z</time>
      </trkpt>
      <trkpt lat="47.2671" lon="-2.31781">
        <ele>25.200000762939</ele>
        <time>2021-06-10T11:14:30.000Z</time>
      </trkpt>
      <trkpt lat="47.26708" lon="-2.31774">
        <ele>25.200000762939</ele>
        <time>2021-06-10T11:14:31.000Z</time>
      </trkpt>
      <trkpt lat="47.26694" lon="-2.31719">
        <ele>25.200000762939</ele>
        <time>2021-06-10T11:14:39.000Z</time>
      </trkpt>
      <trkpt lat="47.26677" lon="-2.3166">
        <ele>25.200000762939</ele>
        <time>2021-06-10T11:14:47.000Z</time>
      </trkpt>
      <trkpt lat="47.26658" lon="-2.31613">
        <ele>25.200000762939</ele>
        <time>2021-06-10T11:14:54.000Z</time>
      </trkpt>
      <trkpt lat="47.26638" lon="-2.31562">
        <ele>25.200000762939</ele>
        <time>2021-06-10T11:15:02.000Z</time>
      </trkpt>
      <trkpt lat="47.26625" lon="-2.31558">
        <ele>25.200000762939</ele>
        <time>2021-06-10T11:15:05.000Z</time>
      </trkpt>
      <trkpt lat="47.26616" lon="-2.31564">
        <ele>24.799999237061</ele>
        <time>2021-06-10T11:15:07.000Z</time>
      </trkpt>
      <trkpt lat="47.26611" lon="-2.31569">
        <ele>24.39999961853</ele>
        <time>2021-06-10T11:15:08.000Z</time>
      </trkpt>
      <trkpt lat="47.26605" lon="-2.31574">
        <ele>24</ele>
        <time>2021-06-10T11:15:09.000Z</time>
      </trkpt>
      <trkpt lat="47.266" lon="-2.31579">
        <ele>23.60000038147</ele>
        <time>2021-06-10T11:15:10.000Z</time>
      </trkpt>
      <trkpt lat="47.26594" lon="-2.31583">
        <ele>23.200000762939</ele>
        <time>2021-06-10T11:15:11.000Z</time>
      </trkpt>
      <trkpt lat="47.26581" lon="-2.31594">
        <ele>23.200000762939</ele>
        <time>2021-06-10T11:15:13.000Z</time>
      </trkpt>
      <trkpt lat="47.26565" lon="-2.31606">
        <ele>22.799999237061</ele>
        <time>2021-06-10T11:15:15.000Z</time>
      </trkpt>
      <trkpt lat="47.26558" lon="-2.31612">
        <ele>22.200000762939</ele>
        <time>2021-06-10T11:15:16.000Z</time>
      </trkpt>
      <trkpt lat="47.2655" lon="-2.31617">
        <ele>21.799999237061</ele>
        <time>2021-06-10T11:15:17.000Z</time>
      </trkpt>
      <trkpt lat="47.26541" lon="-2.31622">
        <ele>21.39999961853</ele>
        <time>2021-06-10T11:15:18.000Z</time>
      </trkpt>
      <trkpt lat="47.26533" lon="-2.31627">
        <ele>20.799999237061</ele>
        <time>2021-06-10T11:15:19.000Z</time>
      </trkpt>
      <trkpt lat="47.26525" lon="-2.31632">
        <ele>20.200000762939</ele>
        <time>2021-06-10T11:15:20.000Z</time>
      </trkpt>
      <trkpt lat="47.26517" lon="-2.31636">
        <ele>19.60000038147</ele>
        <time>2021-06-10T11:15:21.000Z</time>
      </trkpt>
      <trkpt lat="47.26508" lon="-2.3164">
        <ele>19.200000762939</ele>
        <time>2021-06-10T11:15:22.000Z</time>
      </trkpt>
      <trkpt lat="47.265" lon="-2.31643">
        <ele>18.200000762939</ele>
        <time>2021-06-10T11:15:23.000Z</time>
      </trkpt>
      <trkpt lat="47.26491" lon="-2.31645">
        <ele>17.799999237061</ele>
        <time>2021-06-10T11:15:24.000Z</time>
      </trkpt>
      <trkpt lat="47.26482" lon="-2.31648">
        <ele>17.39999961853</ele>
        <time>2021-06-10T11:15:25.000Z</time>
      </trkpt>
      <trkpt lat="47.26473" lon="-2.3165">
        <ele>16.799999237061</ele>
        <time>2021-06-10T11:15:26.000Z</time>
      </trkpt>
      <trkpt lat="47.26463" lon="-2.31651">
        <ele>16.39999961853</ele>
        <time>2021-06-10T11:15:27.000Z</time>
      </trkpt>
      <trkpt lat="47.26446" lon="-2.31653">
        <ele>16</ele>
        <time>2021-06-10T11:15:29.000Z</time>
      </trkpt>
      <trkpt lat="47.26437" lon="-2.31654">
        <ele>15.60000038147</ele>
        <time>2021-06-10T11:15:30.000Z</time>
      </trkpt>
      <trkpt lat="47.26429" lon="-2.31656">
        <ele>15.199999809265</ele>
        <time>2021-06-10T11:15:31.000Z</time>
      </trkpt>
      <trkpt lat="47.26421" lon="-2.31657">
        <ele>14.60000038147</ele>
        <time>2021-06-10T11:15:32.000Z</time>
      </trkpt>
      <trkpt lat="47.26413" lon="-2.31656">
        <ele>14.199999809265</ele>
        <time>2021-06-10T11:15:33.000Z</time>
      </trkpt>
      <trkpt lat="47.26403" lon="-2.31645">
        <ele>13.800000190735</ele>
        <time>2021-06-10T11:15:35.000Z</time>
      </trkpt>
      <trkpt lat="47.26401" lon="-2.31638">
        <ele>13.39999961853</ele>
        <time>2021-06-10T11:15:36.000Z</time>
      </trkpt>
      <trkpt lat="47.264" lon="-2.3163">
        <ele>12.800000190735</ele>
        <time>2021-06-10T11:15:37.000Z</time>
      </trkpt>
      <trkpt lat="47.264" lon="-2.31622">
        <ele>12.39999961853</ele>
        <time>2021-06-10T11:15:38.000Z</time>
      </trkpt>
      <trkpt lat="47.264" lon="-2.31614">
        <ele>12</ele>
        <time>2021-06-10T11:15:39.000Z</time>
      </trkpt>
      <trkpt lat="47.26401" lon="-2.31599">
        <ele>12</ele>
        <time>2021-06-10T11:15:41.000Z</time>
      </trkpt>
      <trkpt lat="47.26401" lon="-2.31592">
        <ele>12</ele>
        <time>2021-06-10T11:15:42.000Z</time>
      </trkpt>
      <trkpt lat="47.26401" lon="-2.31578">
        <ele>12</ele>
        <time>2021-06-10T11:15:44.000Z</time>
      </trkpt>
      <trkpt lat="47.26405" lon="-2.31552">
        <ele>12</ele>
        <time>2021-06-10T11:15:49.000Z</time>
      </trkpt>
      <trkpt lat="47.26413" lon="-2.31551">
        <ele>12</ele>
        <time>2021-06-10T11:15:52.000Z</time>
      </trkpt>
      <trkpt lat="47.26417" lon="-2.31552">
        <ele>12</ele>
        <time>2021-06-10T11:15:56.000Z</time>
      </trkpt>
    </trkseg>
  </trk>
</gpx>